# Wetter Temperatur Luftdruck Luftfeuchtigkeit Sichtweite Windgeschwindigkeit Windrichtung Zeit
1 Clear 12 1014 60 10000 2.24 38 08:27 02.10.2022
2 Clear 12 1014 60 10000 2.24 38 08:27 02.10.2022
3 Clear 14 1009 54 10000 1.79 59 05:19 02.10.2022
4 Clear 17 1011 44 10000 2.57 350 00:57 02.10.2022
5 Clear 17 1011 44 10000 2.57 340 00:37 02.10.2022
6 Clear 18 1011 40 10000 1.54 350 23:24 01.10.2022
7 Clear 19 1010 36 10000 1.03 80 21:38 01.10.2022
8 Clear 24 1026 26 10000 1.54 0 18:54 01.10.2022
9 Clear 23 1026 25 10000 2.06 320 17:28 01.10.2022
10 Clear 21 1028 34 10000 3.09 180 14:50 01.10.2022
11 Clear 20 1028 39 10000 2.06 170 13:44 01.10.2022
12 Clear 18 1030 45 10000 1.54 50 12:34 01.10.2022
13 Clear 15 1027 53 10000 1.54 340 11:22 01.10.2022
14 Clear 14 1027 57 10000 1.03 0 10:47 01.10.2022
15 Clear 13 1027 61 10000 1.54 20 10:26 01.10.2022
16 Clear 10 1026 67 10000 2.06 50 09:21 01.10.2022
17 Clear 10 1011 71 10000 1.03 10 08:26 01.10.2022
18 Clear 12 1009 64 10000 0.51 0 03:39 01.10.2022
19 Clear 13 1006 57 10000 1.54 340 01:31 01.10.2022
20 Clear 15 1007 49 10000 1.34 81 23:21 30.09.2022
21 Clear 16 1006 46 10000 2.24 51 21:57 30.09.2022
22 Clear 17 1007 43 10000 3.6 50 20:45 30.09.2022
23 Clear 18 1006 41 10000 3.09 40 20:20 30.09.2022
24 Clouds 19 1017 35 10000 4.47 45 17:59 30.09.2022
25 Clouds 19 1017 39 10000 3.6 20 16:31 30.09.2022
26 Clouds 18 1017 39 10000 5.14 30 14:23 30.09.2022
27 Clear 16 1017 48 10000 4.12 40 12:29 30.09.2022
28 Clear 15 1017 50 10000 2.06 360 11:55 30.09.2022
29 Clear 10 1015 69 10000 1.03 0 08:57 30.09.2022
30 Clear 11 1013 64 10000 3.13 55 06:38 30.09.2022
31 Clouds 12 1012 60 10000 6.26 23 02:51 30.09.2022
32 Clouds 13 1011 71 10000 3.58 23 00:53 30.09.2022
33 Clouds 14 1008 74 10000 2.57 310 21:39 29.09.2022
34 Clouds 13 1008 74 10000 4.63 280 21:19 29.09.2022
35 Clouds 13 1008 74 10000 4.63 280 21:19 29.09.2022
36 Clouds 15 1007 74 10000 6.17 240 18:56 29.09.2022
37 Clouds 15 1007 74 10000 5.14 230 17:49 29.09.2022
38 Clouds 14 1007 84 10000 5.66 230 16:29 29.09.2022
39 Rain 16 1009 62 10000 7.72 240 15:37 29.09.2022
40 Rain 16 1009 58 10000 7.2 250 14:59 29.09.2022
41 Clear 15 1010 58 10000 6.17 250 12:22 29.09.2022
42 Clear 13 1009 61 10000 6.69 300 08:44 29.09.2022
43 Clear 15 1011 59 10000 9.26 280 04:22 29.09.2022
44 Clear 18 1012 54 10000 7.2 290 01:47 29.09.2022
45 Clear 19 1013 45 10000 8.23 280 23:20 28.09.2022
46 Clear 20 1013 40 10000 7.2 300 21:31 28.09.2022
47 Clear 20 1013 39 10000 6.69 280 20:51 28.09.2022
48 Clear 22 1012 38 10000 6.17 270 19:56 28.09.2022
49 Clear 22 1013 42 10000 6.69 270 16:35 28.09.2022
50 Clear 20 1016 47 10000 6.17 280 13:28 28.09.2022
51 Clear 20 1016 46 10000 6.17 280 13:28 28.09.2022
52 Clear 18 1017 51 10000 5.66 300 11:45 28.09.2022
53 Clear 15 1017 58 10000 2.57 290 09:36 28.09.2022
54 Clear 13 1016 64 10000 1.54 350 07:43 28.09.2022
55 Clear 14 1017 57 10000 0.89 236 05:37 28.09.2022
56 Clear 16 1018 50 10000 1.54 160 01:44 28.09.2022
57 Clear 17 1018 48 10000 2.57 270 00:28 28.09.2022
58 Clear 19 1018 42 10000 1.54 340 22:40 27.09.2022
59 Clear 20 1017 38 10000 3.6 350 21:20 27.09.2022
60 Clear 21 1017 35 10000 5.14 310 20:31 27.09.2022
61 Clear 22 1016 30 10000 5.66 290 19:40 27.09.2022
62 Clear 23 1016 29 10000 4.63 290 17:47 27.09.2022
63 Clear 23 1017 30 10000 4.12 320 16:50 27.09.2022
64 Clear 22 1017 32 10000 4.63 280 15:18 27.09.2022
65 Clear 20 1017 38 10000 4.12 300 13:52 27.09.2022
66 Clear 18 1018 43 10000 3.6 280 12:37 27.09.2022
67 Clear 15 1018 56 10000 1.34 189 10:33 27.09.2022
68 Clear 11 1017 70 10000 3.09 30 07:51 27.09.2022
69 Clear 14 1017 60 10000 1.03 0 04:28 27.09.2022
70 Clear 15 1018 53 10000 2.06 170 01:37 27.09.2022
71 Clear 16 1017 49 10000 2.24 57 23:52 26.09.2022
72 Clear 17 1017 48 10000 2.68 18 23:24 26.09.2022
73 Clear 19 1016 30 10000 3.09 290 21:20 26.09.2022
74 Clear 22 1015 29 10000 2.06 260 19:44 26.09.2022
75 Clear 22 1015 32 10000 2.06 290 18:39 26.09.2022
76 Clouds 22 1015 29 10000 2.06 0 17:24 26.09.2022
77 Clouds 20 1015 36 10000 2.06 300 15:23 26.09.2022
78 Clouds 16 1017 48 10000 4.12 20 12:31 26.09.2022
79 Clouds 13 1016 57 10000 6.69 30 10:42 26.09.2022
80 Clouds 13 1016 58 10000 6.69 30 10:23 26.09.2022
81 Clouds 12 1016 60 10000 5.66 30 09:57 26.09.2022
82 Clouds 12 1015 60 10000 5.66 30 09:27 26.09.2022
83 Clouds 12 1015 63 10000 6.17 30 08:59 26.09.2022
84 Clear 13 1014 58 10000 4.47 61 05:30 26.09.2022
85 Clear 15 1015 52 10000 4.47 36 01:57 26.09.2022
86 Clear 16 1014 44 10000 7.15 68 23:24 25.09.2022
87 Clouds 18 1013 37 10000 4.47 85 21:44 25.09.2022
88 Clear 19 1012 34 10000 6.69 20 20:59 25.09.2022
89 Clear 19 1011 33 10000 6.69 20 20:34 25.09.2022
90 Clear 20 1011 30 10000 4.63 20 18:49 25.09.2022
91 Clear 20 1011 30 10000 4.63 20 18:24 25.09.2022
92 Clear 21 1012 31 10000 4.12 10 17:23 25.09.2022
93 Clear 20 1012 34 10000 5.66 30 15:59 25.09.2022
94 Clear 18 1013 39 10000 5.66 20 14:37 25.09.2022
95 Clear 18 1014 41 10000 7.2 30 13:58 25.09.2022
96 Clear 13 1015 57 10000 7.2 30 10:38 25.09.2022
97 Clear 12 1014 62 10000 6.69 30 09:37 25.09.2022
98 Clouds 12 1014 67 10000 3.13 72 07:41 25.09.2022
99 Clouds 13 1014 65 10000 4.02 77 05:19 25.09.2022
100 Clear 17 1014 56 10000 5.36 68 23:36 24.09.2022
101 Clear 20 1013 41 10000 2.57 360 21:19 24.09.2022
102 Clear 23 1012 31 10000 5.66 350 19:34 24.09.2022
103 Clear 24 1012 29 10000 5.66 290 18:57 24.09.2022
104 Clouds 25 1012 32 10000 5.66 260 16:50 24.09.2022
105 Clouds 24 1013 35 10000 2.68 270 15:23 24.09.2022
106 Clouds 24 1013 35 10000 2.68 270 15:23 24.09.2022
107 Clouds 23 1014 39 10000 2.06 0 14:36 24.09.2022
108 Clear 22 1014 44 10000 2.06 0 13:18 24.09.2022
109 Clear 21 1015 46 10000 1.79 76 12:23 24.09.2022
110 Clear 18 1014 57 10000 2.57 320 09:59 24.09.2022
111 Clear 17 1013 58 10000 1.54 280 08:58 24.09.2022
112 Clear 17 1012 54 10000 1.54 240 07:41 24.09.2022
113 Clear 19 1013 46 10000 2.06 270 04:53 24.09.2022
114 Clear 20 1014 43 10000 1.03 0 04:19 24.09.2022
115 Clear 23 1015 35 10000 4.63 240 22:54 23.09.2022
116 Clear 24 1015 31 10000 5.14 230 21:37 23.09.2022
117 Clear 24 1015 30 10000 5.14 230 21:19 23.09.2022
118 Clear 25 1015 28 10000 5.66 250 20:43 23.09.2022
119 Clear 26 1015 28 10000 5.66 230 19:19 23.09.2022
120 Clear 26 1017 26 10000 5.66 240 16:23 23.09.2022
121 Clear 23 1019 50 10000 2.06 220 12:52 23.09.2022
122 Clear 18 1017 77 10000 1.03 0 09:36 23.09.2022
123 Clear 18 1018 80 10000 1.54 140 06:51 23.09.2022
124 Clear 23 1018 50 10000 3.6 220 00:44 23.09.2022
125 Clear 24 1018 46 10000 4.12 230 23:28 22.09.2022
126 Clear 25 1018 44 10000 4.12 240 22:27 22.09.2022
127 Clear 25 1018 43 10000 3.09 250 21:24 22.09.2022
128 Clear 27 1017 38 10000 4.12 250 20:18 22.09.2022
129 Clouds 27 1017 35 10000 3.6 220 18:30 22.09.2022
130 Clear 26 1019 43 10000 2.06 0 14:48 22.09.2022
131 Clear 19 1019 62 10000 2.06 50 10:38 22.09.2022
132 Clear 19 1019 64 10000 2.06 50 10:18 22.09.2022
133 Clear 17 1018 77 10000 1.54 10 07:48 22.09.2022
134 Clear 18 1017 77 10000 1.03 330 04:37 22.09.2022
135 Clear 22 1018 57 10000 4.12 250 23:46 21.09.2022
136 Clear 23 1017 55 10000 4.12 260 22:28 21.09.2022
137 Clouds 24 1016 51 10000 3.09 220 20:55 21.09.2022
138 Clouds 26 1016 51 10000 8.75 170 18:30 21.09.2022
139 Clouds 28 1016 37 10000 4.92 182 17:39 21.09.2022
140 Clouds 28 1018 36 10000 2.06 0 15:29 21.09.2022
141 Clear 25 1019 50 10000 1.54 0 13:39 21.09.2022
142 Clear 22 1019 57 10000 2.06 0 11:34 21.09.2022
143 Clear 21 1019 58 10000 2.06 90 10:52 21.09.2022
144 Clear 18 1019 61 10000 1.54 90 09:38 21.09.2022
145 Clear 17 1005 65 10000 1.54 100 08:24 21.09.2022
146 Clear 20 1003 70 10000 1.54 70 02:54 21.09.2022
147 Clear 20 1003 68 10000 1.79 0 02:34 21.09.2022
148 Clear 21 1003 66 9000 1.79 30 01:50 21.09.2022
149 Clear 22 999 62 10000 1.54 360 23:58 20.09.2022
150 Clear 24 1018 51 10000 1.54 200 21:40 20.09.2022
151 Clear 26 1018 47 10000 1.54 150 20:26 20.09.2022
152 Clear 28 1018 41 10000 2.06 210 17:54 20.09.2022
153 Clear 26 1019 48 10000 3.09 40 15:33 20.09.2022
154 Clear 24 1020 59 10000 2.57 0 13:59 20.09.2022
155 Clear 21 1020 69 10000 3.09 70 11:28 20.09.2022
156 Clear 16 1019 94 10000 2.06 20 08:36 20.09.2022
157 Clouds 17 1019 94 10000 2.57 340 07:37 20.09.2022
158 Rain 18 1019 88 8000 4.12 320 04:35 20.09.2022
159 Rain 21 999 69 10000 4.63 310 01:32 20.09.2022
160 Clouds 24 1018 53 10000 2.24 94 22:41 19.09.2022
161 Clear 25 1017 51 10000 2.06 350 21:28 19.09.2022
162 Clear 26 1017 45 10000 3.6 30 20:40 19.09.2022
163 Clear 27 1016 44 10000 3.09 340 18:45 19.09.2022
164 Clear 27 1017 46 10000 2.06 310 16:48 19.09.2022
165 Clear 24 1018 63 10000 4.12 70 13:47 19.09.2022
166 Clear 22 1019 67 10000 3.09 90 11:57 19.09.2022
167 Clouds 19 1005 77 10000 2.68 202 09:44 19.09.2022
168 Clouds 18 1018 80 10000 3.6 230 08:32 19.09.2022
169 Clear 20 1017 75 10000 1.54 0 03:37 19.09.2022
170 Clear 23 1017 62 10000 4.63 130 00:44 19.09.2022
171 Clouds 25 1016 50 10000 2.68 175 22:33 18.09.2022
172 Clouds 27 1015 44 10000 1.54 100 21:19 18.09.2022
173 Clouds 28 1015 38 10000 3.6 70 19:33 18.09.2022
174 Clouds 29 1015 38 10000 2.57 120 17:52 18.09.2022
175 Clouds 28 1016 40 10000 3.6 120 16:49 18.09.2022
176 Clouds 27 1017 48 10000 3.09 0 14:51 18.09.2022
177 Clouds 25 1017 54 10000 3.6 120 13:35 18.09.2022
178 Clouds 23 1018 60 10000 3.6 50 12:20 18.09.2022
179 Clouds 19 1017 65 10000 3.6 40 09:44 18.09.2022
180 Clear 21 1015 44 10000 2.24 50 01:44 18.09.2022
181 Clear 21 1015 43 10000 3.09 340 01:20 18.09.2022
182 Clear 23 1014 38 10000 2.06 350 22:57 17.09.2022
183 Clear 25 1013 35 10000 2.06 10 20:56 17.09.2022
184 Clear 28 1013 29 10000 2.06 350 19:39 17.09.2022
185 Clouds 28 1013 31 10000 1.54 230 18:30 17.09.2022
186 Clear 25 1015 30 10000 3.09 50 14:27 17.09.2022
187 Clear 24 1016 35 10000 3.09 0 13:32 17.09.2022
188 Clear 19 1016 55 10000 4.12 30 10:50 17.09.2022
189 Clear 15 1015 71 10000 4.63 20 08:30 17.09.2022
190 Clear 17 1015 70 10000 3.58 52 06:21 17.09.2022
191 Clear 23 1015 55 10000 3.13 39 23:42 16.09.2022
192 Clear 23 1015 56 10000 0.89 22 22:27 16.09.2022
193 Clouds 25 1014 48 10000 2.06 280 20:54 16.09.2022
194 Clouds 25 1014 49 10000 2.06 280 20:54 16.09.2022
195 Clouds 25 1014 49 10000 2.06 280 20:54 16.09.2022
196 Clouds 26 1014 40 10000 2.06 270 19:41 16.09.2022
197 Clouds 26 1015 42 10000 2.06 0 16:26 16.09.2022
198 Clouds 25 1016 49 10000 2.57 140 14:52 16.09.2022
199 Clouds 24 1017 55 10000 1.54 120 13:26 16.09.2022
200 Clear 19 1017 74 10000 2.06 40 10:27 16.09.2022
201 Clear 16 1016 92 10000 1.54 360 07:52 16.09.2022
202 Clear 17 1016 90 10000 1.03 0 06:48 16.09.2022
203 Clear 17 1016 89 10000 1.03 360 05:58 16.09.2022
204 Clear 19 1016 83 10000 1.54 350 02:35 16.09.2022
205 Clear 20 1016 70 10000 1.54 350 22:20 15.09.2022
206 Clouds 21 1015 66 10000 3.6 300 20:39 15.09.2022
207 Clouds 23 1015 60 10000 4.12 360 19:42 15.09.2022
208 Clouds 24 1015 49 10000 3.6 250 18:26 15.09.2022
209 Clouds 24 1015 49 10000 3.6 210 17:29 15.09.2022
210 Clouds 23 1016 60 10000 1.54 170 15:49 15.09.2022
211 Clouds 20 1017 82 10000 2.57 260 12:51 15.09.2022
212 Drizzle 18 1017 92 10000 1.54 0 11:48 15.09.2022
213 Drizzle 17 1016 91 9000 2.57 230 09:46 15.09.2022
214 Clouds 18 1015 82 10000 2.06 180 07:45 15.09.2022
215 Clouds 19 1015 76 10000 2.57 190 03:48 15.09.2022
216 Clouds 20 1015 64 10000 2.68 248 23:32 14.09.2022
217 Clouds 22 1014 57 10000 4.12 250 20:48 14.09.2022
218 Clouds 23 1013 52 10000 5.14 240 19:33 14.09.2022
219 Clouds 23 1013 51 10000 5.66 230 18:26 14.09.2022
220 Clouds 23 1013 50 10000 5.66 220 16:37 14.09.2022
221 Clouds 23 1013 49 10000 7.2 260 15:29 14.09.2022
222 Clouds 21 1014 58 10000 5.14 200 12:57 14.09.2022
223 Clouds 18 1013 77 10000 2.68 211 10:40 14.09.2022
224 Clouds 16 1012 87 10000 1.54 120 08:41 14.09.2022
225 Clear 16 1012 87 10000 1.54 140 06:50 14.09.2022
226 Clouds 16 1012 88 8000 2.06 160 06:31 14.09.2022
227 Clouds 17 1011 84 9000 1.03 220 03:21 14.09.2022
228 Clear 18 1012 83 10000 4.12 260 01:39 14.09.2022
229 Clear 18 1012 82 10000 4.12 260 01:19 14.09.2022
230 Clouds 19 1012 69 10000 4.92 0 23:55 13.09.2022
231 Clouds 19 1011 68 10000 2.57 260 23:37 13.09.2022
232 Clouds 19 1011 68 10000 3.09 250 23:19 13.09.2022
233 Clouds 20 1011 67 10000 6.17 250 22:32 13.09.2022
234 Clouds 22 1010 64 10000 7.72 250 21:40 13.09.2022
235 Clouds 24 1009 52 10000 8.75 190 19:26 13.09.2022
236 Clouds 24 1010 59 10000 9.26 200 16:45 13.09.2022
237 Clouds 25 1010 62 10000 9.26 190 15:38 13.09.2022
238 Clouds 21 1011 77 10000 7.72 180 13:41 13.09.2022
239 Clouds 19 1012 88 10000 4.63 180 11:34 13.09.2022
240 Rain 17 1010 90 9000 4.02 135 08:20 13.09.2022
241 Clear 25 1011 41 10000 11.18 205 02:58 13.09.2022
242 Rain 26 1012 38 10000 10.29 210 23:23 12.09.2022
243 Rain 26 1012 38 10000 10.29 210 23:23 12.09.2022
244 Clear 26 1012 43 10000 6.71 180 22:45 12.09.2022
245 Clear 26 1012 41 10000 9.77 150 21:35 12.09.2022
246 Rain 27 1012 34 10000 9.26 200 20:24 12.09.2022
247 Drizzle 26 1012 43 10000 4.63 120 18:41 12.09.2022
248 Clouds 28 1014 42 10000 7.2 230 15:53 12.09.2022
249 Clouds 29 1014 35 10000 4.12 220 13:24 12.09.2022
250 Clear 26 1014 45 10000 3.6 100 10:56 12.09.2022
251 Clear 23 1014 56 10000 1.79 39 09:33 12.09.2022
252 Rain 25 1014 40 10000 2.06 340 04:42 12.09.2022
253 Clouds 27 1014 36 9000 7.2 150 02:57 12.09.2022
254 Clear 26 1014 35 10000 0.51 0 23:18 11.09.2022
255 Clouds 30 1013 29 10000 1.54 90 21:41 11.09.2022
256 Clear 32 1013 22 10000 1.54 240 20:45 11.09.2022
257 Clear 34 1014 20 10000 3.09 250 19:46 11.09.2022
258 Clear 34 1014 20 10000 3.09 250 19:22 11.09.2022
259 Clear 34 1015 20 10000 4.63 220 17:57 11.09.2022
260 Clear 33 1016 21 10000 4.63 200 16:28 11.09.2022
261 Clear 30 1018 34 10000 2.24 182 14:18 11.09.2022
262 Clear 27 1018 41 10000 2.68 137 12:32 11.09.2022
263 Clear 21 1018 50 10000 3.09 30 08:27 11.09.2022
264 Clear 22 1018 49 9000 1.54 340 06:33 11.09.2022
265 Clear 26 1018 38 10000 1.34 293 00:49 11.09.2022
266 Clear 28 1018 35 10000 2.06 260 22:54 10.09.2022
267 Clear 31 1017 28 10000 3.6 230 20:55 10.09.2022
268 Clear 32 1017 25 10000 4.12 240 19:46 10.09.2022
269 Clear 33 1017 23 10000 4.63 240 19:27 10.09.2022
270 Clear 33 1018 24 10000 4.63 230 17:59 10.09.2022
271 Clear 31 1019 28 10000 4.12 220 15:45 10.09.2022
272 Clear 30 1020 31 10000 3.6 200 14:37 10.09.2022
273 Clear 27 1021 39 10000 2.06 140 12:52 10.09.2022
274 Clear 23 1021 44 10000 2.06 90 10:35 10.09.2022
275 Clear 21 1020 48 10000 2.68 67 09:24 10.09.2022
276 Clear 20 1008 52 10000 2.57 50 08:27 10.09.2022
277 Clear 21 1006 48 10000 2.24 39 05:50 10.09.2022
278 Clear 25 1006 38 10000 2.24 12 23:56 09.09.2022
279 Clear 26 1006 38 10000 2.06 330 23:29 09.09.2022
280 Clear 28 1018 36 10000 2.57 200 21:24 09.09.2022
281 Clear 29 1018 32 10000 3.09 220 20:28 09.09.2022
282 Clouds 30 1018 31 10000 3.09 270 19:23 09.09.2022
283 Clouds 30 1018 31 10000 3.09 210 18:33 09.09.2022
284 Clouds 29 1019 32 10000 4.12 210 16:18 09.09.2022
285 Clouds 27 1021 37 10000 2.68 296 13:48 09.09.2022
286 Clouds 24 1021 48 10000 3.6 270 11:52 09.09.2022
287 Clear 21 1020 61 10000 3.09 280 09:21 09.09.2022
288 Clear 21 1005 66 10000 4.12 250 03:48 09.09.2022
289 Clouds 23 1005 59 10000 3.6 260 00:40 09.09.2022
290 Clouds 25 1018 54 10000 4.63 290 21:52 08.09.2022
291 Clouds 26 1017 46 10000 6.69 240 20:51 08.09.2022
292 Clouds 27 1017 46 10000 6.69 240 20:29 08.09.2022
293 Clouds 27 1017 42 10000 6.17 260 19:39 08.09.2022
294 Clouds 28 1017 38 10000 5.14 230 17:40 08.09.2022
295 Clouds 27 1017 40 10000 5.14 220 16:19 08.09.2022
296 Clouds 26 1018 41 10000 6.69 240 14:37 08.09.2022
297 Clear 23 1019 45 10000 3.6 240 12:51 08.09.2022
298 Clear 22 1019 49 10000 2.57 240 11:36 08.09.2022
299 Clear 20 1018 53 10000 3.09 230 10:23 08.09.2022
300 Clouds 19 1018 55 10000 1.79 201 07:49 08.09.2022
301 Clear 19 1018 51 10000 2.57 250 05:51 08.09.2022
302 Clear 20 1018 47 10000 2.06 250 02:36 08.09.2022
303 Clear 20 1018 48 10000 2.06 250 02:18 08.09.2022
304 Clear 22 1018 43 10000 3.6 260 00:22 08.09.2022
305 Clear 24 1017 37 10000 4.12 240 22:36 07.09.2022
306 Clear 24 1017 35 10000 5.66 230 21:41 07.09.2022
307 Clear 25 1017 31 10000 5.66 240 20:38 07.09.2022
308 Clear 26 1017 26 10000 5.66 220 19:30 07.09.2022
309 Clear 26 1017 26 10000 7.72 240 17:22 07.09.2022
310 Clear 22 1007 37 10000 5.66 230 12:41 07.09.2022
311 Clear 19 1019 46 10000 3.09 250 10:46 07.09.2022
312 Clear 15 1018 53 10000 2.06 200 08:36 07.09.2022
313 Clear 16 1018 54 10000 2.06 270 06:51 07.09.2022
314 Clear 20 1003 44 10000 3.09 260 01:50 07.09.2022
315 Clear 23 1005 39 10000 5.14 230 22:35 06.09.2022
316 Clear 24 1005 35 10000 6.17 240 21:38 06.09.2022
317 Clear 26 1018 37 10000 8.23 230 20:21 06.09.2022
318 Clouds 28 1018 31 10000 8.75 230 18:45 06.09.2022
319 Clouds 28 1006 32 10000 8.75 240 17:56 06.09.2022
320 Clouds 28 1007 33 10000 8.23 220 17:20 06.09.2022
321 Clouds 28 1007 35 10000 7.72 220 16:37 06.09.2022
322 Clouds 26 1008 40 10000 6.17 230 14:55 06.09.2022
323 Clouds 25 1009 42 10000 6.17 220 13:45 06.09.2022
324 Clear 24 1021 44 10000 6.69 220 13:21 06.09.2022
325 Clear 21 1022 53 10000 4.47 203 11:29 06.09.2022
326 Clear 19 1022 58 10000 4.12 220 10:33 06.09.2022
327 Clear 17 1009 65 10000 2.24 239 08:29 06.09.2022
328 Clear 17 1007 64 10000 2.24 210 07:37 06.09.2022
329 Clear 20 1007 54 10000 3.6 250 02:34 06.09.2022
330 Clear 23 1007 44 10000 4.12 240 23:21 05.09.2022
331 Clear 25 1006 34 10000 5.14 230 21:50 05.09.2022
332 Clear 27 1007 27 10000 6.17 240 20:32 05.09.2022
333 Clear 27 1020 24 10000 6.69 210 19:18 05.09.2022
334 Clear 28 1020 21 10000 6.69 230 18:44 05.09.2022
335 Clear 28 1020 20 10000 6.69 220 18:21 05.09.2022
336 Clear 27 1021 24 10000 6.26 248 16:27 05.09.2022
337 Clear 26 1021 28 10000 5.66 220 15:29 05.09.2022
338 Clear 25 1022 35 10000 4.47 222 13:21 05.09.2022
339 Clear 23 1022 36 10000 3.13 198 12:26 05.09.2022
340 Clear 18 1021 38 10000 1.54 350 09:19 05.09.2022
341 Clear 17 1020 40 10000 2.06 10 06:40 05.09.2022
342 Clear 20 1006 36 10000 2.57 150 01:56 05.09.2022
343 Clear 23 1006 32 10000 2.68 284 22:44 04.09.2022
344 Clear 23 1005 32 10000 3.6 240 22:26 04.09.2022
345 Clear 26 1018 24 10000 4.63 250 20:43 04.09.2022
346 Clear 28 1018 21 10000 5.14 230 19:20 04.09.2022
347 Clear 28 1018 21 10000 6.17 210 17:50 04.09.2022
348 Clear 28 1018 21 10000 5.66 200 16:28 04.09.2022
349 Clear 26 1019 25 10000 5.14 210 14:27 04.09.2022
350 Clear 25 1019 28 10000 4.63 200 13:28 04.09.2022
351 Clear 22 1019 36 10000 2.06 200 11:52 04.09.2022
352 Clear 19 1019 46 10000 1.03 0 09:56 04.09.2022
353 Clear 16 1017 52 10000 1.03 0 07:27 04.09.2022
354 Clear 19 1017 41 10000 2.57 230 04:44 04.09.2022
355 Clear 22 1016 38 10000 4.63 240 00:42 04.09.2022
356 Clear 24 1015 35 10000 5.14 230 22:21 03.09.2022
357 Clear 25 1014 34 10000 4.63 220 21:23 03.09.2022
358 Clear 27 1013 23 10000 6.17 240 18:59 03.09.2022
359 Clear 27 1014 29 10000 5.66 220 17:26 03.09.2022
360 Clear 27 1014 32 10000 5.14 240 16:27 03.09.2022
361 Clear 25 1015 37 10000 4.63 230 14:44 03.09.2022
362 Clear 24 1015 41 10000 3.13 193 13:55 03.09.2022
363 Clear 23 1015 46 10000 2.57 200 12:19 03.09.2022
364 Clear 20 1015 54 10000 3.09 230 10:27 03.09.2022
365 Clear 18 1014 59 10000 4.12 220 08:27 03.09.2022
366 Clear 17 1014 58 10000 2.24 219 06:58 03.09.2022
367 Clear 19 1014 52 10000 2.24 270 04:33 03.09.2022
368 Clear 23 1014 42 10000 5.66 220 23:55 02.09.2022
369 Clear 24 1014 37 10000 6.17 240 22:45 02.09.2022
370 Clear 26 1013 26 10000 7.72 240 20:59 02.09.2022
371 Clear 26 1013 24 10000 7.72 240 20:28 02.09.2022
372 Clear 28 1013 22 10000 7.72 240 19:22 02.09.2022
373 Clear 28 1013 20 10000 7.72 230 18:28 02.09.2022
374 Clear 28 1014 17 10000 7.2 240 17:43 02.09.2022
375 Clear 29 1014 17 10000 7.72 240 16:47 02.09.2022
376 Clear 27 1014 27 10000 5.14 220 14:33 02.09.2022
377 Clear 24 1016 39 10000 5.14 230 12:36 02.09.2022
378 Clear 21 1016 50 10000 3.09 240 10:19 02.09.2022
379 Clear 20 1016 52 10000 3.09 240 09:39 02.09.2022
380 Clear 19 1015 52 10000 2.57 230 07:30 02.09.2022
381 Clear 19 1015 45 10000 3.6 250 06:38 02.09.2022
382 Clear 23 1015 37 10000 4.12 230 02:52 02.09.2022
383 Clear 27 1015 23 10000 5.14 240 22:30 01.09.2022
384 Clear 28 1015 21 10000 5.14 240 21:43 01.09.2022
385 Clear 29 1014 22 10000 6.69 230 21:25 01.09.2022
386 Clear 29 1014 20 10000 6.69 240 20:44 01.09.2022
387 Clear 31 1014 18 10000 5.66 240 18:54 01.09.2022
388 Clear 31 1015 19 10000 5.66 250 17:22 01.09.2022
389 Clear 30 1016 21 10000 6.17 210 15:56 01.09.2022
390 Clear 29 1016 23 10000 3.6 220 14:33 01.09.2022
391 Clear 26 1017 30 10000 3.09 200 12:58 01.09.2022
392 Clear 25 1018 34 10000 1.03 0 11:53 01.09.2022
393 Clear 24 1017 36 10000 1.03 0 11:31 01.09.2022
394 Clear 23 1017 39 10000 1.54 90 10:23 01.09.2022
395 Clear 18 1016 37 10000 1.54 360 07:51 01.09.2022
396 Clear 20 1017 33 10000 3.09 340 06:22 01.09.2022
397 Clear 23 1018 32 10000 3.6 260 01:32 01.09.2022
398 Clear 23 1018 32 10000 3.6 260 01:32 01.09.2022
399 Clear 24 1018 31 10000 3.6 260 01:32 01.09.2022
400 Clear 24 1018 31 10000 3.6 260 01:32 01.09.2022
401 Clear 26 1017 28 10000 3.09 250 23:29 31.08.2022
402 Clear 28 1017 24 10000 4.63 210 21:32 31.08.2022
403 Clear 30 1017 21 10000 5.66 230 19:50 31.08.2022
404 Clear 31 1017 19 10000 5.14 220 18:18 31.08.2022
405 Clear 30 1018 20 10000 6.17 230 15:45 31.08.2022
406 Clear 29 1007 24 10000 6.17 230 14:27 31.08.2022
407 Clear 26 1020 32 10000 5.36 203 12:21 31.08.2022
408 Clear 24 1020 42 10000 3.6 210 10:52 31.08.2022
409 Clear 20 1020 46 10000 3.6 230 08:35 31.08.2022
410 Clear 25 1005 29 10000 3.6 230 04:26 31.08.2022
411 Clear 29 1019 25 10000 5.66 240 23:20 30.08.2022
412 Clear 31 1018 21 10000 6.69 210 21:38 30.08.2022
413 Clear 31 1017 19 10000 7.2 240 20:56 30.08.2022
414 Clear 34 1018 18 10000 7.2 230 17:30 30.08.2022
415 Clear 31 1019 27 10000 7.2 230 14:44 30.08.2022
416 Clear 29 1008 39 10000 4.63 250 13:24 30.08.2022
417 Clouds 27 1021 38 10000 2.57 230 11:21 30.08.2022
418 Clouds 25 1021 43 10000 1.54 190 10:40 30.08.2022
419 Clear 22 1019 50 10000 2.57 320 06:51 30.08.2022
420 Clear 25 1018 44 10000 1.34 131 01:53 30.08.2022
421 Clear 28 1017 41 10000 3.09 260 22:58 29.08.2022
422 Clear 28 1017 40 10000 3.6 0 22:24 29.08.2022
423 Clear 29 1016 38 10000 5.14 240 21:25 29.08.2022
424 Clouds 31 1016 34 10000 8.23 250 19:51 29.08.2022
425 Clouds 32 1015 32 10000 7.72 230 17:52 29.08.2022
426 Clouds 33 1015 33 10000 7.72 230 17:24 29.08.2022
427 Clouds 32 1016 35 10000 7.2 200 16:37 29.08.2022
428 Clouds 31 1017 37 10000 7.2 200 14:45 29.08.2022
429 Clear 29 1017 46 10000 1.79 166 12:53 29.08.2022
430 Clear 26 1017 57 10000 3.6 30 11:19 29.08.2022
431 Clouds 24 1017 66 10000 1.79 59 09:45 29.08.2022
432 Thunderstorm 23 1017 61 10000 2.57 80 08:28 29.08.2022
433 Clear 25 1016 56 10000 4.63 120 02:49 29.08.2022
434 Clear 28 1015 43 10000 6.17 130 00:20 29.08.2022
435 Clear 30 1014 35 10000 5.14 120 22:37 28.08.2022
436 Clear 31 1013 34 10000 3.6 140 21:43 28.08.2022
437 Clear 32 1012 29 10000 4.63 140 20:54 28.08.2022
438 Clear 33 1013 27 10000 6.17 160 19:23 28.08.2022
439 Clear 33 1013 25 10000 6.17 150 18:20 28.08.2022
440 Clear 33 1013 28 10000 5.14 160 16:58 28.08.2022
441 Clear 32 1013 29 10000 5.66 140 16:22 28.08.2022
442 Clear 30 1015 37 10000 4.12 150 14:36 28.08.2022
443 Clear 27 1015 46 10000 4.12 80 12:32 28.08.2022
444 Clear 24 1015 58 10000 4.63 80 10:43 28.08.2022
445 Clear 23 1015 60 10000 3.09 50 09:42 28.08.2022
446 Clear 21 1015 62 10000 3.09 60 08:37 28.08.2022
447 Clear 21 1014 60 10000 2.57 60 07:43 28.08.2022
448 Clear 25 1014 60 10000 3.09 90 02:39 28.08.2022
449 Clear 27 1013 37 10000 1.79 19 00:27 28.08.2022
450 Clear 28 1013 34 10000 1.54 90 22:36 27.08.2022
451 Clear 29 1012 34 10000 1.03 0 21:31 27.08.2022
452 Clouds 31 1012 28 10000 2.06 170 19:44 27.08.2022
453 Clouds 32 1012 28 10000 2.68 194 17:29 27.08.2022
454 Clear 31 1013 31 10000 2.57 130 15:53 27.08.2022
455 Clear 30 1013 33 10000 3.09 0 15:24 27.08.2022
456 Clear 26 1015 43 10000 2.06 0 12:28 27.08.2022
457 Clear 24 1015 53 10000 2.06 60 11:31 27.08.2022
458 Clear 21 1015 62 10000 2.57 90 09:48 27.08.2022
459 Clear 20 1013 70 10000 2.68 45 07:54 27.08.2022
460 Clear 22 1016 63 10000 3.09 170 02:52 27.08.2022
461 Clear 24 1015 56 10000 3.09 150 23:57 26.08.2022
462 Clear 26 1014 42 10000 4.12 100 22:40 26.08.2022
463 Clear 28 1013 39 10000 2.57 70 21:19 26.08.2022
464 Clouds 30 1012 32 10000 3.09 330 19:23 26.08.2022
465 Clouds 31 1014 32 10000 2.57 340 16:50 26.08.2022
466 Clouds 31 1015 33 10000 2.57 90 15:31 26.08.2022
467 Clouds 29 1016 39 10000 3.13 101 14:30 26.08.2022
468 Clear 26 1017 48 10000 3.09 50 12:49 26.08.2022
469 Clear 24 1018 56 10000 4.12 20 11:27 26.08.2022
470 Clear 23 1018 64 10000 4.63 30 10:29 26.08.2022
471 Clear 21 1018 71 10000 3.13 50 07:28 26.08.2022
472 Clear 21 1018 71 10000 3.13 50 07:28 26.08.2022
473 Clear 24 1018 49 10000 3.58 73 01:41 26.08.2022
474 Clear 25 1018 42 10000 2.68 45 23:41 25.08.2022
475 Clouds 28 1016 37 10000 5.14 30 21:36 25.08.2022
476 Clouds 32 1015 26 10000 7.15 23 20:29 25.08.2022
477 Clouds 33 1015 25 10000 4.12 330 18:55 25.08.2022
478 Clouds 33 1015 27 10000 5.14 350 17:50 25.08.2022
479 Clouds 32 1015 28 10000 5.14 350 17:31 25.08.2022
480 Clouds 32 1016 27 10000 1.79 78 15:40 25.08.2022
481 Clouds 31 1017 31 10000 2.24 190 14:34 25.08.2022
482 Clear 27 1017 43 10000 2.57 110 11:55 25.08.2022
483 Clear 26 1017 51 10000 2.57 80 10:48 25.08.2022
484 Clouds 23 1016 52 10000 1.54 70 08:54 25.08.2022
485 Clear 24 1015 45 10000 1.79 38 05:24 25.08.2022
486 Clear 28 1015 34 10000 2.57 290 01:42 25.08.2022
487 Clear 30 1015 30 10000 3.09 250 23:26 24.08.2022
488 Clear 31 1014 29 10000 3.6 270 22:22 24.08.2022
489 Clear 32 1014 27 10000 3.09 270 21:36 24.08.2022
490 Clear 33 1014 22 10000 4.12 250 20:52 24.08.2022
491 Clear 35 1013 21 10000 4.63 160 18:58 24.08.2022
492 Clear 34 1015 23 10000 4.12 170 16:37 24.08.2022
493 Clear 34 1015 25 10000 3.6 210 15:52 24.08.2022
494 Clear 31 1016 37 10000 3.6 130 13:40 24.08.2022
495 Clear 27 1017 48 10000 2.68 143 11:38 24.08.2022
496 Clear 25 1016 58 10000 2.57 60 09:39 24.08.2022
497 Clear 23 1016 56 10000 1.54 60 07:59 24.08.2022
498 Clear 27 1015 37 10000 2.24 54 02:36 24.08.2022
499 Clear 30 1014 31 10000 1.54 220 23:34 23.08.2022
500 Clear 31 1014 31 10000 1.03 270 22:32 23.08.2022
501 Clear 33 1014 29 10000 2.06 190 21:34 23.08.2022
502 Clear 35 1013 19 10000 3.09 220 20:21 23.08.2022
503 Clear 36 1013 20 10000 3.09 220 18:46 23.08.2022
504 Clear 36 1014 21 10000 3.09 240 17:50 23.08.2022
505 Clear 35 1014 24 10000 3.6 170 16:54 23.08.2022
506 Clear 34 1015 29 10000 3.6 0 15:39 23.08.2022
507 Clear 30 1016 39 10000 2.06 0 13:36 23.08.2022
508 Clear 27 1017 45 10000 3.6 70 11:33 23.08.2022
509 Clear 25 1017 48 10000 3.6 50 10:48 23.08.2022
510 Clear 25 1017 47 10000 3.6 40 10:24 23.08.2022
511 Clear 22 1017 50 10000 4.12 50 08:52 23.08.2022
512 Clear 22 1017 51 10000 3.6 40 08:21 23.08.2022
513 Clear 22 1017 51 10000 3.13 16 07:38 23.08.2022
514 Clear 22 1016 51 10000 3.13 42 06:29 23.08.2022
515 Clear 22 1016 51 10000 3.58 30 06:29 23.08.2022
516 Clear 23 1016 50 10000 4.02 44 04:45 23.08.2022
517 Clear 27 1015 44 10000 4.12 20 00:28 23.08.2022
518 Clear 28 1015 41 10000 4.47 45 23:54 22.08.2022
519 Clear 30 1014 32 10000 2.68 38 22:45 22.08.2022
520 Clear 31 1014 33 10000 2.06 120 21:51 22.08.2022
521 Clear 34 1014 25 10000 1.79 111 19:49 22.08.2022
522 Clear 34 1014 24 10000 3.09 40 19:21 22.08.2022
523 Clouds 34 1015 25 10000 1.34 59 17:55 22.08.2022
524 Clear 33 1016 26 10000 3.09 60 15:40 22.08.2022
525 Clear 31 1017 29 10000 3.09 70 14:32 22.08.2022
526 Clear 26 1018 41 10000 3.6 40 10:49 22.08.2022
527 Clear 22 1018 50 10000 4.63 50 08:21 22.08.2022
528 Clear 24 1017 42 10000 2.68 22 04:34 22.08.2022
529 Clear 28 1017 31 10000 2.24 26 00:49 22.08.2022
530 Clear 28 1017 30 10000 2.24 44 00:29 22.08.2022
531 Clear 30 1017 24 10000 2.57 350 22:54 21.08.2022
532 Clear 32 1016 21 10000 4.12 310 21:36 21.08.2022
533 Clear 33 1015 18 10000 6.69 330 20:57 21.08.2022
534 Clear 35 1015 15 10000 5.14 330 19:28 21.08.2022
535 Clear 36 1016 15 10000 5.14 300 18:21 21.08.2022
536 Clear 35 1017 16 10000 4.63 220 16:21 21.08.2022
537 Clear 35 1017 15 10000 5.14 250 15:43 21.08.2022
538 Clear 33 1018 19 10000 3.6 0 13:58 21.08.2022
539 Clear 32 1019 20 10000 3.09 190 13:40 21.08.2022
540 Clear 30 1019 24 10000 2.06 0 12:37 21.08.2022
541 Clear 24 1019 38 10000 0.89 221 09:32 21.08.2022
542 Clear 23 1005 36 9000 1.54 10 08:56 21.08.2022
543 Clear 21 1007 38 10000 1.54 360 08:38 21.08.2022
544 Clear 22 1005 36 10000 2.06 20 07:28 21.08.2022
545 Clear 23 1003 31 10000 1.54 360 04:26 21.08.2022
546 Clear 27 1003 26 10000 2.06 310 00:53 21.08.2022
547 Clear 29 1005 23 9000 2.06 200 22:59 20.08.2022
548 Clear 31 1005 22 10000 2.06 200 21:45 20.08.2022
549 Clear 33 1018 16 10000 4.12 200 20:48 20.08.2022
550 Clear 34 1018 16 10000 4.12 210 19:42 20.08.2022
551 Clear 34 1018 16 10000 4.12 240 18:43 20.08.2022
552 Clear 34 1018 16 10000 3.6 200 18:25 20.08.2022
553 Clear 33 1019 16 10000 4.12 240 17:19 20.08.2022
554 Clear 32 1020 19 10000 3.09 220 15:51 20.08.2022
555 Clear 29 1022 35 10000 1.54 0 13:39 20.08.2022
556 Clear 26 1022 45 10000 2.06 0 11:53 20.08.2022
557 Clear 24 1022 43 10000 3.09 40 10:39 20.08.2022
558 Clear 21 1022 48 10000 2.24 32 09:18 20.08.2022
559 Clear 20 1007 46 10000 1.54 30 06:40 20.08.2022
560 Clear 22 1007 40 10000 3.13 32 03:57 20.08.2022
561 Clear 25 1007 30 10000 3.09 340 00:53 20.08.2022
562 Clear 26 1006 29 10000 1.03 230 23:21 19.08.2022
563 Clear 26 1004 29 10000 1.03 0 22:35 19.08.2022
564 Clear 27 1006 28 10000 1.03 0 22:35 19.08.2022
565 Clear 30 1019 21 10000 1.54 150 20:30 19.08.2022
566 Clear 31 1019 20 10000 3.09 130 18:51 19.08.2022
567 Clear 29 1021 24 10000 2.24 272 15:54 19.08.2022
568 Clear 26 1022 31 10000 2.57 40 13:40 19.08.2022
569 Clear 22 1023 43 10000 4.63 30 11:39 19.08.2022
570 Clear 19 1023 51 10000 3.09 40 10:29 19.08.2022
571 Clear 16 1008 64 10000 2.68 74 07:25 19.08.2022
572 Clear 20 1008 50 10000 4.02 107 02:23 19.08.2022
573 Clear 22 1007 43 10000 4.47 59 00:32 19.08.2022
574 Clear 23 1006 36 10000 4.92 45 23:48 18.08.2022
575 Clear 24 1006 33 10000 4.63 360 22:52 18.08.2022
576 Clear 24 1006 31 10000 4.12 360 22:18 18.08.2022
577 Clear 25 1005 29 10000 4.12 360 21:40 18.08.2022
578 Clear 27 1018 26 10000 4.63 360 20:27 18.08.2022
579 Clouds 28 1018 27 10000 2.68 23 19:30 18.08.2022
580 Clouds 28 1018 27 10000 3.09 0 17:55 18.08.2022
581 Clouds 27 1018 28 10000 4.47 270 17:19 18.08.2022
582 Clouds 25 1019 32 10000 2.57 110 15:20 18.08.2022
583 Clouds 24 1019 35 10000 2.24 47 14:20 18.08.2022
584 Clouds 23 1019 38 10000 1.79 4 13:36 18.08.2022
585 Clear 22 1019 44 10000 1.79 2 12:26 18.08.2022
586 Clear 18 1019 52 10000 4.12 50 10:22 18.08.2022
587 Clouds 17 1019 58 10000 3.09 50 09:42 18.08.2022
588 Clouds 15 1004 66 10000 2.24 77 07:24 18.08.2022
589 Clear 16 1017 63 10000 3.13 64 04:47 18.08.2022
590 Clear 21 1016 51 10000 4.92 0 23:49 17.08.2022
591 Thunderstorm 23 1014 41 10000 3.13 338 21:54 17.08.2022
592 Clouds 25 1013 31 10000 3.6 80 20:20 17.08.2022
593 Thunderstorm 26 1013 32 10000 3.09 80 19:32 17.08.2022
594 Clouds 25 1012 36 10000 6.69 350 18:21 17.08.2022
595 Clouds 26 1013 31 10000 3.6 240 16:50 17.08.2022
596 Clouds 26 1013 31 10000 3.09 0 15:30 17.08.2022
597 Clouds 25 1013 34 10000 2.57 0 14:18 17.08.2022
598 Clear 22 1014 44 10000 2.06 10 11:45 17.08.2022
599 Clear 20 1014 49 10000 2.24 150 10:25 17.08.2022
600 Clear 17 1013 61 10000 1.79 63 08:25 17.08.2022
601 Clear 18 1012 50 10000 4.12 290 04:20 17.08.2022
602 Clear 22 1012 38 10000 4.63 290 00:46 17.08.2022
603 Clear 24 1012 33 10000 4.63 280 22:53 16.08.2022
604 Clear 26 1010 28 10000 7.2 240 20:59 16.08.2022
605 Clear 28 1010 23 10000 7.2 230 19:55 16.08.2022
606 Clear 28 1010 21 10000 8.75 250 19:22 16.08.2022
607 Clear 28 1010 27 10000 9.77 230 17:54 16.08.2022
608 Clear 28 1011 29 10000 8.23 230 16:35 16.08.2022
609 Smoke 28 1011 31 9000 9.26 240 15:44 16.08.2022
610 Smoke 27 1011 30 7000 8.75 230 14:54 16.08.2022
611 Smoke 27 1011 28 7000 8.23 220 14:36 16.08.2022
612 Clear 24 1011 29 10000 6.17 240 11:40 16.08.2022
613 Clear 21 1011 39 10000 4.63 260 09:58 16.08.2022
614 Clear 20 1011 42 10000 5.14 250 08:49 16.08.2022
615 Clear 20 1010 41 10000 5.14 240 08:20 16.08.2022
616 Clear 21 1010 37 10000 1.54 230 05:52 16.08.2022
617 Clear 27 1011 29 10000 5.66 230 23:27 15.08.2022
618 Clouds 28 1010 29 10000 4.12 220 22:20 15.08.2022
619 Clouds 28 1010 27 10000 5.14 220 21:43 15.08.2022
620 Clouds 30 1009 23 10000 5.14 220 20:31 15.08.2022
621 Clouds 31 1010 21 10000 5.66 200 19:18 15.08.2022
622 Clouds 31 1010 19 10000 5.14 220 17:59 15.08.2022
623 Clouds 30 1011 21 10000 5.14 260 16:24 15.08.2022
624 Clouds 29 1011 21 10000 4.92 213 15:26 15.08.2022
625 Clear 28 1012 25 10000 4.63 220 13:27 15.08.2022
626 Clear 23 1012 39 10000 2.06 100 10:37 15.08.2022
627 Clear 21 1012 40 9000 2.57 310 08:55 15.08.2022
628 Clear 20 1012 38 10000 2.57 320 06:51 15.08.2022
629 Clear 22 1012 32 10000 3.6 300 03:56 15.08.2022
630 Clear 25 1012 22 10000 2.57 290 23:49 14.08.2022
631 Clear 27 1012 20 10000 4.63 290 22:28 14.08.2022
632 Clear 29 1011 18 10000 5.14 300 21:25 14.08.2022
633 Clear 31 1011 16 10000 7.2 210 19:46 14.08.2022
634 Clear 31 1010 15 10000 6.69 240 18:41 14.08.2022
635 Clear 31 1011 15 10000 8.75 240 17:44 14.08.2022
636 Clear 31 1012 16 10000 10.29 230 16:31 14.08.2022
637 Clear 30 1012 16 10000 8.75 220 15:45 14.08.2022
638 Clear 28 1013 24 10000 6.71 225 13:52 14.08.2022
639 Clear 28 1013 25 10000 5.81 203 13:34 14.08.2022
640 Clear 27 1014 28 10000 5.14 190 12:55 14.08.2022
641 Clear 24 1014 43 10000 3.13 228 11:31 14.08.2022
642 Clear 22 1014 52 10000 2.57 210 10:26 14.08.2022
643 Clear 18 1014 68 10000 1.03 0 08:20 14.08.2022
644 Clear 20 1014 66 10000 2.06 350 06:20 14.08.2022
645 Clear 21 1015 64 9000 1.34 180 02:35 14.08.2022
646 Clear 23 1015 54 10000 3.09 140 23:23 13.08.2022
647 Clear 24 1015 51 10000 3.6 120 22:28 13.08.2022
648 Clear 26 1015 44 10000 7.72 170 20:58 13.08.2022
649 Clear 27 1015 43 10000 7.72 170 20:19 13.08.2022
650 Clouds 26 1017 43 10000 5.66 180 19:20 13.08.2022
651 Clouds 27 1005 43 10000 8.75 180 17:35 13.08.2022
652 Clouds 27 1019 43 10000 10.29 190 15:18 13.08.2022
653 Clouds 27 1018 44 10000 8.23 190 14:24 13.08.2022
654 Clouds 27 1018 43 10000 11.83 170 13:37 13.08.2022
655 Clouds 28 1018 38 10000 10.29 180 11:51 13.08.2022
656 Clouds 27 1016 41 9000 2.24 179 09:50 13.08.2022
657 Clouds 26 1016 39 10000 3.09 110 07:50 13.08.2022
658 Clear 28 1015 36 10000 2.06 10 02:56 13.08.2022
659 Clear 31 1016 31 10000 0.51 260 23:46 12.08.2022
660 Haze 33 1015 28 5000 3.6 260 21:40 12.08.2022
661 Haze 35 1015 23 5000 5.66 250 19:51 12.08.2022
662 Haze 36 1015 23 5000 5.66 260 19:26 12.08.2022
663 Clouds 36 1015 22 6000 5.66 220 18:34 12.08.2022
664 Clear 35 1017 23 9000 4.63 210 16:28 12.08.2022
665 Clear 34 1017 25 10000 4.12 240 15:31 12.08.2022
666 Clear 33 1017 26 10000 3.6 180 14:27 12.08.2022
667 Clear 32 1018 28 10000 2.24 215 12:51 12.08.2022
668 Clear 26 1018 41 10000 2.06 60 09:50 12.08.2022
669 Clear 24 1004 44 10000 1.54 120 07:47 12.08.2022
670 Clear 25 1004 42 10000 1.54 90 06:28 12.08.2022
671 Clear 29 1004 36 10000 4.12 100 02:22 12.08.2022
672 Clear 30 1003 34 10000 2.06 360 00:23 12.08.2022
673 Clear 31 1003 34 10000 2.06 270 23:34 11.08.2022
674 Clear 33 1015 32 10000 2.06 240 21:58 11.08.2022
675 Clear 33 1015 31 10000 3.09 240 21:35 11.08.2022
676 Clear 34 1015 27 10000 3.6 180 20:32 11.08.2022
677 Clear 35 1015 26 10000 3.09 200 19:57 11.08.2022
678 Clouds 35 1015 26 10000 3.6 240 19:32 11.08.2022
679 Clouds 35 1015 27 10000 5.14 210 17:47 11.08.2022
680 Clear 34 1016 30 10000 3.13 214 16:32 11.08.2022
681 Clear 33 1017 32 10000 4.63 170 15:20 11.08.2022
682 Clear 31 1018 38 10000 2.57 170 12:41 11.08.2022
683 Clear 27 1018 40 10000 1.54 80 09:54 11.08.2022
684 Clear 25 1003 40 10000 2.06 90 06:59 11.08.2022
685 Clear 27 1016 38 10000 3.09 100 03:45 11.08.2022
686 Clear 30 1016 29 10000 5.81 177 00:35 11.08.2022
687 Clear 33 1004 26 10000 4.02 135 22:22 10.08.2022
688 Clear 34 1014 27 10000 2.06 130 21:24 10.08.2022
689 Clear 35 1014 22 10000 3.6 180 20:47 10.08.2022
690 Clouds 36 1014 20 10000 4.12 150 18:55 10.08.2022
691 Clouds 36 1015 21 10000 3.09 180 17:37 10.08.2022
692 Clouds 35 1016 21 10000 3.09 130 16:33 10.08.2022
693 Clear 32 1018 27 10000 3.6 90 13:35 10.08.2022
694 Clear 30 1018 31 10000 4.12 0 12:35 10.08.2022
695 Clear 26 1020 45 10000 3.6 70 09:24 10.08.2022
696 Clouds 25 1007 49 10000 2.68 80 08:32 10.08.2022
697 Clear 26 1005 49 10000 3.6 90 06:23 10.08.2022
698 Rain 29 1004 26 10000 4.92 173 03:24 10.08.2022
699 Clear 32 1004 23 10000 3.6 290 23:34 09.08.2022
700 Clear 32 1004 23 10000 4.63 280 22:56 09.08.2022
701 Clouds 35 1003 21 10000 2.68 199 21:35 09.08.2022
702 Clouds 36 1016 17 10000 3.58 216 20:26 09.08.2022
703 Clouds 37 1016 17 10000 3.6 0 18:42 09.08.2022
704 Clouds 36 1017 19 10000 3.09 180 17:28 09.08.2022
705 Clouds 36 1017 20 10000 3.6 130 16:40 09.08.2022
706 Clear 35 1018 21 10000 2.57 150 15:58 09.08.2022
707 Clear 31 1020 33 10000 3.6 90 12:52 09.08.2022
708 Clear 25 1020 44 10000 3.09 90 09:39 09.08.2022
709 Clear 25 1007 45 9000 3.09 90 08:50 09.08.2022
710 Clear 24 1007 46 10000 2.68 143 07:52 09.08.2022
711 Clear 26 1004 38 10000 2.24 114 04:25 09.08.2022
712 Clear 30 1004 23 10000 1.03 0 23:27 08.08.2022
713 Clear 31 1003 22 10000 0.89 141 22:55 08.08.2022
714 Clear 32 1003 22 10000 1.03 0 22:22 08.08.2022
715 Clear 34 1016 19 10000 3.6 200 21:22 08.08.2022
716 Clear 35 1015 16 10000 4.47 198 19:51 08.08.2022
717 Clear 36 1015 16 10000 3.09 210 18:50 08.08.2022
718 Clear 35 1016 16 10000 5.14 150 16:47 08.08.2022
719 Clear 35 1017 19 10000 2.57 210 15:40 08.08.2022
720 Clear 33 1017 22 10000 2.57 140 14:29 08.08.2022
721 Clear 30 1018 32 10000 2.57 170 12:27 08.08.2022
722 Clear 26 1018 44 10000 3.09 100 10:19 08.08.2022
723 Clear 23 1017 44 10000 1.54 350 06:54 08.08.2022
724 Clear 26 1016 29 10000 2.57 330 03:31 08.08.2022
725 Clear 30 1016 20 10000 2.57 140 22:42 07.08.2022
726 Clear 33 1015 18 10000 2.06 260 21:40 07.08.2022
727 Clear 34 1014 16 10000 2.68 218 20:42 07.08.2022
728 Clear 35 1014 17 10000 2.57 190 20:18 07.08.2022
729 Clear 35 1014 17 10000 3.58 223 19:41 07.08.2022
730 Clear 35 1015 18 10000 4.12 220 18:36 07.08.2022
731 Clear 34 1016 20 10000 4.12 170 16:55 07.08.2022
732 Clear 34 1016 20 10000 5.81 203 16:35 07.08.2022
733 Clear 34 1017 21 10000 5.14 190 15:24 07.08.2022
734 Clear 31 1018 27 10000 3.58 205 13:37 07.08.2022
735 Clear 29 1018 32 10000 1.79 113 11:58 07.08.2022
736 Clear 26 1018 41 10000 2.57 60 10:35 07.08.2022
737 Clear 24 1017 52 10000 3.09 70 07:59 07.08.2022
738 Clear 27 1017 39 9000 3.6 100 03:32 07.08.2022
739 Clear 28 1017 32 10000 2.06 60 01:45 07.08.2022
740 Clear 32 1016 23 10000 2.57 300 22:25 06.08.2022
741 Clear 34 1016 20 10000 2.24 270 21:18 06.08.2022
742 Clear 35 1016 19 10000 4.12 220 19:41 06.08.2022
743 Clear 36 1016 19 10000 4.63 210 18:33 06.08.2022
744 Clear 35 1017 19 10000 4.12 190 17:37 06.08.2022
745 Clear 33 1018 23 10000 3.6 230 14:52 06.08.2022
746 Clear 31 1019 30 10000 2.06 0 13:49 06.08.2022
747 Clear 29 1020 35 10000 2.57 180 12:19 06.08.2022
748 Clear 26 1019 41 10000 3.09 90 10:33 06.08.2022
749 Clear 25 1019 43 10000 3.09 100 09:21 06.08.2022
750 Clear 27 1017 39 10000 6.17 120 03:55 06.08.2022
751 Clear 30 1016 25 10000 1.54 340 23:56 05.08.2022
752 Clouds 32 1016 23 10000 2.57 330 22:33 05.08.2022
753 Clouds 35 1015 18 10000 3.6 240 20:30 05.08.2022
754 Clouds 36 1015 18 10000 4.02 210 18:53 05.08.2022
755 Clouds 36 1015 18 10000 3.58 225 18:35 05.08.2022
756 Clouds 35 1016 18 10000 4.63 200 16:51 05.08.2022
757 Clear 34 1017 21 10000 4.12 250 15:23 05.08.2022
758 Clear 33 1017 22 10000 3.58 205 14:34 05.08.2022
759 Clear 32 1018 29 10000 2.57 180 13:26 05.08.2022
760 Clear 30 1018 32 10000 2.06 110 12:45 05.08.2022
761 Clear 28 1018 37 10000 2.06 50 10:59 05.08.2022
762 Clear 24 1018 43 10000 1.79 101 08:46 05.08.2022
763 Clouds 24 1017 45 10000 2.57 100 07:33 05.08.2022
764 Clear 29 1016 29 10000 5.14 110 01:52 05.08.2022
765 Clear 31 1014 28 10000 2.06 260 22:43 04.08.2022
766 Clouds 33 1013 23 10000 7.6 355 21:28 04.08.2022
767 Clouds 35 1013 18 10000 3.09 190 20:53 04.08.2022
768 Clouds 36 1013 17 10000 4.12 240 20:33 04.08.2022
769 Clear 36 1013 17 10000 4.63 190 18:57 04.08.2022
770 Clear 36 1014 17 10000 4.63 210 18:33 04.08.2022
771 Clear 35 1015 18 10000 6.69 210 15:51 04.08.2022
772 Clear 32 1016 25 10000 2.24 135 13:26 04.08.2022
773 Clear 29 1017 32 10000 2.57 0 11:39 04.08.2022
774 Clear 27 1017 38 10000 2.68 145 10:20 04.08.2022
775 Clear 24 1016 47 10000 1.79 148 07:45 04.08.2022
776 Clear 28 1015 41 10000 4.63 120 02:48 04.08.2022
777 Clear 30 1014 20 10000 1.34 197 00:33 04.08.2022
778 Clear 30 1014 22 10000 1.03 0 23:39 03.08.2022
779 Clear 35 1013 15 10000 4.63 210 21:31 03.08.2022
780 Clear 36 1013 14 10000 4.63 220 20:21 03.08.2022
781 Clear 37 1013 14 10000 5.14 210 19:24 03.08.2022
782 Clouds 36 1014 18 10000 5.66 220 16:50 03.08.2022
783 Clear 36 1014 20 10000 4.12 0 16:22 03.08.2022
784 Clear 33 1016 31 10000 3.6 140 13:52 03.08.2022
785 Clear 28 1017 43 10000 3.6 100 10:56 03.08.2022
786 Clear 24 1016 54 10000 3.09 330 07:32 03.08.2022
787 Clear 27 1016 46 10000 2.24 78 04:22 03.08.2022
788 Clouds 28 1015 44 10000 2.57 350 03:23 03.08.2022
789 Clear 29 1016 38 10000 3.58 73 00:49 03.08.2022
790 Clouds 32 1016 32 10000 5.36 33 22:43 02.08.2022
791 Thunderstorm 33 1015 27 10000 5.66 360 21:52 02.08.2022
792 Rain 35 1014 26 10000 5.66 190 20:32 02.08.2022
793 Clouds 38 1014 20 10000 3.13 201 18:34 02.08.2022
794 Clear 36 1017 29 10000 3.13 205 15:20 02.08.2022
795 Clear 29 1019 44 10000 2.57 100 10:51 02.08.2022
796 Clear 26 1018 43 10000 2.57 50 08:54 02.08.2022
797 Clear 25 1006 45 10000 2.24 57 07:52 02.08.2022
798 Clear 26 1005 45 10000 2.24 59 06:41 02.08.2022
799 Clear 27 1002 47 10000 2.06 60 04:31 02.08.2022
800 Clear 33 1004 21 10000 2.57 340 23:35 01.08.2022
801 Clouds 34 1003 21 10000 1.54 190 22:22 01.08.2022
802 Clouds 37 1016 18 10000 1.79 156 20:47 01.08.2022
803 Clouds 37 1016 18 10000 3.09 310 19:22 01.08.2022
804 Clouds 38 1016 17 10000 2.57 170 17:57 01.08.2022
805 Clouds 37 1017 18 10000 2.57 0 16:52 01.08.2022
806 Clouds 37 1017 19 10000 2.68 64 15:52 01.08.2022
807 Clouds 36 1018 19 10000 2.57 90 15:30 01.08.2022
808 Clouds 34 1019 31 10000 2.68 20 13:48 01.08.2022
809 Clouds 30 1019 48 9000 3.09 80 11:50 01.08.2022
810 Clouds 30 1019 48 9000 3.09 80 11:50 01.08.2022
811 Clouds 26 1020 52 10000 3.09 60 09:39 01.08.2022
812 Clouds 24 1007 52 10000 2.57 70 08:22 01.08.2022
813 Clear 26 1005 45 10000 2.24 31 04:47 01.08.2022
814 Clear 29 1005 32 10000 3.13 82 02:32 01.08.2022
815 Clear 31 1005 27 10000 3.6 350 23:54 31.07.2022
816 Clear 33 1004 27 10000 2.57 300 22:36 31.07.2022
817 Clear 33 1004 27 10000 2.57 300 22:36 31.07.2022
818 Clear 35 1017 25 10000 2.06 220 20:50 31.07.2022
819 Clear 36 1017 24 10000 2.57 280 19:41 31.07.2022
820 Clouds 36 1017 26 10000 2.57 210 17:47 31.07.2022
821 Clear 34 1019 33 10000 3.09 180 15:35 31.07.2022
822 Clear 31 1020 44 10000 2.57 130 13:41 31.07.2022
823 Clear 28 1020 52 10000 3.09 90 11:55 31.07.2022
824 Clear 24 1020 56 10000 3.6 70 09:36 31.07.2022
825 Clear 23 1006 63 10000 1.54 10 06:48 31.07.2022
826 Clear 25 1007 52 10000 2.06 340 02:57 31.07.2022
827 Clear 28 1006 45 10000 2.06 80 23:35 30.07.2022
828 Clouds 28 998 45 10000 2.68 98 22:19 30.07.2022
829 Clouds 29 1001 38 10000 3.09 360 21:48 30.07.2022
830 Clouds 28 991 49 10000 8.23 290 20:56 30.07.2022
831 Clouds 28 1003 46 10000 8.75 290 19:58 30.07.2022
832 Thunderstorm 28 995 54 1500 11.83 180 18:53 30.07.2022
833 Clouds 37 1016 21 10000 3.6 170 17:42 30.07.2022
834 Clear 35 1018 29 10000 4.12 90 15:49 30.07.2022
835 Clear 34 1019 32 10000 4.63 110 15:21 30.07.2022
836 Clear 30 1020 45 10000 3.6 40 12:55 30.07.2022
837 Clear 28 1020 51 10000 4.63 40 11:55 30.07.2022
838 Clear 25 1021 50 10000 3.6 40 10:28 30.07.2022
839 Clear 24 1020 51 10000 5.14 30 09:47 30.07.2022
840 Clear 22 1020 53 10000 4.63 40 07:54 30.07.2022
841 Clear 25 1005 45 10000 4.92 43 02:37 30.07.2022
842 Clear 26 1019 42 10000 5.36 59 01:49 30.07.2022
843 Clear 32 1003 19 10000 2.57 220 22:25 29.07.2022
844 Clear 34 1016 19 10000 3.6 220 21:23 29.07.2022
845 Clear 35 1015 14 10000 4.63 220 19:57 29.07.2022
846 Clear 35 1015 15 10000 6.17 220 17:53 29.07.2022
847 Clear 34 1016 20 10000 6.17 230 15:26 29.07.2022
848 Clear 31 1017 28 10000 4.47 222 13:18 29.07.2022
849 Clear 27 1017 41 10000 1.03 0 10:42 29.07.2022
850 Clear 24 1016 45 10000 2.24 75 08:50 29.07.2022
851 Clear 23 1003 49 10000 1.79 48 07:54 29.07.2022
852 Clear 27 1002 32 10000 2.57 290 01:52 29.07.2022
853 Clear 31 1001 25 10000 5.14 250 22:49 28.07.2022
854 Clouds 33 1013 21 10000 6.69 230 21:20 28.07.2022
855 Clouds 34 1012 19 10000 6.69 230 20:31 28.07.2022
856 Clear 34 1012 18 10000 4.92 231 19:43 28.07.2022
857 Clouds 35 1012 17 10000 6.69 240 18:50 28.07.2022
858 Clouds 34 1013 16 10000 5.14 240 17:43 28.07.2022
859 Clouds 35 1001 16 10000 5.66 220 16:55 28.07.2022
860 Clouds 33 1014 18 10000 4.63 250 15:32 28.07.2022
861 Clear 31 1015 24 10000 3.6 260 13:29 28.07.2022
862 Clear 29 1015 31 10000 2.06 180 11:27 28.07.2022
863 Clear 24 1001 42 10000 2.57 310 06:45 28.07.2022
864 Clear 24 1001 39 10000 2.57 300 05:31 28.07.2022
865 Clear 28 1014 28 10000 1.54 10 01:23 28.07.2022
866 Clear 31 998 29 10000 4.63 220 22:41 27.07.2022
867 Clear 33 1012 27 10000 4.63 230 21:29 27.07.2022
868 Clear 34 1012 19 10000 4.12 220 19:43 27.07.2022
869 Clear 35 1013 20 10000 4.12 240 17:50 27.07.2022
870 Clouds 33 1014 25 10000 4.12 240 15:52 27.07.2022
871 Clouds 33 1015 28 10000 3.09 0 14:58 27.07.2022
872 Clouds 32 1015 30 10000 4.63 180 14:35 27.07.2022
873 Clear 29 1016 46 10000 2.68 173 12:50 27.07.2022
874 Clear 22 1004 52 10000 4.63 40 08:44 27.07.2022
875 Clear 21 1003 54 10000 3.13 34 07:24 27.07.2022
876 Clear 26 1003 42 10000 4.02 59 02:42 27.07.2022
877 Clear 31 1002 27 10000 3.6 350 22:29 26.07.2022
878 Clear 33 1001 25 10000 5.66 330 21:21 26.07.2022
879 Clear 34 1014 23 10000 4.12 320 20:43 26.07.2022
880 Clear 35 1015 20 10000 4.63 200 18:44 26.07.2022
881 Clear 35 1015 20 10000 4.63 200 18:19 26.07.2022
882 Clear 34 1016 20 10000 6.17 300 16:32 26.07.2022
883 Clear 34 1017 21 10000 4.63 170 15:36 26.07.2022
884 Clear 32 1018 26 10000 2.57 150 13:47 26.07.2022
885 Clear 28 1019 37 10000 3.09 50 11:39 26.07.2022
886 Clear 24 1019 49 10000 4.63 50 09:32 26.07.2022
887 Clear 22 1005 53 10000 2.57 360 07:31 26.07.2022
888 Clear 28 1006 19 10000 2.06 80 00:57 26.07.2022
889 Clear 30 1006 16 10000 2.57 330 23:33 25.07.2022
890 Clear 32 1005 15 10000 4.12 310 22:27 25.07.2022
891 Clouds 33 1018 15 10000 5.14 310 21:43 25.07.2022
892 Clouds 35 1005 14 10000 5.66 310 20:42 25.07.2022
893 Clouds 35 1005 14 10000 6.17 300 19:51 25.07.2022
894 Clouds 37 1005 14 10000 5.14 220 18:23 25.07.2022
895 Clear 37 1017 12 10000 5.66 220 17:31 25.07.2022
896 Clear 36 1006 11 10000 8.23 240 15:30 25.07.2022
897 Clear 33 1008 17 10000 5.66 230 12:29 25.07.2022
898 Clear 28 1020 31 10000 1.54 250 10:32 25.07.2022
899 Clear 25 1020 28 9000 2.57 230 06:51 25.07.2022
900 Clear 32 1006 19 10000 4.47 269 23:56 24.07.2022
901 Clear 32 1005 19 10000 5.14 240 23:19 24.07.2022
902 Clear 33 1005 17 10000 4.63 230 22:35 24.07.2022
903 Clear 34 1019 16 10000 6.17 240 21:28 24.07.2022
904 Clear 35 1018 14 10000 8.23 250 20:53 24.07.2022
905 Clear 36 1006 14 10000 8.75 230 20:29 24.07.2022
906 Clear 38 1006 12 10000 10.8 250 18:57 24.07.2022
907 Clear 38 1018 11 10000 7.2 220 16:51 24.07.2022
908 Clear 37 1019 13 10000 6.69 220 15:53 24.07.2022
909 Clear 36 1020 17 10000 5.66 230 14:40 24.07.2022
910 Clear 34 1021 18 10000 5.14 220 13:25 24.07.2022
911 Clear 32 1021 19 10000 5.66 230 12:19 24.07.2022
912 Clear 30 1021 21 10000 2.57 220 11:26 24.07.2022
913 Clear 26 1021 23 10000 1.79 192 09:23 24.07.2022
914 Clear 22 1008 26 10000 1.54 110 07:53 24.07.2022
915 Clear 24 1004 23 10000 1.54 350 06:34 24.07.2022
916 Clear 27 1004 18 10000 4.12 260 02:33 24.07.2022
917 Clear 33 1005 15 10000 3.09 240 22:31 23.07.2022
918 Clear 36 1018 10 10000 5.66 240 20:41 23.07.2022
919 Clear 38 1018 8 10000 6.17 250 18:52 23.07.2022
920 Clear 38 1018 9 10000 6.69 250 17:48 23.07.2022
921 Clear 38 1006 10 10000 6.17 210 17:24 23.07.2022
922 Clear 37 1019 11 10000 6.69 220 15:55 23.07.2022
923 Clear 36 1019 12 10000 6.69 230 15:21 23.07.2022
924 Clear 36 1007 12 10000 6.69 230 14:47 23.07.2022
925 Clear 35 1008 13 10000 4.63 210 13:54 23.07.2022
926 Clear 30 1020 24 10000 1.79 190 11:47 23.07.2022
927 Clear 27 1020 33 10000 1.03 0 10:28 23.07.2022
928 Clear 25 1020 42 10000 1.79 70 09:28 23.07.2022
929 Clear 23 1006 34 10000 2.06 10 06:40 23.07.2022
930 Clear 26 1005 21 10000 2.57 340 03:37 23.07.2022
931 Clear 31 1004 18 10000 3.6 250 23:59 22.07.2022
932 Clear 34 1018 17 10000 5.66 250 21:28 22.07.2022
933 Clear 36 1005 17 10000 6.69 260 20:29 22.07.2022
934 Clouds 36 1018 15 10000 3.58 270 18:41 22.07.2022
935 Clear 37 1006 16 10000 7.15 248 17:38 22.07.2022
936 Clear 35 1019 19 10000 6.69 240 15:35 22.07.2022
937 Clear 32 1020 31 10000 2.06 0 12:41 22.07.2022
938 Clear 27 1020 43 10000 2.06 90 09:56 22.07.2022
939 Clear 26 1020 43 10000 2.57 80 09:21 22.07.2022
940 Clear 25 1006 47 10000 2.06 100 07:51 22.07.2022
941 Clear 27 1005 37 10000 2.57 130 04:22 22.07.2022
942 Clear 32 1005 22 10000 2.06 250 23:29 21.07.2022
943 Clear 35 1018 19 10000 2.57 240 21:41 21.07.2022
944 Clear 37 1017 14 10000 3.09 240 19:42 21.07.2022
945 Clear 37 1018 16 10000 4.63 220 18:30 21.07.2022
946 Clear 37 1018 17 10000 3.09 170 17:21 21.07.2022
947 Clear 36 1019 22 10000 3.13 182 15:58 21.07.2022
948 Clear 34 1020 24 10000 3.09 0 14:46 21.07.2022
949 Clear 33 1021 25 10000 3.6 100 13:53 21.07.2022
950 Clear 30 1022 30 10000 3.09 70 11:54 21.07.2022
951 Clear 27 1022 38 10000 3.09 70 09:54 21.07.2022
952 Clear 25 1022 41 10000 3.09 70 08:53 21.07.2022
953 Clear 25 1022 42 10000 2.57 50 08:53 21.07.2022
954 Clear 24 1009 44 10000 2.57 60 07:50 21.07.2022
955 Clear 24 1008 43 10000 2.06 70 06:27 21.07.2022
956 Clear 27 1007 40 10000 2.57 90 02:49 21.07.2022
957 Clear 31 1006 19 10000 2.06 210 22:47 20.07.2022
958 Clear 33 1006 19 10000 2.57 200 22:19 20.07.2022
959 Clouds 36 1018 12 10000 2.06 0 20:46 20.07.2022
960 Clouds 36 1018 12 10000 2.06 330 19:47 20.07.2022
961 Clouds 36 1019 12 10000 2.57 160 18:54 20.07.2022
962 Clear 36 1019 13 10000 2.06 270 18:31 20.07.2022
963 Clear 36 1019 13 10000 2.57 10 17:28 20.07.2022
964 Clear 34 1020 15 10000 2.68 153 15:38 20.07.2022
965 Clear 34 1020 17 9000 3.6 120 14:49 20.07.2022
966 Clear 31 1021 22 10000 2.68 78 13:21 20.07.2022
967 Clear 29 1021 26 10000 3.09 40 11:29 20.07.2022
968 Clear 22 1007 34 10000 2.06 360 06:49 20.07.2022
969 Clear 25 1006 27 10000 3.09 270 01:56 20.07.2022
970 Clear 27 1006 25 10000 3.09 320 00:42 20.07.2022
971 Clear 29 1005 18 10000 4.12 250 22:38 19.07.2022
972 Clear 30 1005 17 10000 4.12 250 22:20 19.07.2022
973 Clear 32 1018 14 10000 6.69 250 20:50 19.07.2022
974 Clear 33 1017 14 10000 7.2 210 19:37 19.07.2022
975 Clear 33 1018 14 10000 7.72 230 18:42 19.07.2022
976 Clear 34 1006 14 10000 7.72 230 17:55 19.07.2022
977 Clear 32 1007 17 10000 7.72 240 15:50 19.07.2022
978 Clear 31 1008 22 10000 5.66 220 13:51 19.07.2022
979 Clear 28 1020 31 10000 4.63 220 11:34 19.07.2022
980 Clear 26 1020 34 10000 5.14 240 09:58 19.07.2022
981 Clear 24 1020 35 10000 3.6 190 08:48 19.07.2022
982 Clear 23 1020 35 10000 4.02 231 08:21 19.07.2022
983 Clear 25 1006 34 10000 3.09 210 07:18 19.07.2022
984 Clear 26 1005 32 10000 2.68 225 05:26 19.07.2022
985 Clear 27 1005 32 10000 2.57 180 04:41 19.07.2022
986 Clear 32 1004 26 10000 3.09 200 00:31 19.07.2022
987 Clouds 34 1004 24 10000 4.12 240 23:21 18.07.2022
988 Clouds 34 1017 21 10000 5.14 240 22:55 18.07.2022
989 Clear 36 1016 17 10000 4.63 230 21:53 18.07.2022
990 Clouds 37 1004 15 10000 6.69 170 20:50 18.07.2022
991 Clouds 38 1016 14 10000 5.66 210 19:24 18.07.2022
992 Clear 38 1006 15 10000 4.63 180 16:52 18.07.2022
993 Clear 36 1019 18 10000 4.12 180 15:42 18.07.2022
994 Clear 35 1020 20 10000 4.12 220 14:24 18.07.2022
995 Clear 32 1020 23 10000 3.09 140 12:38 18.07.2022
996 Clear 29 1021 29 10000 3.09 120 10:37 18.07.2022
997 Clear 27 1021 32 10000 2.06 70 08:51 18.07.2022
998 Clear 26 1007 34 10000 1.79 76 06:58 18.07.2022
999 Clear 32 1006 20 10000 2.57 150 00:36 18.07.2022
1000 Clear 35 1006 20 10000 3.09 160 22:34 17.07.2022
1001 Clear 36 1001 19 10000 3.6 160 21:49 17.07.2022
1002 Clear 37 1018 16 10000 4.63 140 21:18 17.07.2022
1003 Clear 38 1018 14 10000 4.63 150 20:37 17.07.2022
1004 Clear 38 1018 14 10000 5.14 140 19:29 17.07.2022
1005 Clear 39 1019 14 10000 4.63 140 18:27 17.07.2022
1006 Clear 39 1019 14 10000 4.63 150 17:38 17.07.2022
1007 Clear 38 1019 14 10000 5.14 160 16:50 17.07.2022
1008 Clear 38 1020 14 10000 5.14 150 16:26 17.07.2022
1009 Clear 38 1020 14 10000 5.14 150 16:26 17.07.2022
1010 Clear 36 1021 17 10000 3.09 160 14:44 17.07.2022
1011 Clear 35 1021 20 10000 3.6 130 13:31 17.07.2022
1012 Clear 32 1022 26 10000 4.12 130 11:35 17.07.2022
1013 Clear 27 1021 34 10000 2.57 60 08:57 17.07.2022
1014 Clear 29 1004 26 10000 3.09 90 03:44 17.07.2022
1015 Clear 30 1005 25 10000 1.54 330 02:32 17.07.2022
1016 Clear 33 1003 19 10000 2.57 200 23:20 16.07.2022
1017 Clouds 36 1017 15 10000 4.12 170 21:30 16.07.2022
1018 Clouds 39 1017 14 10000 4.63 150 19:30 16.07.2022
1019 Clouds 39 1017 13 10000 3.09 160 18:32 16.07.2022
1020 Clouds 39 1017 13 10000 3.09 160 18:32 16.07.2022
1021 Clear 38 1018 15 10000 3.09 150 16:34 16.07.2022
1022 Clear 36 1020 18 10000 3.09 0 13:56 16.07.2022
1023 Clear 30 1020 27 10000 3.6 70 10:55 16.07.2022
1024 Clear 28 1020 30 10000 3.6 50 09:33 16.07.2022
1025 Clear 26 1020 31 10000 3.6 50 08:44 16.07.2022
1026 Clear 26 1006 32 10000 3.6 50 08:23 16.07.2022
1027 Clear 28 1004 30 10000 2.24 83 04:21 16.07.2022
1028 Clear 29 1003 28 10000 2.24 135 02:49 16.07.2022
1029 Clear 33 1002 19 10000 2.06 120 23:34 15.07.2022
1030 Clear 35 1001 16 10000 2.57 120 22:41 15.07.2022
1031 Clear 37 1016 12 10000 3.6 120 21:29 15.07.2022
1032 Clear 38 1016 11 10000 4.12 160 20:30 15.07.2022
1033 Clear 39 1016 12 10000 4.63 180 18:42 15.07.2022
1034 Clear 39 1017 13 10000 4.12 150 17:38 15.07.2022
1035 Clear 37 1018 15 10000 4.12 130 14:54 15.07.2022
1036 Clear 35 1019 18 10000 4.63 130 13:18 15.07.2022
1037 Clear 32 1019 22 10000 3.09 60 11:44 15.07.2022
1038 Clear 30 1019 24 10000 5.14 50 10:23 15.07.2022
1039 Clear 26 1006 23 10000 2.68 45 06:30 15.07.2022
1040 Clear 31 1007 15 10000 2.06 80 01:32 15.07.2022
1041 Clear 33 1006 14 10000 2.57 50 00:22 15.07.2022
1042 Clear 35 1019 13 10000 3.13 67 22:52 14.07.2022
1043 Clear 37 1005 13 10000 3.6 70 21:54 14.07.2022
1044 Clear 38 1002 12 10000 4.02 105 21:30 14.07.2022
1045 Clear 39 1018 11 10000 4.12 70 20:45 14.07.2022
1046 Clear 40 1017 10 10000 4.12 70 20:24 14.07.2022
1047 Clear 40 1017 11 10000 3.6 50 19:45 14.07.2022
1048 Clear 40 1020 12 10000 3.6 110 16:23 14.07.2022
1049 Clear 40 1020 12 10000 2.06 0 15:50 14.07.2022
1050 Clear 38 1021 13 10000 3.09 170 14:43 14.07.2022
1051 Clear 36 1022 15 10000 2.57 0 13:32 14.07.2022
1052 Clear 33 1022 21 10000 1.79 97 12:18 14.07.2022
1053 Clear 32 1022 22 10000 1.54 70 11:25 14.07.2022
1054 Clear 30 1023 26 10000 2.57 70 10:39 14.07.2022
1055 Clear 27 1011 30 10000 2.24 31 08:21 14.07.2022
1056 Clear 30 1009 25 10000 3.6 340 03:29 14.07.2022
1057 Clear 32 1009 21 10000 2.68 30 00:54 14.07.2022
1058 Clear 34 1008 21 10000 2.57 240 23:35 13.07.2022
1059 Clear 35 1006 18 10000 1.54 190 22:23 13.07.2022
1060 Clear 37 1021 16 10000 2.06 160 21:30 13.07.2022
1061 Clear 38 1020 15 10000 1.54 0 20:26 13.07.2022
1062 Clear 39 1021 15 10000 3.6 160 17:56 13.07.2022
1063 Clear 39 1021 15 10000 3.6 210 16:59 13.07.2022
1064 Clear 38 1022 17 10000 2.68 232 15:51 13.07.2022
1065 Clear 35 1023 21 10000 2.24 195 13:45 13.07.2022
1066 Clear 30 1024 28 10000 2.06 80 11:24 13.07.2022
1067 Clear 29 1024 31 10000 2.57 70 10:40 13.07.2022
1068 Clear 27 1024 34 10000 2.06 60 09:28 13.07.2022
1069 Clear 25 1011 36 10000 2.57 40 08:21 13.07.2022
1070 Clear 28 1009 30 10000 1.79 105 04:36 13.07.2022
1071 Clear 31 1008 24 10000 2.06 260 00:25 13.07.2022
1072 Clear 33 1007 21 10000 2.57 240 22:46 12.07.2022
1073 Clear 35 1007 18 10000 2.06 200 21:46 12.07.2022
1074 Clouds 37 1020 16 10000 3.09 180 20:53 12.07.2022
1075 Clouds 38 1020 14 10000 2.06 180 19:48 12.07.2022
1076 Clouds 38 1020 14 10000 3.09 180 18:43 12.07.2022
1077 Clouds 37 1021 15 10000 2.06 0 16:36 12.07.2022
1078 Clear 35 1022 19 10000 2.57 0 14:32 12.07.2022
1079 Clear 35 1022 19 10000 2.57 0 14:32 12.07.2022
1080 Clear 33 1023 20 10000 2.57 0 13:35 12.07.2022
1081 Clear 30 1022 24 10000 3.09 130 11:54 12.07.2022
1082 Clear 28 1022 29 10000 3.09 80 10:27 12.07.2022
1083 Clear 26 1022 36 10000 3.09 80 08:57 12.07.2022
1084 Clear 25 1008 36 10000 3.09 320 07:48 12.07.2022
1085 Clear 26 1007 32 10000 2.57 50 05:47 12.07.2022
1086 Clear 26 1007 32 10000 2.57 50 05:29 12.07.2022
1087 Clear 31 1006 24 10000 3.6 120 01:31 12.07.2022
1088 Clouds 32 1003 22 10000 2.06 320 22:48 11.07.2022
1089 Clouds 35 1002 18 10000 1.54 220 21:34 11.07.2022
1090 Clouds 36 1003 16 10000 3.6 150 20:33 11.07.2022
1091 Clouds 37 1015 14 10000 3.09 140 19:27 11.07.2022
1092 Clouds 38 1015 14 10000 4.12 190 18:30 11.07.2022
1093 Clouds 37 1016 18 10000 3.13 148 16:31 11.07.2022
1094 Clouds 36 1016 21 10000 2.68 195 15:33 11.07.2022
1095 Clear 32 1005 27 10000 2.57 40 13:26 11.07.2022
1096 Clear 29 1018 33 10000 3.09 70 11:24 11.07.2022
1097 Clear 29 1018 33 10000 3.09 70 11:24 11.07.2022
1098 Clouds 27 1017 38 10000 3.6 80 10:18 11.07.2022
1099 Clouds 26 1017 40 10000 3.6 60 09:40 11.07.2022
1100 Clouds 24 1017 43 10000 3.6 50 08:32 11.07.2022
1101 Clear 28 1003 25 10000 2.57 60 02:59 11.07.2022
1102 Clear 32 1003 16 10000 1.79 28 00:18 11.07.2022
1103 Clear 33 1002 17 10000 2.24 21 22:52 10.07.2022
1104 Clear 35 1016 15 10000 4.12 150 21:39 10.07.2022
1105 Clear 36 1015 15 10000 3.09 170 20:41 10.07.2022
1106 Clear 37 1015 14 10000 4.12 220 19:48 10.07.2022
1107 Clear 37 1016 14 10000 4.63 210 18:43 10.07.2022
1108 Clear 37 1017 15 10000 2.68 248 17:36 10.07.2022
1109 Clear 37 1017 15 10000 3.09 0 16:41 10.07.2022
1110 Clear 36 1018 16 10000 3.13 280 15:24 10.07.2022
1111 Clear 35 1018 20 10000 1.79 189 14:21 10.07.2022
1112 Clear 31 1020 32 10000 2.24 60 12:27 10.07.2022
1113 Clear 26 1021 40 10000 2.57 80 09:58 10.07.2022
1114 Clear 24 1020 39 10000 2.24 57 08:44 10.07.2022
1115 Clear 23 1007 41 10000 2.68 69 07:30 10.07.2022
1116 Clear 29 1008 22 10000 2.68 70 01:31 10.07.2022
1117 Clear 32 1007 21 10000 3.09 200 22:43 09.07.2022
1118 Clear 33 1007 21 10000 3.09 200 22:24 09.07.2022
1119 Clear 36 1020 17 10000 2.06 180 20:46 09.07.2022
1120 Clear 36 1020 17 10000 3.13 281 18:37 09.07.2022
1121 Clear 36 1021 17 10000 3.09 0 17:45 09.07.2022
1122 Clear 35 1022 18 10000 2.57 0 16:44 09.07.2022
1123 Clear 35 1023 19 10000 3.09 0 15:41 09.07.2022
1124 Clear 33 1023 24 10000 2.06 130 14:36 09.07.2022
1125 Clear 32 1024 27 10000 2.68 230 13:50 09.07.2022
1126 Clear 30 1025 33 10000 2.57 70 12:47 09.07.2022
1127 Clear 28 1025 36 10000 3.09 70 11:31 09.07.2022
1128 Clear 26 1025 40 10000 3.6 70 10:22 09.07.2022
1129 Clear 22 1013 47 10000 3.6 40 07:53 09.07.2022
1130 Clear 23 1011 40 9000 1.79 43 05:24 09.07.2022
1131 Clear 26 1010 29 10000 3.6 340 02:34 09.07.2022
1132 Clear 30 1009 25 10000 1.03 0 22:59 08.07.2022
1133 Clear 32 1007 24 10000 0.45 113 21:59 08.07.2022
1134 Clear 34 1022 17 10000 2.06 130 20:42 08.07.2022
1135 Clear 34 1022 17 10000 2.06 130 20:23 08.07.2022
1136 Clear 34 1022 18 10000 2.57 0 18:29 08.07.2022
1137 Clear 34 1023 19 10000 2.06 0 17:21 08.07.2022
1138 Clear 33 1023 19 10000 2.57 0 17:21 08.07.2022
1139 Clear 31 1024 26 10000 2.57 20 14:54 08.07.2022
1140 Clear 29 1025 30 10000 2.06 120 13:45 08.07.2022
1141 Clear 26 1026 37 10000 2.57 40 11:59 08.07.2022
1142 Clear 23 1026 44 9000 4.12 30 10:37 08.07.2022
1143 Clear 20 1027 50 10000 5.66 40 08:44 08.07.2022
1144 Clear 19 1013 53 10000 3.13 73 06:50 08.07.2022
1145 Clear 22 1012 38 10000 4.02 72 01:49 08.07.2022
1146 Clear 26 1012 33 10000 4.47 76 23:30 07.07.2022
1147 Clear 28 1011 26 10000 3.58 61 22:38 07.07.2022
1148 Clear 31 1023 18 10000 3.6 360 20:40 07.07.2022
1149 Clear 32 1024 18 10000 3.09 80 18:23 07.07.2022
1150 Clear 31 1024 20 10000 3.6 0 16:57 07.07.2022
1151 Clear 29 1025 21 10000 4.12 0 15:18 07.07.2022
1152 Clear 27 1026 27 10000 6.17 50 13:25 07.07.2022
1153 Clear 25 1026 34 10000 6.17 50 12:37 07.07.2022
1154 Clear 25 1026 37 10000 6.17 40 12:18 07.07.2022
1155 Clear 24 1026 40 10000 7.72 50 11:29 07.07.2022
1156 Clear 22 1026 46 10000 7.2 50 10:42 07.07.2022
1157 Clear 22 1026 48 10000 7.2 50 10:24 07.07.2022
1158 Clear 17 1013 63 10000 4.12 40 07:22 07.07.2022
1159 Clear 18 1012 63 10000 5.36 68 04:18 07.07.2022
1160 Clear 22 1007 56 10000 4.47 83 23:37 06.07.2022
1161 Clear 23 1011 54 10000 4.63 60 23:18 06.07.2022
1162 Clear 23 1010 52 10000 4.63 60 22:56 06.07.2022
1163 Clear 23 1010 50 10000 4.47 87 22:38 06.07.2022
1164 Clear 26 989 41 10000 4.63 60 21:27 06.07.2022
1165 Clear 29 1004 30 10000 6.17 50 19:38 06.07.2022
1166 Clouds 28 996 36 10000 8.23 30 18:21 06.07.2022
1167 Clouds 26 1021 41 10000 10.29 360 16:19 06.07.2022
1168 Clouds 31 1020 32 10000 5.66 240 14:46 06.07.2022
1169 Clear 28 1020 37 10000 2.68 221 12:40 06.07.2022
1170 Clear 27 1020 40 10000 2.06 0 11:49 06.07.2022
1171 Clear 25 1020 53 10000 3.09 160 10:18 06.07.2022
1172 Clear 23 1004 67 10000 1.54 60 07:46 06.07.2022
1173 Clear 22 1020 65 10000 1.79 99 07:23 06.07.2022
1174 Clear 25 1018 48 10000 4.63 150 02:55 06.07.2022
1175 Clear 30 1016 20 10000 3.6 250 22:45 05.07.2022
1176 Clear 30 1016 20 10000 3.6 250 22:45 05.07.2022
1177 -273 0 0 0 0 0 21:37 05.07.2022
1178 Clouds 35 1016 13 10000 5.14 230 20:38 05.07.2022
1179 Clouds 35 1016 13 10000 6.69 220 19:41 05.07.2022
1180 Clouds 35 1016 13 10000 6.69 220 19:22 05.07.2022
1181 Clouds 36 1003 13 10000 7.2 0 17:47 05.07.2022
1182 Clouds 35 1018 14 10000 5.14 0 16:44 05.07.2022
1183 Clouds 34 1005 19 10000 5.66 150 15:25 05.07.2022
1184 Clear 32 1019 22 10000 5.66 190 13:59 05.07.2022
1185 Clear 30 1020 25 10000 4.02 228 12:42 05.07.2022
1186 Clear 28 1020 30 10000 2.06 0 11:32 05.07.2022
1187 Clear 26 1020 36 10000 2.06 30 10:34 05.07.2022
1188 Clear 22 1019 44 10000 2.24 96 08:26 05.07.2022
1189 Clear 21 1004 44 10000 1.79 62 07:45 05.07.2022
1190 Clear 22 1002 33 9000 2.24 41 04:49 05.07.2022
1191 Clear 23 1003 32 10000 2.24 72 04:21 05.07.2022
1192 Clear 28 1002 27 10000 2.06 270 23:45 04.07.2022
1193 Clear 28 1002 27 10000 3.09 270 23:25 04.07.2022
1194 Clear 30 1001 27 10000 3.09 270 22:25 04.07.2022
1195 Clear 32 1017 23 10000 4.12 230 21:30 04.07.2022
1196 Clear 32 1017 21 10000 4.12 260 20:52 04.07.2022
1197 Clear 33 1017 20 10000 4.12 220 20:33 04.07.2022
1198 Clear 33 1017 19 10000 5.14 220 19:52 04.07.2022
1199 Clear 33 1017 19 10000 3.6 250 19:34 04.07.2022
1200 Clear 33 1018 19 10000 4.12 230 17:57 04.07.2022
1201 Clear 32 1019 22 10000 4.63 210 15:50 04.07.2022
1202 Clear 32 1019 22 10000 4.63 210 15:31 04.07.2022
1203 Clear 30 1020 30 10000 3.6 160 13:29 04.07.2022
1204 Clear 29 1020 34 10000 3.6 190 12:20 04.07.2022
1205 Clear 26 1020 40 10000 3.6 220 10:34 04.07.2022
1206 Clear 24 1020 44 10000 1.79 193 09:41 04.07.2022
1207 Clear 22 1004 47 10000 1.79 261 07:33 04.07.2022
1208 Clear 25 1003 41 10000 2.06 140 03:36 04.07.2022
1209 Clear 27 1018 36 10000 3.09 270 00:36 04.07.2022
1210 Clear 29 1002 34 10000 3.6 270 22:58 03.07.2022
1211 Clear 32 1003 30 10000 6.69 250 20:58 03.07.2022
1212 Clear 32 1003 29 10000 5.66 260 20:26 03.07.2022
1213 Clear 33 1003 27 10000 6.69 240 19:27 03.07.2022
1214 Clear 34 1003 27 10000 7.72 250 18:35 03.07.2022
1215 Clear 34 1003 28 10000 7.2 240 17:43 03.07.2022
1216 Clear 33 1018 31 10000 4.63 200 15:51 03.07.2022
1217 Clouds 32 1019 32 10000 5.66 210 14:59 03.07.2022
1218 Clouds 31 1019 37 10000 3.6 210 14:18 03.07.2022
1219 Clouds 30 1019 39 10000 3.13 199 13:48 03.07.2022
1220 Clear 29 1019 41 10000 2.68 198 12:33 03.07.2022
1221 Clouds 27 1019 46 10000 2.06 0 11:28 03.07.2022
1222 Clear 26 1020 53 10000 2.06 0 10:38 03.07.2022
1223 Clear 24 1020 55 10000 3.09 160 09:31 03.07.2022
1224 Clear 23 1004 61 10000 2.57 90 07:35 03.07.2022
1225 Clear 26 1019 51 10000 5.66 140 02:49 03.07.2022
1226 Clear 29 1003 35 10000 2.68 111 00:20 03.07.2022
1227 Clear 31 1002 30 10000 3.6 180 22:33 02.07.2022
1228 Clear 34 1017 23 10000 2.68 202 20:58 02.07.2022
1229 Clear 34 1017 21 10000 2.57 190 19:52 02.07.2022
1230 Clear 35 1017 20 10000 3.09 160 19:20 02.07.2022
1231 Clear 34 1018 23 10000 2.57 0 17:41 02.07.2022
1232 Clear 34 1018 24 10000 2.57 140 16:53 02.07.2022
1233 Clear 31 1019 36 10000 3.6 130 14:31 02.07.2022
1234 Clear 27 1020 50 10000 2.57 60 12:21 02.07.2022
1235 Clear 25 1020 54 10000 3.6 110 11:26 02.07.2022
1236 Clear 24 1020 59 10000 3.6 90 10:37 02.07.2022
1237 Clear 22 1020 66 10000 3.09 70 09:18 02.07.2022
1238 Clear 21 1019 71 10000 3.13 86 08:20 02.07.2022
1239 Clear 20 1019 73 10000 2.24 76 07:27 02.07.2022
1240 Clear 25 1018 58 10000 7.2 130 01:53 02.07.2022
1241 Clear 28 1017 39 10000 4.12 110 23:56 01.07.2022
1242 Clear 29 1000 26 10000 2.06 350 22:41 01.07.2022
1243 Clear 31 1016 23 10000 1.54 340 21:48 01.07.2022
1244 Clear 31 1016 22 10000 1.54 340 21:28 01.07.2022
1245 Clear 32 1016 21 10000 2.57 250 20:40 01.07.2022
1246 Clear 32 1016 22 10000 2.68 222 19:46 01.07.2022
1247 Clear 32 1016 22 10000 3.09 190 17:53 01.07.2022
1248 Clear 30 1017 25 10000 3.6 0 15:54 01.07.2022
1249 Clear 27 1019 35 10000 2.06 0 13:55 01.07.2022
1250 Clear 25 1019 42 10000 2.06 90 12:41 01.07.2022
1251 Clear 20 1019 48 10000 3.09 30 10:20 01.07.2022
1252 Clear 19 1005 51 10000 4.12 20 09:43 01.07.2022
1253 Clear 16 1002 55 10000 3.58 66 05:25 01.07.2022
1254 Clear 22 1017 36 10000 3.13 72 00:42 01.07.2022
1255 Clear 24 1000 29 10000 3.6 320 23:22 30.06.2022
1256 Clear 25 1000 29 10000 5.14 320 22:44 30.06.2022
1257 Clear 25 999 29 10000 5.14 320 22:25 30.06.2022
1258 Clear 26 999 27 10000 5.14 300 21:45 30.06.2022
1259 Clear 28 1000 24 10000 6.69 260 20:30 30.06.2022
1260 Clear 28 1000 23 10000 7.2 280 19:54 30.06.2022
1261 Clear 28 1000 23 10000 7.2 260 19:25 30.06.2022
1262 Clear 29 999 24 10000 6.17 280 18:42 30.06.2022
1263 Clear 29 999 23 10000 5.66 270 17:44 30.06.2022
1264 Clear 29 999 21 10000 5.66 240 16:55 30.06.2022
1265 Clear 28 1013 23 10000 4.63 220 15:42 30.06.2022
1266 Clear 26 1014 29 10000 5.14 190 13:49 30.06.2022
1267 Clear 25 1014 32 10000 3.6 200 12:36 30.06.2022
1268 Clear 24 1014 34 10000 3.09 250 11:56 30.06.2022
1269 Clear 21 1014 42 10000 2.57 270 09:55 30.06.2022
1270 Clear 21 1014 44 10000 2.06 280 09:37 30.06.2022
1271 Clear 18 1013 47 10000 2.24 257 08:19 30.06.2022
1272 Clear 18 1014 46 10000 2.57 250 08:19 30.06.2022
1273 Clear 18 998 49 10000 1.54 270 07:40 30.06.2022
1274 Clear 22 1000 39 10000 2.68 312 02:49 30.06.2022
1275 Clear 26 1000 28 10000 5.66 250 23:38 29.06.2022
1276 Clear 27 999 24 10000 5.66 240 22:41 29.06.2022
1277 Clear 28 1012 21 10000 6.17 240 21:58 29.06.2022
1278 Clear 30 1012 18 10000 7.2 230 20:35 29.06.2022
1279 Clear 30 1012 18 10000 7.2 230 20:35 29.06.2022
1280 Clear 30 1012 17 10000 7.2 260 19:56 29.06.2022
1281 Clear 31 1001 18 10000 7.72 230 17:55 29.06.2022
1282 Clouds 31 1001 18 10000 7.2 240 16:55 29.06.2022
1283 Clear 31 1002 18 10000 6.17 230 15:44 29.06.2022
1284 Clear 29 1015 21 10000 6.71 239 13:43 29.06.2022
1285 Clear 28 1016 22 10000 2.57 230 12:36 29.06.2022
1286 Clear 23 1016 32 10000 1.03 0 09:46 29.06.2022
1287 Clear 22 1017 33 10000 2.06 90 09:22 29.06.2022
1288 Clear 19 1003 35 10000 1.34 40 06:29 29.06.2022
1289 Clear 21 1003 34 10000 3.09 300 04:42 29.06.2022
1290 Clear 24 1004 28 10000 2.57 240 00:53 29.06.2022
1291 Clear 24 1004 28 10000 2.06 230 00:33 29.06.2022
1292 Clear 27 1003 24 8000 3.09 260 22:50 28.06.2022
1293 Clear 28 1017 22 10000 3.09 240 21:59 28.06.2022
1294 Clear 29 1017 19 10000 4.63 220 21:40 28.06.2022
1295 Clear 30 1017 17 10000 3.6 210 21:22 28.06.2022
1296 Clear 30 1017 17 10000 5.14 230 19:54 28.06.2022
1297 Clear 30 1017 17 10000 4.12 240 19:30 28.06.2022
1298 Clear 31 1017 19 10000 3.6 220 18:40 28.06.2022
1299 Clear 30 1018 21 10000 2.68 255 17:25 28.06.2022
1300 Clear 29 1019 23 10000 2.57 200 15:55 28.06.2022
1301 Clear 28 1019 25 10000 3.6 210 14:52 28.06.2022
1302 Clear 27 1020 27 10000 3.09 0 14:19 28.06.2022
1303 Clouds 26 1020 31 10000 2.06 0 13:45 28.06.2022
1304 Clear 25 1021 42 10000 2.57 90 12:30 28.06.2022
1305 Clear 20 1021 50 10000 2.57 50 10:23 28.06.2022
1306 Clear 17 1021 54 10000 3.58 38 08:56 28.06.2022
1307 Clear 17 1021 56 10000 2.57 40 08:37 28.06.2022
1308 Clear 16 1008 59 10000 2.24 26 07:20 28.06.2022
1309 Clear 17 1008 53 10000 2.68 83 03:55 28.06.2022
1310 Clear 22 1020 36 10000 5.14 350 23:51 27.06.2022
1311 Clear 22 1020 35 10000 5.66 360 23:27 27.06.2022
1312 Clear 25 1018 31 10000 3.09 320 22:25 27.06.2022
1313 Clear 26 1018 30 10000 3.09 20 21:29 27.06.2022
1314 Clear 27 1016 23 10000 4.12 10 20:33 27.06.2022
1315 Clouds 27 1017 22 10000 4.12 300 18:51 27.06.2022
1316 Clouds 27 1005 26 10000 5.66 300 17:44 27.06.2022
1317 Clouds 26 1017 25 10000 2.57 310 15:50 27.06.2022
1318 Clouds 25 1017 31 10000 3.09 360 14:25 27.06.2022
1319 Clear 23 1017 36 10000 2.06 0 12:58 27.06.2022
1320 Clear 21 1017 42 10000 2.57 60 11:40 27.06.2022
1321 Clear 18 1016 55 10000 4.47 19 09:49 27.06.2022
1322 Clear 17 1015 57 10000 5.66 30 08:43 27.06.2022
1323 Clear 17 1003 61 10000 4.47 70 07:52 27.06.2022
1324 Clear 17 1014 50 10000 2.24 83 06:28 27.06.2022
1325 Clear 21 1000 28 10000 2.57 250 01:25 27.06.2022
1326 Clear 23 999 25 10000 4.63 260 23:22 26.06.2022
1327 Clear 24 998 24 10000 6.17 230 21:39 26.06.2022
1328 Clear 26 1011 20 10000 5.66 220 20:33 26.06.2022
1329 Clear 26 1000 16 10000 6.69 220 18:38 26.06.2022
1330 Clear 26 1000 15 10000 6.17 210 18:20 26.06.2022
1331 Clear 26 1000 16 10000 7.2 230 15:37 26.06.2022
1332 Clear 25 1000 22 10000 5.14 240 14:23 26.06.2022
1333 Clear 24 1001 29 10000 8.23 190 13:26 26.06.2022
1334 Clear 22 1013 35 10000 4.12 220 11:49 26.06.2022
1335 Clouds 21 1013 37 10000 4.12 240 10:53 26.06.2022
1336 Clouds 20 1013 39 10000 3.09 240 10:22 26.06.2022
1337 Clouds 18 1012 43 10000 1.54 260 08:36 26.06.2022
1338 Clouds 17 999 44 10000 3.09 260 06:50 26.06.2022
1339 Clear 21 999 40 10000 4.63 240 00:38 26.06.2022
1340 Clear 21 999 41 10000 4.63 240 00:19 26.06.2022
1341 Clear 22 1013 37 10000 4.63 260 23:31 25.06.2022
1342 Clear 23 999 37 10000 5.66 250 22:48 25.06.2022
1343 Clear 23 999 37 10000 4.63 240 22:25 25.06.2022
1344 Clouds 25 1012 33 10000 6.69 220 21:21 25.06.2022
1345 Clouds 25 1012 32 10000 7.2 250 20:48 25.06.2022
1346 Clouds 26 1000 33 10000 7.2 250 20:25 25.06.2022
1347 Clouds 26 998 33 10000 7.72 250 18:24 25.06.2022
1348 Clouds 26 1000 33 10000 7.72 230 17:27 25.06.2022
1349 Clouds 26 1001 35 10000 6.17 220 16:28 25.06.2022
1350 Clouds 24 1002 38 10000 5.14 220 14:41 25.06.2022
1351 Clear 22 1015 45 10000 5.81 213 12:51 25.06.2022
1352 Clear 21 1015 46 10000 5.66 200 12:31 25.06.2022
1353 Clear 17 1015 59 10000 2.57 120 09:35 25.06.2022
1354 Clear 17 1015 61 10000 3.09 240 08:54 25.06.2022
1355 Clear 15 1015 63 10000 3.6 240 08:20 25.06.2022
1356 Clear 16 1001 58 10000 2.57 220 06:36 25.06.2022
1357 Clear 21 1002 41 10000 4.12 240 00:50 25.06.2022
1358 Clear 22 1002 36 10000 5.66 250 23:57 24.06.2022
1359 Clear 24 1002 33 10000 5.66 230 22:28 24.06.2022
1360 Clear 25 1015 30 10000 6.17 230 21:28 24.06.2022
1361 Clear 26 1015 28 10000 5.66 230 20:24 24.06.2022
1362 Clouds 26 1015 29 10000 5.66 220 19:37 24.06.2022
1363 Clouds 26 1015 29 10000 5.14 260 19:18 24.06.2022
1364 Clouds 26 1003 31 10000 6.69 220 18:31 24.06.2022
1365 Clouds 26 1015 30 10000 7.2 220 17:57 24.06.2022
1366 Clouds 25 1004 33 10000 7.2 230 16:47 24.06.2022
1367 Clouds 24 1005 39 10000 6.69 210 14:50 24.06.2022
1368 Clouds 23 1018 40 10000 5.66 240 14:23 24.06.2022
1369 Clouds 22 1018 41 10000 6.17 250 13:41 24.06.2022
1370 Clouds 20 1018 51 10000 3.6 240 11:41 24.06.2022
1371 Clouds 18 1018 60 10000 2.68 220 10:36 24.06.2022
1372 Clouds 17 1018 66 10000 3.13 270 09:42 24.06.2022
1373 Clear 17 1018 68 10000 2.06 220 09:42 24.06.2022
1374 Clear 15 1018 74 10000 2.06 110 08:54 24.06.2022
1375 Clear 14 1018 78 10000 2.06 280 08:19 24.06.2022
1376 Clear 14 1002 75 10000 2.24 270 06:44 24.06.2022
1377 Clear 14 999 75 10000 2.06 170 06:22 24.06.2022
1378 Clear 15 999 71 10000 3.09 250 04:46 24.06.2022
1379 Clear 19 1005 54 10000 6.17 300 23:32 23.06.2022
1380 Clear 20 1004 50 10000 6.17 250 22:43 23.06.2022
1381 Clouds 22 1004 41 10000 6.69 240 20:59 23.06.2022
1382 Clouds 22 1016 38 10000 6.69 240 20:36 23.06.2022
1383 Clouds 23 1015 39 10000 7.72 240 19:53 23.06.2022
1384 Clouds 23 1002 39 10000 8.75 250 18:27 23.06.2022
1385 Clouds 23 1002 41 10000 7.72 230 17:34 23.06.2022
1386 Clouds 23 1000 44 10000 6.69 220 16:29 23.06.2022
1387 Clouds 22 1000 47 10000 6.69 230 15:26 23.06.2022
1388 Clouds 21 1003 49 10000 6.69 240 14:34 23.06.2022
1389 Clouds 19 1016 64 10000 5.14 200 11:41 23.06.2022
1390 Clouds 17 1016 76 10000 4.63 220 10:41 23.06.2022
1391 Clouds 16 1016 84 10000 3.6 230 09:19 23.06.2022
1392 Clear 17 1015 61 10000 3.09 230 04:48 23.06.2022
1393 Clear 19 1002 51 10000 3.6 260 00:27 23.06.2022
1394 Clear 19 1002 49 10000 4.12 230 23:52 22.06.2022
1395 Clear 19 1002 48 10000 5.14 220 23:18 22.06.2022
1396 Clouds 21 1001 43 10000 5.66 230 21:36 22.06.2022
1397 Clouds 22 1013 39 10000 5.66 230 20:51 22.06.2022
1398 Clouds 23 1002 38 10000 6.69 240 20:18 22.06.2022
1399 Clouds 23 1001 38 10000 6.17 230 19:27 22.06.2022
1400 Clouds 23 1002 36 10000 6.17 220 17:33 22.06.2022
1401 Clouds 23 1002 38 10000 6.17 200 16:41 22.06.2022
1402 Clouds 23 1002 38 10000 6.17 200 16:41 22.06.2022
1403 Clouds 22 1014 38 10000 6.17 220 15:28 22.06.2022
1404 Clouds 22 1003 40 10000 6.17 230 14:41 22.06.2022
1405 Clouds 21 1003 44 10000 6.69 220 13:46 22.06.2022
1406 Clouds 20 1003 45 10000 6.69 230 13:24 22.06.2022
1407 Clouds 19 1014 48 10000 5.66 230 11:54 22.06.2022
1408 Clouds 18 1002 54 10000 5.66 250 10:58 22.06.2022
1409 Clouds 18 1014 56 10000 5.66 230 10:36 22.06.2022
1410 Clouds 15 1014 64 10000 5.14 230 08:57 22.06.2022
1411 Clear 15 999 61 10000 4.12 220 06:39 22.06.2022
1412 Clear 19 997 37 10000 6.17 230 01:59 22.06.2022
1413 Clear 20 1012 33 10000 5.14 240 00:56 22.06.2022
1414 Clouds 23 997 31 10000 5.14 260 22:40 21.06.2022
1415 Clouds 26 1009 21 10000 6.69 240 20:47 21.06.2022
1416 Clouds 28 998 19 10000 5.66 170 19:20 21.06.2022
1417 Clouds 27 999 23 10000 3.6 150 17:47 21.06.2022
1418 Clouds 25 1012 28 10000 4.12 160 16:36 21.06.2022
1419 Clouds 22 1015 36 10000 3.09 210 11:57 21.06.2022
1420 Clouds 20 1015 45 10000 3.09 260 10:38 21.06.2022
1421 Clouds 17 1015 52 10000 3.58 248 09:20 21.06.2022
1422 Clear 15 1002 57 10000 2.57 250 07:44 21.06.2022
1423 Clear 17 1000 47 10000 3.09 260 04:43 21.06.2022
1424 Clear 21 1001 36 9000 3.6 250 00:21 21.06.2022
1425 Clear 23 1000 32 10000 4.63 250 22:21 20.06.2022
1426 Clear 23 1013 31 10000 5.14 230 21:36 20.06.2022
1427 Clear 24 1001 36 10000 5.66 270 20:28 20.06.2022
1428 Clouds 24 1001 38 10000 6.17 260 19:35 20.06.2022
1429 Clouds 25 1001 37 10000 7.72 250 18:25 20.06.2022
1430 Clouds 25 1001 38 10000 7.2 230 17:45 20.06.2022
1431 Clouds 26 1001 36 10000 7.72 240 16:26 20.06.2022
1432 Clouds 26 1001 36 10000 8.23 230 15:20 20.06.2022
1433 Clouds 24 1002 43 10000 6.17 180 12:18 20.06.2022
1434 Clouds 22 1013 52 10000 3.13 222 09:57 20.06.2022
1435 Clouds 20 1012 54 10000 2.06 190 08:54 20.06.2022
1436 Clouds 18 1012 57 10000 1.54 170 07:51 20.06.2022
1437 Clouds 20 999 54 10000 3.09 190 05:18 20.06.2022
1438 Clear 21 999 47 10000 1.54 240 01:32 20.06.2022
1439 Clear 22 999 44 10000 3.6 280 23:57 19.06.2022
1440 Clear 23 999 42 10000 5.66 290 22:40 19.06.2022
1441 Clear 24 999 40 10000 5.66 280 21:45 19.06.2022
1442 Clear 25 998 40 10000 5.66 280 21:26 19.06.2022
1443 Clear 26 1000 35 10000 6.69 260 20:25 19.06.2022
1444 Clouds 26 1011 33 10000 6.69 250 19:46 19.06.2022
1445 Clouds 27 1000 31 10000 7.72 220 18:41 19.06.2022
1446 Clouds 27 1000 30 10000 6.69 240 17:48 19.06.2022
1447 Clouds 27 1000 31 10000 7.2 220 17:21 19.06.2022
1448 Clouds 27 1000 32 10000 6.69 240 16:34 19.06.2022
1449 Clouds 26 1001 33 10000 7.2 230 15:37 19.06.2022
1450 Clouds 25 1001 37 10000 6.17 220 14:51 19.06.2022
1451 Clouds 24 1000 40 10000 7.2 230 13:54 19.06.2022
1452 Clouds 23 1002 44 10000 7.72 230 12:39 19.06.2022
1453 Clear 21 1002 51 10000 5.66 210 10:54 19.06.2022
1454 Clear 20 1014 53 10000 4.92 245 09:34 19.06.2022
1455 Clear 19 1014 56 10000 4.12 220 08:43 19.06.2022
1456 Clear 18 1013 58 10000 3.6 210 07:48 19.06.2022
1457 Clear 21 1013 41 10000 5.14 230 04:41 19.06.2022
1458 Clear 27 999 31 10000 6.17 220 01:28 19.06.2022
1459 Clear 30 998 29 10000 4.63 210 00:24 19.06.2022
1460 Clear 31 1012 27 10000 4.63 190 23:35 18.06.2022
1461 Clear 32 997 29 10000 3.6 210 22:36 18.06.2022
1462 Clear 34 998 24 10000 7.2 210 20:56 18.06.2022
1463 Clear 35 1011 22 10000 6.69 160 20:28 18.06.2022
1464 Clear 36 999 17 10000 7.2 250 19:37 18.06.2022
1465 Clear 37 1011 13 10000 8.75 150 18:45 18.06.2022
1466 Clouds 37 1000 14 10000 5.66 170 17:31 18.06.2022
1467 Rain 37 1001 14 10000 5.66 140 16:47 18.06.2022
1468 Clear 37 1003 14 10000 5.14 190 15:30 18.06.2022
1469 Clear 37 1016 15 10000 5.66 150 14:42 18.06.2022
1470 Clear 35 1017 17 10000 4.12 160 13:22 18.06.2022
1471 Clear 31 1018 23 10000 2.57 70 11:38 18.06.2022
1472 Clear 30 1019 25 10000 2.57 100 10:46 18.06.2022
1473 Clear 28 1007 30 10000 3.09 50 09:22 18.06.2022
1474 Clear 26 1007 32 10000 2.68 68 08:24 18.06.2022
1475 Clear 25 1006 30 10000 3.09 340 06:44 18.06.2022
1476 Clear 28 1006 24 10000 2.68 90 03:30 18.06.2022
1477 Clear 31 1006 23 10000 1.54 70 01:25 18.06.2022
1478 Clear 31 1020 23 10000 1.34 97 00:46 18.06.2022
1479 Clear 31 1020 25 10000 2.57 110 23:52 17.06.2022
1480 Clear 31 1020 24 10000 1.54 60 23:20 17.06.2022
1481 Rain 35 1007 17 10000 7.2 250 20:55 17.06.2022
1482 Clear 38 1018 13 10000 5.14 120 19:31 17.06.2022
1483 Clear 39 1018 11 10000 5.66 140 18:44 17.06.2022
1484 Clear 39 1019 13 10000 4.63 150 17:43 17.06.2022
1485 Clear 38 1020 14 10000 3.6 100 16:43 17.06.2022
1486 Clear 37 1021 16 10000 3.6 110 15:43 17.06.2022
1487 Clear 37 1021 18 10000 3.13 153 15:20 17.06.2022
1488 Clear 35 1022 20 10000 2.57 0 14:20 17.06.2022
1489 Clear 35 1022 20 10000 2.68 174 13:46 17.06.2022
1490 Clear 34 1022 25 10000 3.09 120 12:57 17.06.2022
1491 Clear 31 1023 30 10000 3.09 90 11:57 17.06.2022
1492 Clear 30 1023 33 10000 4.12 70 11:36 17.06.2022
1493 Clear 29 1023 39 10000 3.09 30 10:51 17.06.2022
1494 Clear 24 1011 55 10000 4.92 68 08:30 17.06.2022
1495 Clear 23 1011 55 10000 4.63 350 07:47 17.06.2022
1496 Clear 23 1010 53 10000 2.68 83 05:57 17.06.2022
1497 Clear 25 1008 48 10000 3.58 81 02:52 17.06.2022
1498 Clear 28 1023 38 10000 6.26 45 00:42 17.06.2022
1499 Clouds 29 1022 34 10000 4.12 280 22:45 16.06.2022
1500 Rain 30 1022 34 10000 5.66 170 22:20 16.06.2022
1501 Rain 30 1021 30 10000 7.2 210 21:19 16.06.2022
1502 Rain 30 1021 31 10000 11.83 200 20:50 16.06.2022
1503 Rain 35 1017 16 10000 2.06 120 19:58 16.06.2022
1504 Clear 39 1017 13 10000 1.54 160 18:44 16.06.2022
1505 Clear 38 1019 15 10000 4.12 110 17:44 16.06.2022
1506 Clear 38 1019 16 10000 4.12 110 17:20 16.06.2022
1507 Clear 36 1020 18 10000 2.06 0 15:44 16.06.2022
1508 Clear 36 1020 19 10000 3.09 60 15:20 16.06.2022
1509 Clear 34 1021 23 10000 3.09 40 13:49 16.06.2022
1510 Clear 32 1021 27 10000 1.79 40 12:38 16.06.2022
1511 Clear 32 1021 28 10000 1.54 0 11:55 16.06.2022
1512 Clear 30 1021 32 10000 1.54 0 11:21 16.06.2022
1513 Clear 29 1021 34 10000 1.54 330 10:35 16.06.2022
1514 Clear 27 1021 41 10000 1.34 31 09:37 16.06.2022
1515 Clear 26 1021 39 10000 1.54 180 08:50 16.06.2022
1516 Clear 27 1007 36 10000 2.06 60 07:38 16.06.2022
1517 Clear 28 1021 35 10000 3.09 50 05:43 16.06.2022
1518 Rain 29 1008 32 10000 6.71 227 03:23 16.06.2022
1519 Clear 30 1007 27 10000 2.24 113 01:51 16.06.2022
1520 Clear 30 1007 26 10000 1.54 170 01:22 16.06.2022
1521 Clear 30 1007 26 10000 1.54 170 01:22 16.06.2022
1522 Clear 31 1006 26 10000 5.66 220 23:58 15.06.2022
1523 Clear 32 1004 23 10000 5.14 90 22:47 15.06.2022
1524 Clear 34 1001 19 10000 6.17 110 21:29 15.06.2022
1525 Clear 36 1003 17 10000 4.63 120 20:58 15.06.2022
1526 Clear 36 1005 16 10000 5.14 110 20:36 15.06.2022
1527 Clear 37 1016 15 10000 4.63 150 19:52 15.06.2022
1528 Clear 39 1016 14 10000 3.6 150 18:30 15.06.2022
1529 Clear 38 1017 15 10000 2.57 0 17:43 15.06.2022
1530 Clear 37 1018 17 10000 2.57 360 16:21 15.06.2022
1531 Clear 37 1019 17 10000 2.68 188 14:57 15.06.2022
1532 Clear 35 1019 20 10000 2.57 50 13:22 15.06.2022
1533 Clear 33 1020 22 10000 2.06 30 12:40 15.06.2022
1534 Clear 30 1020 27 10000 2.57 30 11:24 15.06.2022
1535 Clear 28 1020 30 10000 3.09 60 10:22 15.06.2022
1536 Clear 26 1008 33 10000 2.68 35 08:59 15.06.2022
1537 Clear 25 1006 34 10000 3.09 350 07:36 15.06.2022
1538 Clear 26 1005 32 10000 1.79 65 05:36 15.06.2022
1539 Clear 28 1018 29 10000 1.34 44 02:47 15.06.2022
1540 Clear 28 1018 32 10000 2.06 250 01:36 15.06.2022
1541 Clear 30 1018 27 10000 2.57 250 00:36 15.06.2022
1542 Clear 32 1004 22 10000 3.09 230 23:38 14.06.2022
1543 Clear 33 1004 20 10000 3.09 260 22:47 14.06.2022
1544 Clear 35 1001 17 10000 3.6 270 21:43 14.06.2022
1545 Clear 35 1003 16 10000 5.14 260 21:20 14.06.2022
1546 Clear 36 1004 16 10000 5.66 280 20:40 14.06.2022
1547 Clear 37 1004 15 10000 6.17 250 19:47 14.06.2022
1548 Clear 38 1004 13 10000 4.63 230 18:39 14.06.2022
1549 Clear 38 1004 14 10000 5.66 220 17:19 14.06.2022
1550 Clear 38 1016 14 10000 6.17 230 16:42 14.06.2022
1551 Clear 37 1017 15 10000 5.66 240 15:43 14.06.2022
1552 Clear 37 1017 16 10000 4.12 230 14:56 14.06.2022
1553 Clear 35 1018 18 10000 2.57 230 14:18 14.06.2022
1554 Clear 35 1018 20 10000 2.68 212 13:24 14.06.2022
1555 Clear 33 1018 22 10000 2.06 140 12:19 14.06.2022
1556 Clear 29 1018 26 10000 2.06 70 10:55 14.06.2022
1557 Clear 29 1018 28 10000 2.06 60 10:29 14.06.2022
1558 Clear 27 1018 32 10000 2.06 80 09:26 14.06.2022
1559 Clear 25 1006 35 10000 2.06 70 08:40 14.06.2022
1560 Clear 25 1004 34 10000 2.06 350 06:53 14.06.2022
1561 Clear 26 992 36 10000 2.06 360 04:23 14.06.2022
1562 Clear 28 1017 31 10000 2.06 140 01:38 14.06.2022
1563 Clear 30 1017 29 10000 3.6 270 00:24 14.06.2022
1564 Clear 30 1017 30 10000 2.57 270 22:58 13.06.2022
1565 Clouds 33 1017 23 10000 2.57 250 22:23 13.06.2022
1566 Clouds 34 1016 23 10000 4.63 230 21:41 13.06.2022
1567 Rain 36 1003 15 10000 3.09 250 19:59 13.06.2022
1568 Rain 37 1005 15 10000 3.6 180 19:18 13.06.2022
1569 Clouds 37 1017 14 10000 3.6 220 17:56 13.06.2022
1570 Clear 37 1017 14 10000 5.66 190 17:25 13.06.2022
1571 Clear 36 1018 15 10000 3.6 190 16:31 13.06.2022
1572 Clear 35 1019 16 10000 3.13 234 14:52 13.06.2022
1573 Clear 34 1019 16 10000 3.09 260 14:32 13.06.2022
1574 Clear 34 1020 16 10000 3.09 160 13:36 13.06.2022
1575 Clear 31 1020 20 10000 2.06 140 12:23 13.06.2022
1576 Clear 28 1021 24 10000 2.57 90 10:58 13.06.2022
1577 Clear 27 1021 28 10000 2.57 70 10:26 13.06.2022
1578 Clear 24 1021 33 10000 1.54 50 08:59 13.06.2022
1579 Clear 23 1007 35 10000 2.06 340 06:53 13.06.2022
1580 Clear 24 1006 29 10000 2.06 330 05:36 13.06.2022
1581 Clear 27 1007 25 10000 3.6 140 02:47 13.06.2022
1582 Clear 28 1006 28 10000 5.66 150 01:36 13.06.2022
1583 Clear 31 1020 20 10000 3.6 150 23:50 12.06.2022
1584 Clear 32 1003 26 10000 2.24 150 22:44 12.06.2022
1585 Clear 32 1005 23 10000 2.06 340 22:22 12.06.2022
1586 Clear 35 1018 18 10000 2.06 10 20:58 12.06.2022
1587 Clouds 36 1018 17 10000 2.06 290 20:19 12.06.2022
1588 Clouds 36 1019 16 10000 2.06 320 19:30 12.06.2022
1589 Clouds 35 1019 17 10000 2.68 315 17:47 12.06.2022
1590 Clouds 33 1021 19 10000 2.57 100 15:58 12.06.2022
1591 Clouds 32 1021 21 10000 2.57 0 14:56 12.06.2022
1592 Clouds 31 1022 22 10000 2.06 0 14:20 12.06.2022
1593 Clouds 31 1022 23 10000 2.06 0 13:49 12.06.2022
1594 Clouds 29 1022 27 10000 2.57 70 12:35 12.06.2022
1595 Clouds 28 1023 28 10000 3.09 80 11:37 12.06.2022
1596 Clear 25 1023 35 10000 3.6 70 10:22 12.06.2022
1597 Clouds 23 1011 45 10000 3.6 50 08:54 12.06.2022
1598 Clouds 23 1011 46 10000 4.63 50 08:35 12.06.2022
1599 Clear 22 1010 46 10000 2.24 80 07:32 12.06.2022
1600 Clear 24 1022 32 10000 3.09 70 04:35 12.06.2022
1601 Clear 26 1022 27 10000 3.6 70 02:53 12.06.2022
1602 Clear 27 1022 25 10000 3.58 118 01:39 12.06.2022
1603 Clear 28 1022 25 10000 5.66 120 00:58 12.06.2022
1604 Clear 29 1022 27 10000 3.6 90 00:20 12.06.2022
1605 Clear 30 1021 25 10000 3.09 130 23:40 11.06.2022
1606 Clear 32 1004 23 10000 3.6 120 22:38 11.06.2022
1607 Clear 33 1019 21 10000 3.6 140 21:42 11.06.2022
1608 Clouds 35 1018 20 10000 4.12 130 20:36 11.06.2022
1609 Clouds 35 1018 20 10000 3.6 120 19:46 11.06.2022
1610 Clouds 36 1019 20 10000 3.6 120 19:25 11.06.2022
1611 Clouds 36 1019 21 10000 4.12 190 18:33 11.06.2022
1612 Clouds 36 1019 22 10000 2.57 140 17:51 11.06.2022
1613 Clouds 36 1019 22 10000 2.24 135 17:26 11.06.2022
1614 Clouds 36 1019 22 10000 2.57 110 16:55 11.06.2022
1615 Clouds 36 1019 22 10000 4.12 200 16:27 11.06.2022
1616 Clear 35 1020 25 10000 4.12 140 15:31 11.06.2022
1617 Clear 32 1021 28 10000 3.09 0 13:53 11.06.2022
1618 Clear 32 1021 28 10000 3.09 0 13:53 11.06.2022
1619 Clear 30 1022 31 10000 2.57 0 12:51 11.06.2022
1620 Clear 27 1022 40 10000 2.57 60 10:48 11.06.2022
1621 Clear 25 1022 43 10000 3.09 60 09:51 11.06.2022
1622 Clear 24 1022 45 10000 3.6 70 09:18 11.06.2022
1623 Clear 22 1008 45 10000 2.06 60 07:40 11.06.2022
1624 Clear 23 1007 41 10000 2.06 70 06:30 11.06.2022
1625 Clear 24 1007 51 10000 2.24 93 04:30 11.06.2022
1626 Clear 27 1020 30 10000 2.24 96 01:53 11.06.2022
1627 Clear 27 1003 30 10000 2.68 26 01:32 11.06.2022
1628 Clear 28 1000 30 10000 0.51 0 23:49 10.06.2022
1629 Clear 31 1005 24 10000 1.03 340 22:31 10.06.2022
1630 Clear 32 1019 25 10000 1.03 0 21:50 10.06.2022
1631 Clear 34 1019 17 10000 2.57 220 20:41 10.06.2022
1632 Clear 35 1019 16 10000 2.06 220 20:21 10.06.2022
1633 Clear 35 1019 16 10000 2.06 0 19:20 10.06.2022
1634 Clear 35 1019 16 10000 2.06 0 18:55 10.06.2022
1635 Clear 35 1019 16 10000 2.68 307 17:58 10.06.2022
1636 Clear 34 1019 17 10000 2.57 260 17:35 10.06.2022
1637 Clear 34 1020 16 10000 2.06 0 16:50 10.06.2022
1638 Clear 33 1020 15 10000 2.06 0 15:44 10.06.2022
1639 Clear 33 1021 15 10000 2.57 170 14:51 10.06.2022
1640 Clear 30 1022 20 10000 2.57 20 13:26 10.06.2022
1641 Clear 27 1023 27 10000 2.24 23 11:59 10.06.2022
1642 Clear 26 1023 29 10000 2.68 339 11:30 10.06.2022
1643 Clear 24 1023 33 10000 3.6 40 10:36 10.06.2022
1644 Clear 22 1023 38 10000 3.6 40 09:26 10.06.2022
1645 Clear 20 1011 46 10000 2.68 29 07:57 10.06.2022
1646 Clear 20 1009 51 10000 3.13 49 06:49 10.06.2022
1647 Clear 19 1009 51 10000 4.02 45 06:30 10.06.2022
1648 Clear 20 1009 53 10000 3.09 60 05:34 10.06.2022
1649 Clear 23 1008 44 10000 4.02 68 02:50 10.06.2022
1650 Clear 24 1022 38 10000 4.92 70 01:37 10.06.2022
1651 Clear 27 1021 33 10000 3.6 60 23:58 09.06.2022
1652 Clear 29 1001 29 10000 2.57 0 22:43 09.06.2022
1653 Clear 30 1020 25 10000 3.09 60 21:44 09.06.2022
1654 Clear 31 1020 24 10000 3.09 60 21:25 09.06.2022
1655 Clouds 32 1019 24 10000 4.63 60 20:40 09.06.2022
1656 Clouds 33 1019 24 10000 3.6 70 19:51 09.06.2022
1657 Clouds 33 1019 24 10000 4.12 0 18:41 09.06.2022
1658 Clouds 32 1019 24 10000 4.12 40 17:55 09.06.2022
1659 Clouds 31 1020 27 10000 3.09 30 16:28 09.06.2022
1660 Clear 30 1021 31 10000 2.68 90 15:22 09.06.2022
1661 Clear 29 1021 34 10000 3.13 5 14:30 09.06.2022
1662 Clear 28 1021 37 10000 3.6 320 13:44 09.06.2022
1663 Clear 27 1021 39 10000 2.06 50 13:19 09.06.2022
1664 Clear 24 1022 50 10000 2.57 40 11:43 09.06.2022
1665 Clear 22 1022 57 10000 3.6 60 10:34 09.06.2022
1666 Clear 21 1022 61 10000 3.6 30 09:38 09.06.2022
1667 Clear 20 1021 63 10000 3.09 30 09:20 09.06.2022
1668 Clear 18 1021 66 10000 1.79 77 07:29 09.06.2022
1669 Clear 21 1007 60 10000 2.06 350 04:47 09.06.2022
1670 Clear 23 1007 51 10000 4.63 290 00:36 09.06.2022
1671 Clouds 24 1007 46 10000 4.12 290 23:23 08.06.2022
1672 Clear 25 1006 45 10000 4.12 290 22:44 08.06.2022
1673 Clear 25 1006 44 10000 4.12 290 22:24 08.06.2022
1674 Clouds 26 1006 40 10000 4.63 290 21:45 08.06.2022
1675 Clouds 27 1019 37 10000 5.14 310 20:33 08.06.2022
1676 Clouds 27 1018 38 10000 5.66 290 19:46 08.06.2022
1677 Clouds 27 1007 40 10000 6.69 300 18:49 08.06.2022
1678 Clouds 27 1007 39 10000 6.69 290 17:48 08.06.2022
1679 Clouds 27 1006 39 10000 8.23 300 16:18 08.06.2022
1680 Clouds 26 1007 43 10000 7.72 290 14:46 08.06.2022
1681 Clouds 25 1007 45 10000 6.69 290 12:55 08.06.2022
1682 Clear 24 1018 45 10000 5.36 286 11:44 08.06.2022
1683 Clear 24 1018 46 10000 3.6 290 11:19 08.06.2022
1684 Clear 22 1018 52 10000 4.12 310 09:45 08.06.2022
1685 Clear 22 1018 55 10000 4.12 310 09:18 08.06.2022
1686 Clear 20 1004 55 10000 2.06 250 07:22 08.06.2022
1687 Clear 22 1003 47 10000 3.6 310 04:51 08.06.2022
1688 Clear 24 1003 31 10000 3.6 260 02:19 08.06.2022
1689 Clear 27 1004 35 10000 4.12 260 23:41 07.06.2022
1690 Clear 27 1004 36 10000 5.14 250 23:22 07.06.2022
1691 Clear 28 1004 34 10000 5.66 250 22:38 07.06.2022
1692 Clear 29 1017 30 10000 5.14 250 21:45 07.06.2022
1693 Clear 29 1016 29 10000 5.14 240 21:24 07.06.2022
1694 Clear 30 1016 27 10000 5.66 240 20:43 07.06.2022
1695 Clear 31 1005 26 10000 6.69 250 19:59 07.06.2022
1696 Clear 32 1006 26 10000 5.66 240 18:42 07.06.2022
1697 Clear 32 1005 26 10000 6.17 230 17:54 07.06.2022
1698 Clear 32 1006 25 10000 5.14 230 16:54 07.06.2022
1699 Clear 31 1007 25 10000 4.12 0 16:32 07.06.2022
1700 Clear 30 1019 26 10000 4.12 210 15:40 07.06.2022
1701 Clear 30 1007 27 10000 4.63 0 15:21 07.06.2022
1702 Clear 29 1020 29 10000 4.12 220 14:45 07.06.2022
1703 Clear 28 1020 30 10000 3.09 300 13:46 07.06.2022
1704 Clear 28 1020 30 10000 3.6 0 13:26 07.06.2022
1705 Clear 26 1021 36 10000 2.57 200 12:22 07.06.2022
1706 Clear 25 1021 39 10000 1.54 110 10:57 07.06.2022
1707 Clear 22 1021 50 10000 1.54 60 09:46 07.06.2022
1708 Clear 20 1021 50 10000 0.89 56 08:31 07.06.2022
1709 Clear 19 1005 51 10000 2.06 120 07:19 07.06.2022
1710 Clear 20 1006 48 10000 2.06 320 05:19 07.06.2022
1711 Clear 23 1006 39 10000 1.54 320 01:44 07.06.2022
1712 Clear 24 1005 34 10000 3.09 290 00:20 07.06.2022
1713 Clear 25 1005 33 10000 4.12 260 23:25 06.06.2022
1714 Clear 26 1020 33 10000 3.09 280 22:37 06.06.2022
1715 Clear 28 1019 28 10000 4.12 250 21:33 06.06.2022
1716 Clear 29 1019 24 10000 5.14 250 19:53 06.06.2022
1717 Clear 30 1006 22 10000 5.66 230 19:19 06.06.2022
1718 Clear 29 1019 21 10000 5.66 240 18:34 06.06.2022
1719 Clear 29 1020 19 10000 5.81 248 17:36 06.06.2022
1720 Clear 29 1020 20 10000 6.17 250 16:33 06.06.2022
1721 Clear 28 1020 23 10000 6.17 250 15:39 06.06.2022
1722 Clear 28 1021 25 10000 5.14 240 14:39 06.06.2022
1723 Clear 27 1008 30 10000 6.17 230 13:27 06.06.2022
1724 Clear 26 1022 32 10000 5.14 250 12:37 06.06.2022
1725 Clear 25 1021 35 10000 3.58 216 11:58 06.06.2022
1726 Clear 24 1022 38 10000 3.09 210 11:28 06.06.2022
1727 Clear 21 1021 50 10000 0.89 120 09:40 06.06.2022
1728 Clear 18 1021 54 10000 1.03 270 08:35 06.06.2022
1729 Clear 17 1006 56 10000 1.03 0 07:28 06.06.2022
1730 Clear 18 1004 51 10000 0.89 190 05:29 06.06.2022
1731 Clear 18 1004 51 10000 0.89 190 05:29 06.06.2022
1732 Clear 20 1004 45 9000 2.68 315 03:46 06.06.2022
1733 Clear 22 1005 44 10000 1.79 248 01:29 06.06.2022
1734 Clear 22 1005 43 10000 2.06 160 00:42 06.06.2022
1735 Clear 23 1005 41 10000 3.09 250 23:49 05.06.2022
1736 Clear 25 1002 37 10000 2.57 250 22:52 05.06.2022
1737 Clear 26 1020 28 10000 4.12 210 21:26 05.06.2022
1738 Clear 28 1007 23 10000 5.14 210 19:52 05.06.2022
1739 Clear 28 1020 25 10000 4.12 0 18:31 05.06.2022
1740 Clear 28 1020 25 10000 4.12 240 17:56 05.06.2022
1741 Clear 28 1021 24 10000 4.12 210 17:27 05.06.2022
1742 Clear 28 1021 25 10000 3.09 0 16:58 05.06.2022
1743 Clear 27 1021 26 10000 4.02 248 16:37 05.06.2022
1744 Clear 26 1022 30 10000 4.12 250 14:46 05.06.2022
1745 Clear 24 1022 36 10000 3.09 270 13:21 05.06.2022
1746 Clear 22 1022 44 10000 2.57 170 11:51 05.06.2022
1747 Clear 20 1022 54 10000 1.54 0 10:44 05.06.2022
1748 Clear 19 1022 53 10000 1.54 300 10:23 05.06.2022
1749 Clear 17 1022 59 10000 3.6 250 08:45 05.06.2022
1750 Clear 16 1021 61 10000 2.57 250 08:20 05.06.2022
1751 Clear 16 1005 58 8000 3.09 260 05:23 05.06.2022
1752 Clear 17 1005 57 9000 3.6 250 04:33 05.06.2022
1753 Clear 19 1004 48 10000 4.12 250 01:45 05.06.2022
1754 Clear 19 1004 48 10000 4.12 250 01:45 05.06.2022
1755 Clear 19 1004 48 10000 4.12 250 01:45 05.06.2022
1756 Clear 19 1004 48 10000 4.12 250 01:45 05.06.2022
1757 Clear 19 1004 48 10000 4.12 250 01:45 05.06.2022
1758 Clear 19 1004 48 10000 4.12 250 01:45 05.06.2022
1759 Clear 19 1005 46 10000 4.12 250 01:23 05.06.2022
1760 Clear 19 1005 46 10000 4.12 250 01:23 05.06.2022
1761 Clear 21 1003 40 10000 6.17 250 22:45 04.06.2022
1762 Clouds 24 1002 37 10000 6.26 270 21:21 04.06.2022
1763 Clouds 26 1003 31 10000 6.17 240 18:54 04.06.2022
1764 Clouds 26 1003 33 10000 6.69 240 16:48 04.06.2022
1765 Clouds 25 1016 33 10000 6.69 200 16:19 04.06.2022
1766 Clouds 25 1017 34 10000 5.66 190 15:27 04.06.2022
1767 Clouds 24 1003 39 10000 5.66 190 13:54 04.06.2022
1768 Clouds 21 1017 49 10000 4.12 240 11:28 04.06.2022
1769 Clouds 20 1017 52 10000 4.63 230 10:52 04.06.2022
1770 Clouds 19 1017 56 10000 3.09 230 09:46 04.06.2022
1771 Clouds 18 1016 53 10000 1.03 0 08:50 04.06.2022
1772 Clouds 17 1016 56 9000 1.03 0 08:31 04.06.2022
1773 Clear 16 1000 57 10000 1.54 340 06:20 04.06.2022
1774 Clear 19 1000 49 10000 1.03 290 02:57 04.06.2022
1775 Clear 21 1000 43 10000 3.6 270 00:21 04.06.2022
1776 Clear 22 1000 40 10000 3.6 260 22:54 03.06.2022
1777 Clear 24 999 36 10000 4.63 260 21:46 03.06.2022
1778 Clear 26 1014 30 10000 4.63 230 20:40 03.06.2022
1779 Clear 27 1001 29 10000 6.17 230 19:19 03.06.2022
1780 Clouds 26 1001 32 10000 6.17 220 16:54 03.06.2022
1781 Clouds 25 1001 34 10000 6.17 210 15:52 03.06.2022
1782 Clouds 24 1002 38 10000 7.2 220 13:58 03.06.2022
1783 Clouds 22 1016 48 10000 4.63 240 11:54 03.06.2022
1784 Clouds 19 1015 56 10000 2.57 230 09:56 03.06.2022
1785 Clouds 18 1015 58 10000 2.57 250 09:29 03.06.2022
1786 Clouds 17 1014 57 10000 2.24 200 07:43 03.06.2022
1787 Clouds 17 1014 56 10000 1.54 250 06:46 03.06.2022
1788 Clouds 17 1014 57 10000 1.79 198 06:27 03.06.2022
1789 Clouds 20 1014 46 10000 1.54 120 02:58 03.06.2022
1790 Clear 22 999 43 10000 3.6 250 23:39 02.06.2022
1791 Clear 24 999 40 10000 4.12 250 21:58 02.06.2022
1792 Clear 25 1000 36 10000 5.14 240 20:38 02.06.2022
1793 Clear 26 1000 34 10000 5.14 230 19:55 02.06.2022
1794 Clear 26 1000 34 10000 5.14 250 19:37 02.06.2022
1795 Clear 27 1000 31 10000 4.63 200 18:39 02.06.2022
1796 Clouds 27 1001 32 10000 4.63 240 16:28 02.06.2022
1797 Clouds 26 1015 35 10000 5.14 220 15:46 02.06.2022
1798 Clouds 25 1003 44 10000 5.14 230 13:30 02.06.2022
1799 Clouds 24 1016 48 10000 6.17 230 12:46 02.06.2022
1800 Clouds 21 1016 56 10000 2.57 240 10:36 02.06.2022
1801 Clouds 20 1016 62 10000 3.09 260 09:29 02.06.2022
1802 Clouds 18 1016 65 10000 2.57 230 08:39 02.06.2022
1803 Clouds 18 1016 66 10000 2.57 230 08:19 02.06.2022
1804 Clear 17 999 65 10000 3.09 250 06:21 02.06.2022
1805 Clear 18 1015 60 10000 2.06 40 03:50 02.06.2022
1806 Clear 21 1016 50 10000 3.6 250 00:47 02.06.2022
1807 Clear 23 1015 44 10000 3.6 270 22:57 01.06.2022
1808 Clear 23 1015 44 10000 3.6 270 22:57 01.06.2022
1809 Clouds 25 1015 39 10000 4.63 250 21:59 01.06.2022
1810 Clouds 26 1015 36 10000 4.63 250 21:24 01.06.2022
1811 Clouds 27 1001 34 10000 5.14 240 20:38 01.06.2022
1812 Clouds 27 1014 32 10000 5.66 250 19:51 01.06.2022
1813 Clouds 28 1001 30 10000 6.17 240 18:28 01.06.2022
1814 Clouds 28 1002 30 10000 6.17 230 16:56 01.06.2022
1815 Clouds 27 1003 30 10000 6.17 220 15:43 01.06.2022
1816 Clouds 26 1003 33 10000 5.66 220 14:46 01.06.2022
1817 Clouds 25 1017 33 10000 5.14 230 13:23 01.06.2022
1818 Clear 22 1017 37 10000 3.6 220 10:44 01.06.2022
1819 Clear 20 1017 41 10000 3.09 200 09:29 01.06.2022
1820 Clear 18 1016 44 10000 2.57 160 08:18 01.06.2022
1821 Clear 17 1015 47 10000 3.09 240 07:20 01.06.2022
1822 Clear 20 1015 38 10000 3.09 250 03:55 01.06.2022
1823 Clear 24 1015 30 10000 3.09 230 23:47 31.05.2022
1824 Clear 25 1014 30 10000 2.68 270 22:41 31.05.2022
1825 Clear 26 1014 28 10000 3.6 210 22:22 31.05.2022
1826 Clear 27 1013 24 10000 4.63 200 21:39 31.05.2022
1827 Clear 28 1013 20 10000 4.63 210 20:44 31.05.2022
1828 Clear 30 999 19 10000 5.66 220 19:31 31.05.2022
1829 Clear 29 1013 22 10000 4.63 220 18:26 31.05.2022
1830 Clouds 29 1014 25 10000 3.6 0 17:37 31.05.2022
1831 Clouds 27 1015 28 10000 3.6 180 15:55 31.05.2022
1832 Clouds 27 1015 30 10000 4.02 191 15:34 31.05.2022
1833 Clear 23 1016 42 10000 2.06 0 12:56 31.05.2022
1834 Clear 22 1016 45 10000 2.06 0 12:18 31.05.2022
1835 Clear 19 1016 55 10000 1.54 90 10:25 31.05.2022
1836 Clear 15 1000 68 10000 1.54 360 07:46 31.05.2022
1837 Clear 15 999 68 9000 2.06 250 06:21 31.05.2022
1838 Clear 16 999 64 8000 1.03 0 04:31 31.05.2022
1839 Clear 19 999 52 9000 4.63 240 23:45 30.05.2022
1840 Clear 20 999 51 9000 4.63 240 23:24 30.05.2022
1841 Clear 20 996 50 10000 4.63 240 22:42 30.05.2022
1842 Clear 21 997 47 10000 4.63 220 21:40 30.05.2022
1843 Clear 22 998 42 10000 6.69 230 20:52 30.05.2022
1844 Clear 23 996 39 10000 6.69 230 19:44 30.05.2022
1845 Clear 23 998 41 10000 7.72 250 18:18 30.05.2022
1846 Clear 22 992 45 10000 7.2 230 17:23 30.05.2022
1847 Clear 22 998 43 10000 6.69 230 16:22 30.05.2022
1848 Clear 21 996 46 10000 7.72 210 13:38 30.05.2022
1849 Clouds 19 998 56 10000 9.77 230 11:40 30.05.2022
1850 Clear 17 997 65 10000 8.75 240 09:58 30.05.2022
1851 Clear 16 997 70 10000 8.23 240 08:52 30.05.2022
1852 Clear 17 993 64 10000 6.69 240 06:26 30.05.2022
1853 Clear 18 1008 52 10000 5.14 230 04:52 30.05.2022
1854 Clear 21 1008 38 10000 6.17 240 01:23 30.05.2022
1855 Clear 25 1007 32 10000 5.14 240 22:46 29.05.2022
1856 Clear 25 1007 32 10000 5.14 240 22:28 29.05.2022
1857 Clouds 28 1006 27 10000 6.69 250 20:29 29.05.2022
1858 Clouds 28 1006 25 10000 6.69 270 19:29 29.05.2022
1859 Clouds 29 1007 24 10000 6.17 200 18:34 29.05.2022
1860 Clouds 30 994 25 10000 6.17 220 16:25 29.05.2022
1861 Clouds 29 1008 25 10000 6.17 220 15:46 29.05.2022
1862 Clouds 29 1009 29 10000 6.17 270 14:55 29.05.2022
1863 Clear 27 1009 34 10000 4.12 220 13:18 29.05.2022
1864 Clear 24 1010 37 10000 5.66 230 11:20 29.05.2022
1865 Clear 22 1011 41 10000 3.6 250 10:34 29.05.2022
1866 Clear 19 1010 48 10000 1.54 260 08:31 29.05.2022
1867 Clear 20 996 43 10000 1.54 250 04:58 29.05.2022
1868 Clear 20 996 42 10000 2.57 190 04:36 29.05.2022
1869 Clear 21 1011 39 10000 2.57 10 01:52 29.05.2022
1870 Clear 25 1012 31 10000 2.06 250 23:48 28.05.2022
1871 Clear 26 1012 30 10000 2.57 260 23:20 28.05.2022
1872 Clouds 27 1012 26 10000 3.6 260 22:19 28.05.2022
1873 Clouds 30 1012 19 10000 3.6 250 20:58 28.05.2022
1874 Clouds 31 1012 18 10000 2.57 190 19:21 28.05.2022
1875 Clouds 31 1013 17 10000 4.12 250 18:40 28.05.2022
1876 Clouds 32 1013 18 10000 3.13 270 17:33 28.05.2022
1877 Clouds 31 1014 19 10000 3.09 280 15:56 28.05.2022
1878 Clouds 30 1015 20 10000 2.24 215 15:38 28.05.2022
1879 Clear 28 1016 27 10000 2.06 0 13:38 28.05.2022
1880 Clear 27 1017 31 10000 2.57 180 12:43 28.05.2022
1881 Clear 25 1017 36 10000 2.06 0 11:50 28.05.2022
1882 Clear 22 1018 41 10000 3.09 70 10:41 28.05.2022
1883 Clear 21 1018 45 10000 3.09 60 09:55 28.05.2022
1884 Clear 18 1018 50 10000 2.24 44 08:33 28.05.2022
1885 Clear 17 1018 49 10000 2.24 18 06:50 28.05.2022
1886 Clear 19 1018 46 10000 2.06 50 05:18 28.05.2022
1887 Clear 21 1020 35 10000 2.06 320 02:27 28.05.2022
1888 Clear 24 1019 27 9000 1.54 60 23:59 27.05.2022
1889 Clear 25 1018 26 10000 2.06 70 22:48 27.05.2022
1890 Clear 29 1018 20 10000 1.54 90 21:29 27.05.2022
1891 Clear 30 1018 19 10000 4.12 50 20:45 27.05.2022
1892 Clear 30 1018 17 10000 3.09 20 20:19 27.05.2022
1893 Clear 31 1018 17 10000 4.63 70 19:38 27.05.2022
1894 Clear 31 1018 17 10000 3.6 50 19:20 27.05.2022
1895 Clear 31 1019 16 10000 3.6 40 17:24 27.05.2022
1896 Clear 29 1020 19 10000 2.57 0 15:57 27.05.2022
1897 Clear 28 1021 21 10000 3.13 0 14:58 27.05.2022
1898 Clear 27 1022 26 10000 2.57 20 13:41 27.05.2022
1899 Clear 24 1022 34 10000 2.06 40 12:20 27.05.2022
1900 Clear 22 1022 36 10000 2.57 30 11:31 27.05.2022
1901 Clear 20 1023 42 10000 3.6 40 10:47 27.05.2022
1902 Clear 19 1023 45 10000 3.6 30 09:59 27.05.2022
1903 Clear 18 1008 50 10000 4.47 78 09:31 27.05.2022
1904 Clear 15 1007 56 10000 3.6 330 07:40 27.05.2022
1905 Clear 16 1007 50 10000 3.13 70 05:25 27.05.2022
1906 Clear 20 1023 40 10000 2.68 54 01:44 27.05.2022
1907 Clear 22 1024 33 10000 3.6 40 23:31 26.05.2022
1908 Clear 24 1023 31 10000 2.57 50 22:28 26.05.2022
1909 Clear 25 1022 29 10000 3.58 78 21:32 26.05.2022
1910 Clear 27 1021 28 10000 4.12 50 19:49 26.05.2022
1911 Clear 27 1022 28 10000 5.14 30 18:52 26.05.2022
1912 Clear 26 1022 27 10000 3.6 60 17:36 26.05.2022
1913 Clear 25 1023 26 10000 2.68 109 16:31 26.05.2022
1914 Clear 24 1024 28 10000 3.09 40 15:33 26.05.2022
1915 Clear 22 1025 31 10000 2.57 0 14:20 26.05.2022
1916 Clear 19 1026 38 10000 4.12 70 12:20 26.05.2022
1917 Clear 17 1026 41 10000 6.69 60 11:21 26.05.2022
1918 Clear 14 1026 52 10000 6.69 40 09:39 26.05.2022
1919 Clear 12 1025 56 10000 4.63 50 08:51 26.05.2022
1920 Clear 11 1010 60 10000 2.68 70 06:51 26.05.2022
1921 Clear 13 1010 56 9000 4.47 75 02:54 26.05.2022
1922 Clear 15 1025 48 10000 4.47 91 00:19 26.05.2022
1923 Clear 17 1024 43 10000 5.14 10 23:19 25.05.2022
1924 Clear 19 1023 37 10000 4.12 350 21:46 25.05.2022
1925 Clear 21 1022 31 10000 5.66 350 20:53 25.05.2022
1926 Clear 21 1021 29 10000 5.66 360 19:59 25.05.2022
1927 Clear 22 1021 28 10000 5.14 360 18:48 25.05.2022
1928 Clouds 21 1021 30 10000 5.66 330 17:30 25.05.2022
1929 Clouds 21 1021 31 10000 5.66 360 16:36 25.05.2022
1930 Clouds 20 1021 32 10000 5.66 360 15:53 25.05.2022
1931 Clouds 19 1021 34 10000 4.63 0 14:51 25.05.2022
1932 Clouds 19 1021 35 10000 5.14 20 14:32 25.05.2022
1933 Clouds 18 1008 39 10000 5.14 20 13:28 25.05.2022
1934 Clear 16 1021 44 10000 4.02 11 12:24 25.05.2022
1935 Clear 14 1021 47 10000 7.72 360 10:42 25.05.2022
1936 Clear 13 1021 48 10000 6.17 360 09:53 25.05.2022
1937 Clear 11 1020 59 10000 2.68 1 08:22 25.05.2022
1938 Clear 10 1019 64 10000 0.89 29 06:45 25.05.2022
1939 Clear 11 1002 66 10000 2.24 55 03:19 25.05.2022
1940 Clear 13 1016 49 10000 6.69 20 23:53 24.05.2022
1941 Clouds 15 1016 41 10000 4.12 10 23:23 24.05.2022
1942 Clouds 16 1015 33 10000 5.66 350 22:19 24.05.2022
1943 Clouds 16 1014 30 10000 6.17 310 21:38 24.05.2022
1944 Clouds 16 1014 29 10000 6.17 310 21:19 24.05.2022
1945 Clouds 18 1013 33 10000 7.2 330 19:45 24.05.2022
1946 Clouds 17 999 39 10000 7.2 310 18:50 24.05.2022
1947 Clouds 20 1011 38 10000 6.69 300 16:41 24.05.2022
1948 Clouds 20 998 39 10000 6.69 300 16:19 24.05.2022
1949 Clouds 21 1011 40 10000 5.14 270 14:50 24.05.2022
1950 Clouds 21 997 44 10000 3.09 290 13:52 24.05.2022
1951 Clouds 21 998 46 10000 2.57 350 12:49 24.05.2022
1952 Clouds 18 1012 54 10000 3.6 40 10:46 24.05.2022
1953 Clear 17 1012 59 10000 2.57 40 09:43 24.05.2022
1954 Clear 16 1011 61 10000 3.58 85 08:49 24.05.2022
1955 Clouds 15 996 62 9000 2.24 84 06:56 24.05.2022
1956 Clear 17 996 55 10000 2.57 300 03:48 24.05.2022
1957 Clear 19 996 48 10000 2.06 300 01:53 24.05.2022
1958 Clear 19 997 47 10000 3.6 290 01:32 24.05.2022
1959 Clear 22 1012 40 10000 3.6 300 22:55 23.05.2022
1960 Clouds 23 996 44 10000 4.63 240 21:55 23.05.2022
1961 Clouds 24 996 42 10000 5.66 250 21:29 23.05.2022
1962 Clouds 25 997 41 10000 6.17 240 20:29 23.05.2022
1963 Clouds 26 997 42 10000 5.66 230 19:31 23.05.2022
1964 Clouds 26 1011 40 10000 4.63 220 18:58 23.05.2022
1965 Clouds 26 1011 38 10000 5.66 230 18:30 23.05.2022
1966 Clouds 26 1011 37 10000 4.12 260 17:20 23.05.2022
1967 Clouds 26 998 38 10000 5.14 260 15:23 23.05.2022
1968 Clouds 23 1013 44 10000 5.14 260 13:21 23.05.2022
1969 Clouds 21 1013 53 10000 4.12 280 11:31 23.05.2022
1970 Clear 19 1014 61 10000 3.6 300 09:51 23.05.2022
1971 Clear 18 1014 62 10000 4.12 310 09:30 23.05.2022
1972 Clear 16 1014 70 10000 4.63 280 08:31 23.05.2022
1973 Clear 16 998 72 10000 4.12 260 06:46 23.05.2022
1974 Clear 17 998 69 10000 4.63 250 05:31 23.05.2022
1975 Clear 18 996 67 10000 5.14 260 02:32 23.05.2022
1976 Clear 18 996 66 10000 5.14 260 01:39 23.05.2022
1977 Clouds 19 996 64 10000 5.14 240 00:23 23.05.2022
1978 Clear 20 999 57 10000 5.66 250 22:40 22.05.2022
1979 Clear 21 1014 54 10000 7.2 240 21:55 22.05.2022
1980 Clear 21 999 53 10000 7.72 250 21:32 22.05.2022
1981 Clear 23 1000 47 10000 8.23 260 20:32 22.05.2022
1982 Clear 24 1000 46 10000 7.2 240 19:56 22.05.2022
1983 Clear 25 1000 44 10000 9.77 270 18:56 22.05.2022
1984 Clear 26 1000 42 10000 8.23 250 18:25 22.05.2022
1985 Clear 27 999 38 10000 8.23 200 17:37 22.05.2022
1986 Clear 27 1014 34 10000 6.26 211 16:39 22.05.2022
1987 Clear 25 1002 41 10000 6.69 250 14:53 22.05.2022
1988 Clear 24 1002 40 10000 6.17 220 13:56 22.05.2022
1989 Clear 24 1016 42 10000 5.66 0 12:52 22.05.2022
1990 Clear 24 1016 46 10000 5.66 200 11:52 22.05.2022
1991 Clear 23 1016 47 10000 5.66 200 10:24 22.05.2022
1992 Clear 21 1016 56 10000 2.24 225 09:18 22.05.2022
1993 Clear 20 1016 55 10000 3.09 270 07:22 22.05.2022
1994 Clear 21 1000 44 10000 2.24 214 06:27 22.05.2022
1995 Clear 25 1016 33 10000 4.12 100 02:50 22.05.2022
1996 Clear 26 1017 35 10000 1.79 93 00:44 22.05.2022
1997 Clear 27 999 34 10000 2.06 90 23:55 21.05.2022
1998 Clear 28 1002 31 10000 2.06 230 23:21 21.05.2022
1999 Rain 28 1003 35 10000 12.35 240 21:47 21.05.2022
2000 Rain 28 1004 35 10000 12.35 240 21:26 21.05.2022
2001 Rain 32 1003 24 10000 4.63 360 20:27 21.05.2022
2002 Clear 33 1017 19 10000 2.57 70 19:43 21.05.2022
2003 Clear 34 1017 18 10000 1.54 20 18:21 21.05.2022
2004 Clear 33 1019 19 10000 2.57 120 16:55 21.05.2022
2005 Clear 31 1021 22 10000 1.54 0 14:38 21.05.2022
2006 Clear 31 1021 22 10000 1.79 143 14:38 21.05.2022
2007 Clear 30 1021 24 10000 2.06 0 13:54 21.05.2022
2008 Clear 29 1022 27 10000 2.57 80 13:18 21.05.2022
2009 Clear 28 1022 30 10000 2.57 100 12:38 21.05.2022
2010 Clear 25 1022 37 10000 3.09 70 10:53 21.05.2022
2011 Clear 23 1022 43 10000 3.6 40 09:53 21.05.2022
2012 Clear 21 1023 49 10000 3.09 40 08:58 21.05.2022
2013 Clear 19 1023 54 10000 3.6 40 08:35 21.05.2022
2014 Clouds 21 1001 51 10000 1.79 76 05:29 21.05.2022
2015 Clear 25 1008 42 10000 2.06 60 01:24 21.05.2022
2016 Clear 27 1007 39 10000 4.63 110 23:30 20.05.2022
2017 Clear 28 1022 36 10000 4.63 100 22:26 20.05.2022
2018 Clear 29 1022 35 10000 5.14 100 21:55 20.05.2022
2019 Clouds 30 1006 33 10000 4.12 110 21:18 20.05.2022
2020 Clouds 31 1021 29 10000 5.14 110 20:44 20.05.2022
2021 Clouds 32 1021 25 10000 3.6 130 19:45 20.05.2022
2022 Clouds 33 1021 23 10000 3.09 140 18:48 20.05.2022
2023 Clouds 33 1021 21 10000 3.09 130 17:48 20.05.2022
2024 Clouds 32 1022 21 10000 4.12 140 16:22 20.05.2022
2025 Clouds 32 1022 22 10000 4.63 130 15:53 20.05.2022
2026 Clear 29 1023 25 10000 3.09 50 14:32 20.05.2022
2027 Clouds 28 1023 27 10000 3.6 60 13:56 20.05.2022
2028 Clear 25 1024 34 10000 3.6 80 11:51 20.05.2022
2029 Clouds 22 1024 42 10000 4.12 70 10:30 20.05.2022
2030 Clear 21 1011 49 10000 3.09 50 08:59 20.05.2022
2031 Clouds 20 1009 47 10000 2.57 80 07:42 20.05.2022
2032 Clear 20 1007 47 10000 2.06 60 06:39 20.05.2022
2033 Clear 20 1008 47 10000 2.06 50 05:39 20.05.2022
2034 Clear 25 1005 39 10000 2.06 90 01:18 20.05.2022
2035 Clear 26 1020 34 10000 5.66 110 23:28 19.05.2022
2036 Clear 28 1019 28 10000 6.69 140 22:34 19.05.2022
2037 Clear 30 1018 23 10000 6.69 150 21:49 19.05.2022
2038 Clear 29 1019 28 10000 5.14 110 21:49 19.05.2022
2039 Clear 30 1018 25 10000 6.69 150 21:23 19.05.2022
2040 Clouds 32 995 23 10000 7.2 150 20:43 19.05.2022
2041 Clouds 33 1018 21 10000 5.14 140 19:54 19.05.2022
2042 Clouds 33 1004 19 10000 4.12 160 18:59 19.05.2022
2043 Clouds 34 1018 20 10000 5.66 170 17:35 19.05.2022
2044 Clear 31 1019 28 10000 4.02 180 15:34 19.05.2022
2045 Clear 30 1020 32 10000 3.6 110 14:35 19.05.2022
2046 Clear 29 1020 35 10000 3.6 160 13:59 19.05.2022
2047 Clear 25 1021 42 10000 2.06 110 11:53 19.05.2022
2048 Clouds 23 1021 47 10000 2.57 90 10:30 19.05.2022
2049 Clear 19 1021 56 10000 2.06 80 08:33 19.05.2022
2050 Clear 19 1004 56 10000 1.79 64 06:57 19.05.2022
2051 Clear 22 1019 43 10000 1.34 158 03:26 19.05.2022
2052 Clear 22 1018 39 10000 1.03 0 00:56 19.05.2022
2053 Clear 26 1002 32 10000 1.54 330 23:21 18.05.2022
2054 Clear 27 999 32 10000 2.57 350 22:41 18.05.2022
2055 Clear 28 1017 27 10000 3.6 310 21:33 18.05.2022
2056 Clear 29 1017 26 10000 3.09 220 20:55 18.05.2022
2057 Clear 30 1003 25 10000 2.57 240 20:19 18.05.2022
2058 Clear 31 1017 23 10000 3.6 280 18:47 18.05.2022
2059 Clear 31 1017 22 10000 3.6 240 17:42 18.05.2022
2060 Clear 31 1017 22 10000 3.6 240 17:23 18.05.2022
2061 Clear 31 1018 22 10000 5.66 200 16:52 18.05.2022
2062 Clear 30 1018 24 10000 4.63 230 15:43 18.05.2022
2063 Clear 30 1019 26 10000 3.6 150 15:19 18.05.2022
2064 Clear 29 1019 32 10000 3.09 190 13:53 18.05.2022
2065 Clear 27 1020 33 10000 2.06 170 12:53 18.05.2022
2066 Clear 25 1020 40 10000 2.06 50 11:47 18.05.2022
2067 Clear 24 1020 43 10000 2.57 30 11:29 18.05.2022
2068 Clear 22 1021 52 10000 3.09 60 10:36 18.05.2022
2069 Clear 17 1007 67 10000 2.24 43 07:56 18.05.2022
2070 Clear 17 1005 65 10000 1.54 10 06:54 18.05.2022
2071 Clear 19 1020 57 10000 1.54 10 03:34 18.05.2022
2072 Clear 22 1005 51 10000 1.03 250 00:42 18.05.2022
2073 Clear 24 1002 46 10000 3.09 260 23:21 17.05.2022
2074 Clear 26 1020 39 10000 3.13 226 21:21 17.05.2022
2075 Clear 26 1020 36 10000 4.63 220 20:38 17.05.2022
2076 Clear 28 1020 33 10000 4.63 260 19:30 17.05.2022
2077 Clear 28 1020 33 10000 3.58 231 18:43 17.05.2022
2078 Clear 28 1021 32 10000 4.47 219 17:34 17.05.2022
2079 Clear 28 1021 31 10000 3.09 210 16:55 17.05.2022
2080 Clear 27 1022 31 10000 3.58 228 15:49 17.05.2022
2081 Clear 26 1022 33 10000 4.63 240 14:52 17.05.2022
2082 Clear 25 1022 35 10000 5.66 230 14:28 17.05.2022
2083 Clear 23 1023 48 10000 4.63 230 12:37 17.05.2022
2084 Clear 19 1023 61 10000 2.06 230 10:23 17.05.2022
2085 Clear 17 1023 67 10000 1.54 220 08:51 17.05.2022
2086 Clear 15 1007 69 10000 1.03 340 07:41 17.05.2022
2087 Clear 15 1006 65 10000 1.34 213 05:58 17.05.2022
2088 Clear 20 1022 48 10000 3.09 250 00:47 17.05.2022
2089 Clear 21 1006 45 10000 3.6 250 23:35 16.05.2022
2090 Clear 22 1006 43 10000 3.6 260 22:33 16.05.2022
2091 Clear 24 1021 34 10000 4.12 250 20:56 16.05.2022
2092 Clear 25 1021 33 10000 4.12 250 20:33 16.05.2022
2093 Clouds 26 1021 34 10000 3.6 250 18:41 16.05.2022
2094 Clouds 25 1021 35 10000 4.12 230 16:42 16.05.2022
2095 Clouds 24 1022 40 10000 4.63 240 14:58 16.05.2022
2096 Clouds 22 1023 45 10000 4.12 180 13:34 16.05.2022
2097 Clear 21 1023 49 10000 3.13 216 12:34 16.05.2022
2098 Clear 18 1022 61 10000 1.54 170 10:34 16.05.2022
2099 Clear 14 1006 73 10000 1.54 260 07:47 16.05.2022
2100 Clear 14 1020 67 10000 2.06 220 05:44 16.05.2022
2101 Clear 18 1020 53 10000 1.54 270 00:44 16.05.2022
2102 Clear 20 1004 53 10000 4.12 270 22:42 15.05.2022
2103 Clear 21 1019 50 10000 5.14 260 21:57 15.05.2022
2104 Clouds 22 1003 50 10000 4.12 260 21:36 15.05.2022
2105 Clouds 22 1004 45 10000 5.14 240 20:38 15.05.2022
2106 Clouds 23 1018 40 10000 7.72 240 18:37 15.05.2022
2107 Clouds 24 1004 42 10000 7.72 230 16:52 15.05.2022
2108 Clouds 22 1018 46 10000 5.14 190 14:26 15.05.2022
2109 Clouds 21 1019 50 10000 6.17 210 13:44 15.05.2022
2110 Clouds 20 1019 57 10000 5.66 220 11:55 15.05.2022
2111 Clear 19 1005 59 10000 4.63 240 10:43 15.05.2022
2112 Clear 18 1018 59 10000 3.6 230 09:46 15.05.2022
2113 Clear 16 1016 65 10000 2.24 188 07:22 15.05.2022
2114 Clear 16 1016 64 10000 2.68 200 06:42 15.05.2022
2115 Clear 19 1001 65 10000 2.57 350 02:43 15.05.2022
2116 Clear 20 998 57 10000 3.58 56 00:22 15.05.2022
2117 Clear 21 1001 55 10000 3.13 54 23:36 14.05.2022
2118 Clear 25 997 40 10000 1.54 260 21:45 14.05.2022
2119 Clear 26 1015 34 10000 2.06 240 21:25 14.05.2022
2120 Clear 27 1015 33 10000 5.14 270 20:26 14.05.2022
2121 Thunderstorm 28 1002 33 10000 3.09 250 19:20 14.05.2022
2122 Thunderstorm 28 1015 32 10000 3.09 250 18:57 14.05.2022
2123 Clear 28 1016 34 10000 3.09 0 17:44 14.05.2022
2124 Clear 28 1016 34 10000 3.09 0 17:44 14.05.2022
2125 Clear 26 1018 40 10000 2.06 150 15:58 14.05.2022
2126 Clear 24 1019 44 10000 4.12 50 14:38 14.05.2022
2127 Clear 24 1019 44 10000 4.12 50 14:38 14.05.2022
2128 Clear 22 1020 50 10000 4.12 360 13:27 14.05.2022
2129 Clear 21 1006 58 10000 2.06 70 11:45 14.05.2022
2130 Clouds 20 1006 59 10000 3.09 70 10:43 14.05.2022
2131 Clouds 20 1006 59 10000 3.09 70 10:18 14.05.2022
2132 Clear 18 1006 62 10000 1.79 54 09:23 14.05.2022
2133 Clear 18 1004 61 10000 1.79 69 07:26 14.05.2022
2134 Clear 18 1004 57 10000 1.34 51 04:35 14.05.2022
2135 Clear 23 1005 40 10000 2.06 350 00:27 14.05.2022
2136 Clear 24 1005 37 10000 3.09 270 23:25 13.05.2022
2137 Clear 23 1021 36 10000 3.09 270 22:55 13.05.2022
2138 Clear 24 1020 35 10000 3.09 250 22:21 13.05.2022
2139 Clear 27 1020 28 10000 3.09 250 20:59 13.05.2022
2140 Clear 27 1020 28 10000 3.6 250 20:37 13.05.2022
2141 Clear 28 1020 26 10000 3.6 200 20:19 13.05.2022
2142 Clear 29 1020 26 10000 4.12 190 18:56 13.05.2022
2143 Clear 29 1020 27 10000 3.09 190 17:42 13.05.2022
2144 Clear 28 1020 27 10000 3.09 240 17:22 13.05.2022
2145 Clouds 28 1021 29 10000 3.09 180 15:46 13.05.2022
2146 Clouds 27 1022 33 10000 1.79 0 14:38 13.05.2022
2147 Clear 24 1023 41 10000 2.06 160 12:51 13.05.2022
2148 Clear 23 1023 44 10000 1.03 0 11:54 13.05.2022
2149 Clear 19 1023 57 10000 2.06 80 09:55 13.05.2022
2150 Clear 18 1023 59 10000 2.06 70 09:29 13.05.2022
2151 Clear 15 1007 65 10000 1.79 62 07:51 13.05.2022
2152 Clear 16 1006 62 10000 1.79 68 06:50 13.05.2022
2153 Clear 17 1006 55 10000 4.12 350 04:54 13.05.2022
2154 Clear 19 1021 47 10000 1.03 0 00:59 13.05.2022
2155 Clear 21 1021 43 10000 1.54 290 22:59 12.05.2022
2156 Clouds 22 1020 40 10000 2.57 290 22:34 12.05.2022
2157 Clouds 25 1019 33 10000 2.57 190 21:24 12.05.2022
2158 Clouds 26 1019 31 10000 4.12 180 19:49 12.05.2022
2159 Clouds 26 1019 31 10000 3.13 177 18:25 12.05.2022
2160 Clouds 26 1019 33 10000 2.68 195 16:44 12.05.2022
2161 Clouds 24 1020 33 10000 3.09 160 14:57 12.05.2022
2162 Clear 23 1021 34 10000 4.12 170 13:48 12.05.2022
2163 Clear 21 1021 38 10000 4.12 120 11:55 12.05.2022
2164 Clear 19 1021 47 10000 4.63 100 10:32 12.05.2022
2165 Clouds 17 1007 56 10000 3.09 70 08:53 12.05.2022
2166 Clouds 17 1020 56 10000 3.6 70 08:35 12.05.2022
2167 Clouds 16 1005 58 10000 2.06 50 07:22 12.05.2022
2168 Clear 18 1005 49 10000 3.09 60 04:32 12.05.2022
2169 Clear 21 1020 40 10000 3.09 140 01:29 12.05.2022
2170 Clear 24 1019 40 10000 2.24 162 23:18 11.05.2022
2171 Clear 25 999 38 10000 1.54 190 22:18 11.05.2022
2172 Clear 26 1002 34 10000 2.06 200 21:25 11.05.2022
2173 Clear 28 1018 31 10000 2.57 200 20:20 11.05.2022
2174 Clouds 29 1018 30 10000 2.57 0 17:37 11.05.2022
2175 Clouds 28 1019 32 10000 2.68 188 16:27 11.05.2022
2176 Clear 27 1020 35 10000 2.24 193 14:48 11.05.2022
2177 Clear 26 1020 38 10000 2.24 195 14:25 11.05.2022
2178 Clear 24 1021 43 10000 3.09 110 12:54 11.05.2022
2179 Clear 22 1021 47 10000 2.57 100 11:48 11.05.2022
2180 Clear 18 1021 56 10000 2.57 70 09:29 11.05.2022
2181 Clear 16 1006 61 10000 1.03 0 06:30 11.05.2022
2182 Clear 20 1006 48 10000 1.79 199 02:18 11.05.2022
2183 Clear 24 1005 39 10000 1.79 270 22:58 10.05.2022
2184 Clear 24 1021 38 10000 2.06 200 22:30 10.05.2022
2185 Clear 25 1020 37 10000 3.09 250 21:40 10.05.2022
2186 Clear 27 1020 30 10000 3.09 210 20:34 10.05.2022
2187 Clouds 28 1020 31 10000 3.09 230 18:57 10.05.2022
2188 Clouds 28 1021 32 10000 3.13 203 17:38 10.05.2022
2189 Clouds 27 1022 33 10000 2.68 224 16:35 10.05.2022
2190 Clear 23 1024 39 10000 2.57 120 13:31 10.05.2022
2191 Clear 21 1024 44 10000 2.06 0 11:54 10.05.2022
2192 Clear 20 1024 47 10000 1.54 80 11:32 10.05.2022
2193 Clear 19 1024 47 10000 2.06 60 10:56 10.05.2022
2194 Clear 17 1024 58 10000 2.57 50 09:47 10.05.2022
2195 Clear 15 1024 63 10000 1.79 27 08:18 10.05.2022
2196 Clear 14 1008 62 10000 1.54 10 06:20 10.05.2022
2197 Clear 18 1007 52 10000 4.02 113 01:54 10.05.2022
2198 Clear 21 1022 37 10000 3.09 330 23:53 09.05.2022
2199 Clear 23 1006 39 10000 2.57 240 22:36 09.05.2022
2200 Clear 25 1021 35 10000 2.06 200 21:39 09.05.2022
2201 Clear 26 1020 33 10000 2.57 140 20:20 09.05.2022
2202 Clouds 27 1020 30 10000 2.06 110 18:26 09.05.2022
2203 Clear 27 1021 31 10000 2.24 194 17:26 09.05.2022
2204 Clear 26 1021 32 10000 2.24 134 16:19 09.05.2022
2205 Clear 25 1021 33 10000 2.57 220 15:47 09.05.2022
2206 Clear 24 1022 35 10000 2.57 180 14:37 09.05.2022
2207 Clear 23 1022 37 10000 2.06 0 13:59 09.05.2022
2208 Clear 23 1022 40 10000 1.54 140 13:23 09.05.2022
2209 Clear 20 1023 45 10000 2.06 100 11:53 09.05.2022
2210 Clear 19 1023 49 10000 2.06 120 10:48 09.05.2022
2211 Clear 18 1023 50 10000 2.06 100 10:26 09.05.2022
2212 Clear 13 1009 63 10000 2.06 60 07:57 09.05.2022
2213 Clear 14 1007 57 10000 1.79 36 05:53 09.05.2022
2214 Clear 19 1021 38 10000 3.09 320 00:59 09.05.2022
2215 Clear 20 1021 35 10000 3.6 330 23:28 08.05.2022
2216 Clear 20 1020 31 10000 2.57 350 22:32 08.05.2022
2217 Clear 24 1019 28 10000 1.54 20 21:24 08.05.2022
2218 Clear 25 1019 24 10000 1.54 210 20:25 08.05.2022
2219 Clear 25 1018 24 10000 2.06 0 19:33 08.05.2022
2220 Clear 26 1019 24 10000 2.24 293 18:38 08.05.2022
2221 Clear 26 1019 25 10000 1.79 188 17:40 08.05.2022
2222 Clear 25 1019 26 10000 4.02 172 16:22 08.05.2022
2223 Clear 24 1020 27 10000 2.57 30 15:22 08.05.2022
2224 Clear 21 1021 36 10000 2.57 80 12:49 08.05.2022
2225 Clear 19 1022 44 10000 3.09 90 11:45 08.05.2022
2226 Clear 16 1022 52 10000 3.6 40 10:25 08.05.2022
2227 Clear 15 1022 54 10000 4.12 50 09:53 08.05.2022
2228 Clear 12 1008 67 10000 2.24 35 07:57 08.05.2022
2229 Clear 13 1006 63 10000 3.6 350 06:18 08.05.2022
2230 Clear 15 1006 52 10000 1.79 37 03:22 08.05.2022
2231 Clear 16 1006 49 10000 2.06 20 03:22 08.05.2022
2232 Clear 17 1021 44 10000 2.68 76 01:19 08.05.2022
2233 Clear 18 1021 47 10000 3.09 330 23:57 07.05.2022
2234 Clear 19 1021 46 10000 2.57 340 23:32 07.05.2022
2235 Clouds 19 996 46 10000 1.54 240 22:42 07.05.2022
2236 Clear 20 1020 41 10000 1.03 220 21:56 07.05.2022
2237 Clear 22 1020 36 10000 1.54 240 21:21 07.05.2022
2238 Clouds 23 1019 31 10000 2.06 230 20:23 07.05.2022
2239 Clouds 24 1020 30 10000 2.57 360 18:49 07.05.2022
2240 Clear 23 1021 30 10000 3.6 40 16:34 07.05.2022
2241 Clear 21 1022 31 10000 3.6 40 14:53 07.05.2022
2242 Clear 17 1023 48 10000 4.63 50 11:23 07.05.2022
2243 Clear 13 1023 58 10000 3.6 40 09:42 07.05.2022
2244 Clear 11 1010 68 10000 3.09 30 08:30 07.05.2022
2245 Clear 10 1008 68 10000 2.06 70 07:20 07.05.2022
2246 Clear 11 1008 66 10000 2.57 50 06:42 07.05.2022
2247 Clear 12 1008 59 10000 3.13 70 03:57 07.05.2022
2248 Clear 17 1023 39 10000 3.6 40 23:44 06.05.2022
2249 Clear 19 1022 37 10000 3.6 360 22:35 06.05.2022
2250 Clear 20 1021 35 10000 4.12 360 21:53 06.05.2022
2251 Clear 21 1021 32 10000 5.36 23 21:24 06.05.2022
2252 Clear 23 1021 26 10000 3.09 350 19:47 06.05.2022
2253 Clear 23 1021 27 10000 2.57 240 19:24 06.05.2022
2254 Clear 23 1021 27 10000 3.6 300 18:30 06.05.2022
2255 Clear 23 1021 26 10000 3.09 10 17:34 06.05.2022
2256 Clear 22 1022 28 10000 2.57 280 15:51 06.05.2022
2257 Clear 21 1023 29 10000 2.57 30 15:18 06.05.2022
2258 Clear 19 1023 36 10000 2.06 0 13:45 06.05.2022
2259 Clear 18 1024 40 10000 2.57 20 12:47 06.05.2022
2260 Clear 17 1024 43 10000 3.09 50 11:58 06.05.2022
2261 Clear 14 1024 55 10000 5.14 50 10:41 06.05.2022
2262 Clear 12 1024 61 10000 4.12 40 09:47 06.05.2022
2263 Clear 12 1024 62 10000 4.63 40 09:18 06.05.2022
2264 Clear 10 1009 69 10000 3.13 59 07:40 06.05.2022
2265 Clear 10 1009 68 10000 2.68 55 06:25 06.05.2022
2266 Clear 12 1009 60 10000 3.58 64 02:58 06.05.2022
2267 Clear 13 1024 56 10000 3.13 47 01:58 06.05.2022
2268 Clear 18 1023 37 10000 5.66 360 22:50 05.05.2022
2269 Clouds 19 1022 34 10000 5.14 290 21:46 05.05.2022
2270 Clouds 22 1021 32 10000 3.13 248 20:36 05.05.2022
2271 Clouds 22 1021 31 10000 2.57 10 18:54 05.05.2022
2272 Clouds 22 1021 35 10000 2.24 135 16:40 05.05.2022
2273 Clouds 20 1022 42 10000 2.24 185 14:59 05.05.2022
2274 Clear 18 1023 48 10000 2.06 180 13:29 05.05.2022
2275 Clear 18 1023 51 10000 1.54 0 12:55 05.05.2022
2276 Clear 15 1023 59 10000 3.6 60 11:22 05.05.2022
2277 Clear 12 1022 67 10000 3.58 62 09:40 05.05.2022
2278 Clear 10 1022 73 10000 2.57 30 08:34 05.05.2022
2279 Clear 10 1006 76 10000 1.79 41 06:23 05.05.2022
2280 Clear 13 1006 70 10000 2.24 55 02:23 05.05.2022
2281 Clear 14 1006 70 10000 3.13 72 01:37 05.05.2022
2282 Clear 15 1020 62 10000 1.54 10 23:57 04.05.2022
2283 Clear 16 1005 60 10000 3.09 40 22:57 04.05.2022
2284 Clear 17 1003 54 10000 2.57 60 21:59 04.05.2022
2285 Clouds 17 1003 53 10000 2.06 60 21:34 04.05.2022
2286 Clouds 18 1018 50 10000 4.12 60 20:42 04.05.2022
2287 Clouds 19 1017 49 10000 5.14 50 20:18 04.05.2022
2288 Clouds 19 1017 42 10000 5.66 70 19:35 04.05.2022
2289 Clouds 20 1017 40 10000 4.12 60 18:42 04.05.2022
2290 Clouds 20 1017 40 10000 4.12 60 18:18 04.05.2022
2291 Clouds 19 1017 43 10000 5.14 80 16:36 04.05.2022
2292 Clouds 19 1017 44 10000 3.6 40 15:32 04.05.2022
2293 Clouds 19 1004 48 10000 5.14 40 14:38 04.05.2022
2294 Clouds 18 1017 47 10000 5.14 40 14:19 04.05.2022
2295 Clouds 17 1018 57 10000 4.63 60 12:36 04.05.2022
2296 Clouds 15 1018 64 10000 5.14 30 11:28 04.05.2022
2297 Clouds 13 1004 72 10000 4.63 30 09:57 04.05.2022
2298 Clouds 12 1004 75 10000 5.66 30 09:20 04.05.2022
2299 Clouds 10 1001 80 10000 5.36 45 07:33 04.05.2022
2300 Clear 11 1000 78 10000 5.36 45 04:34 04.05.2022
2301 Clouds 12 1001 76 10000 4.12 20 02:33 04.05.2022
2302 Clouds 13 1000 72 10000 3.13 60 22:59 03.05.2022
2303 Clouds 14 1000 74 10000 3.13 40 21:50 03.05.2022
2304 Clouds 14 999 77 10000 3.13 44 21:23 03.05.2022
2305 Clouds 14 1001 77 10000 3.6 50 20:39 03.05.2022
2306 Clouds 15 998 77 10000 4.63 40 19:21 03.05.2022
2307 Clouds 15 997 65 10000 4.63 30 18:42 03.05.2022
2308 Clouds 16 999 63 10000 7.72 40 17:20 03.05.2022
2309 Clouds 16 1000 61 10000 7.15 68 15:51 03.05.2022
2310 Clouds 15 1000 64 10000 7.72 30 14:23 03.05.2022
2311 Clouds 14 1000 69 10000 7.2 50 12:35 03.05.2022
2312 Clouds 13 1013 72 10000 5.66 40 11:35 03.05.2022
2313 Clouds 12 1000 79 9000 5.66 40 10:26 03.05.2022
2314 Drizzle 11 999 83 10000 5.14 40 08:19 03.05.2022
2315 Clouds 11 996 85 10000 3.09 40 06:45 03.05.2022
2316 Clear 12 997 83 10000 2.68 26 01:59 03.05.2022
2317 Clear 12 1012 75 10000 2.57 320 22:56 02.05.2022
2318 Clear 13 996 77 10000 3.09 350 22:28 02.05.2022
2319 Clouds 13 996 71 10000 3.09 70 21:27 02.05.2022
2320 Clouds 14 1011 69 10000 2.57 20 19:26 02.05.2022
2321 Clouds 14 997 73 10000 2.68 61 18:26 02.05.2022
2322 Clouds 14 997 75 10000 5.66 350 17:39 02.05.2022
2323 Rain 15 991 72 10000 4.12 10 16:42 02.05.2022
2324 Thunderstorm 17 1011 56 10000 7.72 310 15:41 02.05.2022
2325 Clouds 18 1011 55 10000 5.36 45 14:28 02.05.2022
2326 Clouds 18 996 60 10000 3.09 10 13:42 02.05.2022
2327 Clouds 16 1012 66 10000 1.79 95 11:41 02.05.2022
2328 Clouds 14 1012 71 10000 1.54 210 09:42 02.05.2022
2329 Clouds 12 999 82 10000 2.06 270 08:20 02.05.2022
2330 Clear 13 997 78 10000 1.79 34 06:53 02.05.2022
2331 Clear 18 1002 53 10000 3.09 250 00:46 02.05.2022
2332 Clear 18 1003 53 10000 3.09 250 00:21 02.05.2022
2333 Clear 19 1016 53 10000 2.68 278 22:54 01.05.2022
2334 Clouds 20 1016 52 10000 4.63 250 21:42 01.05.2022
2335 Clouds 21 1016 43 10000 5.14 240 20:30 01.05.2022
2336 Clouds 23 1016 40 10000 6.17 260 19:21 01.05.2022
2337 Clouds 23 1016 39 10000 6.17 260 18:52 01.05.2022
2338 Clouds 24 1016 33 10000 7.2 240 17:49 01.05.2022
2339 Clear 24 1017 34 10000 6.17 230 16:37 01.05.2022
2340 Clear 24 1006 39 10000 6.17 230 15:51 01.05.2022
2341 Clouds 23 1007 48 10000 4.47 236 14:45 01.05.2022
2342 Clear 21 1020 50 10000 3.09 240 12:24 01.05.2022
2343 Clear 17 1021 60 10000 1.34 146 10:22 01.05.2022
2344 Clear 14 1021 70 10000 2.06 340 08:49 01.05.2022
2345 Clear 14 1005 69 10000 1.03 0 06:50 01.05.2022
2346 Clear 17 1007 71 10000 0.89 83 01:56 01.05.2022
2347 Clouds 19 1006 58 10000 2.57 300 22:18 30.04.2022
2348 Clouds 20 1006 55 10000 3.09 300 21:32 30.04.2022
2349 Clouds 21 1021 49 10000 3.6 320 19:54 30.04.2022
2350 Clouds 22 1021 49 10000 4.63 310 19:25 30.04.2022
2351 Thunderstorm 21 1021 49 10000 5.66 240 17:31 30.04.2022
2352 Thunderstorm 23 1006 45 10000 4.47 281 15:52 30.04.2022
2353 Thunderstorm 22 1022 48 10000 3.6 230 15:18 30.04.2022
2354 Clouds 21 1023 53 10000 2.57 200 13:59 30.04.2022
2355 Clear 18 1024 62 10000 1.79 175 11:48 30.04.2022
2356 Clear 17 1024 65 9000 1.03 0 11:26 30.04.2022
2357 Clear 16 1024 70 9000 1.03 0 10:23 30.04.2022
2358 Clear 12 1010 82 10000 2.06 350 07:47 30.04.2022
2359 Clear 14 1009 75 10000 1.79 204 04:25 30.04.2022
2360 Clear 17 1012 56 10000 4.12 250 23:57 29.04.2022
2361 Clear 18 1024 52 10000 3.6 260 22:51 29.04.2022
2362 Clear 19 1024 50 10000 3.6 250 21:56 29.04.2022
2363 Clear 20 1023 43 10000 2.57 240 21:25 29.04.2022
2364 Clouds 22 1023 38 10000 2.06 160 20:18 29.04.2022
2365 Clouds 23 1024 36 10000 2.06 190 19:28 29.04.2022
2366 Clouds 22 1024 37 10000 2.57 140 17:35 29.04.2022
2367 Clouds 21 1025 38 10000 2.06 0 16:38 29.04.2022
2368 Clouds 20 1026 43 10000 2.57 130 14:37 29.04.2022
2369 Clear 19 1026 48 10000 3.09 100 13:42 29.04.2022
2370 Clear 18 1027 56 10000 3.13 90 12:37 29.04.2022
2371 Clear 14 1026 67 10000 4.02 79 10:32 29.04.2022
2372 Clear 10 1012 77 10000 3.6 50 07:55 29.04.2022
2373 Clear 10 1010 77 10000 2.24 48 07:25 29.04.2022
2374 Clear 10 1010 79 10000 3.58 45 06:30 29.04.2022
2375 Clear 12 1010 78 10000 3.58 44 02:23 29.04.2022
2376 Clear 13 1025 78 10000 2.57 350 23:58 28.04.2022
2377 Clear 13 1010 77 10000 3.09 350 23:25 28.04.2022
2378 Clear 13 1009 77 10000 1.54 290 22:24 28.04.2022
2379 Clouds 14 1009 75 10000 1.54 250 21:41 28.04.2022
2380 Clouds 15 1023 71 10000 1.54 130 20:48 28.04.2022
2381 Clouds 15 1022 71 10000 2.57 100 19:52 28.04.2022
2382 Clouds 15 1022 70 10000 3.6 140 19:24 28.04.2022
2383 Clouds 15 1022 72 10000 4.12 120 18:52 28.04.2022
2384 Clouds 15 1021 74 10000 7.72 110 17:54 28.04.2022
2385 Clouds 16 1021 67 10000 4.02 90 16:52 28.04.2022
2386 Clouds 15 1021 71 10000 5.14 80 16:20 28.04.2022
2387 Clouds 15 1021 67 10000 4.12 30 15:49 28.04.2022
2388 Clouds 16 1007 69 10000 4.12 30 14:58 28.04.2022
2389 Clouds 14 1008 85 10000 4.12 30 13:37 28.04.2022
2390 Clouds 12 1008 86 8000 1.79 64 12:30 28.04.2022
2391 Clouds 12 1007 88 8000 1.03 0 11:37 28.04.2022
2392 Clouds 11 1007 90 8000 2.06 100 10:26 28.04.2022
2393 Clouds 11 1007 89 10000 2.57 100 09:50 28.04.2022
2394 Clouds 10 1004 88 10000 2.57 350 07:41 28.04.2022
2395 Clouds 11 1000 90 10000 1.03 0 06:51 28.04.2022
2396 Clear 10 1003 89 10000 1.03 0 05:53 28.04.2022
2397 Clear 10 1003 89 10000 1.03 40 04:43 28.04.2022
2398 Clear 11 1004 87 10000 1.34 229 02:41 28.04.2022
2399 Clear 12 1004 85 10000 2.57 170 23:32 27.04.2022
2400 Clear 12 996 83 10000 3.6 190 22:20 27.04.2022
2401 Clouds 13 999 78 10000 2.68 188 21:43 27.04.2022
2402 Clouds 14 1001 73 10000 2.57 340 20:45 27.04.2022
2403 Thunderstorm 14 992 72 10000 5.66 280 19:57 27.04.2022
2404 Thunderstorm 14 1016 73 10000 8.23 280 19:36 27.04.2022
2405 Thunderstorm 16 1016 54 10000 4.63 320 18:41 27.04.2022
2406 Thunderstorm 17 992 57 10000 4.63 320 18:20 27.04.2022
2407 Clouds 17 992 60 10000 3.09 350 16:18 27.04.2022
2408 Clouds 15 1017 73 10000 4.02 215 13:18 27.04.2022
2409 Clouds 13 1017 79 10000 2.06 230 11:26 27.04.2022
2410 Clouds 13 1017 82 10000 1.03 0 10:50 27.04.2022
2411 Clouds 11 1003 91 10000 1.54 260 08:28 27.04.2022
2412 Rain 11 1001 90 10000 1.03 0 06:42 27.04.2022
2413 Clouds 12 1015 86 10000 2.57 90 02:35 27.04.2022
2414 Clouds 13 1015 83 10000 1.03 0 01:23 27.04.2022
2415 Clouds 13 1015 83 10000 1.03 0 00:34 27.04.2022
2416 Clouds 13 999 84 10000 3.6 260 23:24 26.04.2022
2417 Rain 13 1015 82 10000 5.66 260 22:51 26.04.2022
2418 Rain 14 999 82 10000 3.13 270 22:31 26.04.2022
2419 Clouds 14 999 79 9000 1.54 70 21:24 26.04.2022
2420 Thunderstorm 15 1000 80 3000 5.66 220 20:38 26.04.2022
2421 Thunderstorm 16 998 73 4500 5.14 270 19:45 26.04.2022
2422 Rain 17 979 72 10000 3.09 300 19:26 26.04.2022
2423 Thunderstorm 17 1013 58 10000 8.23 220 18:39 26.04.2022
2424 Clouds 21 997 46 10000 3.6 190 17:41 26.04.2022
2425 Clouds 21 1013 44 10000 3.58 197 15:59 26.04.2022
2426 Clouds 19 1014 47 10000 1.34 135 13:55 26.04.2022
2427 Clouds 19 1014 49 10000 2.06 80 13:28 26.04.2022
2428 Clouds 16 1014 55 10000 3.09 80 11:29 26.04.2022
2429 Clouds 14 1014 61 10000 3.09 50 10:30 26.04.2022
2430 Clouds 12 999 70 10000 2.57 50 08:38 26.04.2022
2431 Clouds 12 998 69 10000 1.79 92 05:29 26.04.2022
2432 Clear 11 997 67 10000 2.24 65 04:23 26.04.2022
2433 Clear 14 994 56 10000 2.06 360 00:52 26.04.2022
2434 Clear 14 990 57 10000 1.54 10 23:51 25.04.2022
2435 Clear 17 1012 45 10000 1.54 170 21:57 25.04.2022
2436 Clear 18 997 42 10000 2.06 180 21:33 25.04.2022
2437 Clear 19 1012 35 10000 3.13 187 19:58 25.04.2022
2438 Clouds 20 1012 36 10000 2.57 200 18:48 25.04.2022
2439 Clouds 20 1012 38 10000 3.09 190 17:40 25.04.2022
2440 Clouds 20 1012 38 10000 3.09 190 17:40 25.04.2022
2441 Clouds 19 1013 40 10000 2.57 190 16:44 25.04.2022
2442 Clouds 18 1013 44 10000 3.09 170 15:23 25.04.2022
2443 Clouds 18 1014 44 10000 3.58 184 14:34 25.04.2022
2444 Clear 16 1014 53 10000 2.06 120 12:49 25.04.2022
2445 Clear 12 1014 65 10000 2.57 40 10:44 25.04.2022
2446 Clear 11 1014 70 10000 2.57 60 09:42 25.04.2022
2447 Clear 7 1000 81 10000 3.13 68 07:56 25.04.2022
2448 Clear 8 998 79 10000 1.34 30 05:55 25.04.2022
2449 Clear 11 996 69 10000 1.54 50 01:30 25.04.2022
2450 Clear 12 1014 63 10000 2.68 264 23:56 24.04.2022
2451 Clear 13 1014 58 10000 2.57 250 23:25 24.04.2022
2452 Clouds 13 1014 56 10000 3.09 230 22:39 24.04.2022
2453 Clear 14 1013 53 10000 3.09 220 21:56 24.04.2022
2454 Clouds 15 1013 49 10000 4.12 170 21:22 24.04.2022
2455 Clouds 15 998 52 10000 4.63 230 21:22 24.04.2022
2456 Clouds 15 1013 46 10000 4.63 180 20:46 24.04.2022
2457 Clouds 16 1012 44 10000 4.63 180 20:21 24.04.2022
2458 Clear 17 1012 40 10000 2.68 196 18:44 24.04.2022
2459 Clear 17 1012 43 10000 3.09 200 17:54 24.04.2022
2460 Clear 17 1013 41 10000 3.6 230 17:21 24.04.2022
2461 Clear 16 1013 42 10000 4.63 240 16:55 24.04.2022
2462 Clear 16 1013 44 10000 4.63 250 16:29 24.04.2022
2463 Clear 16 1013 44 10000 4.63 190 15:43 24.04.2022
2464 Clouds 15 1014 50 10000 4.12 220 14:36 24.04.2022
2465 Clouds 13 1013 53 10000 4.12 220 13:27 24.04.2022
2466 Clouds 13 1013 57 10000 4.12 220 12:56 24.04.2022
2467 Clouds 12 1013 60 10000 4.12 240 11:50 24.04.2022
2468 Clear 10 1013 67 10000 3.13 204 10:48 24.04.2022
2469 Clear 8 1012 79 10000 3.09 240 09:47 24.04.2022
2470 Clear 6 999 88 10000 3.09 190 08:18 24.04.2022
2471 Clear 6 1011 80 10000 2.06 230 05:45 24.04.2022
2472 Clear 8 1011 73 10000 3.6 250 02:48 24.04.2022
2473 Clouds 9 996 75 10000 3.6 220 00:45 24.04.2022
2474 Clear 9 1010 75 10000 5.14 250 23:52 23.04.2022
2475 Clouds 10 1009 67 10000 6.17 240 23:25 23.04.2022
2476 Clear 10 994 73 10000 7.72 250 23:25 23.04.2022
2477 Clouds 11 1008 64 10000 4.63 240 21:59 23.04.2022
2478 Clouds 11 993 65 10000 5.14 230 21:41 23.04.2022
2479 Clouds 11 992 65 10000 4.12 260 21:22 23.04.2022
2480 Clouds 11 993 65 10000 8.23 280 19:56 23.04.2022
2481 Clouds 11 991 63 10000 10.29 250 19:20 23.04.2022
2482 Clouds 11 991 64 10000 10.29 250 18:54 23.04.2022
2483 Clouds 12 991 62 10000 10.29 240 18:32 23.04.2022
2484 Clouds 11 991 65 10000 10.29 230 17:46 23.04.2022
2485 Drizzle 10 986 80 10000 10.8 250 16:45 23.04.2022
2486 Clouds 9 991 82 4000 8.23 240 15:43 23.04.2022
2487 Clouds 9 990 78 10000 10.8 230 13:24 23.04.2022
2488 Clouds 7 989 81 10000 9.77 240 11:29 23.04.2022
2489 Drizzle 6 987 90 10000 8.23 240 09:41 23.04.2022
2490 Clouds 5 986 91 10000 7.72 230 07:52 23.04.2022
2491 Clouds 6 997 89 6000 8.23 210 03:57 23.04.2022
2492 Clouds 6 983 92 10000 4.63 180 02:36 23.04.2022
2493 Rain 7 983 94 9000 5.66 180 23:34 22.04.2022
2494 Clouds 7 983 92 10000 4.63 180 22:43 22.04.2022
2495 Rain 7 983 92 10000 4.12 170 21:56 22.04.2022
2496 Clouds 7 983 92 10000 4.12 170 21:56 22.04.2022
2497 Clouds 7 983 92 10000 4.12 170 21:56 22.04.2022
2498 Rain 7 983 92 10000 4.12 170 21:56 22.04.2022
2499 Clouds 7 997 92 9000 4.12 160 21:38 22.04.2022
2500 Rain 7 985 94 8000 4.12 160 20:30 22.04.2022
2501 Rain 8 999 91 6000 4.12 170 19:25 22.04.2022
2502 Rain 7 999 90 6000 4.12 170 18:56 22.04.2022
2503 Clouds 8 986 91 6000 4.12 180 18:24 22.04.2022
2504 Clouds 9 987 89 5000 6.17 220 16:54 22.04.2022
2505 Rain 9 987 90 4000 5.66 170 15:58 22.04.2022
2506 Clouds 10 987 89 9000 6.17 170 15:23 22.04.2022
2507 Clouds 9 1000 90 6000 6.69 170 14:38 22.04.2022
2508 Clouds 10 988 86 10000 7.2 180 13:41 22.04.2022
2509 Clouds 10 1001 77 10000 8.05 201 12:36 22.04.2022
2510 Clouds 11 988 78 10000 6.71 213 11:23 22.04.2022
2511 Clouds 10 989 78 10000 5.81 208 10:56 22.04.2022
2512 Clouds 10 989 81 10000 4.12 160 10:32 22.04.2022
2513 Clouds 9 1002 82 10000 5.66 160 09:54 22.04.2022
2514 Clouds 9 1003 86 9000 3.58 187 08:56 22.04.2022
2515 Clouds 8 1003 86 6000 4.02 194 08:36 22.04.2022
2516 Clouds 9 1004 80 10000 3.6 190 06:21 22.04.2022
2517 Clear 10 1006 59 10000 6.69 220 00:53 22.04.2022
2518 Clear 11 993 45 10000 5.14 240 23:29 21.04.2022
2519 Clear 12 1006 44 10000 5.66 230 22:35 21.04.2022
2520 Clouds 14 1006 44 10000 5.66 220 21:25 21.04.2022
2521 Clouds 15 1006 41 10000 5.66 210 20:29 21.04.2022
2522 Clouds 16 1006 42 10000 5.66 230 18:49 21.04.2022
2523 Clouds 16 1006 41 10000 4.02 239 18:49 21.04.2022
2524 Clouds 16 1006 40 10000 4.63 200 18:19 21.04.2022
2525 Clouds 16 1006 42 10000 3.6 260 17:19 21.04.2022
2526 Clouds 15 1008 43 10000 6.69 220 15:24 21.04.2022
2527 Clouds 14 1008 43 10000 4.47 198 14:52 21.04.2022
2528 Clouds 14 1008 46 10000 3.58 208 13:59 21.04.2022
2529 Clear 13 1008 47 10000 3.13 206 13:21 21.04.2022
2530 Clear 11 1010 56 10000 3.6 180 11:46 21.04.2022
2531 Clear 8 1009 61 10000 1.54 200 09:33 21.04.2022
2532 Clear 6 1010 68 10000 2.57 280 08:38 21.04.2022
2533 Clear 6 994 70 10000 3.09 270 06:36 21.04.2022
2534 Clear 7 1010 62 10000 5.66 340 03:39 21.04.2022
2535 Clear 8 1010 60 10000 5.14 330 03:20 21.04.2022
2536 Clear 8 1010 58 10000 4.63 350 02:44 21.04.2022
2537 Clear 9 1011 55 10000 6.17 350 00:34 21.04.2022
2538 Clear 9 998 56 10000 8.75 350 23:25 20.04.2022
2539 Clear 9 998 55 10000 9.77 360 22:59 20.04.2022
2540 Clear 9 998 55 10000 9.77 360 22:59 20.04.2022
2541 Clear 9 997 54 10000 5.36 35 22:33 20.04.2022
2542 Clouds 10 1009 49 10000 5.36 33 21:36 20.04.2022
2543 Clouds 11 1008 46 10000 8.75 10 20:44 20.04.2022
2544 Clouds 11 997 47 10000 8.75 10 20:21 20.04.2022
2545 Clear 12 1008 44 10000 9.26 360 19:39 20.04.2022
2546 Clouds 12 996 45 10000 10.29 360 18:46 20.04.2022
2547 Clouds 12 1007 49 10000 10.29 350 17:49 20.04.2022
2548 Clouds 11 1007 53 10000 10.29 10 16:39 20.04.2022
2549 Clouds 11 1006 59 10000 9.26 30 14:58 20.04.2022
2550 Clouds 8 1006 74 10000 6.69 20 12:22 20.04.2022
2551 Clouds 8 1006 79 10000 6.69 30 11:42 20.04.2022
2552 Clouds 6 992 88 10000 7.2 20 10:43 20.04.2022
2553 Clouds 5 992 91 8000 8.23 20 09:28 20.04.2022
2554 Clouds 4 992 90 8000 9.26 20 08:29 20.04.2022
2555 Clouds 5 992 90 8000 6.17 10 07:53 20.04.2022
2556 Rain 5 990 91 7000 4.47 29 06:18 20.04.2022
2557 Clouds 7 992 89 8000 5.36 0 01:37 20.04.2022
2558 Clouds 7 993 86 8000 5.14 350 00:21 20.04.2022
2559 Clouds 9 994 73 10000 5.66 350 22:59 19.04.2022
2560 Clouds 9 994 73 10000 5.66 350 22:59 19.04.2022
2561 Clouds 10 994 67 10000 7.15 45 22:23 19.04.2022
2562 Rain 10 993 62 10000 5.66 360 21:53 19.04.2022
2563 Clouds 11 993 63 10000 7.15 45 20:59 19.04.2022
2564 Clouds 11 992 62 10000 7.72 30 20:37 19.04.2022
2565 Clouds 13 1008 57 10000 7.2 10 19:32 19.04.2022
2566 Clouds 14 1008 57 10000 7.2 10 18:30 19.04.2022
2567 Clouds 17 1008 51 10000 7.72 290 16:50 19.04.2022
2568 Clouds 18 997 51 10000 6.69 290 16:25 19.04.2022
2569 Clouds 18 1008 49 10000 7.72 250 15:59 19.04.2022
2570 Clouds 18 998 54 10000 2.68 64 14:46 19.04.2022
2571 Clouds 16 1010 61 10000 2.06 40 12:53 19.04.2022
2572 Clouds 16 1011 62 10000 1.54 0 12:34 19.04.2022
2573 Clouds 14 1011 68 10000 1.54 0 11:34 19.04.2022
2574 Clouds 13 998 73 10000 2.24 56 09:35 19.04.2022
2575 Clouds 12 997 73 10000 1.79 54 07:49 19.04.2022
2576 Clear 14 998 61 10000 1.79 45 04:25 19.04.2022
2577 Clouds 16 999 58 10000 2.06 270 02:39 19.04.2022
2578 Clear 18 1012 51 10000 3.09 250 23:51 18.04.2022
2579 Clear 19 1012 47 10000 3.09 240 22:53 18.04.2022
2580 Clouds 21 1011 39 10000 4.63 240 21:26 18.04.2022
2581 Clouds 23 1011 35 10000 6.17 240 20:39 18.04.2022
2582 Clouds 24 1011 31 10000 4.63 250 20:19 18.04.2022
2583 Clouds 24 1011 28 10000 3.09 250 19:33 18.04.2022
2584 Clouds 25 1012 28 10000 3.6 250 18:49 18.04.2022
2585 Clouds 25 1012 28 10000 4.63 230 17:49 18.04.2022
2586 Clouds 25 1012 29 10000 5.14 220 17:19 18.04.2022
2587 Clouds 24 1013 30 10000 3.6 220 16:39 18.04.2022
2588 Clear 24 1014 31 10000 3.09 170 15:41 18.04.2022
2589 Clouds 23 1015 33 10000 3.13 248 14:27 18.04.2022
2590 Clouds 21 1016 36 10000 1.34 135 13:24 18.04.2022
2591 Clouds 19 1016 40 10000 2.06 80 12:27 18.04.2022
2592 Clear 17 1016 42 10000 3.09 50 10:59 18.04.2022
2593 Clear 15 1016 44 10000 4.63 50 10:18 18.04.2022
2594 Clear 14 1016 45 10000 3.13 55 09:30 18.04.2022
2595 Clear 13 1003 58 10000 3.58 32 07:29 18.04.2022
2596 Clear 16 1004 48 10000 2.24 82 03:51 18.04.2022
2597 Clear 19 1017 41 10000 3.6 360 23:41 17.04.2022
2598 Clear 19 1017 40 10000 3.09 10 22:39 17.04.2022
2599 Clear 21 1016 33 10000 3.09 280 21:39 17.04.2022
2600 Clear 22 1016 32 10000 3.09 290 21:19 17.04.2022
2601 Clear 23 1016 29 10000 3.09 260 20:25 17.04.2022
2602 Clear 25 1016 28 10000 3.09 210 19:21 17.04.2022
2603 Clear 25 1016 26 10000 2.68 202 17:38 17.04.2022
2604 Clear 24 1018 31 10000 2.68 293 15:37 17.04.2022
2605 Clear 23 1018 35 10000 2.57 210 14:53 17.04.2022
2606 Clear 21 1019 36 10000 1.79 220 13:44 17.04.2022
2607 Clear 21 1020 36 10000 1.79 214 12:56 17.04.2022
2608 Clear 18 1020 42 10000 1.34 88 11:24 17.04.2022
2609 Clear 16 1020 45 10000 1.54 70 10:38 17.04.2022
2610 Clear 15 1020 48 10000 1.54 70 10:19 17.04.2022
2611 Clear 13 1020 59 10000 2.24 74 09:23 17.04.2022
2612 Clear 12 1009 63 10000 1.79 64 08:41 17.04.2022
2613 Clear 12 1007 60 10000 1.79 54 06:53 17.04.2022
2614 Clear 15 1005 51 10000 1.54 100 03:20 17.04.2022
2615 Clear 16 1021 49 10000 1.54 120 00:53 17.04.2022
2616 Clear 18 1021 45 10000 4.12 340 23:49 16.04.2022
2617 Clear 20 1021 39 10000 4.63 350 22:27 16.04.2022
2618 Clear 21 1020 36 10000 3.6 360 21:29 16.04.2022
2619 Clouds 24 1019 31 10000 6.17 300 19:54 16.04.2022
2620 Clouds 25 1019 31 10000 5.66 280 18:54 16.04.2022
2621 Clouds 25 1020 30 10000 4.63 240 17:38 16.04.2022
2622 Clouds 25 1021 30 10000 3.09 350 16:32 16.04.2022
2623 Clouds 24 1021 31 10000 2.06 0 15:26 16.04.2022
2624 Clouds 24 1022 32 10000 2.06 330 14:47 16.04.2022
2625 Clouds 23 1022 36 10000 2.06 240 13:56 16.04.2022
2626 Clouds 22 1023 38 10000 2.57 270 13:26 16.04.2022
2627 Clear 20 1023 45 10000 2.24 270 12:18 16.04.2022
2628 Clear 17 1023 54 10000 1.03 0 10:42 16.04.2022
2629 Clear 15 1023 62 10000 1.03 0 09:41 16.04.2022
2630 Clear 13 1010 67 10000 1.79 30 08:56 16.04.2022
2631 Clear 12 1008 67 10000 1.03 320 07:32 16.04.2022
2632 Clear 14 1008 62 10000 2.06 10 06:46 16.04.2022
2633 Clear 16 1008 55 10000 2.24 70 01:59 16.04.2022
2634 Clear 18 1010 55 10000 3.6 280 00:21 16.04.2022
2635 Clear 19 1023 51 10000 3.6 270 22:57 15.04.2022
2636 Clear 19 1022 49 10000 4.12 270 22:31 15.04.2022
2637 Clear 20 1022 48 10000 3.6 260 21:47 15.04.2022
2638 Clouds 21 1022 42 10000 3.09 250 20:56 15.04.2022
2639 Clouds 23 1021 36 10000 3.09 240 19:59 15.04.2022
2640 Clouds 23 1021 35 10000 3.09 260 19:39 15.04.2022
2641 Clouds 24 1021 32 10000 2.57 0 18:46 15.04.2022
2642 Clouds 24 1021 33 10000 2.57 230 18:24 15.04.2022
2643 Clouds 23 1021 33 10000 2.06 230 17:32 15.04.2022
2644 Clouds 23 1022 36 10000 2.24 93 16:26 15.04.2022
2645 Clouds 23 1022 36 10000 2.24 71 15:59 15.04.2022
2646 Clouds 21 1023 42 10000 1.54 200 14:41 15.04.2022
2647 Clear 20 1023 49 10000 1.54 130 13:33 15.04.2022
2648 Clear 18 1024 53 10000 1.34 158 12:40 15.04.2022
2649 Clear 17 1023 58 10000 1.03 0 11:54 15.04.2022
2650 Clear 15 1023 66 10000 1.54 30 10:58 15.04.2022
2651 Clear 15 1023 66 10000 1.03 0 10:40 15.04.2022
2652 Clear 13 1023 78 10000 1.34 27 09:41 15.04.2022
2653 Clear 12 1023 78 10000 1.34 34 09:19 15.04.2022
2654 Clear 11 1009 81 10000 1.54 270 07:24 15.04.2022
2655 Clear 11 1007 77 10000 1.03 0 05:58 15.04.2022
2656 Clear 14 1006 68 10000 2.06 350 02:34 15.04.2022
2657 Clouds 16 1006 61 10000 2.06 350 23:30 14.04.2022
2658 Clouds 17 1020 55 10000 4.92 45 22:48 14.04.2022
2659 Clouds 17 1020 55 10000 4.92 45 22:29 14.04.2022
2660 Clouds 17 1020 53 10000 3.6 350 21:57 14.04.2022
2661 Clouds 19 1007 48 10000 4.63 340 20:37 14.04.2022
2662 Clouds 20 1018 40 10000 2.57 30 19:23 14.04.2022
2663 Clouds 21 1018 39 10000 2.24 103 18:19 14.04.2022
2664 Clouds 21 1018 40 10000 3.09 10 17:38 14.04.2022
2665 Clouds 20 1018 42 10000 3.09 0 16:36 14.04.2022
2666 Clouds 19 1019 49 10000 3.13 63 14:58 14.04.2022
2667 Clouds 18 1019 52 10000 4.63 70 13:45 14.04.2022
2668 Clouds 17 1019 55 10000 5.66 80 12:52 14.04.2022
2669 Clouds 16 1019 55 10000 4.63 50 12:31 14.04.2022
2670 Clouds 15 1019 60 10000 5.14 50 11:29 14.04.2022
2671 Clouds 14 1019 65 10000 4.63 40 10:52 14.04.2022
2672 Clouds 13 1019 67 10000 4.63 30 10:26 14.04.2022
2673 Clouds 11 1018 72 10000 3.6 10 08:54 14.04.2022
2674 Clouds 11 1002 73 10000 3.58 14 06:53 14.04.2022
2675 Clear 12 1002 65 10000 2.24 28 03:28 14.04.2022
2676 Clouds 14 1002 60 10000 3.13 65 23:26 13.04.2022
2677 Clouds 15 1001 55 10000 3.09 40 22:20 13.04.2022
2678 Clouds 16 1000 52 10000 4.92 23 21:36 13.04.2022
2679 Clouds 17 1001 48 10000 4.63 10 20:22 13.04.2022
2680 Clouds 17 1014 44 10000 3.58 5 19:36 13.04.2022
2681 Clouds 18 1013 41 10000 3.09 10 18:27 13.04.2022
2682 Clouds 18 1013 43 10000 3.09 70 17:24 13.04.2022
2683 Clouds 18 1013 41 10000 4.63 10 16:37 13.04.2022
2684 Clouds 18 1014 43 10000 4.12 10 15:41 13.04.2022
2685 Clouds 17 1014 45 10000 3.6 10 14:51 13.04.2022
2686 Clouds 17 1014 45 10000 4.12 30 14:28 13.04.2022
2687 Clouds 16 1014 51 10000 2.57 50 13:29 13.04.2022
2688 Clouds 14 1014 57 10000 2.68 38 12:30 13.04.2022
2689 Clouds 12 1014 70 10000 1.54 310 10:55 13.04.2022
2690 Mist 9 1013 85 10000 2.06 340 09:44 13.04.2022
2691 Fog 7 1000 89 10000 2.57 320 08:43 13.04.2022
2692 Clear 6 994 92 10000 0.89 20 06:52 13.04.2022
2693 Clear 7 997 91 10000 1.34 34 06:26 13.04.2022
2694 Clouds 7 997 90 9000 2.57 320 05:52 13.04.2022
2695 Clouds 9 997 86 10000 1.54 200 00:24 13.04.2022
2696 Clear 10 997 85 10000 1.03 310 23:46 12.04.2022
2697 Clouds 11 996 80 10000 1.03 0 22:19 12.04.2022
2698 Clouds 11 996 79 10000 1.03 0 21:32 12.04.2022
2699 Clouds 12 997 79 10000 4.12 230 20:42 12.04.2022
2700 Clouds 13 997 77 10000 2.06 250 19:53 12.04.2022
2701 Clouds 13 997 78 10000 2.57 330 19:32 12.04.2022
2702 Thunderstorm 12 1010 80 10000 7.2 220 18:42 12.04.2022
2703 Rain 15 996 57 10000 3.09 200 17:34 12.04.2022
2704 Clouds 15 996 57 10000 4.63 170 16:25 12.04.2022
2705 Clouds 14 1010 58 10000 4.12 180 15:33 12.04.2022
2706 Clouds 13 997 63 10000 4.63 160 14:32 12.04.2022
2707 Clouds 12 1011 67 10000 3.58 188 13:38 12.04.2022
2708 Clouds 12 1011 70 10000 3.6 180 12:59 12.04.2022
2709 Clouds 12 1011 73 10000 3.6 160 11:47 12.04.2022
2710 Clouds 11 1011 77 10000 3.6 180 11:24 12.04.2022
2711 Clouds 9 1010 89 10000 2.57 170 09:25 12.04.2022
2712 Clouds 8 1010 91 10000 2.06 170 08:18 12.04.2022
2713 Clouds 8 1009 92 10000 2.24 219 06:33 12.04.2022
2714 Clouds 9 1009 92 10000 3.09 170 05:36 12.04.2022
2715 Clouds 10 990 91 6000 8.75 240 01:47 12.04.2022
2716 Clouds 14 992 75 10000 7.72 240 23:19 11.04.2022
2717 Clouds 17 1005 44 10000 5.66 190 21:49 11.04.2022
2718 Clouds 18 1005 40 10000 8.75 210 21:18 11.04.2022
2719 Clouds 19 1005 42 10000 6.17 220 20:30 11.04.2022
2720 Clouds 20 1005 39 10000 6.17 220 19:57 11.04.2022
2721 Clouds 21 992 40 10000 6.69 170 19:22 11.04.2022
2722 Clouds 21 1005 37 10000 7.2 170 18:49 11.04.2022
2723 Clouds 22 1005 36 10000 6.69 160 17:57 11.04.2022
2724 Clouds 22 1006 36 10000 7.2 180 16:57 11.04.2022
2725 Clouds 21 1007 36 10000 6.71 223 16:20 11.04.2022
2726 Clouds 20 1008 42 10000 4.63 180 14:35 11.04.2022
2727 Clear 18 1010 49 10000 3.09 140 12:54 11.04.2022
2728 Clear 17 1010 50 10000 3.6 160 12:35 11.04.2022
2729 Clear 15 1010 55 10000 3.6 130 11:42 11.04.2022
2730 Clear 13 1010 63 10000 2.57 90 10:34 11.04.2022
2731 Clear 11 1010 73 10000 2.68 0 09:22 11.04.2022
2732 Clear 10 995 77 10000 2.57 100 06:51 11.04.2022
2733 Clear 13 996 73 10000 4.63 120 02:32 11.04.2022
2734 Clear 16 1012 66 10000 6.17 120 22:54 10.04.2022
2735 Clear 17 996 63 10000 7.72 120 22:26 10.04.2022
2736 Clouds 19 1011 53 10000 6.26 167 21:33 10.04.2022
2737 Clouds 21 1011 44 10000 6.71 135 20:33 10.04.2022
2738 Clouds 22 1011 39 10000 5.36 219 19:45 10.04.2022
2739 Clouds 22 1011 37 10000 6.17 160 19:23 10.04.2022
2740 Clouds 22 1011 38 10000 6.17 160 18:45 10.04.2022
2741 Clouds 22 1012 39 10000 4.12 150 17:55 10.04.2022
2742 Clouds 22 1012 38 10000 4.63 150 17:35 10.04.2022
2743 Clouds 21 1013 45 10000 4.12 170 16:33 10.04.2022
2744 Clouds 20 1014 48 10000 4.12 160 15:30 10.04.2022
2745 Clouds 19 1015 54 10000 3.6 160 14:25 10.04.2022
2746 Clouds 16 1016 67 10000 4.63 140 12:35 10.04.2022
2747 Clouds 16 1016 67 10000 4.63 140 12:35 10.04.2022
2748 Clouds 16 1017 72 10000 3.6 120 11:56 10.04.2022
2749 Clouds 15 1017 74 10000 4.12 110 11:29 10.04.2022
2750 Clouds 14 1017 80 10000 2.06 110 10:56 10.04.2022
2751 Clouds 12 1017 83 10000 1.54 100 09:58 10.04.2022
2752 Clouds 12 1017 84 10000 1.54 80 09:37 10.04.2022
2753 Clouds 11 1017 87 10000 1.54 360 08:22 10.04.2022
2754 Clouds 11 1017 87 10000 1.54 50 07:27 10.04.2022
2755 Clouds 11 1002 92 9000 1.54 360 05:50 10.04.2022
2756 Clear 11 1003 90 10000 2.06 130 02:25 10.04.2022
2757 Clear 12 1018 87 10000 2.57 230 00:28 10.04.2022
2758 Clear 13 1018 85 10000 2.57 230 23:48 09.04.2022
2759 Clouds 14 1018 80 10000 4.12 230 22:47 09.04.2022
2760 Clouds 15 1002 75 10000 4.12 210 21:35 09.04.2022
2761 Clouds 15 1017 73 10000 5.14 230 20:49 09.04.2022
2762 Clouds 16 1004 70 10000 5.14 230 20:26 09.04.2022
2763 Clouds 17 1004 66 10000 5.14 230 19:42 09.04.2022
2764 Clouds 17 1017 62 10000 5.66 200 18:59 09.04.2022
2765 Clouds 17 1004 64 10000 5.66 220 18:20 09.04.2022
2766 Clouds 17 1004 64 10000 5.14 200 17:39 09.04.2022
2767 Clouds 17 1017 62 10000 5.66 230 16:52 09.04.2022
2768 Clouds 17 1005 63 10000 5.66 230 15:55 09.04.2022
2769 Clouds 17 1018 62 10000 4.63 240 15:30 09.04.2022
2770 Clouds 16 1018 67 10000 4.12 190 14:44 09.04.2022
2771 Clouds 15 1018 71 10000 4.47 273 14:22 09.04.2022
2772 Clouds 14 1019 77 10000 4.63 230 13:18 09.04.2022
2773 Clouds 14 1006 81 10000 4.12 240 12:41 09.04.2022
2774 Clouds 12 1019 86 10000 5.14 240 11:22 09.04.2022
2775 Clouds 11 1018 87 10000 3.6 260 10:21 09.04.2022
2776 Clouds 10 1018 88 10000 4.63 250 09:38 09.04.2022
2777 Clouds 10 1005 89 10000 3.6 250 08:53 09.04.2022
2778 Clouds 10 1003 87 10000 3.6 230 06:56 09.04.2022
2779 Clouds 12 1019 74 10000 6.17 240 02:20 09.04.2022
2780 Clouds 13 1004 69 10000 8.23 240 23:45 08.04.2022
2781 Clouds 14 1004 66 10000 6.69 240 21:58 08.04.2022
2782 Clouds 14 1004 65 10000 6.69 240 21:29 08.04.2022
2783 Clouds 14 1005 63 10000 8.75 250 20:39 08.04.2022
2784 Clouds 15 1005 59 10000 9.77 240 19:20 08.04.2022
2785 Clear 16 1004 57 10000 9.26 240 18:30 08.04.2022
2786 Clouds 16 1018 55 10000 9.26 240 17:49 08.04.2022
2787 Clouds 15 1018 56 10000 9.77 240 17:25 08.04.2022
2788 Clouds 15 1005 58 10000 9.26 250 16:47 08.04.2022
2789 Clouds 15 1003 58 10000 10.29 250 15:57 08.04.2022
2790 Clouds 14 1003 60 10000 9.26 240 15:26 08.04.2022
2791 Clouds 14 1019 60 10000 8.23 240 14:33 08.04.2022
2792 Clouds 13 1019 63 10000 8.75 240 13:47 08.04.2022
2793 Clouds 13 1020 63 10000 8.75 240 13:29 08.04.2022
2794 Clouds 12 1007 72 10000 7.2 240 12:18 08.04.2022
2795 Clouds 9 1020 80 10000 5.66 230 10:37 08.04.2022
2796 Clouds 7 1019 89 10000 4.02 234 09:38 08.04.2022
2797 Clouds 7 1006 91 10000 4.12 240 08:51 08.04.2022
2798 Clear 7 1004 90 10000 4.02 230 07:31 08.04.2022
2799 Clear 8 1019 84 10000 3.6 240 05:23 08.04.2022
2800 Clear 11 1003 69 10000 3.09 190 01:29 08.04.2022
2801 Clear 12 1006 68 10000 4.02 269 00:25 08.04.2022
2802 Clear 13 1020 61 10000 5.66 260 22:59 07.04.2022
2803 Clear 14 1020 61 10000 5.66 240 22:40 07.04.2022
2804 Clear 14 1020 60 10000 4.92 288 22:21 07.04.2022
2805 Clear 14 1020 59 10000 5.66 240 21:53 07.04.2022
2806 Clear 16 1019 56 10000 5.66 230 21:19 07.04.2022
2807 Clear 17 1019 53 10000 8.23 230 20:38 07.04.2022
2808 Clear 19 1019 42 10000 8.23 240 18:48 07.04.2022
2809 Clear 19 1006 42 10000 7.72 230 17:27 07.04.2022
2810 Clear 19 1020 43 10000 8.75 230 16:45 07.04.2022
2811 Clear 18 1007 46 10000 7.72 240 16:23 07.04.2022
2812 Clear 17 1020 45 10000 7.2 230 14:50 07.04.2022
2813 Clear 16 1021 47 10000 7.72 240 13:45 07.04.2022
2814 Clear 15 1021 53 10000 6.69 230 12:58 07.04.2022
2815 Clear 13 1021 63 10000 6.69 240 11:40 07.04.2022
2816 Clear 9 1020 77 10000 3.6 230 09:42 07.04.2022
2817 Clear 7 1019 79 10000 3.09 230 08:38 07.04.2022
2818 Clear 8 1019 75 10000 3.09 230 06:57 07.04.2022
2819 Clear 10 1004 63 10000 4.63 250 02:58 07.04.2022
2820 Clear 10 1019 61 10000 4.63 250 02:27 07.04.2022
2821 Clear 11 1018 59 10000 5.14 240 00:42 07.04.2022
2822 Clear 12 1018 57 10000 5.66 240 22:54 06.04.2022
2823 Clear 12 1017 56 10000 4.63 240 22:30 06.04.2022
2824 Clear 13 1016 49 10000 4.63 250 21:45 06.04.2022
2825 Clear 15 1015 41 10000 7.2 230 20:40 06.04.2022
2826 Clear 16 1015 37 10000 6.69 240 19:57 06.04.2022
2827 Clear 17 1015 39 10000 7.72 230 18:52 06.04.2022
2828 Clear 16 1015 42 10000 6.69 230 18:33 06.04.2022
2829 Clear 16 1002 45 10000 7.72 240 17:35 06.04.2022
2830 Clear 15 1015 48 10000 5.14 220 16:39 06.04.2022
2831 Clear 14 1015 52 10000 4.63 210 15:49 06.04.2022
2832 Clear 13 1015 56 10000 4.63 250 15:30 06.04.2022
2833 Clouds 9 1016 68 10000 3.6 220 13:30 06.04.2022
2834 Clouds 7 1016 74 10000 3.09 190 12:28 06.04.2022
2835 Clouds 6 1002 82 10000 2.57 260 10:54 06.04.2022
2836 Clouds 5 1002 83 10000 2.57 260 10:32 06.04.2022
2837 Clouds 4 1014 86 10000 2.06 200 09:43 06.04.2022
2838 Clouds 4 1014 87 10000 2.57 200 08:36 06.04.2022
2839 Clouds 4 1001 87 10000 3.09 200 07:56 06.04.2022
2840 Clear 4 1013 84 10000 2.68 210 04:42 06.04.2022
2841 Clear 6 1014 71 10000 3.6 200 23:57 05.04.2022
2842 Clear 7 999 74 10000 4.12 210 23:33 05.04.2022
2843 Clouds 7 998 73 10000 4.63 220 21:48 05.04.2022
2844 Clouds 7 1000 73 10000 5.66 240 20:54 05.04.2022
2845 Clouds 8 997 71 10000 6.17 240 20:23 05.04.2022
2846 Clear 10 1001 48 10000 5.66 220 18:26 05.04.2022
2847 Clouds 11 1013 41 10000 3.09 220 17:20 05.04.2022
2848 Clouds 10 1002 42 10000 3.13 202 16:42 05.04.2022
2849 Clouds 10 1014 43 10000 2.06 200 15:50 05.04.2022
2850 Clouds 9 1014 43 10000 2.06 200 15:30 05.04.2022
2851 Clouds 8 1015 46 10000 2.06 200 13:45 05.04.2022
2852 Clouds 6 1002 55 10000 2.06 30 11:55 05.04.2022
2853 Clouds 6 1002 56 10000 2.57 50 11:33 05.04.2022
2854 Clouds 5 1002 57 10000 2.57 70 10:58 05.04.2022
2855 Clouds 5 1001 57 10000 4.12 30 09:31 05.04.2022
2856 Clouds 4 1001 58 10000 4.12 40 08:27 05.04.2022
2857 Clear 5 1002 51 10000 5.81 45 03:37 05.04.2022
2858 Clear 7 1014 49 10000 2.68 68 23:38 04.04.2022
2859 Clouds 8 999 54 10000 1.79 0 22:37 04.04.2022
2860 Clouds 9 1000 56 10000 3.09 170 21:46 04.04.2022
2861 Clouds 10 1000 53 10000 2.68 194 21:18 04.04.2022
2862 Clouds 10 1001 52 10000 2.57 190 20:47 04.04.2022
2863 Clouds 12 1001 42 10000 3.6 150 19:28 04.04.2022
2864 Clouds 12 1012 33 10000 4.12 70 18:43 04.04.2022
2865 Clouds 12 1012 33 10000 4.12 60 17:20 04.04.2022
2866 Clouds 12 1012 33 10000 4.12 50 16:31 04.04.2022
2867 Clouds 11 1013 37 10000 4.63 80 15:33 04.04.2022
2868 Clouds 10 1014 40 10000 4.12 50 14:46 04.04.2022
2869 Clouds 10 1014 40 10000 4.12 50 14:27 04.04.2022
2870 Clouds 8 1015 43 10000 6.69 30 12:58 04.04.2022
2871 Clouds 4 1002 51 10000 6.17 40 11:29 04.04.2022
2872 Clouds 3 1002 55 10000 7.2 30 10:29 04.04.2022
2873 Clear 0 1002 60 10000 5.36 45 06:58 04.04.2022
2874 Clear 1 1004 52 10000 5.14 30 03:18 04.04.2022
2875 Clear 5 1002 43 10000 5.81 68 23:42 03.04.2022
2876 Clear 6 1002 37 10000 5.14 40 22:18 03.04.2022
2877 Clear 7 1001 31 10000 4.63 40 21:31 03.04.2022
2878 Clouds 9 1002 29 10000 7.2 50 20:32 03.04.2022
2879 Clouds 10 1013 27 10000 6.69 50 18:47 03.04.2022
2880 Clouds 10 1013 28 10000 6.69 50 17:57 03.04.2022
2881 Clouds 10 1013 29 10000 6.17 30 17:37 03.04.2022
2882 Clouds 10 1014 33 10000 6.69 40 16:50 03.04.2022
2883 Clouds 9 1014 35 10000 7.72 40 15:57 03.04.2022
2884 Clouds 8 1015 41 10000 6.69 40 14:27 03.04.2022
2885 Clouds 8 1016 41 10000 6.17 40 13:34 03.04.2022
2886 Clouds 6 1016 51 10000 5.66 40 11:51 03.04.2022
2887 Clear 3 1016 59 10000 2.68 80 09:59 03.04.2022
2888 Clear 1 1016 66 10000 1.79 82 09:18 03.04.2022
2889 Clear 0 1002 68 10000 2.24 64 06:28 03.04.2022
2890 Clear 2 1005 59 10000 3.09 40 02:56 03.04.2022
2891 Clear 5 1006 51 10000 3.6 350 23:50 02.04.2022
2892 Clear 5 1006 50 10000 4.02 31 22:51 02.04.2022
2893 Clear 6 1005 47 10000 5.36 0 21:56 02.04.2022
2894 Clear 6 1005 46 10000 5.36 0 21:56 02.04.2022
2895 Clouds 7 1005 42 10000 5.66 360 21:21 02.04.2022
2896 Clouds 8 1006 37 10000 6.17 10 20:39 02.04.2022
2897 Clouds 9 1017 32 10000 6.69 360 18:49 02.04.2022
2898 Clouds 10 1006 32 10000 5.14 350 18:20 02.04.2022
2899 Clouds 9 1017 32 10000 5.66 350 17:43 02.04.2022
2900 Clouds 9 1018 32 10000 5.14 10 15:58 02.04.2022
2901 Clouds 9 1007 34 10000 4.63 350 15:20 02.04.2022
2902 Clouds 9 1008 36 10000 5.14 320 14:32 02.04.2022
2903 Clouds 7 1019 37 10000 6.71 45 13:34 02.04.2022
2904 Clouds 7 1020 39 10000 8.23 360 12:32 02.04.2022
2905 Clear 5 1019 49 10000 4.92 23 10:46 02.04.2022
2906 Clear 2 1008 59 10000 6.17 360 08:44 02.04.2022
2907 Clear 2 1005 58 10000 2.68 19 05:58 02.04.2022
2908 Clear 3 1004 56 10000 4.12 360 03:28 02.04.2022
2909 Clear 4 1003 62 10000 4.92 45 23:55 01.04.2022
2910 Clouds 5 1003 62 10000 4.63 360 22:55 01.04.2022
2911 Clouds 6 1004 55 10000 4.63 290 21:30 01.04.2022
2912 Clouds 8 1005 47 10000 5.14 350 20:50 01.04.2022
2913 Clouds 9 1016 37 10000 4.63 360 19:51 01.04.2022
2914 Clouds 9 1004 37 10000 4.12 360 19:27 01.04.2022
2915 Clouds 9 1004 36 10000 6.17 340 18:42 01.04.2022
2916 Clouds 9 1004 35 10000 6.69 360 17:45 01.04.2022
2917 Clouds 9 1015 33 10000 6.69 330 16:34 01.04.2022
2918 Clouds 9 1004 35 10000 8.23 350 15:19 01.04.2022
2919 Clouds 8 1016 33 10000 8.23 350 14:18 01.04.2022
2920 Clouds 8 1005 34 10000 7.2 350 13:32 01.04.2022
2921 Clouds 7 1016 36 10000 7.2 20 12:32 01.04.2022
2922 Clouds 6 1015 41 10000 8.75 30 11:33 01.04.2022
2923 Clouds 5 1014 47 10000 6.17 40 10:18 01.04.2022
2924 Clouds 5 998 58 10000 5.81 45 07:59 01.04.2022
2925 Clouds 6 1011 67 10000 4.12 360 06:30 01.04.2022
2926 Clear 7 995 77 10000 4.12 360 04:45 01.04.2022
2927 Clouds 7 994 79 10000 2.57 330 03:41 01.04.2022
2928 Clear 7 994 83 10000 3.09 350 01:54 01.04.2022
2929 Rain 9 993 73 10000 4.47 308 22:58 31.03.2022
2930 Drizzle 10 992 72 10000 5.14 310 21:50 31.03.2022
2931 Clouds 10 992 71 10000 6.17 300 21:31 31.03.2022
2932 Clouds 10 993 69 10000 5.66 280 20:29 31.03.2022
2933 Clouds 11 993 69 10000 5.66 270 19:48 31.03.2022
2934 Clouds 12 992 62 10000 6.69 240 18:43 31.03.2022
2935 Clouds 13 992 50 10000 6.17 300 17:41 31.03.2022
2936 Clouds 12 1006 47 10000 5.66 300 16:34 31.03.2022
2937 Clouds 12 1006 47 10000 5.14 290 15:37 31.03.2022
2938 Clouds 11 1007 47 10000 4.63 300 15:19 31.03.2022
2939 Clouds 11 1007 49 10000 5.14 300 14:34 31.03.2022
2940 Clouds 9 1007 55 10000 7.2 280 11:34 31.03.2022
2941 Clouds 8 1007 56 10000 6.17 300 10:55 31.03.2022
2942 Clear 7 993 68 10000 4.12 290 09:44 31.03.2022
2943 Clear 6 1006 71 10000 3.6 290 07:53 31.03.2022
2944 Clear 7 991 75 10000 3.6 250 04:42 31.03.2022
2945 Clouds 10 1006 72 10000 3.09 320 23:37 30.03.2022
2946 Clouds 9 1006 74 10000 3.09 350 22:27 30.03.2022
2947 Clouds 10 1004 70 10000 2.57 150 21:37 30.03.2022
2948 Clouds 11 1004 69 10000 2.06 130 20:44 30.03.2022
2949 Clouds 11 1004 67 10000 3.6 20 19:59 30.03.2022
2950 Clouds 11 990 71 10000 3.6 60 18:59 30.03.2022
2951 Clouds 12 990 67 10000 4.12 20 17:53 30.03.2022
2952 Clouds 11 1003 68 10000 4.12 20 17:34 30.03.2022
2953 Clouds 11 1003 68 10000 4.12 20 16:51 30.03.2022
2954 Clouds 12 990 70 10000 4.63 10 16:30 30.03.2022
2955 Clouds 11 1004 76 10000 6.17 10 14:56 30.03.2022
2956 Clouds 11 1004 77 10000 3.09 10 13:34 30.03.2022
2957 Clouds 11 991 85 10000 3.13 29 12:41 30.03.2022
2958 Clouds 10 991 87 9000 5.36 45 10:55 30.03.2022
2959 Rain 10 991 86 2500 2.24 11 09:58 30.03.2022
2960 Clouds 10 991 85 10000 2.06 340 08:57 30.03.2022
2961 Clouds 10 989 86 10000 2.06 350 07:31 30.03.2022
2962 Clear 10 1004 87 10000 1.54 340 05:40 30.03.2022
2963 Clouds 10 991 88 10000 1.34 45 03:21 30.03.2022
2964 Drizzle 12 991 85 9000 3.13 45 23:42 29.03.2022
2965 Clouds 13 991 74 10000 2.06 10 22:19 29.03.2022
2966 Clouds 14 991 73 10000 3.6 360 21:41 29.03.2022
2967 Clouds 14 992 69 10000 4.12 240 20:44 29.03.2022
2968 Clear 15 1006 65 10000 4.12 230 19:45 29.03.2022
2969 Clouds 16 991 66 10000 4.12 240 18:54 29.03.2022
2970 Clouds 16 987 66 10000 4.12 250 18:18 29.03.2022
2971 Clouds 16 984 64 10000 3.6 260 17:21 29.03.2022
2972 Clouds 16 988 63 10000 3.6 260 16:56 29.03.2022
2973 Clouds 16 1008 61 10000 3.58 270 15:57 29.03.2022
2974 Clear 16 1009 60 10000 1.54 0 14:48 29.03.2022
2975 Clear 14 1010 62 10000 2.24 225 13:52 29.03.2022
2976 Clear 13 1011 70 10000 2.06 320 12:47 29.03.2022
2977 Clear 12 999 82 10000 3.09 290 11:28 29.03.2022
2978 Clouds 11 998 83 10000 3.6 280 10:27 29.03.2022
2979 Clouds 10 998 84 10000 2.06 350 09:23 29.03.2022
2980 Clear 10 998 82 10000 1.03 0 06:55 29.03.2022
2981 Clear 10 1000 80 10000 2.06 120 03:47 29.03.2022
2982 Clear 12 1002 74 10000 3.09 130 23:49 28.03.2022
2983 Rain 13 1002 73 10000 3.09 100 22:59 28.03.2022
2984 Rain 13 1002 72 10000 3.6 140 22:39 28.03.2022
2985 Clouds 13 1017 70 10000 3.6 140 22:19 28.03.2022
2986 Clouds 15 1004 66 10000 3.09 100 20:53 28.03.2022
2987 Clear 15 1017 59 10000 3.09 100 19:59 28.03.2022
2988 Clouds 16 1017 58 10000 4.12 150 19:40 28.03.2022
2989 Clouds 16 1017 58 10000 4.12 150 19:40 28.03.2022
2990 Clouds 16 1017 55 10000 3.6 110 18:52 28.03.2022
2991 Clouds 16 1017 55 10000 3.09 100 18:18 28.03.2022
2992 Clouds 16 1018 56 10000 3.6 110 17:30 28.03.2022
2993 Clear 15 1019 55 10000 2.57 90 15:48 28.03.2022
2994 Clear 14 1020 55 10000 3.09 100 14:24 28.03.2022
2995 Clear 13 1021 56 10000 3.6 110 13:33 28.03.2022
2996 Clear 11 1008 67 10000 4.63 70 11:54 28.03.2022
2997 Clear 9 1009 79 10000 4.63 70 10:49 28.03.2022
2998 Clear 8 1008 82 10000 3.13 68 09:38 28.03.2022
2999 Clear 7 1010 84 10000 2.57 70 08:46 28.03.2022
3000 Clear 7 1010 84 10000 2.06 70 08:21 28.03.2022
3001 Clear 7 1008 83 10000 1.79 67 07:26 28.03.2022
3002 Clear 9 1010 79 10000 1.03 20 02:46 28.03.2022
3003 Clouds 12 1010 68 10000 1.79 125 22:59 27.03.2022
3004 Clouds 13 1009 68 10000 1.54 60 21:55 27.03.2022
3005 Clouds 13 1009 68 10000 1.54 60 21:37 27.03.2022
3006 Clouds 13 1010 64 10000 2.06 80 20:42 27.03.2022
3007 Clouds 14 1010 62 10000 3.6 130 19:44 27.03.2022
3008 Clouds 14 1010 61 10000 3.09 110 18:47 27.03.2022
3009 Clouds 14 1010 61 10000 3.09 110 18:47 27.03.2022
3010 Clouds 14 1010 62 10000 3.09 110 18:25 27.03.2022
3011 Clouds 14 1010 61 10000 3.6 120 17:37 27.03.2022
3012 Clouds 13 1023 64 10000 3.6 70 15:57 27.03.2022
3013 Clouds 12 1024 69 10000 2.57 120 14:22 27.03.2022
3014 Clouds 12 1024 69 10000 2.06 120 13:33 27.03.2022
3015 Clouds 11 1024 75 10000 2.57 80 11:41 27.03.2022
3016 Clouds 10 1023 80 10000 2.57 60 10:23 27.03.2022
3017 Clouds 9 1009 88 10000 2.68 23 07:55 27.03.2022
3018 Clouds 9 1007 88 10000 2.06 350 05:18 27.03.2022
3019 Clouds 10 1022 86 10000 2.06 150 00:30 27.03.2022
3020 Clouds 10 1006 81 10000 1.79 91 22:53 26.03.2022
3021 Clouds 10 1006 81 10000 1.79 68 22:25 26.03.2022
3022 Clouds 11 1005 82 10000 3.09 320 21:31 26.03.2022
3023 Clouds 11 1019 75 10000 2.57 80 19:45 26.03.2022
3024 Clouds 12 1018 71 10000 2.06 20 18:44 26.03.2022
3025 Clouds 13 1018 70 10000 2.06 330 17:44 26.03.2022
3026 Clouds 12 1018 70 10000 2.57 50 16:47 26.03.2022
3027 Clouds 12 1018 71 10000 1.03 0 15:43 26.03.2022
3028 Clouds 12 1006 77 10000 2.06 340 14:18 26.03.2022
3029 Clouds 11 1006 77 10000 2.06 340 13:47 26.03.2022
3030 Clouds 10 1006 83 10000 3.09 30 12:36 26.03.2022
3031 Clouds 9 1006 87 10000 5.14 30 10:56 26.03.2022
3032 Drizzle 8 1005 84 10000 4.63 30 09:21 26.03.2022
3033 Drizzle 8 1004 81 10000 3.6 30 07:36 26.03.2022
3034 Clouds 8 1002 81 10000 3.58 48 05:52 26.03.2022
3035 Clouds 8 1003 82 10000 4.47 68 03:22 26.03.2022
3036 Clouds 9 1003 93 6000 4.02 45 22:50 25.03.2022
3037 Clouds 10 1018 92 8000 2.57 50 20:58 25.03.2022
3038 Clouds 10 1018 91 8000 2.68 23 20:37 25.03.2022
3039 Clouds 11 1017 86 8000 4.47 113 19:20 25.03.2022
3040 Clouds 11 1017 82 8000 5.66 60 18:37 25.03.2022
3041 Clouds 12 1016 81 6000 4.63 20 17:34 25.03.2022
3042 Clouds 12 1016 78 10000 4.47 23 16:38 25.03.2022
3043 Drizzle 12 1016 79 10000 5.66 40 15:46 25.03.2022
3044 Clouds 12 1005 79 10000 4.12 40 13:32 25.03.2022
3045 Clouds 12 1006 81 10000 5.66 50 11:38 25.03.2022
3046 Clouds 10 1006 86 10000 5.14 40 09:43 25.03.2022
3047 Clouds 10 1005 87 10000 5.66 40 08:59 25.03.2022
3048 Clouds 9 1005 88 10000 4.63 50 07:47 25.03.2022
3049 Clouds 9 1005 88 10000 4.63 50 07:19 25.03.2022
3050 Clouds 9 1004 92 10000 2.24 0 03:45 25.03.2022
3051 Drizzle 10 1005 93 10000 2.06 50 23:54 24.03.2022
3052 Clouds 10 1020 90 10000 1.79 76 22:24 24.03.2022
3053 Clouds 10 1005 92 10000 2.24 67 21:24 24.03.2022
3054 Clouds 11 1006 88 7000 4.12 110 19:50 24.03.2022
3055 Clouds 12 1019 86 7000 2.57 110 18:45 24.03.2022
3056 Clouds 12 1018 85 8000 4.12 40 17:36 24.03.2022
3057 Clouds 11 1018 87 7000 3.09 30 16:39 24.03.2022
3058 Clouds 11 1019 85 9000 4.63 40 14:53 24.03.2022
3059 Clouds 11 1019 83 8000 4.63 50 14:32 24.03.2022
3060 Clouds 11 1019 81 8000 5.66 50 13:36 24.03.2022
3061 Clouds 10 1007 85 8000 6.69 50 12:29 24.03.2022
3062 Clouds 8 1007 88 7000 6.69 30 11:27 24.03.2022
3063 Clouds 8 1007 81 10000 5.14 40 09:28 24.03.2022
3064 Clouds 8 1006 80 10000 7.2 40 08:38 24.03.2022
3065 Clouds 8 1004 79 10000 4.02 57 05:36 24.03.2022
3066 Clouds 8 1006 78 10000 4.47 68 00:47 24.03.2022
3067 Clouds 9 1006 86 10000 2.68 38 22:23 23.03.2022
3068 Clouds 9 1006 83 10000 2.68 90 21:24 23.03.2022
3069 Clouds 9 1005 80 10000 4.63 110 20:44 23.03.2022
3070 Clouds 10 1007 78 10000 5.14 110 19:33 23.03.2022
3071 Clouds 11 1019 73 10000 3.6 130 18:18 23.03.2022
3072 Drizzle 11 1006 75 10000 4.63 160 17:26 23.03.2022
3073 Clouds 12 1006 65 10000 4.63 170 15:56 23.03.2022
3074 Clouds 12 1007 62 10000 3.6 140 14:48 23.03.2022
3075 Clouds 11 1021 64 10000 4.63 100 13:34 23.03.2022
3076 Clouds 11 1021 64 10000 4.63 100 13:34 23.03.2022
3077 Clouds 10 1021 73 10000 5.14 50 11:38 23.03.2022
3078 Clouds 7 1008 81 10000 6.17 50 08:49 23.03.2022
3079 Clouds 7 1006 84 10000 2.68 82 06:25 23.03.2022
3080 Clouds 7 1007 88 10000 2.06 70 03:44 23.03.2022
3081 Drizzle 8 1023 81 10000 5.66 90 00:27 23.03.2022
3082 Clouds 9 1023 74 10000 5.66 100 21:53 22.03.2022
3083 Clouds 9 1023 75 10000 7.2 90 21:23 22.03.2022
3084 Drizzle 9 1022 75 10000 5.14 100 20:29 22.03.2022
3085 Clouds 10 1022 73 10000 6.17 110 19:27 22.03.2022
3086 Clouds 10 1022 73 10000 7.2 120 18:49 22.03.2022
3087 Clouds 11 1021 73 10000 8.23 130 17:44 22.03.2022
3088 Drizzle 11 1021 74 10000 9.26 130 16:58 22.03.2022
3089 Clouds 11 1008 82 10000 7.72 140 15:48 22.03.2022
3090 Clouds 11 1008 84 10000 6.17 130 15:21 22.03.2022
3091 Clouds 11 1009 82 10000 8.75 140 14:45 22.03.2022
3092 Clouds 12 1009 79 10000 7.72 140 13:52 22.03.2022
3093 Clouds 11 1009 83 10000 7.2 150 12:34 22.03.2022
3094 Clouds 10 1009 82 10000 6.69 130 11:24 22.03.2022
3095 Clouds 9 1007 88 10000 5.14 140 09:42 22.03.2022
3096 Clouds 8 1008 90 10000 4.63 160 07:35 22.03.2022
3097 Clouds 8 1005 91 10000 3.6 110 04:29 22.03.2022
3098 Clouds 9 1006 87 9000 3.6 100 01:27 22.03.2022
3099 Clouds 9 1006 86 10000 3.09 100 23:19 21.03.2022
3100 Clouds 10 1005 87 10000 4.92 90 21:39 21.03.2022
3101 Clouds 10 1005 90 10000 3.09 90 20:44 21.03.2022
3102 Clouds 10 1005 90 8000 3.09 70 20:23 21.03.2022
3103 Clouds 10 1006 89 2000 2.06 170 19:47 21.03.2022
3104 Clouds 10 1006 93 9000 3.6 90 18:59 21.03.2022
3105 Rain 12 1006 82 8000 8.23 120 17:36 21.03.2022
3106 Clouds 13 1005 78 10000 6.17 140 16:59 21.03.2022
3107 Clouds 13 1018 74 10000 5.36 116 16:35 21.03.2022
3108 Clouds 13 1019 67 10000 4.12 130 15:44 21.03.2022
3109 Clouds 13 1019 69 10000 4.12 140 14:45 21.03.2022
3110 Clouds 11 1007 86 10000 5.81 138 13:27 21.03.2022
3111 Clouds 10 1020 88 10000 3.6 140 12:22 21.03.2022
3112 Clouds 9 1007 95 3500 2.24 113 11:34 21.03.2022
3113 Clouds 8 1007 95 4000 2.57 360 09:53 21.03.2022
3114 Clouds 8 1007 92 5000 3.6 250 07:53 21.03.2022
3115 Drizzle 9 1005 91 10000 4.12 120 06:31 21.03.2022
3116 Clouds 11 1006 77 10000 5.66 100 02:24 21.03.2022
3117 Clouds 11 1006 73 10000 4.63 90 23:26 20.03.2022
3118 Clouds 11 1006 72 10000 4.12 80 22:36 20.03.2022
3119 Clouds 11 1005 71 10000 6.17 90 21:44 20.03.2022
3120 Clouds 12 1005 70 10000 5.66 90 20:58 20.03.2022
3121 Clouds 12 1005 67 10000 6.17 90 20:36 20.03.2022
3122 Clouds 12 1006 64 10000 7.2 110 19:55 20.03.2022
3123 Clouds 13 1006 64 10000 7.2 110 19:25 20.03.2022
3124 Clouds 13 1019 57 10000 8.75 120 17:50 20.03.2022
3125 Clouds 13 1019 57 10000 8.75 120 17:28 20.03.2022
3126 Clouds 13 1006 60 10000 7.2 120 16:40 20.03.2022
3127 Clouds 13 1007 64 10000 7.2 110 14:53 20.03.2022
3128 Clouds 12 1008 66 10000 7.72 120 13:39 20.03.2022
3129 Clouds 11 1022 69 10000 7.2 110 12:21 20.03.2022
3130 Clouds 11 1010 72 10000 5.14 70 10:38 20.03.2022
3131 Clouds 9 1009 76 10000 2.57 60 08:35 20.03.2022
3132 Clouds 9 1007 75 10000 2.24 99 06:40 20.03.2022
3133 Clouds 9 1008 74 10000 3.09 100 03:27 20.03.2022
3134 Clouds 10 1024 75 10000 3.09 110 00:54 20.03.2022
3135 Clouds 10 1024 75 10000 3.09 110 00:54 20.03.2022
3136 Clouds 10 1024 74 10000 3.09 110 00:35 20.03.2022
3137 Clouds 10 1024 74 10000 3.6 150 22:42 19.03.2022
3138 Clouds 11 1008 68 10000 2.06 120 21:27 19.03.2022
3139 Clouds 12 1010 63 10000 1.03 0 19:42 19.03.2022
3140 Clouds 13 1010 62 10000 1.54 240 18:44 19.03.2022
3141 Clouds 13 1010 60 10000 2.57 220 17:55 19.03.2022
3142 Clouds 13 1010 58 10000 2.06 160 17:33 19.03.2022
3143 Clouds 13 1023 56 10000 3.6 150 15:41 19.03.2022
3144 Clouds 13 1024 59 10000 2.68 185 14:21 19.03.2022
3145 Clouds 12 1025 64 10000 1.34 113 12:56 19.03.2022
3146 Clouds 12 1025 65 10000 2.06 80 12:37 19.03.2022
3147 Clouds 11 1025 66 10000 3.09 90 11:47 19.03.2022
3148 Clouds 10 1025 68 10000 4.12 40 10:41 19.03.2022
3149 Clouds 8 1009 82 10000 1.54 360 05:59 19.03.2022
3150 Clear 8 1010 78 10000 2.57 340 02:48 19.03.2022
3151 Clouds 9 1010 75 10000 1.54 50 01:32 19.03.2022
3152 Clouds 10 1010 71 10000 2.24 80 23:22 18.03.2022
3153 Clouds 11 1010 69 10000 1.79 75 22:23 18.03.2022
3154 Clear 11 1010 65 10000 1.54 40 20:48 18.03.2022
3155 Clouds 12 1011 61 10000 3.09 40 19:49 18.03.2022
3156 Clouds 13 1011 60 10000 3.09 40 19:19 18.03.2022
3157 Clouds 14 1024 55 10000 3.09 100 17:27 18.03.2022
3158 Clouds 14 1024 55 10000 3.6 80 16:45 18.03.2022
3159 Clouds 13 1012 65 10000 3.6 60 14:37 18.03.2022
3160 Clouds 13 1012 66 10000 3.6 60 14:18 18.03.2022
3161 Clouds 12 1012 69 10000 5.14 50 12:23 18.03.2022
3162 Clouds 10 1012 71 10000 6.69 40 10:39 18.03.2022
3163 Clouds 8 1012 72 10000 6.17 40 09:23 18.03.2022
3164 Clear 7 1011 75 10000 5.14 30 07:45 18.03.2022
3165 Clear 7 1009 76 10000 3.13 47 06:34 18.03.2022
3166 Clouds 8 1009 70 10000 3.6 50 02:51 18.03.2022
3167 Clear 9 1009 66 10000 3.13 84 00:22 18.03.2022
3168 Clear 9 1009 64 10000 3.6 40 23:20 17.03.2022
3169 Clear 10 1009 62 10000 4.02 65 22:23 17.03.2022
3170 Clear 10 1009 60 10000 4.47 61 21:48 17.03.2022
3171 Clouds 10 1009 61 10000 3.6 40 21:20 17.03.2022
3172 Clouds 11 1008 60 10000 4.47 73 20:41 17.03.2022
3173 Clouds 11 1009 61 10000 7.72 50 19:45 17.03.2022
3174 Clouds 12 1009 59 10000 6.69 50 18:57 17.03.2022
3175 Clouds 12 1009 58 10000 6.69 60 18:37 17.03.2022
3176 Clouds 13 1009 57 8000 9.26 50 16:48 17.03.2022
3177 Drizzle 12 1022 58 8000 8.75 40 15:44 17.03.2022
3178 Drizzle 12 1022 60 8000 9.77 30 15:23 17.03.2022
3179 Drizzle 12 1010 63 8000 10.8 40 13:50 17.03.2022
3180 Drizzle 12 1010 66 7000 8.75 50 12:51 17.03.2022
3181 Drizzle 11 1009 68 7000 7.72 50 12:22 17.03.2022
3182 Drizzle 11 1009 65 7000 8.23 50 11:27 17.03.2022
3183 Drizzle 10 1008 68 7000 9.26 40 09:57 17.03.2022
3184 Drizzle 10 1007 69 10000 11.32 30 08:34 17.03.2022
3185 Drizzle 10 1007 69 10000 11.32 30 08:34 17.03.2022
3186 Drizzle 10 1006 67 10000 10.29 40 07:33 17.03.2022
3187 Clouds 11 1004 70 10000 4.92 68 05:47 17.03.2022
3188 Clear 12 1003 74 10000 6.17 50 00:46 17.03.2022
3189 Clouds 12 1003 73 10000 4.63 30 23:45 16.03.2022
3190 Clear 12 1003 71 10000 4.63 30 22:45 16.03.2022
3191 Clear 12 1002 73 10000 5.66 20 22:21 16.03.2022
3192 Clear 12 1002 74 10000 4.92 44 21:37 16.03.2022
3193 Haze 13 1002 70 5000 2.68 63 19:41 16.03.2022
3194 Haze 13 1002 70 4000 2.68 71 19:20 16.03.2022
3195 Haze 14 999 66 4000 1.79 40 18:36 16.03.2022
3196 Haze 15 999 59 4000 1.34 62 17:41 16.03.2022
3197 Haze 16 995 54 4000 1.54 50 16:56 16.03.2022
3198 Haze 16 1015 52 4000 2.57 90 15:55 16.03.2022
3199 Haze 15 991 55 4000 2.57 70 14:25 16.03.2022
3200 Haze 15 991 56 4000 3.6 50 13:27 16.03.2022
3201 Haze 14 1001 57 5000 3.13 45 11:56 16.03.2022
3202 Haze 13 1003 62 5000 3.13 57 11:20 16.03.2022
3203 Haze 13 1003 59 4000 2.24 34 10:23 16.03.2022
3204 Haze 12 1003 62 3000 3.09 330 08:52 16.03.2022
3205 Clouds 12 1001 67 7000 2.68 76 05:58 16.03.2022
3206 Haze 14 1002 59 6000 2.24 66 01:35 16.03.2022
3207 Haze 15 1002 57 6000 1.54 60 22:38 15.03.2022
3208 Haze 15 1017 56 6000 1.54 120 21:55 15.03.2022
3209 Haze 16 1016 51 5000 2.68 91 20:28 15.03.2022
3210 Haze 16 1003 56 3300 3.13 76 18:57 15.03.2022
3211 Haze 17 1002 54 4500 3.6 40 16:57 15.03.2022
3212 Haze 17 1002 59 4500 3.09 70 16:28 15.03.2022
3213 Haze 16 1003 61 4500 5.14 50 14:58 15.03.2022
3214 Haze 15 1000 65 4500 4.12 50 14:39 15.03.2022
3215 Haze 15 992 66 4800 4.12 50 13:38 15.03.2022
3216 Haze 14 1004 66 4500 4.12 30 12:24 15.03.2022
3217 Haze 13 1017 66 4000 4.02 23 11:31 15.03.2022
3218 Haze 13 1003 65 3500 5.14 60 09:45 15.03.2022
3219 Haze 13 1015 66 3400 3.09 80 08:42 15.03.2022
3220 Haze 13 1014 69 3000 2.57 330 07:51 15.03.2022
3221 Haze 13 1014 61 3000 4.12 60 07:28 15.03.2022
3222 Haze 12 1012 79 3700 2.57 30 03:30 15.03.2022
3223 Clouds 11 1013 81 6000 2.68 21 23:44 14.03.2022
3224 Mist 11 1013 80 8000 2.68 45 23:23 14.03.2022
3225 Haze 12 998 81 9000 2.06 20 22:26 14.03.2022
3226 Haze 12 997 80 10000 2.06 300 21:30 14.03.2022
3227 Haze 12 1012 77 7000 3.09 170 20:41 14.03.2022
3228 Clouds 13 1010 73 10000 7.2 130 20:19 14.03.2022
3229 Clouds 13 1008 71 10000 7.72 110 18:42 14.03.2022
3230 Clouds 13 994 72 10000 9.26 110 17:54 14.03.2022
3231 Clouds 12 994 81 10000 9.77 110 16:58 14.03.2022
3232 Clouds 9 1007 89 10000 5.14 30 15:43 14.03.2022
3233 Clouds 8 984 92 9000 6.17 30 14:40 14.03.2022
3234 Clouds 6 996 90 9000 9.26 30 12:22 14.03.2022
3235 Clouds 6 997 92 6000 7.15 45 10:54 14.03.2022
3236 Clouds 6 1011 90 6000 7.72 40 09:44 14.03.2022
3237 Clouds 6 998 90 6000 7.72 40 09:22 14.03.2022
3238 Rain 6 1012 86 7000 5.66 60 08:55 14.03.2022
3239 Clouds 8 1012 69 10000 7.2 100 07:32 14.03.2022
3240 Clouds 9 997 74 10000 2.57 60 05:45 14.03.2022
3241 Clear 8 999 69 10000 3.13 69 01:55 14.03.2022
3242 Clear 9 999 68 10000 2.68 60 01:24 14.03.2022
3243 Clouds 10 1000 61 10000 2.57 100 22:44 13.03.2022
3244 Clouds 11 1000 60 10000 2.57 90 21:31 13.03.2022
3245 Clouds 11 1000 59 10000 2.06 90 20:56 13.03.2022
3246 Clouds 11 1000 59 10000 1.03 110 20:30 13.03.2022
3247 Clouds 11 1001 58 10000 1.54 160 19:49 13.03.2022
3248 Clouds 12 1001 56 10000 2.57 160 19:28 13.03.2022
3249 Clouds 12 1014 50 10000 3.09 180 18:59 13.03.2022
3250 Clouds 12 1014 49 10000 4.12 190 18:35 13.03.2022
3251 Clouds 13 1014 48 10000 4.12 180 17:41 13.03.2022
3252 Clouds 13 1014 48 10000 4.47 208 17:19 13.03.2022
3253 Clouds 13 1014 47 10000 4.63 220 16:30 13.03.2022
3254 Clouds 13 1014 44 10000 4.63 220 15:47 13.03.2022
3255 Clouds 13 1015 41 10000 4.12 230 14:56 13.03.2022
3256 Clouds 12 1015 43 10000 2.57 270 13:43 13.03.2022
3257 Clouds 11 1015 49 10000 4.63 290 12:38 13.03.2022
3258 Clear 10 1016 55 10000 5.66 290 11:51 13.03.2022
3259 Clear 10 1016 56 10000 5.66 290 11:31 13.03.2022
3260 Clear 10 1016 56 10000 5.66 290 11:31 13.03.2022
3261 Clear 9 1016 65 10000 5.14 270 10:46 13.03.2022
3262 Clear 8 1015 71 10000 4.63 250 09:59 13.03.2022
3263 Clear 7 1015 76 10000 5.14 270 09:40 13.03.2022
3264 Clear 6 1001 83 10000 3.6 260 08:45 13.03.2022
3265 Clear 6 1001 86 10000 5.14 270 07:41 13.03.2022
3266 Clouds 7 997 88 10000 3.58 248 05:40 13.03.2022
3267 Drizzle 8 997 93 8000 4.12 180 02:39 13.03.2022
3268 Clouds 9 998 82 10000 2.57 190 23:33 12.03.2022
3269 Clouds 9 999 78 10000 3.6 190 21:53 12.03.2022
3270 Clouds 10 999 74 10000 4.63 220 20:34 12.03.2022
3271 Drizzle 10 1001 72 10000 6.69 240 19:47 12.03.2022
3272 Clouds 11 999 67 10000 6.69 240 18:58 12.03.2022
3273 Clouds 11 1001 65 10000 8.23 230 18:22 12.03.2022
3274 Clouds 12 1001 59 10000 9.26 230 17:23 12.03.2022
3275 Clouds 12 1002 60 10000 8.75 250 16:23 12.03.2022
3276 Clouds 12 1002 60 10000 8.23 240 15:22 12.03.2022
3277 Clouds 12 1015 56 10000 7.72 240 14:28 12.03.2022
3278 Clouds 9 1017 74 10000 6.17 250 12:45 12.03.2022
3279 Clouds 8 1004 79 10000 4.12 250 11:56 12.03.2022
3280 Clouds 8 1017 79 10000 5.66 240 11:35 12.03.2022
3281 Clouds 7 1017 81 10000 4.12 220 10:52 12.03.2022
3282 Fog 6 1017 81 10000 3.13 216 09:45 12.03.2022
3283 Fog 5 1004 80 10000 3.13 270 08:55 12.03.2022
3284 Fog 5 1003 79 10000 4.12 270 07:20 12.03.2022
3285 Clear 7 1001 86 10000 5.14 260 02:36 12.03.2022
3286 Drizzle 8 1000 90 10000 5.66 250 23:56 11.03.2022
3287 Drizzle 8 1000 90 10000 5.66 250 23:56 11.03.2022
3288 Drizzle 8 1000 90 10000 4.63 240 22:56 11.03.2022
3289 Clouds 8 1000 91 9000 4.12 230 21:35 11.03.2022
3290 Clouds 8 999 91 9000 4.63 240 20:54 11.03.2022
3291 Clouds 8 999 88 7000 6.69 240 20:29 11.03.2022
3292 Clouds 9 1001 85 7000 5.66 250 19:42 11.03.2022
3293 Drizzle 10 1000 85 10000 5.14 240 19:20 11.03.2022
3294 Clouds 11 1000 81 8000 7.2 250 17:29 11.03.2022
3295 Clouds 12 1000 72 10000 8.75 240 16:27 11.03.2022
3296 Clouds 12 1013 72 10000 8.75 240 15:53 11.03.2022
3297 Clouds 11 1000 85 10000 6.17 210 14:19 11.03.2022
3298 Clouds 10 1001 94 10000 4.63 200 12:44 11.03.2022
3299 Clouds 9 1001 94 10000 4.63 200 12:21 11.03.2022
3300 Drizzle 9 1001 95 3000 4.12 200 11:51 11.03.2022
3301 Clouds 8 1001 90 2500 4.02 198 09:40 11.03.2022
3302 Clouds 8 1001 85 10000 4.02 203 08:47 11.03.2022
3303 Clouds 8 1000 84 10000 5.66 220 08:20 11.03.2022
3304 Clouds 9 1001 81 10000 3.58 225 07:40 11.03.2022
3305 Clouds 9 999 77 10000 3.58 196 05:44 11.03.2022
3306 Clouds 9 1000 77 10000 3.13 206 03:41 11.03.2022
3307 Clear 10 1002 75 10000 2.68 198 23:31 10.03.2022
3308 Clear 11 1002 74 10000 2.57 150 22:29 10.03.2022
3309 Clear 11 1002 68 10000 2.57 180 21:27 10.03.2022
3310 Clear 12 1003 64 10000 2.57 200 20:49 10.03.2022
3311 Clouds 13 1005 58 10000 5.14 220 19:23 10.03.2022
3312 Clouds 14 1017 52 10000 5.66 210 18:40 10.03.2022
3313 Clouds 15 1005 53 10000 6.69 210 16:54 10.03.2022
3314 Clouds 15 1006 55 10000 6.69 230 15:49 10.03.2022
3315 Clouds 14 1007 60 10000 4.12 260 14:24 10.03.2022
3316 Clouds 12 1021 70 10000 1.54 190 12:50 10.03.2022
3317 Clouds 11 1004 75 10000 2.06 110 11:42 10.03.2022
3318 Clouds 8 1008 85 10000 2.57 130 10:24 10.03.2022
3319 Clouds 8 1008 81 10000 1.54 90 08:49 10.03.2022
3320 Clouds 8 1005 81 10000 1.54 100 06:36 10.03.2022
3321 Clouds 9 1005 75 10000 3.58 206 03:42 10.03.2022
3322 Clear 10 1006 71 10000 0.89 85 00:51 10.03.2022
3323 Clouds 11 1006 70 10000 1.54 350 22:46 09.03.2022
3324 Clouds 11 1005 69 10000 1.54 10 21:48 09.03.2022
3325 Clouds 11 1006 68 10000 1.54 10 21:23 09.03.2022
3326 Clouds 12 1007 61 10000 1.54 90 19:40 09.03.2022
3327 Clouds 13 1007 58 10000 1.03 0 18:19 09.03.2022
3328 Clouds 13 1007 58 10000 2.06 230 17:26 09.03.2022
3329 Clouds 13 1007 58 10000 3.09 220 16:24 09.03.2022
3330 Clouds 12 1021 59 10000 3.6 210 14:32 09.03.2022
3331 Clouds 12 1021 61 10000 4.12 190 13:52 09.03.2022
3332 Clouds 10 1022 67 10000 3.13 186 12:36 09.03.2022
3333 Clouds 9 1022 72 10000 2.24 203 11:48 09.03.2022
3334 Clouds 8 1022 74 10000 1.54 90 11:18 09.03.2022
3335 Clouds 6 1022 83 10000 2.24 135 09:41 09.03.2022
3336 Clouds 5 1006 87 10000 0.51 0 08:47 09.03.2022
3337 Clouds 4 1005 87 10000 1.79 222 06:27 09.03.2022
3338 Clear 6 1006 81 10000 2.06 150 01:53 09.03.2022
3339 Clear 6 1020 79 10000 3.6 230 00:26 09.03.2022
3340 Clouds 8 1020 72 10000 2.57 230 22:46 08.03.2022
3341 Clouds 8 1020 72 10000 3.6 230 21:52 08.03.2022
3342 Clouds 9 1005 70 10000 3.6 230 21:22 08.03.2022
3343 Clouds 10 1004 66 10000 3.6 240 20:24 08.03.2022
3344 Clouds 11 1006 62 10000 5.14 230 19:24 08.03.2022
3345 Clouds 12 1018 57 10000 5.66 240 18:23 08.03.2022
3346 Clouds 12 1005 57 10000 5.66 250 16:56 08.03.2022
3347 Clouds 12 1005 60 10000 4.63 210 14:58 08.03.2022
3348 Clouds 10 1005 67 10000 5.14 230 13:48 08.03.2022
3349 Clouds 9 1005 71 10000 6.17 220 12:28 08.03.2022
3350 Clouds 9 1017 71 10000 6.17 230 11:43 08.03.2022
3351 Clouds 7 1017 72 10000 7.2 240 10:29 08.03.2022
3352 Clouds 6 1016 72 10000 4.63 230 08:57 08.03.2022
3353 Clouds 6 1016 72 10000 4.63 230 08:57 08.03.2022
3354 Clear 6 1014 75 10000 3.13 203 06:31 08.03.2022
3355 Clear 6 999 88 10000 3.13 190 03:48 08.03.2022
3356 Clear 8 999 82 10000 5.14 160 22:53 07.03.2022
3357 Clouds 8 1013 79 10000 4.63 130 21:45 07.03.2022
3358 Clear 8 998 79 10000 4.12 130 21:23 07.03.2022
3359 Clouds 9 998 78 10000 4.02 113 20:38 07.03.2022
3360 Clouds 9 1000 76 10000 4.12 150 19:50 07.03.2022
3361 Clouds 9 999 78 10000 4.12 150 19:24 07.03.2022
3362 Clouds 9 1012 73 10000 4.12 170 18:33 07.03.2022
3363 Clouds 10 1011 69 10000 3.6 140 17:31 07.03.2022
3364 Clouds 9 1012 78 10000 4.63 220 16:54 07.03.2022
3365 Clouds 10 1012 62 10000 2.57 210 14:57 07.03.2022
3366 Clouds 6 1014 89 10000 2.06 340 12:35 07.03.2022
3367 Clouds 6 1001 93 10000 2.06 360 11:36 07.03.2022
3368 Clouds 5 1001 94 9000 2.57 360 10:34 07.03.2022
3369 Clouds 5 1000 94 5000 3.09 10 08:35 07.03.2022
3370 Clouds 6 1000 88 10000 2.06 20 02:56 07.03.2022
3371 Clouds 8 1000 79 9000 3.09 180 00:21 07.03.2022
3372 Clouds 8 1000 78 10000 2.06 110 23:28 06.03.2022
3373 Clouds 8 999 76 10000 3.09 120 22:30 06.03.2022
3374 Clouds 8 999 72 10000 3.09 140 21:45 06.03.2022
3375 Clouds 10 999 59 10000 2.06 120 20:29 06.03.2022
3376 Clouds 10 1001 57 10000 2.57 130 19:48 06.03.2022
3377 Clouds 10 1000 53 10000 2.06 120 18:51 06.03.2022
3378 Clouds 11 1001 50 10000 2.06 80 17:49 06.03.2022
3379 Clouds 11 1001 50 10000 2.06 80 17:20 06.03.2022
3380 Clouds 11 1001 49 10000 2.57 90 16:40 06.03.2022
3381 Clouds 11 1013 50 10000 3.09 0 15:37 06.03.2022
3382 Clouds 11 1013 52 10000 3.09 120 14:48 06.03.2022
3383 Clouds 11 1013 49 10000 3.6 100 14:26 06.03.2022
3384 Clear 9 1014 52 10000 4.63 50 12:43 06.03.2022
3385 Clear 9 1014 55 10000 5.14 40 11:56 06.03.2022
3386 Clear 7 1014 61 10000 6.69 40 10:43 06.03.2022
3387 Clear 5 1014 68 10000 5.14 40 09:25 06.03.2022
3388 Clouds 4 1001 72 10000 5.14 30 08:28 06.03.2022
3389 Clouds 4 1001 73 10000 3.6 30 07:33 06.03.2022
3390 Clouds 4 999 70 10000 4.02 67 03:58 06.03.2022
3391 Clouds 7 1015 59 10000 3.58 62 00:42 06.03.2022
3392 Clouds 7 1000 60 10000 3.13 73 00:23 06.03.2022
3393 Clouds 8 1003 54 10000 2.68 79 23:19 05.03.2022
3394 Clouds 8 1015 51 10000 1.79 63 22:38 05.03.2022
3395 Clear 8 1002 48 10000 1.79 23 21:31 05.03.2022
3396 Clouds 9 1002 48 10000 1.54 90 20:57 05.03.2022
3397 Clouds 10 1003 43 10000 2.68 315 19:23 05.03.2022
3398 Clouds 11 1003 40 10000 1.34 110 18:50 05.03.2022
3399 Clouds 11 1001 40 10000 1.54 140 17:39 05.03.2022
3400 Clouds 11 1014 38 10000 2.68 124 16:20 05.03.2022
3401 Clouds 11 1004 39 10000 2.24 270 15:30 05.03.2022
3402 Clouds 11 1016 41 10000 2.06 80 14:37 05.03.2022
3403 Clouds 10 1017 46 10000 2.24 270 13:46 05.03.2022
3404 Clouds 10 1017 48 10000 2.06 0 12:55 05.03.2022
3405 Clear 8 1018 57 10000 2.06 100 11:39 05.03.2022
3406 Clouds 7 1018 60 10000 2.06 80 11:18 05.03.2022
3407 Clouds 5 1018 67 10000 2.06 50 09:40 05.03.2022
3408 Clouds 4 1018 72 10000 1.79 73 08:49 05.03.2022
3409 Clouds 3 1005 78 10000 2.06 40 07:23 05.03.2022
3410 Clear 3 1003 77 10000 2.24 57 05:41 05.03.2022
3411 Clouds 7 1005 68 10000 2.68 69 01:25 05.03.2022
3412 Clouds 8 1005 61 10000 3.09 60 23:30 04.03.2022
3413 Clouds 8 1005 59 10000 5.14 10 22:40 04.03.2022
3414 Clouds 9 1005 60 10000 5.66 10 21:45 04.03.2022
3415 Clouds 9 1019 55 10000 4.63 360 20:49 04.03.2022
3416 Clouds 10 1005 55 10000 4.63 360 20:18 04.03.2022
3417 Clouds 10 1019 52 10000 4.63 320 19:35 04.03.2022
3418 Clouds 11 1006 49 10000 5.66 320 18:36 04.03.2022
3419 Clouds 12 1006 50 10000 4.63 290 17:30 04.03.2022
3420 Clouds 12 1018 48 10000 3.09 310 16:36 04.03.2022
3421 Clouds 12 1018 47 10000 3.6 30 15:28 04.03.2022
3422 Clouds 12 1019 50 10000 4.63 40 13:53 04.03.2022
3423 Clouds 11 1019 51 10000 5.66 360 12:54 04.03.2022
3424 Clear 9 1019 58 10000 5.14 20 11:38 04.03.2022
3425 Clear 8 1006 61 10000 5.66 20 10:42 04.03.2022
3426 Clouds 7 1004 65 10000 6.17 30 09:28 04.03.2022
3427 Clear 6 1003 66 10000 7.72 30 08:31 04.03.2022
3428 Clouds 7 1002 65 10000 7.2 30 06:59 04.03.2022
3429 Clouds 7 999 73 10000 6.69 10 03:28 04.03.2022
3430 Clouds 7 999 89 10000 4.63 360 00:22 04.03.2022
3431 Clouds 8 998 93 9000 2.57 350 22:21 03.03.2022
3432 Clouds 8 997 94 10000 2.06 300 21:39 03.03.2022
3433 Clouds 8 997 94 10000 2.06 360 20:59 03.03.2022
3434 Clouds 8 999 94 9000 3.09 270 19:48 03.03.2022
3435 Clouds 8 999 94 7000 0.45 293 18:49 03.03.2022
3436 Rain 8 999 94 9000 4.63 260 18:22 03.03.2022
3437 Clouds 8 1000 93 9000 3.6 270 17:27 03.03.2022
3438 Clouds 8 1013 94 10000 2.57 240 15:48 03.03.2022
3439 Clouds 8 1002 93 4000 2.06 190 14:59 03.03.2022
3440 Clouds 8 1002 91 1500 1.54 180 14:33 03.03.2022
3441 Rain 8 1016 85 8000 2.57 230 13:18 03.03.2022
3442 Rain 9 1017 68 6000 1.34 214 11:45 03.03.2022
3443 Clear 9 1018 67 10000 1.54 90 10:40 03.03.2022
3444 Clear 7 1005 74 10000 0.89 58 08:45 03.03.2022
3445 Clear 6 1005 77 10000 0.89 90 07:25 03.03.2022
3446 Clear 7 1004 76 10000 2.06 260 06:34 03.03.2022
3447 Clear 9 1021 66 10000 1.79 304 01:45 03.03.2022
3448 Clear 11 1007 63 10000 3.6 320 23:29 02.03.2022
3449 Clear 12 1007 58 10000 2.57 320 22:50 02.03.2022
3450 Clear 12 1007 58 10000 2.57 320 22:50 02.03.2022
3451 Clear 12 1007 57 10000 4.63 280 21:29 02.03.2022
3452 Clear 12 1021 55 10000 5.14 280 20:44 02.03.2022
3453 Clouds 13 1007 52 10000 3.6 280 20:22 02.03.2022
3454 Clouds 13 1008 50 10000 3.6 330 19:34 02.03.2022
3455 Clouds 15 1008 47 10000 5.14 310 18:44 02.03.2022
3456 Clouds 15 1021 45 10000 5.14 330 17:59 02.03.2022
3457 Clouds 15 1008 47 10000 8.75 290 17:23 02.03.2022
3458 Clouds 16 1008 47 10000 7.2 260 16:45 02.03.2022
3459 Clouds 16 1008 46 10000 8.75 290 16:45 02.03.2022
3460 Clouds 15 1021 50 10000 6.17 230 14:45 02.03.2022
3461 Clouds 14 1022 50 10000 6.17 270 13:24 02.03.2022
3462 Clouds 14 1010 51 10000 6.71 270 12:43 02.03.2022
3463 Clouds 13 1010 57 10000 5.14 270 11:47 02.03.2022
3464 Clouds 13 1023 57 10000 5.14 270 11:24 02.03.2022
3465 Clouds 10 1010 81 10000 3.6 260 09:46 02.03.2022
3466 Clouds 9 1010 84 10000 3.6 260 08:59 02.03.2022
3467 Clear 8 1009 83 10000 4.12 250 07:39 02.03.2022
3468 Clear 8 1007 82 10000 3.09 240 06:54 02.03.2022
3469 Clear 11 1008 72 10000 2.57 210 02:54 02.03.2022
3470 Clear 12 1009 65 10000 4.12 230 00:29 02.03.2022
3471 Clear 13 1009 59 10000 3.09 200 22:50 01.03.2022
3472 Clear 13 1009 57 10000 2.57 200 22:31 01.03.2022
3473 Clouds 13 1024 52 10000 2.57 240 21:25 01.03.2022
3474 Clouds 14 1024 45 10000 3.09 220 20:32 01.03.2022
3475 Clouds 15 1023 42 10000 4.12 210 19:45 01.03.2022
3476 Clear 16 1023 38 10000 5.66 250 18:51 01.03.2022
3477 Clear 17 1010 37 10000 6.69 250 18:21 01.03.2022
3478 Clear 17 1010 38 10000 5.14 220 17:37 01.03.2022
3479 Clear 17 1024 39 10000 5.14 220 16:35 01.03.2022
3480 Clear 17 1024 44 10000 6.17 240 15:45 01.03.2022
3481 Clear 16 1025 47 10000 4.63 230 14:41 01.03.2022
3482 Clear 16 1025 49 10000 4.63 230 14:23 01.03.2022
3483 Clear 14 1026 55 10000 2.57 180 13:26 01.03.2022
3484 Clear 13 1027 60 10000 1.34 169 12:35 01.03.2022
3485 Clear 10 1027 70 10000 1.34 81 10:38 01.03.2022
3486 Clear 7 1027 74 10000 1.79 87 09:25 01.03.2022
3487 Clear 5 1013 83 10000 1.03 330 07:55 01.03.2022
3488 Clear 6 1011 78 10000 2.06 10 06:27 01.03.2022
3489 Clear 7 1012 76 10000 2.06 320 02:45 01.03.2022
3490 Clear 9 1012 69 10000 2.06 280 00:40 01.03.2022
3491 Clear 10 1012 67 10000 2.57 260 23:35 28.02.2022
3492 Clear 11 1012 61 10000 3.6 240 22:28 28.02.2022
3493 Clear 12 1012 60 10000 3.09 220 21:43 28.02.2022
3494 Clear 13 1026 55 10000 3.09 190 20:33 28.02.2022
3495 Clouds 14 1026 51 10000 3.09 200 19:42 28.02.2022
3496 Clouds 15 1025 47 10000 3.13 190 18:49 28.02.2022
3497 Clouds 16 1025 45 10000 3.09 210 17:33 28.02.2022
3498 Clouds 17 1025 45 10000 3.09 230 16:54 28.02.2022
3499 Clouds 16 1026 47 10000 2.24 280 15:58 28.02.2022
3500 Clouds 15 1027 52 10000 2.06 0 14:32 28.02.2022
3501 Clouds 14 1027 57 10000 2.24 205 13:52 28.02.2022
3502 Clear 14 1027 60 10000 1.34 135 13:18 28.02.2022
3503 Clear 12 1027 66 10000 1.54 160 11:59 28.02.2022
3504 Clear 11 1027 69 10000 2.57 100 11:19 28.02.2022
3505 Clear 9 1027 75 10000 3.09 60 10:22 28.02.2022
3506 Clear 8 1027 78 10000 2.06 60 09:44 28.02.2022
3507 Clear 6 1013 84 10000 1.34 65 08:52 28.02.2022
3508 Clear 5 1013 87 10000 2.24 70 07:58 28.02.2022
3509 Clouds 6 1010 86 10000 1.54 340 05:54 28.02.2022
3510 Clouds 7 1010 87 10000 1.54 350 04:30 28.02.2022
3511 Clear 8 1009 83 10000 1.03 150 00:52 28.02.2022
3512 Clouds 9 1009 77 10000 2.68 293 22:45 27.02.2022
3513 Clouds 10 1009 77 10000 2.06 280 22:26 27.02.2022
3514 Clouds 10 1008 72 10000 1.79 270 21:37 27.02.2022
3515 Clear 10 1023 71 10000 2.06 240 20:44 27.02.2022
3516 Clouds 11 1023 66 10000 1.54 190 20:18 27.02.2022
3517 Clouds 12 1022 62 10000 1.54 190 19:48 27.02.2022
3518 Clouds 12 1022 61 10000 1.54 190 19:21 27.02.2022
3519 Clouds 12 1022 62 10000 1.54 190 19:21 27.02.2022
3520 Clouds 13 1022 55 10000 2.06 100 18:33 27.02.2022
3521 Clouds 13 1022 56 10000 1.54 90 17:49 27.02.2022
3522 Clouds 13 1022 58 10000 2.06 140 16:25 27.02.2022
3523 Clouds 12 1022 57 10000 1.54 0 15:21 27.02.2022
3524 Clouds 10 1024 72 10000 0.89 127 12:37 27.02.2022
3525 Clouds 9 1023 75 10000 2.06 90 11:51 27.02.2022
3526 Clouds 8 1023 78 10000 2.57 110 10:37 27.02.2022
3527 Clouds 8 1023 82 10000 2.06 80 09:58 27.02.2022
3528 Clouds 8 1023 82 10000 2.06 80 09:58 27.02.2022
3529 Clouds 7 1010 86 10000 1.54 60 09:23 27.02.2022
3530 Clouds 7 1010 85 10000 2.57 60 08:45 27.02.2022
3531 Clouds 7 1008 84 10000 2.06 90 06:26 27.02.2022
3532 Clouds 8 1007 83 10000 3.09 100 03:44 27.02.2022
3533 Clouds 9 1007 82 10000 2.06 90 23:57 26.02.2022
3534 Clouds 9 1007 84 10000 3.09 150 22:43 26.02.2022
3535 Clouds 9 1006 84 10000 2.06 110 21:29 26.02.2022
3536 Clouds 9 1006 84 10000 2.57 100 20:43 26.02.2022
3537 Clouds 9 1008 85 10000 4.12 120 19:57 26.02.2022
3538 Clouds 9 1008 85 10000 4.12 120 19:33 26.02.2022
3539 Clouds 9 1007 86 10000 5.14 120 18:34 26.02.2022
3540 Clouds 9 1007 87 10000 4.12 120 17:37 26.02.2022
3541 Clouds 9 1007 87 10000 4.12 120 16:39 26.02.2022
3542 Clouds 9 1008 89 10000 5.14 130 15:42 26.02.2022
3543 Clouds 9 1008 87 10000 5.14 130 15:19 26.02.2022
3544 Clouds 9 1008 87 10000 2.57 330 14:44 26.02.2022
3545 Clouds 9 1008 87 10000 2.57 330 14:20 26.02.2022
3546 Clouds 8 1009 89 10000 4.12 40 12:59 26.02.2022
3547 Clouds 8 1009 88 10000 4.12 50 11:54 26.02.2022
3548 Clouds 8 1009 91 10000 4.12 50 11:27 26.02.2022
3549 Clouds 7 1009 90 9000 3.6 60 10:22 26.02.2022
3550 Clouds 7 1009 87 8000 4.12 40 08:35 26.02.2022
3551 Clouds 8 1008 77 10000 5.14 50 06:46 26.02.2022
3552 Clouds 9 1008 74 10000 2.06 70 00:26 26.02.2022
3553 Clouds 10 1008 76 10000 2.24 66 22:44 25.02.2022
3554 Clouds 10 1008 74 10000 1.54 10 21:37 25.02.2022
3555 Clouds 10 1008 73 10000 2.06 350 21:18 25.02.2022
3556 Clouds 10 1008 72 10000 2.57 360 20:31 25.02.2022
3557 Clouds 11 1008 72 10000 4.63 50 18:35 25.02.2022
3558 Clouds 11 1008 73 10000 5.14 40 17:21 25.02.2022
3559 Clouds 10 1000 81 10000 5.14 30 16:20 25.02.2022
3560 Clouds 10 1000 80 10000 5.14 30 15:42 25.02.2022
3561 Clouds 10 1001 81 10000 5.14 20 15:18 25.02.2022
3562 Clouds 9 1001 87 10000 4.63 20 14:39 25.02.2022
3563 Clouds 8 1007 88 10000 3.6 30 13:36 25.02.2022
3564 Clouds 8 1007 87 9000 4.63 30 12:45 25.02.2022
3565 Clouds 7 1012 86 9000 5.14 30 11:28 25.02.2022
3566 Clouds 7 1012 85 9000 5.14 40 10:28 25.02.2022
3567 Clouds 7 1011 85 10000 5.14 40 09:53 25.02.2022
3568 Drizzle 8 1011 77 10000 4.63 40 08:46 25.02.2022
3569 Drizzle 9 1010 68 10000 4.12 50 07:37 25.02.2022
3570 Rain 9 1008 63 10000 3.09 360 05:47 25.02.2022
3571 Clear 10 1007 62 10000 3.58 68 02:58 25.02.2022
3572 Clear 12 1007 50 10000 3.6 330 23:42 24.02.2022
3573 Clear 13 1006 42 10000 3.09 330 21:56 24.02.2022
3574 Clear 13 1006 41 10000 2.57 330 21:37 24.02.2022
3575 Clear 13 1006 41 10000 1.54 350 21:18 24.02.2022
3576 Clouds 15 1007 38 10000 1.54 350 19:38 24.02.2022
3577 Clouds 16 1007 35 10000 3.09 20 18:38 24.02.2022
3578 Clouds 16 1007 35 10000 3.09 20 18:18 24.02.2022
3579 Clouds 17 1007 33 10000 1.54 60 17:33 24.02.2022
3580 Clouds 16 1019 33 10000 2.06 70 16:45 24.02.2022
3581 Clouds 16 1019 34 10000 2.06 70 16:21 24.02.2022
3582 Clouds 15 1008 37 10000 2.57 40 14:53 24.02.2022
3583 Clouds 15 1021 36 10000 2.57 50 14:26 24.02.2022
3584 Clear 14 1022 40 10000 2.06 30 13:39 24.02.2022
3585 Clear 14 1022 39 10000 2.06 30 13:39 24.02.2022
3586 Clouds 12 1009 42 10000 1.54 0 12:50 24.02.2022
3587 Clouds 9 1009 47 10000 1.34 55 10:40 24.02.2022
3588 Clouds 6 1009 54 10000 1.79 82 08:59 24.02.2022
3589 Clouds 5 1008 55 10000 2.06 80 08:40 24.02.2022
3590 Clear 6 1002 55 10000 1.54 20 05:52 24.02.2022
3591 Clear 8 1003 46 10000 1.34 46 01:56 24.02.2022
3592 Clear 11 1006 38 10000 1.54 350 22:56 23.02.2022
3593 Clear 12 1021 35 10000 1.54 10 21:43 23.02.2022
3594 Clear 14 1006 31 10000 2.06 360 20:31 23.02.2022
3595 Clear 14 1021 31 10000 1.54 50 19:47 23.02.2022
3596 Clear 17 1021 25 10000 1.54 250 18:32 23.02.2022
3597 Clear 18 1021 24 10000 1.54 300 17:44 23.02.2022
3598 Clear 16 1023 27 10000 2.06 70 14:44 23.02.2022
3599 Clear 14 1025 34 10000 1.34 65 12:45 23.02.2022
3600 Clear 12 1025 39 10000 1.54 60 11:59 23.02.2022
3601 Clear 9 1026 45 10000 2.57 30 10:31 23.02.2022
3602 Clear 6 1011 50 10000 2.68 41 08:59 23.02.2022
3603 Clear 6 1011 50 10000 2.68 41 08:59 23.02.2022
3604 Clear 5 1012 53 10000 2.68 72 08:23 23.02.2022
3605 Clear 6 1008 51 10000 2.06 10 05:49 23.02.2022
3606 Clear 10 1013 35 10000 2.06 360 00:40 23.02.2022
3607 Clear 11 1012 32 10000 1.79 33 23:38 22.02.2022
3608 Clear 12 1012 29 10000 3.13 73 22:32 22.02.2022
3609 Clear 12 1027 28 10000 2.57 320 21:49 22.02.2022
3610 Clear 13 1012 27 10000 2.06 40 21:31 22.02.2022
3611 Clear 14 1027 28 10000 2.57 60 20:57 22.02.2022
3612 Clear 15 1027 25 10000 1.79 67 20:30 22.02.2022
3613 Clear 17 1027 24 10000 2.06 60 19:42 22.02.2022
3614 Clear 17 1027 24 10000 1.54 80 19:23 22.02.2022
3615 Clear 19 1027 21 10000 3.09 70 17:49 22.02.2022
3616 Clear 20 1027 20 10000 2.57 20 17:23 22.02.2022
3617 Clear 20 1027 20 10000 2.57 10 16:41 22.02.2022
3618 Clear 19 1028 21 10000 2.57 30 15:44 22.02.2022
3619 Clear 19 1028 21 10000 2.57 30 15:44 22.02.2022
3620 Clear 18 1029 20 10000 3.09 360 14:44 22.02.2022
3621 Clear 14 1030 21 10000 3.09 30 12:31 22.02.2022
3622 Clear 11 1031 25 10000 2.68 79 10:52 22.02.2022
3623 Clear 6 1016 36 10000 3.6 60 08:41 22.02.2022
3624 Clear 5 1014 38 10000 3.13 59 07:27 22.02.2022
3625 Clear 7 1015 33 10000 3.13 66 05:57 22.02.2022
3626 Clear 8 1030 28 10000 2.68 42 02:45 22.02.2022
3627 Clear 12 1011 31 10000 3.09 10 22:46 21.02.2022
3628 Clear 13 1029 33 10000 4.12 360 21:42 21.02.2022
3629 Clear 14 1028 34 10000 5.81 0 20:36 21.02.2022
3630 Clear 16 1027 28 10000 4.63 360 18:46 21.02.2022
3631 Clear 18 1027 31 10000 4.63 10 17:36 21.02.2022
3632 Clear 17 1028 38 10000 2.57 330 15:22 21.02.2022
3633 Clear 15 1029 42 10000 2.57 350 14:21 21.02.2022
3634 Clear 15 1029 42 10000 2.57 350 14:21 21.02.2022
3635 Clear 14 1029 46 10000 0.45 225 13:22 21.02.2022
3636 Clear 12 1030 52 10000 0.89 123 12:23 21.02.2022
3637 Clear 10 1030 60 10000 1.03 0 11:19 21.02.2022
3638 Clear 7 1029 67 10000 1.03 0 09:50 21.02.2022
3639 Clear 5 1013 73 10000 0.89 56 05:35 21.02.2022
3640 Clear 9 1015 56 10000 1.54 280 23:44 20.02.2022
3641 Clear 10 1014 53 10000 1.54 250 22:25 20.02.2022
3642 Clear 10 1029 52 10000 2.57 270 21:42 20.02.2022
3643 Clear 10 1028 52 10000 2.06 250 20:53 20.02.2022
3644 Clear 11 1011 50 10000 2.57 260 20:35 20.02.2022
3645 Clear 12 1009 45 10000 0.51 0 19:36 20.02.2022
3646 Clear 14 1028 38 10000 0.51 0 18:51 20.02.2022
3647 Clear 14 1028 36 10000 0.51 0 18:31 20.02.2022
3648 Clear 15 1028 36 10000 0.51 0 18:31 20.02.2022
3649 Clear 15 1028 37 10000 1.03 0 17:49 20.02.2022
3650 Clouds 14 1028 38 10000 2.57 10 15:41 20.02.2022
3651 Clear 13 1029 39 10000 2.06 20 14:42 20.02.2022
3652 Clear 11 1030 42 10000 0.45 113 13:23 20.02.2022
3653 Clear 9 1031 45 10000 1.54 110 12:28 20.02.2022
3654 Clear 6 1030 56 10000 1.79 91 10:47 20.02.2022
3655 Clear 4 1030 61 10000 2.68 91 10:19 20.02.2022
3656 Clear 2 1016 70 10000 2.57 50 08:50 20.02.2022
3657 Clear 5 1013 57 10000 2.24 78 00:54 20.02.2022
3658 Clear 5 1013 58 10000 0.45 90 00:54 20.02.2022
3659 Clear 6 1012 56 10000 2.57 60 00:30 20.02.2022
3660 Clear 7 1012 54 10000 3.58 70 23:18 19.02.2022
3661 Clear 8 1011 57 10000 2.68 45 22:22 19.02.2022
3662 Clear 9 1011 56 10000 4.63 350 21:25 19.02.2022
3663 Clouds 10 1011 54 10000 3.09 140 19:53 19.02.2022
3664 Clear 11 1010 51 10000 3.09 140 19:28 19.02.2022
3665 Clouds 12 1023 42 10000 3.09 60 18:33 19.02.2022
3666 Clouds 13 1022 42 10000 4.63 50 17:36 19.02.2022
3667 Clouds 13 1022 43 10000 5.14 70 16:28 19.02.2022
3668 Clouds 11 1022 44 10000 6.17 50 14:56 19.02.2022
3669 Clouds 11 1022 45 10000 7.2 60 14:37 19.02.2022
3670 Clouds 10 1022 47 10000 6.17 40 13:22 19.02.2022
3671 Clouds 9 1021 55 10000 8.75 30 11:38 19.02.2022
3672 Clouds 8 1007 59 10000 8.75 40 09:55 19.02.2022
3673 Clouds 9 1004 66 10000 6.17 60 06:54 19.02.2022
3674 Clear 10 1003 72 10000 2.68 58 03:38 19.02.2022
3675 Clear 11 1003 63 10000 2.24 53 23:33 18.02.2022
3676 Clear 13 1002 60 10000 3.09 320 21:50 18.02.2022
3677 Clear 14 1002 55 10000 3.09 270 20:51 18.02.2022
3678 Clouds 15 1016 57 10000 3.6 250 19:53 18.02.2022
3679 Clear 17 1016 52 10000 3.09 250 18:50 18.02.2022
3680 Clear 18 1016 50 10000 3.58 248 18:22 18.02.2022
3681 Clear 18 1016 49 10000 3.09 260 17:51 18.02.2022
3682 Clear 17 1018 54 10000 2.68 191 14:54 18.02.2022
3683 Clear 16 1019 56 10000 2.24 187 13:55 18.02.2022
3684 Clear 14 1020 58 10000 0.45 225 12:53 18.02.2022
3685 Clear 14 1021 61 10000 1.34 201 12:33 18.02.2022
3686 Clear 11 1021 68 10000 2.06 320 11:27 18.02.2022
3687 Clear 9 1020 72 10000 2.06 90 10:23 18.02.2022
3688 Clear 6 1008 84 10000 1.34 38 06:57 18.02.2022
3689 Clear 7 1006 82 10000 1.54 330 05:40 18.02.2022
3690 Clear 10 1009 73 10000 1.54 350 23:31 17.02.2022
3691 Clear 11 1001 68 10000 1.03 260 21:45 17.02.2022
3692 Clear 12 1009 65 10000 1.03 260 21:20 17.02.2022
3693 Clear 13 1009 63 10000 1.54 260 20:38 17.02.2022
3694 Clear 14 1024 58 10000 1.03 270 19:50 17.02.2022
3695 Clear 16 1024 50 10000 2.06 180 18:44 17.02.2022
3696 Clear 17 1024 47 10000 1.79 184 17:50 17.02.2022
3697 Clear 17 1025 48 10000 1.54 190 16:42 17.02.2022
3698 Clear 17 1026 50 10000 1.79 211 15:38 17.02.2022
3699 Clear 15 1026 54 10000 2.06 0 14:26 17.02.2022
3700 Clear 12 1029 64 10000 1.54 100 12:38 17.02.2022
3701 Clear 10 1029 71 10000 1.54 130 11:27 17.02.2022
3702 Clear 5 1016 86 10000 2.24 65 08:53 17.02.2022
3703 Clear 6 1014 83 10000 1.03 0 02:26 17.02.2022
3704 Clear 9 1014 77 10000 3.09 300 23:21 16.02.2022
3705 Clear 10 1014 73 10000 3.6 260 21:44 16.02.2022
3706 Clear 11 1015 66 10000 3.6 260 19:57 16.02.2022
3707 Clear 13 1014 61 10000 4.12 300 18:39 16.02.2022
3708 Clear 14 1014 61 10000 5.36 293 17:53 16.02.2022
3709 Clear 14 1014 55 10000 6.17 300 15:39 16.02.2022
3710 Clear 14 1015 54 10000 5.14 250 15:18 16.02.2022
3711 Clear 13 1029 56 10000 4.63 250 13:28 16.02.2022
3712 Clear 11 1029 59 10000 3.6 320 12:19 16.02.2022
3713 Clear 10 1029 61 10000 5.14 310 11:26 16.02.2022
3714 Clear 8 1029 66 10000 3.6 250 10:33 16.02.2022
3715 Clear 5 1015 69 10000 1.54 0 07:54 16.02.2022
3716 Clear 5 1013 69 10000 1.03 0 06:26 16.02.2022
3717 Clear 7 1013 62 10000 3.6 250 23:45 15.02.2022
3718 Clear 8 1013 58 10000 3.6 240 22:29 15.02.2022
3719 Clear 8 1013 55 10000 2.68 270 21:47 15.02.2022
3720 Clear 9 1013 55 10000 2.06 330 21:27 15.02.2022
3721 Clear 9 1013 52 10000 4.47 293 20:56 15.02.2022
3722 Clear 10 1014 49 10000 4.12 250 19:57 15.02.2022
3723 Clear 11 1026 44 10000 5.14 240 18:56 15.02.2022
3724 Clear 12 1013 43 10000 4.63 230 18:22 15.02.2022
3725 Clear 12 1026 41 10000 4.63 230 17:50 15.02.2022
3726 Clear 13 1013 40 10000 5.14 260 16:50 15.02.2022
3727 Clear 12 1027 39 10000 4.63 270 15:30 15.02.2022
3728 Clear 10 1028 48 10000 3.09 250 13:28 15.02.2022
3729 Clear 9 1028 53 10000 1.79 203 12:37 15.02.2022
3730 Clear 8 1028 56 10000 1.54 110 11:40 15.02.2022
3731 Clear 4 1027 71 10000 1.54 340 09:47 15.02.2022
3732 Clear 2 1014 80 10000 2.06 330 06:59 15.02.2022
3733 Clear 3 1011 78 10000 3.09 270 05:32 15.02.2022
3734 Clear 7 1009 66 10000 3.58 282 23:34 14.02.2022
3735 Clear 7 1008 67 10000 5.14 260 21:54 14.02.2022
3736 Clouds 7 1007 65 10000 6.17 290 20:40 14.02.2022
3737 Clouds 8 1008 62 10000 8.23 280 19:44 14.02.2022
3738 Clouds 8 1008 61 10000 8.23 280 19:25 14.02.2022
3739 Clouds 10 1007 47 10000 7.72 290 18:23 14.02.2022
3740 Clouds 11 1019 40 10000 8.23 290 17:26 14.02.2022
3741 Clouds 12 1006 42 10000 9.26 290 16:25 14.02.2022
3742 Clouds 11 1006 44 10000 9.26 290 14:39 14.02.2022
3743 Clouds 10 1019 46 10000 7.2 280 13:33 14.02.2022
3744 Clouds 10 1019 48 10000 8.23 260 12:55 14.02.2022
3745 Clouds 9 1019 51 10000 9.26 260 11:55 14.02.2022
3746 Clear 8 1018 57 10000 6.69 270 10:58 14.02.2022
3747 Clouds 6 1018 69 10000 4.63 260 09:19 14.02.2022
3748 Clouds 6 1004 73 10000 6.17 280 07:33 14.02.2022
3749 Clear 6 1002 74 10000 4.63 260 06:32 14.02.2022
3750 Clouds 9 1002 69 10000 6.69 230 22:43 13.02.2022
3751 Clouds 9 1002 69 10000 6.69 230 22:25 13.02.2022
3752 Clouds 10 1002 64 10000 7.72 240 21:36 13.02.2022
3753 Clouds 10 1002 62 10000 8.23 230 20:42 13.02.2022
3754 Clouds 11 1003 66 10000 7.72 230 19:51 13.02.2022
3755 Clouds 11 1003 67 10000 9.26 230 18:54 13.02.2022
3756 Clouds 12 1004 67 10000 6.69 240 18:35 13.02.2022
3757 Clouds 13 1004 60 10000 8.23 240 16:38 13.02.2022
3758 Clouds 13 1005 55 10000 8.23 230 15:27 13.02.2022
3759 Clouds 13 1006 56 10000 9.26 240 14:37 13.02.2022
3760 Clouds 12 1008 68 10000 6.17 220 12:52 13.02.2022
3761 Clouds 11 1021 69 10000 5.66 230 12:18 13.02.2022
3762 Clouds 8 1008 85 10000 2.57 200 10:38 13.02.2022
3763 Clouds 7 1006 86 10000 2.57 200 09:49 13.02.2022
3764 Clouds 7 1008 85 10000 2.24 203 07:54 13.02.2022
3765 Clear 9 1008 67 10000 2.06 190 00:49 13.02.2022
3766 Clear 10 1008 64 10000 2.57 190 00:20 13.02.2022
3767 Clear 11 1022 58 10000 1.54 190 22:34 12.02.2022
3768 Clouds 11 1022 57 10000 1.54 190 21:40 12.02.2022
3769 Clouds 12 1022 55 10000 2.06 190 20:55 12.02.2022
3770 Clouds 12 1022 52 10000 2.57 250 19:56 12.02.2022
3771 Clouds 13 1022 45 10000 2.57 220 18:54 12.02.2022
3772 Clouds 13 1022 45 10000 2.57 220 18:54 12.02.2022
3773 Clouds 14 1009 45 10000 0.89 203 18:35 12.02.2022
3774 Clouds 15 1022 41 10000 2.68 216 17:38 12.02.2022
3775 Clouds 15 1022 40 10000 2.24 201 16:45 12.02.2022
3776 Clouds 15 1022 41 10000 1.79 211 15:53 12.02.2022
3777 Clouds 14 1023 40 10000 1.79 208 15:20 12.02.2022
3778 Clouds 14 1023 46 10000 1.34 207 14:25 12.02.2022
3779 Clouds 10 1025 56 10000 2.57 70 11:31 12.02.2022
3780 Clouds 8 1012 69 10000 1.34 87 10:30 12.02.2022
3781 Clouds 7 1012 74 10000 1.54 350 09:37 12.02.2022
3782 Clouds 6 1011 76 10000 2.06 350 08:46 12.02.2022
3783 Clear 6 1011 78 10000 1.79 27 07:44 12.02.2022
3784 Clear 7 1010 79 10000 1.54 350 04:47 12.02.2022
3785 Clouds 8 1010 78 10000 2.06 340 02:19 12.02.2022
3786 Clear 10 1010 70 10000 2.57 350 23:21 11.02.2022
3787 Clear 11 1010 64 10000 2.24 38 22:23 11.02.2022
3788 Clear 12 1010 61 10000 2.24 64 21:32 11.02.2022
3789 Clear 13 1010 57 10000 1.79 77 20:28 11.02.2022
3790 Clear 13 1012 53 10000 2.06 260 19:29 11.02.2022
3791 Clear 15 1012 46 10000 1.34 90 18:41 11.02.2022
3792 Clear 16 1024 37 10000 1.54 200 17:27 11.02.2022
3793 Clear 17 1024 38 10000 1.03 200 16:40 11.02.2022
3794 Clear 16 1025 40 10000 1.54 30 15:22 11.02.2022
3795 Clear 15 1026 44 10000 3.09 30 14:38 11.02.2022
3796 Clear 15 1026 44 10000 3.09 30 14:19 11.02.2022
3797 Clear 14 1026 47 10000 2.57 40 13:44 11.02.2022
3798 Clear 14 1026 46 10000 2.57 40 13:25 11.02.2022
3799 Clear 10 1027 61 10000 1.03 0 10:59 11.02.2022
3800 Clear 6 1014 77 10000 1.34 70 09:32 11.02.2022
3801 Clear 6 1013 78 10000 1.54 360 08:33 11.02.2022
3802 Clear 6 1011 79 10000 1.03 0 07:45 11.02.2022
3803 Clear 7 1011 75 10000 1.03 340 06:24 11.02.2022
3804 Clear 8 1011 65 10000 1.79 28 02:21 11.02.2022
3805 Clear 10 1012 68 10000 1.03 0 23:45 10.02.2022
3806 Clear 11 1012 66 10000 1.54 280 22:26 10.02.2022
3807 Clear 11 1026 64 10000 2.06 280 21:41 10.02.2022
3808 Clear 12 1026 58 10000 2.24 270 20:50 10.02.2022
3809 Clear 13 1026 52 10000 2.24 270 19:56 10.02.2022
3810 Clear 13 1026 51 10000 2.06 240 19:22 10.02.2022
3811 Clear 14 1026 46 10000 2.57 250 18:32 10.02.2022
3812 Clear 16 1026 42 10000 2.57 250 17:21 10.02.2022
3813 Clear 16 1026 42 10000 2.24 268 16:43 10.02.2022
3814 Clear 15 1026 43 10000 2.06 210 15:41 10.02.2022
3815 Clear 15 1014 45 10000 2.06 160 15:21 10.02.2022
3816 Clear 14 1027 47 10000 2.24 209 14:35 10.02.2022
3817 Clear 14 1015 51 10000 0.89 184 13:56 10.02.2022
3818 Clear 12 1028 55 10000 1.03 0 13:19 10.02.2022
3819 Clear 10 1029 59 10000 1.03 0 11:53 10.02.2022
3820 Clear 9 1029 60 10000 1.03 0 11:32 10.02.2022
3821 Clear 7 1029 66 10000 1.79 82 10:23 10.02.2022
3822 Clear 5 1015 72 10000 1.03 0 09:44 10.02.2022
3823 Clear 3 1014 75 10000 1.34 34 08:40 10.02.2022
3824 Clear 4 1014 73 10000 1.54 360 06:33 10.02.2022
3825 Clear 6 1015 69 10000 1.03 0 03:21 10.02.2022
3826 Clear 7 1015 68 10000 1.54 10 00:56 10.02.2022
3827 Clear 8 1014 67 10000 1.54 330 00:38 10.02.2022
3828 Clear 8 1014 67 10000 1.54 360 00:20 10.02.2022
3829 Clear 9 1014 63 10000 8.49 45 22:54 09.02.2022
3830 Clear 9 1014 65 10000 1.03 0 22:31 09.02.2022
3831 Clear 9 1014 64 10000 1.54 40 21:47 09.02.2022
3832 Clear 10 1014 62 10000 0.51 250 21:27 09.02.2022
3833 Clear 11 1014 60 10000 2.06 270 20:44 09.02.2022
3834 Clear 11 1014 60 10000 2.06 270 20:44 09.02.2022
3835 Clear 11 1014 59 10000 2.06 270 20:22 09.02.2022
3836 Clear 12 1028 51 10000 2.57 220 19:42 09.02.2022
3837 Clear 14 1015 46 10000 3.09 210 18:38 09.02.2022
3838 Clear 15 1028 40 10000 3.13 202 16:57 09.02.2022
3839 Clear 15 1028 39 10000 2.68 180 16:20 09.02.2022
3840 Clear 15 1029 41 10000 2.06 160 15:24 09.02.2022
3841 Clear 12 1031 51 10000 2.06 90 12:53 09.02.2022
3842 Clear 10 1031 60 10000 2.06 70 11:36 09.02.2022
3843 Clear 7 1031 65 10000 1.34 60 10:34 09.02.2022
3844 Clear 7 1018 68 10000 1.54 80 09:53 09.02.2022
3845 Clear 5 1018 72 10000 1.79 30 09:22 09.02.2022
3846 Clear 4 1018 74 10000 2.06 10 08:45 09.02.2022
3847 Clear 5 1016 71 10000 2.06 50 06:52 09.02.2022
3848 Clear 6 1016 67 10000 1.34 48 04:30 09.02.2022
3849 Clear 6 1016 65 10000 1.54 330 03:48 09.02.2022
3850 Clear 9 1012 58 10000 2.06 340 23:45 08.02.2022
3851 Clear 10 1012 56 10000 2.06 350 23:19 08.02.2022
3852 Clear 10 1012 56 10000 2.06 350 23:19 08.02.2022
3853 Clear 10 1012 55 10000 1.54 360 22:38 08.02.2022
3854 Clear 11 1015 53 10000 1.79 117 22:19 08.02.2022
3855 Clear 12 1015 50 10000 1.54 290 21:22 08.02.2022
3856 Clear 12 1014 49 10000 1.03 280 20:58 08.02.2022
3857 Clear 11 1029 47 10000 1.03 0 20:37 08.02.2022
3858 Clear 11 1029 47 10000 1.03 0 20:37 08.02.2022
3859 Clear 14 1029 43 10000 2.06 100 19:27 08.02.2022
3860 Clear 16 1028 38 10000 1.54 60 18:19 08.02.2022
3861 Clear 16 1029 37 10000 2.06 0 16:56 08.02.2022
3862 Clear 16 1029 38 10000 1.54 0 15:47 08.02.2022
3863 Clear 15 1030 41 10000 2.06 120 14:58 08.02.2022
3864 Clear 14 1031 45 10000 3.6 80 13:48 08.02.2022
3865 Clear 11 1031 49 10000 3.6 50 12:24 08.02.2022
3866 Clear 8 1031 55 10000 2.57 50 10:48 08.02.2022
3867 Clear 7 1018 61 10000 4.47 45 09:48 08.02.2022
3868 Clear 5 1017 66 10000 3.13 23 08:38 08.02.2022
3869 Clear 5 1015 66 10000 4.02 45 06:38 08.02.2022
3870 Clear 6 1015 64 10000 3.13 23 04:40 08.02.2022
3871 Clear 6 1015 63 10000 2.57 340 04:22 08.02.2022
3872 Clear 7 1015 60 10000 3.09 30 03:36 08.02.2022
3873 Clear 7 1015 59 10000 3.13 47 03:18 08.02.2022
3874 Clear 7 1015 58 10000 2.68 39 02:59 08.02.2022
3875 Clear 7 1015 58 10000 3.6 40 02:36 08.02.2022
3876 Clear 7 1015 57 10000 3.6 40 02:18 08.02.2022
3877 Clear 8 1015 55 10000 4.92 45 01:44 08.02.2022
3878 Clear 7 1015 56 10000 2.24 90 01:25 08.02.2022
3879 Clear 8 1014 54 10000 3.58 45 00:55 08.02.2022
3880 Clear 8 1014 53 10000 4.47 95 00:21 08.02.2022
3881 Clear 9 1014 53 10000 3.09 70 23:44 07.02.2022
3882 Haze 10 1013 52 1100 3.6 60 23:18 07.02.2022
3883 Haze 10 1013 51 1100 3.6 60 22:59 07.02.2022
3884 Clear 10 1013 46 6000 4.47 58 22:19 07.02.2022
3885 Clear 11 1013 46 6000 3.58 32 21:50 07.02.2022
3886 Haze 11 1013 43 2500 4.02 45 21:27 07.02.2022
3887 Clear 12 1027 38 10000 4.47 68 20:43 07.02.2022
3888 Clear 13 1027 36 10000 3.09 340 20:24 07.02.2022
3889 Clear 14 1027 36 10000 3.58 40 19:47 07.02.2022
3890 Clear 16 1026 30 10000 4.12 30 18:35 07.02.2022
3891 Clear 17 1027 28 10000 2.06 320 17:18 07.02.2022
3892 Clear 17 1027 29 10000 3.13 45 16:46 07.02.2022
3893 Clear 17 1027 30 10000 2.06 310 15:48 07.02.2022
3894 Clear 14 1029 31 10000 2.06 360 13:51 07.02.2022
3895 Clear 13 1030 32 10000 1.03 0 13:26 07.02.2022
3896 Clear 10 1031 38 10000 0.45 113 11:58 07.02.2022
3897 Clear 10 1031 41 10000 0.89 40 11:38 07.02.2022
3898 Clear 8 1030 49 10000 1.34 46 10:59 07.02.2022
3899 Clear 7 1031 51 10000 0.45 11 10:41 07.02.2022
3900 Clear 6 1030 52 10000 0.45 90 10:22 07.02.2022
3901 Clear 5 1030 56 10000 0.89 113 09:47 07.02.2022
3902 Clear 4 1017 61 10000 1.34 97 09:18 07.02.2022
3903 Clear 3 1016 63 10000 0.89 35 07:34 07.02.2022
3904 Clear 4 1012 60 10000 0 0 06:34 07.02.2022
3905 Clear 5 1015 59 10000 1.34 62 04:22 07.02.2022
3906 Clear 6 1015 56 10000 0.45 45 01:30 07.02.2022
3907 Clear 7 1012 55 10000 2.68 23 23:51 06.02.2022
3908 Clear 7 1011 54 10000 1.34 46 23:19 06.02.2022
3909 Clear 8 1015 51 10000 0.45 68 22:39 06.02.2022
3910 Clear 8 1006 54 10000 1.03 270 21:37 06.02.2022
3911 Clear 8 1005 53 10000 0 0 21:18 06.02.2022
3912 Clear 9 1005 52 10000 0 0 20:48 06.02.2022
3913 Clear 10 1013 44 10000 0 0 20:21 06.02.2022
3914 Clear 13 1028 35 10000 0.45 103 18:54 06.02.2022
3915 Clear 13 1027 35 10000 0.89 96 18:27 06.02.2022
3916 Clear 14 1027 33 10000 0.45 119 17:30 06.02.2022
3917 Clear 14 1028 33 10000 0.89 29 16:51 06.02.2022
3918 Clouds 14 1028 36 10000 1.34 90 15:51 06.02.2022
3919 Clouds 13 1028 37 10000 0.89 277 15:28 06.02.2022
3920 Clouds 13 1028 39 10000 0.45 180 15:00 06.02.2022
3921 Clouds 12 1029 39 10000 0.89 130 13:59 06.02.2022
3922 Clear 11 1029 37 10000 0.45 90 13:20 06.02.2022
3923 Clouds 9 1029 40 10000 1.79 78 12:19 06.02.2022
3924 Clouds 6 1016 47 10000 4.47 23 10:33 06.02.2022
3925 Clear 5 1015 51 10000 3.58 23 09:43 06.02.2022
3926 Clear 3 1015 53 10000 1.79 45 08:41 06.02.2022
3927 Clear 3 1014 54 10000 3.58 45 06:34 06.02.2022
3928 Clear 4 1013 52 10000 1.79 23 05:28 06.02.2022
3929 Clear 5 1012 54 10000 1.34 68 02:25 06.02.2022
3930 Clear 7 1012 52 10000 1.34 68 00:33 06.02.2022
3931 Clear 8 1012 53 10000 5.81 68 23:39 05.02.2022
3932 Clouds 9 1026 54 10000 1.79 27 21:47 05.02.2022
3933 Clouds 10 1025 51 10000 3.13 45 20:47 05.02.2022
3934 Clouds 11 1025 50 10000 0.45 90 20:22 05.02.2022
3935 Clouds 11 1024 49 10000 1.34 41 19:42 05.02.2022
3936 Clouds 13 1024 46 10000 0.45 45 18:37 05.02.2022
3937 Clouds 14 1023 45 10000 2.68 23 17:35 05.02.2022
3938 Clouds 14 1023 46 10000 1.79 90 16:20 05.02.2022
3939 Clouds 14 1024 46 10000 1.34 0 15:31 05.02.2022
3940 Clouds 13 1012 53 10000 4.02 23 13:38 05.02.2022
3941 Clouds 12 1025 55 10000 2.68 45 12:46 05.02.2022
3942 Clouds 10 1025 61 10000 4.02 90 11:47 05.02.2022
3943 Clouds 9 1012 68 10000 2.68 45 10:44 05.02.2022
3944 Clouds 7 1012 74 10000 0.45 23 09:51 05.02.2022
3945 Clouds 7 1011 74 10000 4.02 45 08:47 05.02.2022
3946 Clear 7 1010 76 10000 3.13 68 06:59 05.02.2022
3947 Clear 7 1009 75 10000 4.02 68 06:35 05.02.2022
3948 Clear 8 1009 74 10000 2.24 55 02:43 05.02.2022
3949 Clear 9 1009 70 10000 0.89 113 01:18 05.02.2022
3950 Clear 9 1008 68 10000 1.34 98 00:36 05.02.2022
3951 Clear 10 1008 67 10000 0.45 315 23:33 04.02.2022
3952 Clear 10 1008 65 10000 0.45 248 22:45 04.02.2022
3953 Clear 11 1022 63 10000 0.89 221 21:36 04.02.2022
3954 Clear 11 1008 63 10000 0.89 212 21:18 04.02.2022
3955 Clear 11 1022 63 10000 1.03 260 20:36 04.02.2022
3956 Clear 12 1009 55 10000 0.89 180 19:19 04.02.2022
3957 Clear 13 1021 55 10000 0.45 225 16:22 04.02.2022
3958 Clear 13 1009 57 10000 1.34 225 15:19 04.02.2022
3959 Clear 13 1009 60 10000 1.34 220 14:40 04.02.2022
3960 Clear 11 1023 68 10000 1.34 180 12:43 04.02.2022
3961 Clear 10 1010 75 10000 0.45 22 11:45 04.02.2022
3962 Clear 9 1010 75 10000 0.45 90 10:56 04.02.2022
3963 Clear 7 1009 79 10000 0.89 23 09:56 04.02.2022
3964 Clear 6 1009 81 10000 0.45 288 08:30 04.02.2022
3965 Clear 8 1007 76 10000 0.45 225 03:47 04.02.2022
3966 Clear 9 1007 73 10000 0.89 225 02:36 04.02.2022
3967 Clear 10 1008 69 10000 1.34 249 23:56 03.02.2022
3968 Clear 10 1008 66 10000 0.45 248 22:51 03.02.2022
3969 Clear 11 1007 66 10000 0.89 248 21:52 03.02.2022
3970 Clear 11 1007 66 10000 0.45 194 21:29 03.02.2022
3971 Clear 12 1022 60 10000 0.45 248 20:22 03.02.2022
3972 Clear 13 1022 57 10000 3.6 240 19:46 03.02.2022
3973 Clear 13 1021 52 10000 3.09 240 18:56 03.02.2022
3974 Clear 16 1021 46 10000 4.02 270 17:59 03.02.2022
3975 Clear 16 1021 44 10000 2.68 248 17:19 03.02.2022
3976 Clear 16 1022 45 10000 1.79 257 15:34 03.02.2022
3977 Clear 14 1023 49 10000 1.34 190 13:50 03.02.2022
3978 Clear 12 1024 51 10000 0.45 137 12:22 03.02.2022
3979 Clear 4 1024 66 10000 0.51 0 08:56 03.02.2022
3980 Clear 4 1024 67 10000 1.79 37 07:41 03.02.2022
3981 Clear 9 1025 64 10000 0.89 60 00:49 03.02.2022
3982 Clear 9 1025 65 10000 0 0 00:22 03.02.2022
3983 Clear 10 1025 61 10000 0.51 0 22:39 02.02.2022
3984 Clear 11 1025 58 10000 2.06 270 21:46 02.02.2022
3985 Clear 11 1025 58 10000 2.06 270 21:28 02.02.2022
3986 Clear 11 1025 55 10000 1.54 250 20:27 02.02.2022
3987 Clear 13 1025 49 10000 1.54 290 19:46 02.02.2022
3988 Clear 15 1025 46 10000 2.06 250 18:56 02.02.2022
3989 Clear 17 1025 37 10000 1.54 250 18:24 02.02.2022
3990 Clear 19 1026 30 10000 1.03 0 17:20 02.02.2022
3991 Clear 19 1026 30 10000 0.45 203 16:56 02.02.2022
3992 Clear 18 1027 34 10000 0.89 203 15:23 02.02.2022
3993 Clear 13 1029 56 10000 0.89 22 12:31 02.02.2022
3994 Clear 11 1029 61 10000 0.89 14 11:48 02.02.2022
3995 Clear 10 1029 63 10000 0.89 34 11:30 02.02.2022
3996 Clear 10 1029 63 10000 0.89 36 11:30 02.02.2022
3997 Clear 5 1014 82 10000 2.24 28 08:30 02.02.2022
3998 Clear 8 1015 73 10000 1.79 49 02:44 02.02.2022
3999 Clear 11 1015 63 10000 2.24 113 22:33 01.02.2022
4000 Clear 12 1029 56 10000 7.6 45 20:51 01.02.2022
4001 Clear 13 1015 51 10000 3.58 68 19:23 01.02.2022
4002 Clear 16 1026 43 10000 5.36 68 16:57 01.02.2022
4003 Clear 16 1026 42 10000 2.24 90 16:21 01.02.2022
4004 Clear 14 1028 45 10000 4.47 69 12:57 01.02.2022
4005 Clear 11 1028 51 10000 4.92 45 12:21 01.02.2022
4006 Clear 6 1016 66 10000 4.02 68 08:52 01.02.2022
4007 Clear 7 1029 52 10000 4.47 68 02:20 01.02.2022
4008 Clear 8 1014 50 10000 4.47 68 23:37 31.01.2022
4009 Clear 8 1014 41 10000 2.68 68 22:33 31.01.2022
4010 Clear 10 1009 33 10000 0.89 90 21:35 31.01.2022
4011 Clear 10 1009 33 10000 0.89 90 21:35 31.01.2022
4012 Clear 12 1012 26 10000 1.79 0 20:35 31.01.2022
4013 Clear 11 1026 26 10000 2.57 350 19:58 31.01.2022
4014 Clear 14 1025 25 10000 2.06 350 18:32 31.01.2022
4015 Clear 14 1025 25 10000 2.06 350 18:32 31.01.2022
4016 Clear 15 1025 22 10000 3.09 330 17:57 31.01.2022
4017 Clear 16 1026 21 10000 1.34 293 17:18 31.01.2022
4018 Clear 16 1026 24 10000 0.89 280 16:23 31.01.2022
4019 Clear 14 1027 28 10000 0.45 203 14:53 31.01.2022
4020 Clear 12 1028 31 10000 0.89 216 13:31 31.01.2022
4021 Clear 10 1029 37 10000 0.45 64 12:37 31.01.2022
4022 Clear 8 1028 39 10000 0.45 128 11:20 31.01.2022
4023 Clear 8 1028 39 10000 0.45 113 10:47 31.01.2022
4024 Clear 3 1015 54 10000 0.45 295 09:37 31.01.2022
4025 Clear 2 1012 55 10000 0 0 08:56 31.01.2022
4026 Clear 2 1012 55 10000 1.34 38 08:20 31.01.2022
4027 Clear 2 1012 51 10000 1.34 64 07:40 31.01.2022
4028 Clear 4 1008 46 10000 0.89 25 05:25 31.01.2022
4029 Clear 7 1013 37 10000 1.34 10 00:24 31.01.2022
4030 Clear 8 1009 34 10000 0.45 51 22:33 30.01.2022
4031 Clear 9 1009 33 10000 0.89 68 21:46 30.01.2022
4032 Clear 9 1005 35 10000 1.03 290 21:24 30.01.2022
4033 Clear 9 1005 35 10000 1.03 290 20:53 30.01.2022
4034 Clear 10 1005 32 10000 1.54 260 20:31 30.01.2022
4035 Clear 10 1027 30 10000 1.54 270 19:56 30.01.2022
4036 Clear 12 1026 22 10000 1.03 260 18:51 30.01.2022
4037 Clear 14 1026 23 10000 0 0 18:22 30.01.2022
4038 Clear 16 1027 18 10000 0.89 248 17:31 30.01.2022
4039 Clear 16 1027 17 10000 1.03 0 16:43 30.01.2022
4040 Clear 17 1027 17 10000 1.34 90 16:23 30.01.2022
4041 Clear 17 1027 17 10000 0.89 203 15:55 30.01.2022
4042 Clear 16 1028 19 10000 1.54 130 15:33 30.01.2022
4043 Clear 16 1029 22 10000 0.45 56 14:47 30.01.2022
4044 Clear 14 1029 25 10000 0.45 83 13:47 30.01.2022
4045 Clear 11 1030 30 10000 0.45 113 12:46 30.01.2022
4046 Clear 9 1030 33 10000 1.34 21 11:23 30.01.2022
4047 Clear 6 1030 39 10000 1.34 34 10:26 30.01.2022
4048 Clear 4 1018 45 10000 0.89 45 09:23 30.01.2022
4049 Clear 3 1017 46 10000 0.89 68 07:59 30.01.2022
4050 Clear 5 1017 40 10000 0.89 45 02:44 30.01.2022
4051 Clear 6 1017 39 10000 1.34 45 01:54 30.01.2022
4052 Clear 7 1017 37 10000 0.45 45 23:49 29.01.2022
4053 Clear 8 1014 34 10000 0.45 177 22:57 29.01.2022
4054 Clear 9 1032 34 10000 2.06 360 21:35 29.01.2022
4055 Clear 9 1032 30 10000 2.06 360 20:57 29.01.2022
4056 Clear 9 1032 30 10000 1.54 360 19:52 29.01.2022
4057 Clear 11 1009 28 10000 0 0 19:31 29.01.2022
4058 Clear 13 1032 23 10000 1.03 0 18:44 29.01.2022
4059 Clear 16 1032 19 10000 1.03 0 17:54 29.01.2022
4060 Clear 16 1032 18 10000 0.45 51 16:44 29.01.2022
4061 Clear 15 1033 18 10000 1.34 103 15:27 29.01.2022
4062 Clear 14 1034 26 10000 2.06 60 13:48 29.01.2022
4063 Clear 13 1034 27 10000 0.45 90 13:27 29.01.2022
4064 Clear 12 1034 29 10000 0.89 23 12:58 29.01.2022
4065 Clear 8 1035 35 10000 1.54 50 11:39 29.01.2022
4066 Clear 5 1034 40 10000 1.79 36 10:32 29.01.2022
4067 Clear 2 1020 47 10000 0.45 153 07:57 29.01.2022
4068 Clear 6 1018 38 10000 0.89 68 01:38 29.01.2022
4069 Clear 6 1018 36 10000 1.34 45 00:31 29.01.2022
4070 Clear 6 1018 36 10000 1.34 45 00:31 29.01.2022
4071 Clear 7 1018 34 10000 0.45 68 23:29 28.01.2022
4072 Clear 7 1014 35 10000 0.45 0 22:46 28.01.2022
4073 Clear 8 1013 36 10000 1.34 17 22:18 28.01.2022
4074 Clear 8 1009 37 10000 0.51 280 20:41 28.01.2022
4075 Clear 9 1006 31 10000 1.03 280 19:53 28.01.2022
4076 Clear 11 1030 29 10000 0.51 0 18:51 28.01.2022
4077 Clear 14 1030 21 10000 2.06 130 17:52 28.01.2022
4078 Clear 14 1030 21 10000 3.13 45 15:50 28.01.2022
4079 Clear 13 1031 25 10000 0.89 68 14:46 28.01.2022
4080 Clear 10 1032 37 10000 0.45 45 12:40 28.01.2022
4081 Clear 7 1032 43 10000 0.45 68 11:38 28.01.2022
4082 Clear 7 1032 43 10000 0.45 68 11:38 28.01.2022
4083 Clear 6 1017 47 10000 2.24 45 10:22 28.01.2022
4084 Clear 4 1019 51 10000 0.89 23 09:45 28.01.2022
4085 Clear 2 1018 53 10000 3.13 45 07:40 28.01.2022
4086 Clear 3 1016 53 10000 0.89 23 05:30 28.01.2022
4087 Clear 4 1016 52 10000 1.34 38 03:48 28.01.2022
4088 Clear 5 1015 50 10000 0.89 68 02:23 28.01.2022
4089 Clear 5 1015 50 10000 1.34 23 01:35 28.01.2022
4090 Clear 6 1015 49 10000 0.89 68 00:33 28.01.2022
4091 Clear 7 1011 48 10000 2.68 35 21:58 27.01.2022
4092 Clear 7 1028 48 10000 1.54 10 21:34 27.01.2022
4093 Clear 7 1006 49 10000 1.03 10 20:55 27.01.2022
4094 Clear 9 1010 41 10000 0.51 70 19:35 27.01.2022
4095 Clear 13 1027 30 10000 2.06 70 17:58 27.01.2022
4096 Clear 13 1028 36 10000 0.45 90 15:43 27.01.2022
4097 Clear 11 1029 49 10000 0.89 23 13:39 27.01.2022
4098 Clear 9 1030 55 10000 1.79 23 12:46 27.01.2022
4099 Clear 6 1030 65 10000 4.47 45 10:59 27.01.2022
4100 Clear 3 1015 73 10000 5.36 45 09:27 27.01.2022
4101 Clear 3 1016 73 10000 3.13 23 08:39 27.01.2022
4102 Clear 2 1016 73 10000 1.34 23 07:23 27.01.2022
4103 Clear 4 1014 67 10000 1.79 45 02:59 27.01.2022
4104 Clear 6 1015 66 10000 2.24 34 23:52 26.01.2022
4105 Clear 7 1015 66 10000 1.34 29 22:27 26.01.2022
4106 Clear 7 1014 65 10000 0.89 50 21:41 26.01.2022
4107 Clear 8 1011 66 10000 0.89 82 20:42 26.01.2022
4108 Clouds 8 1014 62 10000 0.45 68 20:23 26.01.2022
4109 Clouds 8 1015 62 10000 0.45 45 19:28 26.01.2022
4110 Clouds 10 1015 59 10000 1.34 23 18:46 26.01.2022
4111 Clear 10 1015 57 10000 1.34 70 17:52 26.01.2022
4112 Clear 10 1028 55 10000 0.45 45 17:24 26.01.2022
4113 Clouds 11 1028 54 10000 0.45 113 16:40 26.01.2022
4114 Clouds 10 1028 54 10000 1.34 113 15:50 26.01.2022
4115 Clouds 9 1029 53 10000 2.24 113 14:23 26.01.2022
4116 Clouds 7 1030 59 10000 0.45 45 11:56 26.01.2022
4117 Clear 5 1018 72 10000 0.45 90 10:45 26.01.2022
4118 Clear 3 1017 78 10000 2.68 23 09:49 26.01.2022
4119 Clear 1 1017 83 10000 3.58 23 08:32 26.01.2022
4120 Clear 2 1015 82 10000 0.89 68 06:20 26.01.2022
4121 Clear 2 1015 82 10000 0.89 68 06:20 26.01.2022
4122 Clear 5 1016 73 10000 1.79 63 00:18 26.01.2022
4123 Clear 6 1016 71 10000 1.34 65 23:28 25.01.2022
4124 Clear 6 1013 68 10000 1.34 74 22:48 25.01.2022
4125 Clear 6 1016 66 10000 0.45 113 22:18 25.01.2022
4126 Clouds 7 1016 64 10000 0.89 113 21:22 25.01.2022
4127 Clouds 7 1030 64 10000 0.89 128 20:44 25.01.2022
4128 Clouds 8 1030 64 10000 0.45 110 19:53 25.01.2022
4129 Clouds 9 1017 63 10000 1.34 113 18:46 25.01.2022
4130 Clouds 10 1017 59 10000 0.89 90 17:45 25.01.2022
4131 Clouds 10 1017 58 10000 1.79 90 16:58 25.01.2022
4132 Clouds 10 1017 59 10000 0.45 158 16:34 25.01.2022
4133 Clouds 10 1017 61 10000 0.45 180 15:39 25.01.2022
4134 Clouds 10 1017 62 10000 0.45 113 14:58 25.01.2022
4135 Clouds 10 1030 59 10000 0.45 113 13:47 25.01.2022
4136 Clouds 7 1032 67 10000 1.79 59 11:30 25.01.2022
4137 Clouds 5 1031 69 10000 1.54 60 09:21 25.01.2022
4138 Clouds 5 1030 72 10000 1.54 60 07:31 25.01.2022
4139 Clouds 5 1030 70 10000 1.54 50 06:53 25.01.2022
4140 Clouds 6 1030 69 10000 2.06 60 05:23 25.01.2022
4141 Clouds 7 1029 60 10000 1.79 83 00:20 25.01.2022
4142 Clouds 7 1029 62 10000 0.51 0 23:36 24.01.2022
4143 Clouds 7 1029 60 10000 1.54 70 23:18 24.01.2022
4144 Clouds 7 1029 60 10000 1.54 70 22:42 24.01.2022
4145 Clouds 7 1029 61 10000 0.89 50 21:57 24.01.2022
4146 Clouds 7 1029 61 10000 0.89 66 21:57 24.01.2022
4147 Clouds 8 1014 62 10000 1.34 74 21:32 24.01.2022
4148 Clouds 8 1014 61 10000 0.45 45 20:33 24.01.2022
4149 Clouds 8 1015 58 10000 3.13 45 19:58 24.01.2022
4150 Clouds 8 1015 58 10000 1.79 45 19:37 24.01.2022
4151 Clouds 8 1014 56 10000 2.24 45 18:35 24.01.2022
4152 Clouds 9 1014 55 10000 1.79 23 17:24 24.01.2022
4153 Clouds 9 1014 55 10000 0.45 23 16:55 24.01.2022
4154 Clouds 9 1014 54 10000 0.45 68 16:29 24.01.2022
4155 Clouds 8 1015 61 10000 1.34 68 14:49 24.01.2022
4156 Clouds 7 1015 70 10000 0.45 256 13:38 24.01.2022
4157 Clouds 6 1016 70 10000 0.45 23 12:32 24.01.2022
4158 Clouds 6 1015 73 10000 0.89 27 11:20 24.01.2022
4159 Clouds 4 1014 78 10000 1.79 44 09:49 24.01.2022
4160 Clouds 3 1012 81 10000 0.89 44 09:20 24.01.2022
4161 Clouds 4 1014 79 10000 0.45 90 07:20 24.01.2022
4162 Clouds 4 1014 79 10000 0.45 90 07:20 24.01.2022
4163 Clouds 6 1012 72 10000 0.89 36 01:32 24.01.2022
4164 Clouds 6 1012 72 10000 0.89 63 00:46 24.01.2022
4165 Clouds 6 1012 72 10000 0.89 85 00:27 24.01.2022
4166 Clear 6 1012 71 10000 0.45 90 22:46 23.01.2022
4167 Clear 6 1011 69 10000 1.34 67 21:50 23.01.2022
4168 Clear 6 1011 65 10000 0.89 85 21:27 23.01.2022
4169 Clouds 7 1011 65 10000 0.45 76 20:54 23.01.2022
4170 Clouds 7 1013 65 10000 0.45 97 19:55 23.01.2022
4171 Clouds 8 1012 65 10000 0.45 90 18:52 23.01.2022
4172 Clouds 9 1012 61 10000 0.89 23 17:52 23.01.2022
4173 Clouds 9 1024 60 10000 1.34 135 16:52 23.01.2022
4174 Clouds 9 1012 63 10000 1.79 113 15:18 23.01.2022
4175 Clouds 9 1026 64 10000 0.89 45 14:33 23.01.2022
4176 Clouds 8 1026 66 10000 1.34 45 13:27 23.01.2022
4177 Clouds 7 1027 68 10000 0.89 68 12:36 23.01.2022
4178 Clouds 6 1027 72 10000 1.79 23 12:18 23.01.2022
4179 Clouds 5 1028 77 10000 1.79 23 11:24 23.01.2022
4180 Clouds 4 1028 79 10000 1.79 52 10:57 23.01.2022
4181 Clouds 3 1027 82 10000 1.34 68 10:23 23.01.2022
4182 Clouds 2 1027 81 10000 0.89 45 09:25 23.01.2022
4183 Clouds 1 1012 81 10000 0.45 45 05:59 23.01.2022
4184 Clouds 1 1012 81 10000 0.45 45 05:59 23.01.2022
4185 Clear 2 1012 77 10000 0.45 45 03:20 23.01.2022
4186 Clear 3 1013 75 10000 2.24 42 01:35 23.01.2022
4187 Clear 4 1013 75 10000 1.79 30 00:42 23.01.2022
4188 Clear 4 1012 75 10000 1.34 40 23:57 22.01.2022
4189 Clear 4 1013 73 10000 0.89 87 22:48 22.01.2022
4190 Clear 5 1013 69 10000 0.89 81 21:58 22.01.2022
4191 Clear 7 1013 63 10000 0.89 46 20:26 22.01.2022
4192 Clear 7 1014 63 10000 0.45 23 19:37 22.01.2022
4193 Clear 9 1027 57 10000 0.45 45 18:37 22.01.2022
4194 Clear 9 1027 53 10000 0.45 113 17:42 22.01.2022
4195 Clear 9 1027 53 10000 0.45 45 17:18 22.01.2022
4196 Clear 10 1027 53 10000 0.89 21 16:22 22.01.2022
4197 Clear 9 1025 54 10000 0.45 90 15:44 22.01.2022
4198 Clouds 8 1025 59 10000 0.45 113 14:22 22.01.2022
4199 Clouds 8 1026 61 10000 4.92 247 13:27 22.01.2022
4200 Clouds 6 1027 62 10000 0.45 68 12:37 22.01.2022
4201 Clouds 6 1027 63 10000 0.45 68 12:18 22.01.2022
4202 Clouds 3 1029 64 10000 2.24 45 10:39 22.01.2022
4203 Clouds 2 1029 65 10000 3.13 45 10:20 22.01.2022
4204 Clear 0 1014 68 10000 0.89 45 08:55 22.01.2022
4205 Clear 0 1014 68 10000 3.58 23 08:31 22.01.2022
4206 Clear 1 1011 58 10000 0.89 45 05:20 22.01.2022
4207 Clear 2 1010 54 10000 4.47 45 02:39 22.01.2022
4208 Clear 3 1009 49 10000 4.02 68 23:50 21.01.2022
4209 Clear 4 1009 48 10000 4.02 45 22:59 21.01.2022
4210 Clear 5 1009 48 10000 3.58 23 21:18 21.01.2022
4211 Clear 6 1010 45 10000 0.45 90 19:30 21.01.2022
4212 Clear 9 1024 36 10000 0.89 113 17:50 21.01.2022
4213 Clouds 9 1024 41 10000 2.24 68 15:55 21.01.2022
4214 Clouds 8 1024 49 10000 3.58 68 14:58 21.01.2022
4215 Clear 6 1026 65 10000 0.51 0 12:43 21.01.2022
4216 Clear 4 1026 71 10000 0.45 225 11:29 21.01.2022
4217 Clear 3 1025 75 10000 0.89 113 10:33 21.01.2022
4218 Clear 1 1012 83 10000 0.89 3 08:59 21.01.2022
4219 Clear 1 1012 82 10000 0.89 8 07:58 21.01.2022
4220 Clear 4 1011 72 10000 1.79 67 01:52 21.01.2022
4221 Clear 6 1012 65 10000 0.89 45 22:51 20.01.2022
4222 Clouds 7 1011 61 10000 3.13 45 21:49 20.01.2022
4223 Clouds 7 1011 60 10000 2.24 45 21:25 20.01.2022
4224 Clouds 9 1013 53 10000 3.58 68 19:54 20.01.2022
4225 Clouds 9 1013 49 10000 4.02 68 19:18 20.01.2022
4226 Clouds 12 1025 42 10000 2.24 68 17:37 20.01.2022
4227 Clouds 13 1025 42 10000 0.45 90 16:24 20.01.2022
4228 Clouds 12 1026 43 10000 2.24 113 15:31 20.01.2022
4229 Clouds 12 1027 47 10000 2.24 90 14:20 20.01.2022
4230 Clear 10 1028 52 10000 0.89 90 12:53 20.01.2022
4231 Clear 10 1029 53 10000 2.24 45 12:29 20.01.2022
4232 Clear 6 1029 58 10000 1.34 90 11:19 20.01.2022
4233 Clear 4 1029 60 10000 1.34 90 10:18 20.01.2022
4234 Clear 2 1013 65 10000 2.24 65 08:51 20.01.2022
4235 Clear 2 1013 64 10000 2.24 42 06:57 20.01.2022
4236 Clear 5 1014 54 10000 2.68 66 00:40 20.01.2022
4237 Clear 6 1011 51 10000 0.89 41 22:39 19.01.2022
4238 Clear 6 1011 47 10000 2.06 290 21:36 19.01.2022
4239 Clear 7 1029 46 10000 0.89 270 20:58 19.01.2022
4240 Clear 7 1029 45 10000 2.57 290 20:40 19.01.2022
4241 Clear 9 1028 39 10000 1.54 250 18:59 19.01.2022
4242 Clear 12 1028 30 10000 1.54 190 17:51 19.01.2022
4243 Clear 13 1028 27 10000 0.89 202 17:18 19.01.2022
4244 Clear 13 1028 30 10000 0.89 248 15:35 19.01.2022
4245 Clear 10 1030 40 10000 0.89 110 13:26 19.01.2022
4246 Clear 8 1031 45 10000 1.34 59 12:20 19.01.2022
4247 Clear 7 1031 49 10000 0.89 87 11:38 19.01.2022
4248 Clear 3 1018 56 10000 0.89 68 09:49 19.01.2022
4249 Clear 2 1016 55 10000 0.45 45 09:22 19.01.2022
4250 Clear 2 1016 58 10000 0.89 45 05:29 19.01.2022
4251 Clear 5 1016 54 10000 1.34 45 00:22 19.01.2022
4252 Clear 5 1016 53 10000 0.45 68 23:18 18.01.2022
4253 Clear 5 1008 58 10000 1.03 290 21:50 18.01.2022
4254 Clear 5 1030 56 10000 1.03 280 20:38 18.01.2022
4255 Clear 7 1030 49 10000 1.03 280 19:51 18.01.2022
4256 Clear 7 1030 47 10000 1.03 250 19:33 18.01.2022
4257 Clear 10 1029 37 10000 0.51 240 18:23 18.01.2022
4258 Clear 12 1029 31 10000 0.51 0 17:32 18.01.2022
4259 Clear 13 1029 29 10000 0.45 338 16:22 18.01.2022
4260 Clear 12 1029 34 10000 0.89 79 15:25 18.01.2022
4261 Clear 11 1030 42 10000 0.89 98 14:23 18.01.2022
4262 Clear 6 1031 55 10000 0.45 113 11:45 18.01.2022
4263 Clear 3 1031 66 10000 0.45 90 10:30 18.01.2022
4264 Clear 1 1031 73 10000 1.79 14 08:36 18.01.2022
4265 Clear 0 1030 73 10000 1.79 29 07:45 18.01.2022
4266 Clear 3 1031 68 10000 1.79 59 01:34 18.01.2022
4267 Clear 4 1031 67 10000 1.34 15 22:47 17.01.2022
4268 Clear 5 1031 67 10000 0.89 31 21:50 17.01.2022
4269 Clear 5 1031 64 10000 1.34 44 21:29 17.01.2022
4270 Clear 7 1030 58 10000 1.34 56 19:37 17.01.2022
4271 Clear 9 1030 51 10000 0.45 57 18:27 17.01.2022
4272 Clear 11 1030 44 10000 0.89 91 17:22 17.01.2022
4273 Clear 11 1031 44 10000 0.89 98 16:22 17.01.2022
4274 Clear 10 1031 49 10000 0.45 270 14:58 17.01.2022
4275 Clear 9 1031 51 10000 0.45 90 14:32 17.01.2022
4276 Clear 8 1033 55 10000 0.89 180 13:19 17.01.2022
4277 Clear 7 1033 60 10000 0.89 107 12:27 17.01.2022
4278 Clear 6 1033 64 10000 0.89 40 11:47 17.01.2022
4279 Clear 2 1032 73 10000 1.79 56 10:21 17.01.2022
4280 Clear 0 1032 79 10000 1.79 61 08:44 17.01.2022
4281 Clear 0 1031 78 10000 1.34 23 07:22 17.01.2022
4282 Clear 2 1032 77 10000 2.24 53 02:20 17.01.2022
4283 Clear 3 1032 78 10000 1.34 62 00:43 17.01.2022
4284 Clear 5 1031 73 10000 0.89 246 21:22 16.01.2022
4285 Clear 5 1031 72 10000 0.89 235 20:28 16.01.2022
4286 Clear 7 1030 63 10000 0.89 199 18:46 16.01.2022
4287 Clear 9 1030 56 10000 1.34 198 17:51 16.01.2022
4288 Clear 10 1030 53 10000 0.45 180 16:55 16.01.2022
4289 Clear 9 1030 51 10000 0.89 202 15:43 16.01.2022
4290 Clear 8 1030 56 10000 0.89 178 14:29 16.01.2022
4291 Clear 7 1031 60 10000 1.34 214 13:33 16.01.2022
4292 Clear 5 1031 66 10000 0.45 36 12:21 16.01.2022
4293 Clear 3 1031 70 10000 1.79 72 11:29 16.01.2022
4294 Clear 2 1031 76 10000 1.34 40 10:28 16.01.2022
4295 Clear 0 1030 79 10000 1.79 33 09:58 16.01.2022
4296 Clear 0 1030 81 10000 0.89 45 09:37 16.01.2022
4297 Clear -1 1030 81 10000 1.34 45 09:19 16.01.2022
4298 Clear -1 1028 81 10000 1.79 32 06:35 16.01.2022
4299 Clear 2 1028 76 10000 1.34 37 00:35 16.01.2022
4300 Clear 3 1027 77 10000 0.89 53 22:50 15.01.2022
4301 Clear 4 1027 71 10000 0 0 21:22 15.01.2022
4302 Clear 5 1027 69 10000 0 0 20:45 15.01.2022
4303 Clear 5 1027 70 10000 0.89 253 20:22 15.01.2022
4304 Clear 5 1027 67 10000 0.89 245 19:27 15.01.2022
4305 Clear 7 1027 60 10000 1.34 190 18:18 15.01.2022
4306 Clear 9 1026 54 10000 1.79 225 16:49 15.01.2022
4307 Clear 8 1027 60 10000 1.79 248 14:38 15.01.2022
4308 Clear 5 1029 64 10000 0.45 139 12:39 15.01.2022
4309 Clear 3 1029 65 10000 0.45 0 11:21 15.01.2022
4310 Clear 0 1029 69 10000 1.79 40 09:46 15.01.2022
4311 Clear 1 1029 64 10000 0.45 23 01:58 15.01.2022
4312 Clear 3 1030 62 10000 1.79 68 23:20 14.01.2022
4313 Clear 4 1030 61 10000 0.89 32 21:18 14.01.2022
4314 Clear 4 1030 60 10000 0.45 36 20:25 14.01.2022
4315 Clear 5 1030 57 10000 0.45 23 19:50 14.01.2022
4316 Clear 7 1030 53 10000 0.45 68 18:38 14.01.2022
4317 Clear 8 1030 46 10000 0.89 112 17:21 14.01.2022
4318 Clear 8 1030 46 10000 0.89 113 16:40 14.01.2022
4319 Clear 8 1030 47 10000 0.45 113 15:30 14.01.2022
4320 Clear 8 1031 47 10000 2.24 135 14:25 14.01.2022
4321 Clear 6 1033 55 10000 1.79 113 12:47 14.01.2022
4322 Clear 5 1033 63 10000 0.89 45 11:51 14.01.2022
4323 Clear 2 1033 75 10000 1.79 47 10:24 14.01.2022
4324 Clear -1 1032 82 10000 1.34 45 08:52 14.01.2022
4325 Clear 0 1032 82 10000 1.34 50 07:30 14.01.2022
4326 Clear 2 1032 75 10000 1.34 38 02:20 14.01.2022
4327 Clear 3 1033 74 10000 0.45 45 23:40 13.01.2022
4328 Clear 5 1032 71 10000 1.34 64 21:46 13.01.2022
4329 Clear 5 1032 70 10000 1.34 59 21:27 13.01.2022
4330 Clouds 6 1032 66 10000 0.45 74 19:45 13.01.2022
4331 Clouds 6 1032 65 10000 0.89 45 19:23 13.01.2022
4332 Clouds 7 1032 61 10000 0.89 51 18:36 13.01.2022
4333 Clouds 9 1032 58 10000 1.34 77 16:48 13.01.2022
4334 Clouds 9 1031 58 10000 0.89 76 15:38 13.01.2022
4335 Clouds 9 1031 58 10000 1.79 135 15:18 13.01.2022
4336 Clouds 8 1032 63 10000 2.24 158 13:28 13.01.2022
4337 Clouds 4 1032 62 10000 0.45 45 10:39 13.01.2022
4338 Clouds 1 1032 67 10000 0.89 23 09:23 13.01.2022
4339 Clear 1 1032 67 10000 2.24 45 08:29 13.01.2022
4340 Clear 1 1032 64 10000 1.79 45 07:58 13.01.2022
4341 Clear 1 1031 64 10000 1.34 68 07:18 13.01.2022
4342 Clear 2 1031 61 10000 1.79 29 05:20 13.01.2022
4343 Clear 3 1031 55 10000 1.79 21 03:34 13.01.2022
4344 Clear 4 1030 51 10000 0.45 23 01:38 13.01.2022
4345 Clear 5 1030 50 10000 1.34 81 23:53 12.01.2022
4346 Clear 5 1029 49 10000 2.24 45 23:33 12.01.2022
4347 Clear 5 1029 54 10000 1.34 41 22:22 12.01.2022
4348 Clear 5 1029 53 10000 1.34 74 21:43 12.01.2022
4349 Clear 5 1029 55 10000 0.51 0 21:18 12.01.2022
4350 Clear 6 1029 51 10000 0.51 0 20:44 12.01.2022
4351 Clear 9 1028 39 10000 1.03 160 18:48 12.01.2022
4352 Clear 11 1027 34 10000 0.89 59 17:54 12.01.2022
4353 Clear 12 1027 32 10000 0.89 113 16:52 12.01.2022
4354 Clear 11 1028 36 10000 0.45 58 14:50 12.01.2022
4355 Clear 11 1028 35 10000 0.89 68 14:19 12.01.2022
4356 Clear 9 1028 36 10000 1.34 45 12:57 12.01.2022
4357 Clear 4 1028 83 10000 2.68 68 09:48 12.01.2022
4358 Fog 3 1027 86 10000 1.34 53 07:57 12.01.2022
4359 Fog 4 1027 86 10000 0.89 45 07:33 12.01.2022
4360 Fog 4 1027 86 10000 0.89 45 07:33 12.01.2022
4361 Clear 6 1027 77 10000 0.89 72 02:20 12.01.2022
4362 Clear 8 1026 72 10000 1.79 23 23:27 11.01.2022
4363 Clear 9 1026 69 10000 0.45 45 22:39 11.01.2022
4364 Clear 10 1026 68 10000 2.68 45 22:18 11.01.2022
4365 Clouds 11 1025 65 10000 2.68 68 20:40 11.01.2022
4366 Clouds 12 1025 62 10000 3.13 45 19:35 11.01.2022
4367 Clear 14 1024 55 10000 1.03 0 17:54 11.01.2022
4368 Clear 15 1024 51 10000 1.34 90 16:46 11.01.2022
4369 Clear 15 1024 51 10000 1.34 93 16:28 11.01.2022
4370 Clear 15 1024 53 10000 0.89 135 14:57 11.01.2022
4371 Clear 14 1025 56 10000 0.89 154 14:38 11.01.2022
4372 Clear 13 1025 60 10000 1.79 270 13:52 11.01.2022
4373 Clear 13 1025 62 10000 0.89 71 13:28 11.01.2022
4374 Clear 12 1026 68 10000 0.45 20 12:36 11.01.2022
4375 Clear 8 1025 77 10000 1.79 61 10:40 11.01.2022
4376 Clear 6 1024 84 10000 0.45 338 08:26 11.01.2022
4377 Clear 7 1023 79 10000 1.34 23 04:30 11.01.2022
4378 Clear 9 1024 71 10000 0.45 293 00:28 11.01.2022
4379 Clear 10 1023 68 10000 2.68 23 23:40 10.01.2022
4380 Clear 10 1023 69 10000 2.24 23 22:43 10.01.2022
4381 Clear 10 1023 67 10000 3.13 14 22:18 10.01.2022
4382 Clear 11 1023 67 10000 3.13 11 21:42 10.01.2022
4383 Clear 11 1023 64 10000 4.02 32 21:18 10.01.2022
4384 Clear 11 1023 65 10000 4.63 360 20:55 10.01.2022
4385 Clear 12 1022 62 10000 4.92 0 20:23 10.01.2022
4386 Clear 12 1022 60 10000 3.58 10 19:39 10.01.2022
4387 Clear 12 1022 60 10000 5.36 0 19:19 10.01.2022
4388 Clear 12 1022 60 10000 4.92 23 18:47 10.01.2022
4389 Clouds 15 1021 57 10000 0.89 45 16:51 10.01.2022
4390 Clouds 15 1021 59 10000 2.68 68 16:33 10.01.2022
4391 Clear 15 1021 61 10000 0.89 23 14:58 10.01.2022
4392 Clear 14 1022 65 10000 0.89 0 13:35 10.01.2022
4393 Clear 12 1023 75 10000 4.02 293 11:57 10.01.2022
4394 Fog 11 1023 80 10000 0.89 23 11:24 10.01.2022
4395 Fog 8 1022 87 10000 0.89 36 09:40 10.01.2022
4396 Clear 8 1020 86 10000 0.89 121 05:52 10.01.2022
4397 Clear 9 1020 83 10000 2.24 184 05:23 10.01.2022
4398 Clear 12 1021 79 10000 2.68 270 01:24 10.01.2022
4399 Clouds 12 1022 79 10000 2.24 292 00:23 10.01.2022
4400 Clouds 12 1022 80 10000 4.92 279 23:28 09.01.2022
4401 Clear 12 1022 79 10000 2.24 270 22:21 09.01.2022
4402 Clear 12 1022 78 10000 5.36 270 21:42 09.01.2022
4403 Clear 12 1022 78 10000 5.36 270 21:42 09.01.2022
4404 Clear 12 1022 77 10000 4.92 315 21:23 09.01.2022
4405 Clouds 12 1022 76 10000 1.79 248 20:49 09.01.2022
4406 Clouds 12 1022 75 10000 5.36 276 20:29 09.01.2022
4407 Clouds 12 1022 70 10000 3.58 270 19:44 09.01.2022
4408 Clouds 12 1022 70 10000 5.81 293 19:22 09.01.2022
4409 Clouds 12 1022 69 10000 8.05 270 18:49 09.01.2022
4410 Clouds 12 1022 69 10000 4.92 270 18:30 09.01.2022
4411 Clouds 12 1022 67 10000 6.71 293 17:30 09.01.2022
4412 Clouds 13 1022 64 10000 5.81 270 16:51 09.01.2022
4413 Clouds 13 1022 62 10000 8.94 270 15:56 09.01.2022
4414 Clouds 13 1022 62 10000 8.94 270 15:34 09.01.2022
4415 Clouds 13 1022 61 10000 6.26 270 14:40 09.01.2022
4416 Clouds 13 1022 62 10000 6.71 270 13:50 09.01.2022
4417 Clouds 11 1023 68 10000 6.26 293 12:44 09.01.2022
4418 Clouds 9 1023 76 10000 4.47 248 11:48 09.01.2022
4419 Clear 5 1023 82 10000 4.02 270 09:59 09.01.2022
4420 Clear 5 1023 81 10000 4.92 270 09:41 09.01.2022
4421 Clear 4 1023 80 10000 2.24 248 08:30 09.01.2022
4422 Mist 4 1024 78 10000 1.34 315 02:48 09.01.2022
4423 Clear 4 1024 72 10000 4.47 293 01:21 09.01.2022
4424 Clear 4 1024 67 10000 4.02 293 23:38 08.01.2022
4425 Clear 4 1024 71 10000 0.89 225 22:59 08.01.2022
4426 Clear 4 1025 82 10000 0.45 248 21:33 08.01.2022
4427 Clear 4 1025 83 10000 1.34 248 20:58 08.01.2022
4428 Clear 4 1025 83 10000 0.89 270 20:39 08.01.2022
4429 Clear 4 1025 83 10000 3.13 248 20:19 08.01.2022
4430 Clear 6 1026 79 10000 1.34 225 18:21 08.01.2022
4431 Clear 7 1026 74 10000 2.24 203 17:21 08.01.2022
4432 Clear 7 1026 75 10000 0.45 180 15:47 08.01.2022
4433 Clear 6 1027 74 10000 2.24 248 14:41 08.01.2022
4434 Clear 5 1029 79 10000 0.45 182 13:25 08.01.2022
4435 Clear 2 1030 85 10000 0.89 168 11:24 08.01.2022
4436 Clear 1 1029 86 10000 0.89 189 10:25 08.01.2022
4437 Clear 1 1029 88 10000 1.34 191 09:47 08.01.2022
4438 Clear 0 1029 89 10000 0 0 07:21 08.01.2022
4439 Clear 2 1030 85 10000 0.45 259 02:45 08.01.2022
4440 Clear 3 1030 81 10000 0.89 64 00:41 08.01.2022
4441 Clear 4 1030 81 10000 0.45 8 22:47 07.01.2022
4442 Clear 6 1030 69 10000 1.34 44 20:56 07.01.2022
4443 Clear 6 1030 69 10000 1.79 45 20:19 07.01.2022
4444 Clouds 7 1029 66 10000 0.89 45 19:18 07.01.2022
4445 Clouds 7 1029 64 10000 3.13 23 18:44 07.01.2022
4446 Clouds 9 1028 59 10000 4.92 68 17:26 07.01.2022
4447 Clouds 10 1028 58 10000 1.79 68 16:30 07.01.2022
4448 Clear 9 1027 63 10000 3.58 23 13:53 07.01.2022
4449 Clear 9 1027 64 10000 0.45 248 13:22 07.01.2022
4450 Clear 8 1028 67 10000 0.89 12 12:49 07.01.2022
4451 Clear 1 1026 85 10000 0.45 325 09:37 07.01.2022
4452 Clear 2 1023 78 10000 1.34 62 02:55 07.01.2022
4453 Clear 2 1023 80 10000 1.34 64 01:54 07.01.2022
4454 Clear 3 1023 75 10000 0.89 76 01:28 07.01.2022
4455 Clear 3 1023 76 10000 0.89 68 00:58 07.01.2022
4456 Clear 3 1023 78 10000 0.89 23 00:58 07.01.2022
4457 Clear 4 1022 75 10000 1.79 23 22:54 06.01.2022
4458 Clear 4 1021 79 10000 1.34 23 21:28 06.01.2022
4459 Clouds 5 1021 70 10000 0.45 180 20:21 06.01.2022
4460 Clouds 5 1021 73 10000 1.79 315 19:44 06.01.2022
4461 Clouds 7 1020 74 10000 0.89 225 17:54 06.01.2022
4462 Clouds 8 1019 67 10000 1.34 158 17:34 06.01.2022
4463 Clouds 8 1019 66 10000 0.89 270 16:42 06.01.2022
4464 Clear 8 1020 69 10000 0.45 270 15:46 06.01.2022
4465 Clear 7 1020 70 10000 1.34 207 15:25 06.01.2022
4466 Clouds 7 1020 72 10000 1.79 152 14:45 06.01.2022
4467 Clouds 7 1020 72 10000 1.34 248 14:18 06.01.2022
4468 Clouds 5 1020 78 10000 1.79 225 12:50 06.01.2022
4469 Clear 4 1020 83 10000 1.79 135 11:43 06.01.2022
4470 Clear 4 1020 84 10000 1.34 168 11:22 06.01.2022
4471 Fog 1 1019 92 3500 0.45 152 08:51 06.01.2022
4472 Clouds 4 1016 95 10000 1.79 68 00:53 06.01.2022
4473 Clouds 5 1016 93 10000 3.58 68 23:38 05.01.2022
4474 Clouds 5 1016 93 10000 1.34 68 22:57 05.01.2022
4475 Clouds 5 1015 91 10000 0.89 45 22:32 05.01.2022
4476 Mist 5 1016 91 3200 0.45 63 21:48 05.01.2022
4477 Clouds 5 1016 89 9000 0.45 331 20:57 05.01.2022
4478 Clouds 5 1016 90 10000 1.34 270 20:18 05.01.2022
4479 Rain 6 1016 86 7000 3.58 248 18:44 05.01.2022
4480 Rain 7 1016 77 10000 2.24 293 17:26 05.01.2022
4481 Rain 8 1016 61 10000 2.68 293 16:50 05.01.2022
4482 Clouds 9 1017 56 10000 3.13 293 15:26 05.01.2022
4483 Clouds 8 1019 61 10000 7.15 270 13:51 05.01.2022
4484 Clouds 8 1020 61 10000 6.26 293 13:22 05.01.2022
4485 Clouds 6 1019 73 10000 2.24 270 10:34 05.01.2022
4486 Clouds 5 1019 74 10000 2.24 225 07:47 05.01.2022
4487 Clouds 5 1019 74 10000 2.24 225 07:47 05.01.2022
4488 Clouds 5 1019 72 10000 4.47 248 06:25 05.01.2022
4489 Clear 6 1018 71 10000 4.02 315 00:58 05.01.2022
4490 Clear 7 1017 69 10000 3.58 315 23:28 04.01.2022
4491 Clear 7 1017 69 10000 3.58 315 23:28 04.01.2022
4492 Clouds 7 1016 68 10000 3.13 315 22:55 04.01.2022
4493 Clouds 7 1015 70 10000 8.05 293 21:24 04.01.2022
4494 Clouds 7 1012 76 10000 9.83 270 19:20 04.01.2022
4495 Clouds 8 1012 86 10000 7.6 248 17:52 04.01.2022
4496 Rain 10 1011 86 2300 5.36 248 16:44 04.01.2022
4497 Rain 11 1011 81 7000 2.24 270 16:24 04.01.2022
4498 Clouds 11 1013 81 10000 1.79 135 14:54 04.01.2022
4499 Clouds 11 1013 83 10000 2.24 203 14:34 04.01.2022
4500 Mist 10 1015 92 4500 1.34 225 13:27 04.01.2022
4501 Mist 7 1017 95 2700 0.45 248 10:41 04.01.2022
4502 Mist 6 1017 93 9000 0.45 293 09:47 04.01.2022
4503 Mist 6 1018 91 9000 0.89 225 08:32 04.01.2022
4504 Mist 7 1021 90 6000 0.89 206 02:32 04.01.2022
4505 Mist 8 1023 88 10000 1.34 203 00:41 04.01.2022
4506 Mist 8 1024 88 10000 1.34 200 23:26 03.01.2022
4507 Clear 8 1024 88 10000 0.89 225 21:52 03.01.2022
4508 Clear 9 1024 86 10000 1.34 203 21:33 03.01.2022
4509 Clear 10 1025 81 10000 1.79 223 20:22 03.01.2022
4510 Clear 11 1025 76 10000 2.24 208 18:54 03.01.2022
4511 Clear 12 1025 76 10000 1.34 225 18:28 03.01.2022
4512 Clear 14 1025 67 10000 1.34 180 16:58 03.01.2022
4513 Clear 14 1025 67 10000 1.34 180 15:39 03.01.2022
4514 Clear 13 1026 68 10000 2.06 150 14:31 03.01.2022
4515 Clear 13 1026 68 10000 2.06 150 14:31 03.01.2022
4516 Clear 10 1028 76 10000 1.34 158 12:48 03.01.2022
4517 Clear 9 1028 80 10000 0.51 0 11:38 03.01.2022
4518 Clear 7 1028 84 10000 0 0 10:36 03.01.2022
4519 Clear 5 1028 86 10000 0.51 0 08:48 03.01.2022
4520 Clear 5 1028 86 10000 0.51 0 07:36 03.01.2022
4521 Clear 8 1030 83 10000 1.34 17 23:56 02.01.2022
4522 Clear 8 1030 83 10000 1.34 17 23:22 02.01.2022
4523 Clear 9 1029 82 10000 0.89 45 22:55 02.01.2022
4524 Clear 8 1030 83 10000 0.89 38 21:46 02.01.2022
4525 Clear 10 1030 79 10000 0 0 20:38 02.01.2022
4526 Clear 10 1029 75 10000 0.45 95 20:18 02.01.2022
4527 Clear 11 1029 74 10000 0.89 68 19:31 02.01.2022
4528 Clear 12 1029 71 10000 1.03 100 18:47 02.01.2022
4529 Clear 13 1029 62 10000 0.89 258 17:56 02.01.2022
4530 Clear 14 1029 59 10000 2.57 120 17:37 02.01.2022
4531 Clear 15 1029 56 10000 1.34 156 17:18 02.01.2022
4532 Clear 16 1029 52 10000 0.45 147 16:26 02.01.2022
4533 Clear 14 1030 57 10000 0.89 165 14:34 02.01.2022
4534 Clear 12 1031 61 10000 0.45 82 12:54 02.01.2022
4535 Clear 11 1031 62 10000 0.89 42 12:25 02.01.2022
4536 Clear 10 1031 62 10000 1.34 85 11:33 02.01.2022
4537 Clear 9 1031 65 10000 1.79 43 10:49 02.01.2022
4538 Clear 6 1031 73 10000 0.45 45 09:45 02.01.2022
4539 Clear 6 1029 74 10000 2.24 23 05:51 02.01.2022
4540 Clear 7 1029 73 10000 2.24 73 02:19 02.01.2022
4541 Clear 9 1029 67 10000 2.24 25 23:40 01.01.2022
4542 Clear 10 1029 65 10000 2.24 26 22:58 01.01.2022
4543 Clear 9 1029 66 10000 1.79 38 22:23 01.01.2022
4544 Clear 9 1029 67 10000 1.34 29 21:44 01.01.2022
4545 Clear 10 1029 65 10000 0.51 0 20:55 01.01.2022
4546 Clear 11 1029 65 10000 0.51 0 19:58 01.01.2022
4547 Clear 11 1029 61 10000 0 0 19:26 01.01.2022
4548 Clear 14 1028 53 10000 0 0 18:20 01.01.2022
4549 Clear 17 1028 41 10000 0.51 0 16:43 01.01.2022
4550 Clear 17 1028 41 10000 0.51 0 16:20 01.01.2022
4551 Clear 17 1029 41 10000 0.45 344 15:27 01.01.2022
4552 Clear 15 1030 48 10000 0.45 113 13:59 01.01.2022
4553 Clear 14 1030 52 10000 1.34 73 12:50 01.01.2022
4554 Clear 12 1030 59 10000 0.45 90 11:58 01.01.2022
4555 Clear 10 1030 64 10000 1.34 11 11:23 01.01.2022
4556 Clear 8 1030 73 10000 0.45 68 10:40 01.01.2022
4557 Clear 6 1030 76 10000 0.89 68 09:46 01.01.2022
4558 Clear 5 1030 80 10000 1.79 45 08:26 01.01.2022
4559 Clear 5 1029 80 10000 3.13 45 07:54 01.01.2022
4560 Clear 5 1029 78 10000 1.34 23 07:34 01.01.2022
4561 Clear 6 1029 76 10000 1.79 45 06:41 01.01.2022
4562 Clear 6 1030 79 10000 1.79 45 04:38 01.01.2022
4563 Clear 7 1029 83 9000 2.24 23 02:54 01.01.2022
4564 Clear 9 1030 83 10000 3.13 45 23:44 31.12.2021
4565 Clear 9 1030 82 10000 0.89 35 21:53 31.12.2021
4566 Clear 10 1030 84 10000 1.03 320 20:41 31.12.2021
4567 Clear 11 1029 79 10000 0.45 275 19:31 31.12.2021
4568 Clear 11 1029 79 10000 0.45 277 19:31 31.12.2021
4569 Clear 11 1029 79 10000 0.45 277 19:31 31.12.2021
4570 Clear 14 1028 68 10000 0.51 150 18:44 31.12.2021
4571 Clear 16 1028 60 10000 0.89 192 17:45 31.12.2021
4572 Clear 16 1028 60 10000 0.89 192 17:19 31.12.2021
4573 Clear 16 1028 56 10000 0.89 135 16:40 31.12.2021
4574 Clear 17 1028 55 10000 0.89 180 15:57 31.12.2021
4575 Clear 16 1028 57 10000 1.34 180 15:29 31.12.2021
4576 Clear 16 1028 57 10000 0.89 135 15:29 31.12.2021
4577 Clear 16 1029 58 10000 0.89 156 14:57 31.12.2021
4578 Clear 15 1029 58 10000 0.45 50 14:31 31.12.2021
4579 Clear 14 1029 62 10000 0.89 64 13:37 31.12.2021
4580 Clear 12 1030 66 10000 0.45 90 12:49 31.12.2021
4581 Clear 11 1030 70 10000 0.45 68 11:52 31.12.2021
4582 Clear 10 1030 71 10000 0.89 90 11:33 31.12.2021
4583 Clear 8 1029 78 10000 1.79 58 10:38 31.12.2021
4584 Clear 7 1029 82 10000 0.51 0 10:20 31.12.2021
4585 Fog 5 1029 84 10000 1.79 68 09:33 31.12.2021
4586 Fog 5 1028 87 10000 1.79 23 08:47 31.12.2021
4587 Fog 5 1028 86 10000 1.79 31 07:49 31.12.2021
4588 Clear 8 1027 85 10000 1.79 68 00:47 31.12.2021
4589 Clear 10 1027 82 10000 1.79 68 22:50 30.12.2021
4590 Clear 10 1027 82 10000 2.24 38 22:26 30.12.2021
4591 Clear 10 1027 82 10000 1.34 5 21:37 30.12.2021
4592 Clear 10 1026 82 10000 1.34 15 20:49 30.12.2021
4593 Clear 10 1027 83 10000 1.34 359 20:28 30.12.2021
4594 Clear 11 1026 82 10000 0.89 41 19:48 30.12.2021
4595 Clear 11 1026 84 10000 0 0 19:24 30.12.2021
4596 Clear 14 1025 73 10000 0 0 18:21 30.12.2021
4597 Clear 16 1025 64 10000 0.45 90 16:37 30.12.2021
4598 Clear 16 1025 64 10000 0.45 86 15:53 30.12.2021
4599 Clear 15 1025 71 10000 1.34 105 14:51 30.12.2021
4600 Clear 14 1025 72 10000 0.45 45 14:31 30.12.2021
4601 Clear 13 1026 77 10000 1.79 96 13:24 30.12.2021
4602 Clear 10 1027 85 10000 1.34 71 11:45 30.12.2021
4603 Clear 7 1026 88 10000 1.79 35 10:27 30.12.2021
4604 Fog 5 1026 93 10000 1.79 68 09:27 30.12.2021
4605 Fog 5 1026 93 700 1.34 35 06:56 30.12.2021
4606 Fog 6 1026 93 6000 1.34 55 04:42 30.12.2021
4607 Mist 6 1026 92 5000 0.89 23 03:40 30.12.2021
4608 Clear 7 1026 92 10000 0.89 68 02:19 30.12.2021
4609 Clear 7 1027 91 7000 1.03 260 23:37 29.12.2021
4610 Mist 8 1027 90 3700 0.45 195 22:33 29.12.2021
4611 Mist 8 1027 91 4800 0.45 318 21:55 29.12.2021
4612 Mist 8 1027 90 5000 1.34 237 20:56 29.12.2021
4613 Clear 9 1027 89 7000 1.79 202 20:26 29.12.2021
4614 Clear 9 1026 85 10000 2.24 135 19:31 29.12.2021
4615 Clear 11 1026 83 10000 0.89 157 18:35 29.12.2021
4616 Clear 13 1026 76 10000 0.89 248 17:42 29.12.2021
4617 Clear 13 1026 75 10000 1.34 225 17:23 29.12.2021
4618 Clear 13 1026 75 10000 1.79 162 16:21 29.12.2021
4619 Clouds 13 1026 73 10000 0.89 190 15:21 29.12.2021
4620 Clouds 10 1027 82 10000 0.45 285 12:57 29.12.2021
4621 Clouds 10 1027 84 10000 0.89 90 12:32 29.12.2021
4622 Clouds 9 1028 90 10000 1.79 45 11:22 29.12.2021
4623 Clouds 8 1027 91 10000 1.34 23 09:24 29.12.2021
4624 Mist 7 1026 95 4500 1.79 90 07:30 29.12.2021
4625 Fog 7 1026 94 500 0.89 90 06:32 29.12.2021
4626 Fog 7 1026 94 150 1.34 45 05:55 29.12.2021
4627 Fog 8 1026 96 200 0.45 68 04:57 29.12.2021
4628 Clear 8 1025 94 10000 2.24 248 00:43 29.12.2021
4629 Clear 9 1025 92 10000 0.89 248 23:58 28.12.2021
4630 Clear 9 1025 90 10000 1.34 248 22:57 28.12.2021
4631 Clear 10 1025 91 10000 2.68 270 22:25 28.12.2021
4632 Clear 10 1025 91 10000 2.68 270 22:25 28.12.2021
4633 Clear 10 1025 91 10000 2.68 270 22:25 28.12.2021
4634 Clear 10 1025 89 10000 2.68 248 21:54 28.12.2021
4635 Clear 10 1025 90 10000 2.68 248 21:54 28.12.2021
4636 Clear 10 1024 90 10000 1.34 225 21:35 28.12.2021
4637 Clear 11 1025 87 10000 3.58 248 20:25 28.12.2021
4638 Clear 12 1024 83 10000 1.34 225 18:54 28.12.2021
4639 Clear 12 1024 80 10000 1.79 225 18:27 28.12.2021
4640 Clear 13 1024 75 10000 2.24 225 17:39 28.12.2021
4641 Clouds 15 1023 74 10000 4.02 248 16:21 28.12.2021
4642 Clouds 15 1023 72 10000 3.13 248 15:41 28.12.2021
4643 Clouds 14 1023 73 10000 3.58 225 14:56 28.12.2021
4644 Clouds 14 1023 73 10000 2.68 225 14:38 28.12.2021
4645 Clouds 14 1023 74 10000 2.68 225 14:38 28.12.2021
4646 Clouds 14 1023 74 10000 3.58 248 14:19 28.12.2021
4647 Clouds 14 1024 75 10000 2.68 225 13:37 28.12.2021
4648 Clouds 13 1024 77 10000 4.47 225 12:56 28.12.2021
4649 Clouds 12 1024 82 10000 4.02 225 12:21 28.12.2021
4650 Clouds 10 1023 92 10000 3.58 248 10:51 28.12.2021
4651 Clear 9 1021 91 10000 3.13 248 07:39 28.12.2021
4652 Clear 10 1021 88 10000 1.79 248 03:37 28.12.2021
4653 Clear 10 1019 87 10000 3.13 248 23:41 27.12.2021
4654 Clear 10 1019 83 10000 4.47 225 22:31 27.12.2021
4655 Clear 11 1018 81 10000 3.58 248 21:32 27.12.2021
4656 Clear 11 1018 79 10000 3.13 225 20:40 27.12.2021
4657 Clear 11 1018 77 10000 3.58 225 19:55 27.12.2021
4658 Clear 12 1018 78 10000 3.13 248 19:37 27.12.2021
4659 Clear 13 1017 72 10000 3.13 225 17:55 27.12.2021
4660 Clear 13 1017 72 10000 3.13 225 17:55 27.12.2021
4661 Clear 13 1017 73 10000 5.81 248 17:29 27.12.2021
4662 Clouds 14 1016 70 10000 8.05 248 16:32 27.12.2021
4663 Clouds 14 1016 71 10000 3.58 248 15:50 27.12.2021
4664 Clouds 14 1017 73 10000 5.81 270 14:29 27.12.2021
4665 Clouds 13 1017 78 10000 4.92 248 13:32 27.12.2021
4666 Clouds 12 1017 88 10000 4.02 225 11:34 27.12.2021
4667 Clouds 12 1015 90 10000 2.24 248 10:27 27.12.2021
4668 Clouds 11 1015 93 10000 2.24 225 09:38 27.12.2021
4669 Clouds 12 1012 96 10000 2.68 248 07:35 27.12.2021
4670 Mist 12 1012 95 4700 1.34 225 06:30 27.12.2021
4671 Mist 12 1012 95 4700 1.34 248 06:30 27.12.2021
4672 Mist 12 1012 96 2200 3.13 203 01:59 27.12.2021
4673 Clouds 11 1012 95 9000 0.45 248 23:52 26.12.2021
4674 Clouds 10 1012 97 10000 2.24 248 23:34 26.12.2021
4675 Drizzle 10 1012 96 9000 0.45 248 21:48 26.12.2021
4676 Drizzle 10 1012 96 4000 0.89 203 20:31 26.12.2021
4677 Mist 10 1012 97 4000 2.68 203 19:31 26.12.2021
4678 Drizzle 10 1011 97 6000 2.68 203 18:23 26.12.2021
4679 Rain 9 1012 94 7000 2.68 203 15:56 26.12.2021
4680 Clouds 10 1013 93 10000 3.58 203 13:52 26.12.2021
4681 Rain 10 1013 93 9000 1.34 203 13:32 26.12.2021
4682 Clouds 10 1014 94 10000 2.24 203 12:38 26.12.2021
4683 Clouds 10 1014 95 9000 0.45 270 11:58 26.12.2021
4684 Rain 9 1013 96 6000 0.45 248 09:52 26.12.2021
4685 Fog 9 1013 96 500 2.24 225 09:18 26.12.2021
4686 Fog 9 1012 94 500 3.58 248 08:40 26.12.2021
4687 Fog 9 1012 97 400 2.24 270 07:25 26.12.2021
4688 Mist 9 1009 96 1800 0.45 226 00:59 26.12.2021
4689 Fog 9 1009 96 300 0.45 54 23:53 25.12.2021
4690 Fog 9 1009 95 450 0.45 22 23:27 25.12.2021
4691 Mist 9 1009 95 2500 0.45 10 22:23 25.12.2021
4692 Mist 9 1008 95 2700 1.34 45 20:48 25.12.2021
4693 Drizzle 10 1008 95 6000 1.34 23 19:23 25.12.2021
4694 Mist 10 1007 94 2500 1.34 23 18:54 25.12.2021
4695 Mist 10 1007 94 3000 0.45 158 17:32 25.12.2021
4696 Mist 10 1006 94 3000 0.45 135 16:36 25.12.2021
4697 Mist 10 1007 94 10000 1.34 135 14:46 25.12.2021
4698 Clouds 9 1007 94 3000 0.45 135 13:30 25.12.2021
4699 Clouds 9 1008 93 8000 0.45 135 11:46 25.12.2021
4700 Mist 9 1008 95 4500 0.45 158 09:51 25.12.2021
4701 Mist 8 1008 96 4000 0.45 158 08:38 25.12.2021
4702 Clear 8 1008 94 10000 1.34 135 04:34 25.12.2021
4703 Clouds 9 1009 94 10000 4.02 203 01:23 25.12.2021
4704 Clouds 9 1009 94 7000 0.45 158 23:40 24.12.2021
4705 Clouds 11 1010 92 10000 2.24 225 19:45 24.12.2021
4706 Clouds 11 1010 92 10000 2.24 225 19:23 24.12.2021
4707 Clouds 11 1010 93 9000 0.45 158 16:53 24.12.2021
4708 Clouds 11 1010 93 10000 1.79 135 16:22 24.12.2021
4709 Clouds 11 1010 95 6000 0.45 203 15:48 24.12.2021
4710 Mist 11 1011 94 4500 1.34 180 14:47 24.12.2021
4711 Drizzle 11 1011 95 7000 0.89 158 14:26 24.12.2021
4712 Mist 11 1012 95 4000 1.79 135 13:41 24.12.2021
4713 Mist 10 1013 94 4000 0.89 135 12:49 24.12.2021
4714 Mist 10 1013 94 4000 0.45 203 12:20 24.12.2021
4715 Mist 10 1014 95 5000 1.34 226 11:29 24.12.2021
4716 Mist 10 1014 95 5000 1.79 201 10:59 24.12.2021
4717 Mist 10 1014 96 9000 2.68 201 10:31 24.12.2021
4718 Drizzle 10 1014 97 6000 1.79 200 08:28 24.12.2021
4719 Mist 10 1014 97 5000 0.89 270 07:57 24.12.2021
4720 Mist 10 1014 97 2500 1.79 200 06:18 24.12.2021
4721 Mist 10 1017 95 2500 0.89 135 00:20 24.12.2021
4722 Mist 10 1017 95 3800 1.34 135 23:33 23.12.2021
4723 Mist 10 1018 95 2200 1.34 113 22:44 23.12.2021
4724 Mist 10 1018 95 3500 1.79 113 22:21 23.12.2021
4725 Mist 10 1018 95 3600 0.45 113 21:34 23.12.2021
4726 Clouds 10 1018 92 3000 0.89 59 20:21 23.12.2021
4727 Clouds 10 1018 92 4000 0.89 45 19:27 23.12.2021
4728 Mist 11 1018 89 4500 1.34 33 17:58 23.12.2021
4729 Mist 11 1018 87 4000 0.45 112 17:18 23.12.2021
4730 Drizzle 11 1018 83 10000 0.89 158 16:26 23.12.2021
4731 Drizzle 11 1018 82 10000 1.79 135 15:32 23.12.2021
4732 Clouds 11 1019 82 10000 2.68 135 14:58 23.12.2021
4733 Clouds 11 1019 82 10000 1.34 113 14:38 23.12.2021
4734 Clouds 11 1020 82 10000 1.79 135 13:25 23.12.2021
4735 Clouds 9 1021 89 8000 0.89 135 11:20 23.12.2021
4736 Clouds 7 1021 92 9000 1.03 0 09:53 23.12.2021
4737 Clouds 7 1021 92 9000 0.45 13 09:33 23.12.2021
4738 Mist 7 1020 92 9000 0.89 113 08:25 23.12.2021
4739 Mist 7 1020 91 2200 0.89 147 05:23 23.12.2021
4740 Fog 8 1021 92 150 1.34 220 00:34 23.12.2021
4741 Mist 9 1020 92 1600 0.51 0 22:50 22.12.2021
4742 Clouds 10 1020 90 9000 0.89 270 21:59 22.12.2021
4743 Clear 10 1020 90 10000 0.89 293 21:30 22.12.2021
4744 Clouds 10 1020 88 10000 1.34 254 20:58 22.12.2021
4745 Clouds 11 1020 87 10000 1.34 254 20:40 22.12.2021
4746 Clouds 11 1020 83 10000 1.34 211 19:42 22.12.2021
4747 Clouds 13 1019 78 10000 2.68 203 18:25 22.12.2021
4748 Clouds 13 1019 75 10000 1.79 203 17:38 22.12.2021
4749 Clouds 13 1019 76 10000 2.68 180 15:50 22.12.2021
4750 Clouds 13 1020 83 10000 2.24 135 14:23 22.12.2021
4751 Clouds 12 1021 81 10000 2.24 135 12:53 22.12.2021
4752 Clouds 11 1021 83 9000 3.13 135 11:39 22.12.2021
4753 Clouds 9 1021 91 8000 0.45 158 09:52 22.12.2021
4754 Clouds 9 1020 91 8000 1.34 54 07:56 22.12.2021
4755 Mist 8 1020 92 4100 0.89 113 05:51 22.12.2021
4756 Mist 8 1020 92 7000 1.34 113 05:33 22.12.2021
4757 Mist 8 1020 93 4400 0.45 90 04:57 22.12.2021
4758 Clouds 8 1020 92 8000 0.45 90 04:37 22.12.2021
4759 Clouds 8 1020 89 8000 2.24 45 03:37 22.12.2021
4760 Clouds 8 1020 90 7000 1.79 68 03:18 22.12.2021
4761 Clouds 9 1021 89 8000 1.34 25 23:48 21.12.2021
4762 Mist 9 1021 88 8000 0.89 39 22:41 21.12.2021
4763 Mist 9 1021 87 7000 0.45 12 21:56 21.12.2021
4764 Mist 9 1021 87 8000 0.89 17 21:32 21.12.2021
4765 Clear 10 1020 84 10000 0.89 1 20:24 21.12.2021
4766 Clear 10 1020 83 10000 0.89 56 19:55 21.12.2021
4767 Clouds 10 1020 83 10000 0.89 65 19:33 21.12.2021
4768 Clouds 11 1020 80 10000 0.45 84 18:23 21.12.2021
4769 Clouds 11 1020 79 10000 0.89 86 17:53 21.12.2021
4770 Clouds 12 1020 77 10000 0.45 63 16:47 21.12.2021
4771 Clouds 12 1020 75 10000 0.89 80 15:34 21.12.2021
4772 Clouds 11 1021 78 10000 0.45 141 14:20 21.12.2021
4773 Clouds 11 1022 78 10000 0.89 199 13:41 21.12.2021
4774 Clouds 11 1022 81 10000 0.45 90 12:25 21.12.2021
4775 Clouds 8 1022 87 10000 0.45 68 10:38 21.12.2021
4776 Mist 8 1022 89 9000 0.45 68 09:42 21.12.2021
4777 Mist 7 1021 89 9000 1.34 18 08:55 21.12.2021
4778 Fog 7 1021 89 10000 0.89 36 07:42 21.12.2021
4779 Mist 7 1021 88 10000 0.45 55 07:19 21.12.2021
4780 Clouds 8 1021 90 10000 0.89 46 03:24 21.12.2021
4781 Drizzle 8 1021 86 10000 0.89 23 01:20 21.12.2021
4782 Clouds 8 1021 87 10000 0.45 68 23:54 20.12.2021
4783 Clouds 8 1021 85 10000 0.89 45 22:35 20.12.2021
4784 Clouds 8 1021 87 10000 1.34 44 21:51 20.12.2021
4785 Clouds 8 1022 85 10000 0.89 36 21:24 20.12.2021
4786 Clouds 8 1022 85 10000 1.34 17 20:51 20.12.2021
4787 Drizzle 8 1022 83 10000 1.34 27 20:19 20.12.2021
4788 Clouds 9 1022 82 10000 0.89 30 19:36 20.12.2021
4789 Clouds 9 1022 80 10000 0.45 6 19:18 20.12.2021
4790 Clear 9 1022 79 10000 0.45 225 18:30 20.12.2021
4791 Clouds 10 1021 78 10000 0.45 357 17:49 20.12.2021
4792 Clouds 10 1021 78 10000 0.45 357 17:49 20.12.2021
4793 Clear 10 1021 73 10000 1.34 89 16:46 20.12.2021
4794 Clear 10 1022 71 10000 0.45 0 15:57 20.12.2021
4795 Clear 10 1022 72 10000 0.45 90 15:31 20.12.2021
4796 Clouds 9 1023 78 10000 1.34 83 13:31 20.12.2021
4797 Clouds 7 1024 82 10000 1.34 52 12:30 20.12.2021
4798 Clear 5 1023 86 10000 1.79 68 10:36 20.12.2021
4799 Clear 4 1023 88 10000 1.34 23 09:39 20.12.2021
4800 Clear 4 1023 87 10000 1.34 59 08:49 20.12.2021
4801 Clear 4 1023 88 10000 1.34 53 08:31 20.12.2021
4802 Clear 3 1022 91 10000 0.89 50 07:32 20.12.2021
4803 Clear 3 1022 90 10000 1.79 75 06:32 20.12.2021
4804 Clear 6 1023 81 10000 0.89 64 00:20 20.12.2021
4805 Clear 6 1023 82 10000 0.45 20 22:56 19.12.2021
4806 Clear 7 1023 82 10000 0.45 34 22:24 19.12.2021
4807 Clear 8 1023 80 10000 0.89 74 21:32 19.12.2021
4808 Clear 8 1023 77 10000 0.89 70 20:36 19.12.2021
4809 Clear 8 1023 76 10000 0.89 68 19:53 19.12.2021
4810 Clear 8 1023 76 10000 1.79 68 19:34 19.12.2021
4811 Clouds 10 1023 71 10000 0.45 45 18:35 19.12.2021
4812 Clouds 10 1023 70 10000 0.89 23 17:53 19.12.2021
4813 Clouds 11 1023 67 10000 2.68 45 17:28 19.12.2021
4814 Clouds 11 1023 66 10000 2.24 23 16:27 19.12.2021
4815 Clouds 11 1023 65 10000 0.89 90 15:51 19.12.2021
4816 Clouds 11 1024 66 10000 2.24 45 15:23 19.12.2021
4817 Clouds 11 1024 67 10000 0.45 90 14:45 19.12.2021
4818 Clouds 10 1025 73 10000 0.89 45 13:26 19.12.2021
4819 Clouds 10 1026 73 10000 0.89 113 12:50 19.12.2021
4820 Clouds 10 1026 73 10000 0.45 113 12:28 19.12.2021
4821 Clouds 9 1027 77 10000 1.79 32 11:33 19.12.2021
4822 Clouds 8 1027 77 10000 1.34 90 10:47 19.12.2021
4823 Clouds 8 1027 77 10000 0.45 68 10:21 19.12.2021
4824 Clouds 8 1027 78 10000 0.89 45 08:46 19.12.2021
4825 Clouds 8 1027 78 10000 2.24 90 05:37 19.12.2021
4826 Clouds 8 1028 72 10000 0.89 47 01:39 19.12.2021
4827 Clouds 8 1028 70 10000 1.79 68 00:53 19.12.2021
4828 Clear 9 1028 68 10000 1.34 45 22:50 18.12.2021
4829 Clouds 9 1028 67 10000 1.34 45 22:24 18.12.2021
4830 Clear 9 1028 67 10000 1.79 45 21:41 18.12.2021
4831 Clear 9 1028 67 10000 2.68 68 21:22 18.12.2021
4832 Clouds 9 1028 66 10000 0.89 45 20:25 18.12.2021
4833 Clouds 9 1028 64 10000 1.34 68 19:27 18.12.2021
4834 Clouds 10 1027 63 10000 0.89 90 18:23 18.12.2021
4835 Clouds 10 1027 62 10000 1.79 68 17:49 18.12.2021
4836 Clouds 10 1027 61 10000 0.89 90 16:27 18.12.2021
4837 Clouds 10 1027 61 10000 3.13 90 15:48 18.12.2021
4838 Clouds 10 1027 62 10000 0.89 45 14:51 18.12.2021
4839 Clear 9 1028 66 10000 0.89 113 13:29 18.12.2021
4840 Clear 7 1029 72 10000 1.34 23 11:47 18.12.2021
4841 Clear 4 1028 77 10000 0.45 45 09:52 18.12.2021
4842 Clear 3 1028 78 10000 2.24 59 09:30 18.12.2021
4843 Clear 2 1028 80 10000 2.68 45 08:35 18.12.2021
4844 Clear 4 1027 78 10000 0.89 38 06:27 18.12.2021
4845 Clear 6 1027 75 10000 0.89 158 00:34 18.12.2021
4846 Clear 6 1027 74 10000 1.34 158 23:46 17.12.2021
4847 Clear 7 1027 69 10000 0.51 0 22:18 17.12.2021
4848 Clear 7 1027 70 10000 0.89 113 21:23 17.12.2021
4849 Clear 7 1027 70 10000 0.89 113 20:42 17.12.2021
4850 Clear 8 1027 68 10000 0.89 158 19:50 17.12.2021
4851 Clear 9 1026 62 10000 0.89 173 18:39 17.12.2021
4852 Clear 11 1026 54 10000 0.45 135 17:46 17.12.2021
4853 Clear 12 1026 50 10000 2.24 90 16:50 17.12.2021
4854 Clear 12 1026 50 10000 2.24 113 16:26 17.12.2021
4855 Clear 12 1027 45 10000 1.34 135 15:25 17.12.2021
4856 Clear 12 1027 44 10000 2.24 113 14:41 17.12.2021
4857 Clear 10 1028 50 10000 1.34 23 13:30 17.12.2021
4858 Clear 8 1028 54 10000 0.89 23 12:21 17.12.2021
4859 Clear 5 1028 73 10000 0.51 0 10:39 17.12.2021
4860 Clear 2 1028 81 10000 0 0 09:44 17.12.2021
4861 Clear 2 1027 77 10000 0 0 08:31 17.12.2021
4862 Clear 3 1028 76 10000 0.89 113 07:18 17.12.2021
4863 Clear 4 1028 77 10000 0.45 90 04:40 17.12.2021
4864 Clear 6 1028 76 10000 0.45 90 23:58 16.12.2021
4865 Clear 7 1028 72 10000 2.24 113 22:24 16.12.2021
4866 Clear 7 1028 72 10000 2.24 113 22:24 16.12.2021
4867 Clear 7 1028 71 10000 3.13 135 22:23 16.12.2021
4868 Clear 7 1028 72 10000 2.24 113 22:23 16.12.2021
4869 Clear 7 1028 69 10000 1.79 149 21:45 16.12.2021
4870 Clear 7 1027 67 10000 0.45 168 20:57 16.12.2021
4871 Clear 8 1027 63 10000 0.89 158 20:27 16.12.2021
4872 Clear 9 1027 60 10000 0.45 135 19:35 16.12.2021
4873 Clear 10 1027 55 10000 0.89 135 18:37 16.12.2021
4874 Clear 12 1026 50 10000 0.45 113 17:49 16.12.2021
4875 Clear 12 1026 49 10000 0.45 90 17:19 16.12.2021
4876 Clear 12 1026 51 10000 1.34 68 16:20 16.12.2021
4877 Clear 12 1027 54 10000 0.45 45 14:50 16.12.2021
4878 Clear 10 1028 64 10000 1.34 158 12:48 16.12.2021
4879 Clear 7 1029 64 10000 2.68 180 11:19 16.12.2021
4880 Clear 6 1028 65 10000 0.45 135 10:46 16.12.2021
4881 Clear 4 1028 70 10000 0.89 135 09:59 16.12.2021
4882 Clear 4 1027 66 10000 0.89 61 07:21 16.12.2021
4883 Clear 4 1026 63 10000 1.34 45 06:19 16.12.2021
4884 Clear 7 1026 57 10000 1.79 29 00:53 16.12.2021
4885 Clear 8 1026 55 10000 1.34 22 23:22 15.12.2021
4886 Clear 9 1026 52 10000 0.45 180 22:29 15.12.2021
4887 Clear 9 1025 50 10000 1.79 223 21:52 15.12.2021
4888 Clear 9 1025 50 10000 1.34 225 21:26 15.12.2021
4889 Clear 10 1025 47 10000 0 0 19:55 15.12.2021
4890 Clear 11 1025 46 10000 0 0 19:35 15.12.2021
4891 Clear 12 1025 43 10000 0 0 18:36 15.12.2021
4892 Clear 14 1024 36 10000 1.03 110 17:49 15.12.2021
4893 Clear 15 1024 33 10000 0 0 17:27 15.12.2021
4894 Clear 17 1024 28 10000 0.89 39 16:26 15.12.2021
4895 Clear 17 1024 28 10000 1.03 0 15:45 15.12.2021
4896 Clear 17 1024 29 10000 1.03 0 15:27 15.12.2021
4897 Clear 15 1025 36 10000 0.45 68 13:59 15.12.2021
4898 Clear 13 1026 45 10000 0.89 45 12:24 15.12.2021
4899 Clear 8 1026 54 10000 1.79 23 10:24 15.12.2021
4900 Clear 6 1026 58 10000 2.68 23 08:48 15.12.2021
4901 Clear 6 1026 62 10000 2.24 45 06:45 15.12.2021
4902 Clear 7 1025 67 10000 2.24 45 00:52 15.12.2021
4903 Clear 8 1025 62 10000 0.45 90 23:41 14.12.2021
4904 Clear 9 1025 62 10000 1.34 45 22:48 14.12.2021
4905 Clear 9 1025 65 10000 2.24 28 22:18 14.12.2021
4906 Clear 10 1025 61 10000 0.51 350 20:27 14.12.2021
4907 Clear 11 1025 57 10000 0.51 0 19:40 14.12.2021
4908 Clear 13 1025 53 10000 0.51 0 18:44 14.12.2021
4909 Clear 14 1025 47 10000 0.51 0 17:58 14.12.2021
4910 Clear 16 1025 42 10000 1.03 0 17:28 14.12.2021
4911 Clear 16 1025 40 10000 1.54 40 16:38 14.12.2021
4912 Clear 16 1025 43 10000 0.45 90 15:26 14.12.2021
4913 Clear 14 1026 55 10000 0.89 45 13:31 14.12.2021
4914 Clear 11 1027 62 10000 0.89 90 11:58 14.12.2021
4915 Clear 9 1027 65 10000 0.89 23 11:23 14.12.2021
4916 Clear 6 1027 73 10000 1.79 45 09:57 14.12.2021
4917 Clear 5 1027 77 10000 2.68 45 09:35 14.12.2021
4918 Clear 4 1026 79 10000 0.89 45 08:25 14.12.2021
4919 Clear 4 1026 78 10000 3.13 45 07:43 14.12.2021
4920 Clear 6 1026 78 10000 2.68 45 02:27 14.12.2021
4921 Clear 7 1025 82 10000 0.89 45 22:55 13.12.2021
4922 Clear 8 1025 82 10000 0.45 248 21:52 13.12.2021
4923 Clear 8 1025 79 10000 0 0 20:59 13.12.2021
4924 Clear 9 1025 78 10000 0.45 357 20:38 13.12.2021
4925 Clear 9 1025 81 10000 0 0 19:52 13.12.2021
4926 Clear 12 1025 66 10000 1.03 160 17:56 13.12.2021
4927 Clear 14 1024 60 10000 0.45 68 17:26 13.12.2021
4928 Clear 14 1024 60 10000 0.89 113 15:51 13.12.2021
4929 Clear 14 1024 60 10000 0.89 90 15:20 13.12.2021
4930 Clear 11 1025 70 10000 1.34 43 13:39 13.12.2021
4931 Clear 10 1026 73 10000 0.89 113 12:46 13.12.2021
4932 Clear 10 1026 74 10000 1.79 55 12:46 13.12.2021
4933 Clear 9 1027 77 10000 0.45 90 11:54 13.12.2021
4934 Clear 8 1027 79 10000 1.79 32 11:35 13.12.2021
4935 Clear 7 1027 80 10000 0.45 45 10:44 13.12.2021
4936 Clear 4 1026 85 10000 2.24 26 09:29 13.12.2021
4937 Clear 3 1026 87 10000 0.45 90 07:46 13.12.2021
4938 Clear 4 1025 84 10000 1.34 68 05:35 13.12.2021
4939 Clear 5 1026 85 10000 1.34 37 03:26 13.12.2021
4940 Clear 7 1026 84 10000 1.34 29 22:23 12.12.2021
4941 Clear 8 1026 81 10000 0.45 90 21:38 12.12.2021
4942 Clear 9 1026 79 10000 0.45 184 19:57 12.12.2021
4943 Clear 11 1025 74 10000 0.45 225 18:36 12.12.2021
4944 Clear 11 1025 74 10000 0.45 225 18:36 12.12.2021
4945 Clear 13 1025 65 10000 0.45 176 17:31 12.12.2021
4946 Clear 14 1025 62 10000 0.45 225 16:27 12.12.2021
4947 Clear 14 1025 64 10000 0.89 203 15:45 12.12.2021
4948 Clear 14 1025 64 10000 0.45 188 15:25 12.12.2021
4949 Clear 13 1026 66 10000 0.89 168 14:34 12.12.2021
4950 Clear 12 1027 71 10000 0.45 135 13:26 12.12.2021
4951 Clear 10 1027 77 10000 1.34 83 12:30 12.12.2021
4952 Clear 9 1028 81 10000 0.89 90 11:44 12.12.2021
4953 Clear 8 1028 83 10000 0.89 23 11:20 12.12.2021
4954 Fog 6 1027 87 10000 1.34 90 10:22 12.12.2021
4955 Fog 5 1027 89 10000 0.89 62 08:58 12.12.2021
4956 Fog 4 1027 95 10000 0.89 79 07:57 12.12.2021
4957 Fog 6 1026 88 10000 0.45 26 05:57 12.12.2021
4958 Clear 6 1026 87 10000 0.89 45 04:56 12.12.2021
4959 Clear 8 1026 85 10000 0.45 2 03:31 12.12.2021
4960 Clear 10 1026 82 10000 1.79 65 23:44 11.12.2021
4961 Clear 11 1026 78 10000 1.79 77 22:22 11.12.2021
4962 Clear 11 1026 74 10000 2.24 38 21:51 11.12.2021
4963 Clear 12 1025 73 10000 1.79 64 20:51 11.12.2021
4964 Clear 13 1025 66 10000 2.06 300 19:27 11.12.2021
4965 Clear 13 1025 64 10000 3.09 290 18:52 11.12.2021
4966 Clear 15 1024 60 10000 2.57 270 18:21 11.12.2021
4967 Clear 16 1024 54 10000 2.57 280 17:21 11.12.2021
4968 Clouds 16 1024 54 10000 3.09 280 15:53 11.12.2021
4969 Clear 16 1023 54 10000 3.09 310 15:28 11.12.2021
4970 Clear 14 1024 60 10000 0.45 203 12:57 11.12.2021
4971 Clear 12 1025 64 10000 1.34 137 11:25 11.12.2021
4972 Clear 8 1023 73 10000 0.89 179 09:46 11.12.2021
4973 Clear 7 1022 74 10000 0.89 158 08:23 11.12.2021
4974 Clear 10 1021 59 10000 3.13 315 02:29 11.12.2021
4975 Clear 10 1021 58 10000 6.26 315 00:36 11.12.2021
4976 Clear 11 1020 58 10000 6.71 315 23:21 10.12.2021
4977 Clear 11 1020 58 10000 7.15 315 21:56 10.12.2021
4978 Clear 12 1019 56 10000 7.15 315 21:28 10.12.2021
4979 Clouds 13 1019 56 10000 5.81 315 19:21 10.12.2021
4980 Clouds 14 1018 56 10000 6.26 270 18:21 10.12.2021
4981 Clouds 15 1018 53 10000 5.36 270 16:56 10.12.2021
4982 Clouds 15 1017 55 10000 6.26 248 16:28 10.12.2021
4983 Clouds 16 1017 55 10000 4.92 248 15:41 10.12.2021
4984 Clouds 15 1018 58 10000 2.24 225 15:21 10.12.2021
4985 Clouds 15 1019 61 10000 4.92 225 13:52 10.12.2021
4986 Clouds 14 1019 64 10000 2.68 158 13:26 10.12.2021
4987 Clouds 14 1019 68 10000 3.13 180 12:39 10.12.2021
4988 Clouds 12 1019 72 10000 2.24 225 11:29 10.12.2021
4989 Clouds 11 1019 73 10000 2.68 180 10:37 10.12.2021
4990 Clouds 9 1018 83 10000 4.47 203 08:57 10.12.2021
4991 Clear 8 1017 82 10000 5.81 248 06:56 10.12.2021
4992 Clear 9 1019 73 10000 8.05 248 02:48 10.12.2021
4993 Clear 10 1020 67 10000 4.92 293 00:38 10.12.2021
4994 Clear 10 1020 67 10000 6.26 270 23:23 09.12.2021
4995 Clear 10 1020 66 10000 5.36 270 22:28 09.12.2021
4996 Clear 10 1020 68 10000 3.13 270 21:59 09.12.2021
4997 Clear 11 1020 66 10000 3.58 225 21:19 09.12.2021
4998 Clouds 11 1020 66 10000 11.18 293 20:28 09.12.2021
4999 Clouds 11 1020 66 10000 6.71 248 19:22 09.12.2021
5000 Clouds 12 1020 68 10000 4.02 248 18:49 09.12.2021
5001 Clouds 12 1020 68 10000 6.26 203 17:57 09.12.2021
5002 Clouds 12 1020 69 10000 3.58 225 17:27 09.12.2021
5003 Clouds 12 1020 69 10000 3.13 248 16:56 09.12.2021
5004 Clouds 12 1019 68 10000 4.92 270 15:57 09.12.2021
5005 Clouds 12 1019 68 10000 7.15 270 14:50 09.12.2021
5006 Clouds 10 1020 74 10000 2.24 180 13:25 09.12.2021
5007 Clouds 10 1020 75 10000 3.13 180 12:47 09.12.2021
5008 Clouds 8 1021 76 10000 4.47 203 11:24 09.12.2021
5009 Clouds 6 1021 75 10000 3.13 270 09:44 09.12.2021
5010 Clear 6 1019 66 10000 2.24 203 06:51 09.12.2021
5011 Clear 6 1019 63 10000 6.71 270 03:46 09.12.2021
5012 Clouds 6 1019 63 10000 4.02 270 23:46 08.12.2021
5013 Clouds 6 1019 62 10000 4.92 293 23:26 08.12.2021
5014 Clouds 6 1018 60 10000 4.92 270 22:50 08.12.2021
5015 Clear 6 1003 63 10000 2.68 293 21:46 08.12.2021
5016 Clouds 6 1003 64 10000 4.47 293 21:28 08.12.2021
5017 Clouds 6 1002 67 10000 3.58 293 20:19 08.12.2021
5018 Clouds 6 1004 73 10000 5.36 293 19:39 08.12.2021
5019 Clouds 6 1016 76 10000 4.92 270 18:53 08.12.2021
5020 Clouds 6 1016 76 10000 3.58 270 18:53 08.12.2021
5021 Clouds 6 1016 73 10000 4.47 270 17:52 08.12.2021
5022 Clouds 7 1015 58 10000 6.26 270 15:59 08.12.2021
5023 Clouds 8 1014 53 10000 4.92 248 15:31 08.12.2021
5024 Clouds 8 1015 52 10000 8.49 293 14:52 08.12.2021
5025 Clouds 8 1015 50 10000 4.47 293 12:39 08.12.2021
5026 Clouds 7 1002 59 10000 7.15 248 10:36 08.12.2021
5027 Clouds 7 1014 64 10000 4.92 293 09:31 08.12.2021
5028 Clouds 7 1013 68 10000 6.71 293 07:37 08.12.2021
5029 Clouds 8 997 62 10000 5.36 248 04:58 08.12.2021
5030 Clouds 10 1012 92 8000 4.47 203 23:56 07.12.2021
5031 Clouds 11 998 89 10000 5.36 248 22:37 07.12.2021
5032 Clouds 10 999 91 10000 5.36 225 21:24 07.12.2021
5033 Drizzle 10 1014 91 10000 3.58 225 20:25 07.12.2021
5034 Clouds 11 1015 88 10000 2.68 203 18:57 07.12.2021
5035 Clouds 10 1014 89 10000 2.24 203 18:19 07.12.2021
5036 Clouds 10 1015 93 10000 3.13 225 17:20 07.12.2021
5037 Clouds 9 1003 94 10000 4.02 248 16:37 07.12.2021
5038 Mist 9 1004 96 2000 1.79 225 15:37 07.12.2021
5039 Mist 9 1005 95 2000 1.34 225 14:37 07.12.2021
5040 Fog 8 1007 94 800 1.34 225 13:29 07.12.2021
5041 Fog 7 1021 93 300 3.13 196 12:21 07.12.2021
5042 Fog 6 1022 92 300 0.89 149 10:45 07.12.2021
5043 Fog 4 1010 93 500 1.34 226 09:19 07.12.2021
5044 Clear 5 1023 89 10000 1.34 78 06:39 07.12.2021
5045 Clear 5 1023 88 10000 1.34 51 05:47 07.12.2021
5046 Clear 7 1024 85 10000 1.79 213 01:43 07.12.2021
5047 Clear 9 1024 82 10000 1.79 173 23:21 06.12.2021
5048 Clear 9 1024 77 10000 1.79 248 22:40 06.12.2021
5049 Clear 9 1010 75 10000 2.24 248 21:59 06.12.2021
5050 Clear 10 1010 74 10000 3.13 270 21:21 06.12.2021
5051 Clear 11 1010 70 10000 3.13 293 20:32 06.12.2021
5052 Clouds 11 1011 65 10000 0.45 225 19:24 06.12.2021
5053 Clouds 11 1024 61 10000 3.58 293 18:31 06.12.2021
5054 Clear 12 1024 60 10000 3.13 293 17:53 06.12.2021
5055 Clear 13 1024 57 10000 4.02 293 17:30 06.12.2021
5056 Clear 13 1024 51 10000 5.36 270 15:51 06.12.2021
5057 Clear 12 1012 52 10000 6.26 293 13:53 06.12.2021
5058 Clear 11 1025 56 10000 3.58 293 12:40 06.12.2021
5059 Clear 10 1026 59 10000 3.58 315 11:55 06.12.2021
5060 Clear 6 1024 72 10000 4.02 270 09:44 06.12.2021
5061 Clear 6 1011 76 10000 1.34 270 07:18 06.12.2021
5062 Clouds 8 1023 62 10000 2.68 293 00:38 06.12.2021
5063 Clear 9 1022 59 10000 4.02 315 22:20 05.12.2021
5064 Clouds 9 1021 58 10000 4.92 293 21:25 05.12.2021
5065 Clouds 10 1006 60 10000 4.92 270 20:20 05.12.2021
5066 Clouds 10 1008 59 10000 6.71 293 19:58 05.12.2021
5067 Clouds 10 1008 58 10000 3.58 270 19:23 05.12.2021
5068 Clouds 10 1007 54 10000 5.81 270 18:26 05.12.2021
5069 Clouds 10 1007 52 10000 4.92 293 17:49 05.12.2021
5070 Clouds 11 1019 50 10000 6.71 270 16:58 05.12.2021
5071 Clouds 11 1019 49 10000 6.26 293 16:28 05.12.2021
5072 Clouds 11 1019 50 10000 4.92 293 15:59 05.12.2021
5073 Clouds 11 1020 49 10000 6.71 270 14:48 05.12.2021
5074 Clouds 11 1020 49 10000 6.71 315 14:29 05.12.2021
5075 Clouds 11 1020 51 10000 6.26 315 13:32 05.12.2021
5076 Clouds 10 1020 53 10000 9.39 315 12:41 05.12.2021
5077 Clouds 10 1020 52 10000 5.81 270 12:23 05.12.2021
5078 Clouds 9 1021 56 10000 6.26 315 11:41 05.12.2021
5079 Clear 7 1021 60 10000 0.89 203 10:21 05.12.2021
5080 Clear 6 1020 65 10000 0.45 248 09:26 05.12.2021
5081 Clouds 7 1020 64 10000 4.47 293 04:57 05.12.2021
5082 Clear 8 1021 66 10000 1.79 248 01:23 05.12.2021
5083 Clouds 7 1021 87 10000 1.79 248 22:42 04.12.2021
5084 Clear 8 1021 85 10000 1.34 248 21:37 04.12.2021
5085 Clear 8 1021 86 10000 3.13 248 20:46 04.12.2021
5086 Clouds 9 1021 88 10000 0.45 248 19:43 04.12.2021
5087 Clouds 9 1021 88 10000 0.45 225 19:23 04.12.2021
5088 Clear 11 1021 72 10000 2.68 270 17:52 04.12.2021
5089 Clear 12 1021 71 10000 1.79 225 17:22 04.12.2021
5090 Clear 13 1021 68 10000 3.58 270 16:46 04.12.2021
5091 Clear 12 1021 68 10000 4.02 248 16:27 04.12.2021
5092 Clouds 8 1023 81 10000 1.34 203 12:44 04.12.2021
5093 Clouds 9 1023 74 10000 3.13 225 11:39 04.12.2021
5094 Clouds 8 1023 76 10000 1.79 203 10:59 04.12.2021
5095 Clear 6 1023 80 10000 4.63 240 09:42 04.12.2021
5096 Clear 4 1023 82 10000 4.63 280 08:35 04.12.2021
5097 Clear 4 1023 84 10000 1.34 248 04:43 04.12.2021
5098 Clear 5 1023 81 10000 0.45 293 03:36 04.12.2021
5099 Clear 6 1024 73 10000 1.79 270 23:47 03.12.2021
5100 Clear 6 1024 72 10000 1.79 270 22:53 03.12.2021
5101 Clear 7 1024 71 10000 3.58 248 21:57 03.12.2021
5102 Clear 7 1024 71 10000 0.89 248 21:23 03.12.2021
5103 Clear 8 1024 69 10000 1.34 249 20:42 03.12.2021
5104 Clear 9 1024 63 10000 0.45 293 19:28 03.12.2021
5105 Clear 10 1023 57 10000 2.24 293 18:24 03.12.2021
5106 Clear 12 1023 49 10000 3.6 300 17:31 03.12.2021
5107 Clear 11 1024 51 10000 0.45 158 13:40 03.12.2021
5108 Clear 10 1024 54 10000 1.34 135 12:49 03.12.2021
5109 Clear 8 1024 63 10000 1.79 248 11:23 03.12.2021
5110 Clear 4 1023 70 10000 0.45 203 09:25 03.12.2021
5111 Clear 3 1022 71 10000 0.45 248 08:20 03.12.2021
5112 Clear 3 1021 71 10000 2.24 248 07:23 03.12.2021
5113 Clear 4 1020 64 10000 0.45 203 01:43 03.12.2021
5114 Clear 5 1005 63 10000 1.34 248 00:34 03.12.2021
5115 Clear 5 1005 60 10000 0.89 225 23:40 02.12.2021
5116 Clouds 6 1005 57 10000 0.45 241 21:42 02.12.2021
5117 Clouds 6 1019 51 10000 1.34 23 20:49 02.12.2021
5118 Clouds 6 1019 50 10000 2.68 0 20:29 02.12.2021
5119 Clouds 7 1018 49 10000 1.79 23 19:23 02.12.2021
5120 Clouds 8 1016 44 10000 7.6 0 17:36 02.12.2021
5121 Clouds 9 1015 43 10000 4.02 0 15:42 02.12.2021
5122 Clouds 9 1015 44 10000 7.6 0 14:57 02.12.2021
5123 Clouds 8 1015 49 10000 7.6 0 13:54 02.12.2021
5124 Clouds 8 1015 51 10000 6.26 0 12:52 02.12.2021
5125 Clouds 8 1002 54 10000 4.02 0 11:55 02.12.2021
5126 Clouds 6 1000 73 10000 1.79 0 09:29 02.12.2021
5127 Clouds 5 1012 75 10000 1.34 51 08:27 02.12.2021
5128 Mist 6 1012 76 10000 4.47 270 03:39 02.12.2021
5129 Mist 6 1013 79 10000 5.36 293 00:51 02.12.2021
5130 Clouds 7 999 80 10000 3.13 293 22:51 01.12.2021
5131 Clouds 8 999 80 10000 4.47 293 22:23 01.12.2021
5132 Clouds 8 1000 89 10000 2.68 293 20:36 01.12.2021
5133 Clouds 8 1000 89 10000 2.68 293 20:36 01.12.2021
5134 Clouds 8 1015 89 10000 3.13 270 19:51 01.12.2021
5135 Rain 8 1015 87 7000 4.92 248 19:21 01.12.2021
5136 Clouds 9 1016 77 10000 1.79 248 17:45 01.12.2021
5137 Clouds 8 1016 78 10000 2.68 248 17:45 01.12.2021
5138 Clouds 9 1017 76 10000 0.89 203 16:40 01.12.2021
5139 Clouds 10 1019 71 10000 4.02 248 14:50 01.12.2021
5140 Clouds 9 1020 73 10000 3.13 248 13:44 01.12.2021
5141 Mist 7 1022 80 10000 2.68 203 12:30 01.12.2021
5142 Fog 4 1000 94 9000 1.34 180 10:42 01.12.2021
5143 Fog 2 1023 91 300 0.45 182 08:58 01.12.2021
5144 Fog 2 1023 91 300 1.79 135 08:26 01.12.2021
5145 Fog 2 1023 91 200 0.45 190 07:33 01.12.2021
5146 Clear 3 1023 86 10000 0.45 192 05:51 01.12.2021
5147 Clear 3 1024 86 10000 1.34 204 03:41 01.12.2021
5148 Clear 5 1026 79 10000 0.45 134 00:52 01.12.2021
5149 Clear 6 1012 78 10000 0.89 284 23:45 30.11.2021
5150 Clear 6 1012 79 10000 0.89 248 22:49 30.11.2021
5151 Clear 7 1026 76 10000 2.24 270 21:28 30.11.2021
5152 Clear 8 1026 74 10000 1.79 270 20:37 30.11.2021
5153 Clear 8 1026 71 10000 0.45 248 19:53 30.11.2021
5154 Clear 9 1026 68 10000 1.34 248 19:30 30.11.2021
5155 Clear 10 1026 63 10000 0.89 248 18:35 30.11.2021
5156 Clear 12 1026 54 10000 1.34 270 16:49 30.11.2021
5157 Clouds 12 1026 53 10000 0.89 203 15:18 30.11.2021
5158 Clouds 12 1027 59 10000 0.45 270 14:20 30.11.2021
5159 Clear 11 1027 63 10000 0.45 248 13:25 30.11.2021
5160 Clear 11 1028 64 10000 0.89 164 12:45 30.11.2021
5161 Clear 8 1028 75 10000 0.89 61 11:27 30.11.2021
5162 Clear 7 1015 77 10000 1.79 31 10:56 30.11.2021
5163 Clear 6 1014 79 10000 0.45 0 10:31 30.11.2021
5164 Clear 3 1026 84 10000 1.79 41 08:52 30.11.2021
5165 Clear 3 1026 84 10000 0.89 23 08:20 30.11.2021
5166 Clear 4 1025 84 10000 1.79 66 07:47 30.11.2021
5167 Clear 6 1024 75 10000 0.45 69 02:41 30.11.2021
5168 Clear 6 1024 75 10000 2.06 260 01:41 30.11.2021
5169 Clear 7 1008 74 10000 0.45 248 00:19 30.11.2021
5170 Clear 8 1008 72 10000 2.24 270 23:24 29.11.2021
5171 Clear 8 1023 68 10000 2.24 293 22:55 29.11.2021
5172 Clear 9 1023 67 10000 1.34 287 22:33 29.11.2021
5173 Clear 9 1008 66 10000 2.24 270 21:29 29.11.2021
5174 Clear 10 1022 63 10000 1.79 293 20:59 29.11.2021
5175 Clouds 10 1022 63 10000 2.24 315 20:29 29.11.2021
5176 Clouds 10 1022 60 10000 1.34 293 19:55 29.11.2021
5177 Clouds 11 1022 59 10000 1.34 315 19:35 29.11.2021
5178 Clouds 12 1021 58 10000 2.68 293 18:51 29.11.2021
5179 Clouds 10 1020 57 10000 3.71 304 17:49 29.11.2021
5180 Clouds 11 1020 55 10000 4.58 305 17:18 29.11.2021
5181 Clear 12 1019 53 10000 5.13 305 16:29 29.11.2021
5182 Clear 12 1019 53 10000 5.14 305 15:45 29.11.2021
5183 Clear 12 1019 51 10000 5.37 303 14:42 29.11.2021
5184 Clear 12 1019 51 10000 5.48 298 13:33 29.11.2021
5185 Clouds 10 1019 55 10000 6.57 303 12:28 29.11.2021
5186 Clouds 10 1019 55 10000 6.59 303 11:36 29.11.2021
5187 Clouds 10 1019 59 10000 7.13 303 10:41 29.11.2021
5188 Clouds 9 1018 66 10000 9.26 290 09:25 29.11.2021
5189 Clouds 9 1016 68 10000 5.14 240 06:20 29.11.2021
5190 Clouds 7 1014 72 10000 5.66 200 01:40 29.11.2021
5191 Clouds 8 1014 67 10000 5.14 200 00:40 29.11.2021
5192 Clouds 8 1015 66 10000 7.72 220 23:44 28.11.2021
5193 Clouds 8 1015 64 10000 6.69 220 22:49 28.11.2021
5194 Clouds 7 1015 61 10000 7.72 260 21:47 28.11.2021
5195 Clouds 7 1015 61 10000 7.72 260 21:20 28.11.2021
5196 Clouds 7 1015 57 10000 6.69 260 20:23 28.11.2021
5197 Clouds 8 1016 48 10000 7.2 270 18:46 28.11.2021
5198 Clouds 8 1016 48 10000 7.2 270 18:27 28.11.2021
5199 Clouds 8 1016 47 10000 8.23 270 17:54 28.11.2021
5200 Clouds 8 1015 46 10000 7.72 270 17:31 28.11.2021
5201 Clouds 8 1015 45 10000 8.75 290 16:29 28.11.2021
5202 Clouds 8 1015 45 10000 8.75 290 15:58 28.11.2021
5203 Clouds 9 1015 44 10000 10.8 280 15:24 28.11.2021
5204 Clouds 8 1015 44 10000 6.17 310 14:44 28.11.2021
5205 Clouds 7 1016 47 10000 6.69 320 12:58 28.11.2021
5206 Clear 8 1016 47 10000 6.17 300 12:37 28.11.2021
5207 Clear 6 1016 53 10000 7.72 290 10:54 28.11.2021
5208 Clear 5 1016 60 10000 8.23 290 10:20 28.11.2021
5209 Clear 3 1015 65 10000 7.72 300 09:37 28.11.2021
5210 Clear 2 1013 73 10000 8.23 300 06:30 28.11.2021
5211 Clouds 3 1012 62 10000 9.77 280 23:37 27.11.2021
5212 Clear 5 1009 56 10000 7.2 280 20:51 27.11.2021
5213 Clouds 4 1009 60 10000 2.57 280 19:18 27.11.2021
5214 Clouds 4 1009 60 10000 2.57 280 19:18 27.11.2021
5215 Clouds 8 1007 43 10000 4.63 320 16:56 27.11.2021
5216 Clouds 8 1007 46 10000 4.12 320 15:56 27.11.2021
5217 Clouds 8 1007 61 10000 7.72 300 13:47 27.11.2021
5218 Clouds 6 1006 78 10000 8.23 300 12:31 27.11.2021
5219 Clouds 6 1005 73 10000 2.57 210 10:48 27.11.2021
5220 Clouds 5 1005 75 10000 5.14 240 09:53 27.11.2021
5221 Clouds 3 1005 76 10000 4.12 270 08:43 27.11.2021
5222 Clear 3 1007 74 10000 4.63 240 05:18 27.11.2021
5223 Clouds 4 1009 74 10000 3.6 240 01:55 27.11.2021
5224 Clear 5 1010 70 10000 3.6 280 23:36 26.11.2021
5225 Clear 4 1010 73 10000 2.06 300 22:25 26.11.2021
5226 Clear 4 1010 73 10000 3.09 290 21:37 26.11.2021
5227 Clear 3 1010 75 10000 2.57 260 20:59 26.11.2021
5228 Clear 5 1010 68 10000 3.6 290 20:19 26.11.2021
5229 Clear 5 1010 69 10000 3.6 270 19:47 26.11.2021
5230 Clouds 7 1010 62 10000 3.09 280 18:39 26.11.2021
5231 Clouds 8 1010 60 10000 6.69 290 17:23 26.11.2021
5232 Clouds 11 1010 49 10000 2.57 280 15:57 26.11.2021
5233 Clear 9 1011 56 10000 0.89 293 13:36 26.11.2021
5234 Clear 9 1011 56 10000 0.89 293 12:51 26.11.2021
5235 Clouds 6 1012 75 10000 0.89 135 10:39 26.11.2021
5236 Clouds 4 1011 82 10000 0.45 151 08:59 26.11.2021
5237 Clouds 4 1011 83 10000 0.45 162 08:39 26.11.2021
5238 Clouds 4 1011 83 10000 1.03 270 08:19 26.11.2021
5239 Clouds 4 1010 80 10000 0.45 81 06:28 26.11.2021
5240 Clouds 4 1011 80 10000 1.34 75 04:52 26.11.2021
5241 Clouds 4 996 80 10000 1.79 293 03:26 26.11.2021
5242 Clouds 6 1011 69 10000 0.89 23 23:28 25.11.2021
5243 Clear 6 1011 68 10000 1.34 23 21:51 25.11.2021
5244 Clouds 6 1010 68 10000 3.13 45 20:41 25.11.2021
5245 Clouds 7 997 69 10000 1.34 68 18:50 25.11.2021
5246 Clouds 8 1009 68 10000 2.24 45 18:00 25.11.2021
5247 Clouds 9 1009 66 10000 1.34 90 17:26 25.11.2021
5248 Clouds 9 1009 64 10000 0.89 203 16:41 25.11.2021
5249 Clear 9 1009 62 10000 1.34 270 15:58 25.11.2021
5250 Clear 10 1009 62 10000 1.79 203 14:21 25.11.2021
5251 Clear 9 996 67 10000 1.34 158 12:48 25.11.2021
5252 Clouds 8 1009 69 10000 2.24 135 11:55 25.11.2021
5253 Clouds 6 1009 80 10000 0.89 180 10:31 25.11.2021
5254 Clouds 5 993 87 10000 2.68 270 06:36 25.11.2021
5255 Clear 4 995 88 10000 1.34 209 02:54 25.11.2021
5256 Clear 4 1010 85 10000 0.45 276 23:39 24.11.2021
5257 Clear 4 1011 87 10000 0.45 360 22:29 24.11.2021
5258 Clear 5 1011 88 10000 1.79 313 21:48 24.11.2021
5259 Clear 5 1011 89 10000 3.13 248 21:19 24.11.2021
5260 Clear 5 1011 89 10000 0.45 283 20:26 24.11.2021
5261 Clouds 5 1010 86 10000 4.47 248 18:58 24.11.2021
5262 Clouds 5 998 84 10000 5.36 248 18:18 24.11.2021
5263 Clouds 6 997 81 10000 3.13 225 16:20 24.11.2021
5264 Clouds 7 1012 72 10000 3.13 270 14:57 24.11.2021
5265 Clouds 7 1012 73 10000 2.68 248 14:21 24.11.2021
5266 Clouds 7 1013 73 10000 2.24 203 12:51 24.11.2021
5267 Clear 6 1014 80 10000 1.79 115 11:24 24.11.2021
5268 Clear 5 1001 82 10000 0.45 270 10:52 24.11.2021
5269 Clear 5 1014 81 10000 0.45 270 10:52 24.11.2021
5270 Clear 5 1001 84 10000 1.34 158 10:34 24.11.2021
5271 Clear 2 1000 93 10000 1.03 290 08:35 24.11.2021
5272 Clouds 3 1000 91 10000 0.89 37 07:39 24.11.2021
5273 Clouds 4 1013 89 10000 0.45 344 05:23 24.11.2021
5274 Clouds 4 998 91 10000 0.89 90 02:44 24.11.2021
5275 Mist 4 1013 90 3200 1.34 68 23:33 23.11.2021
5276 Clouds 5 1012 86 10000 2.24 113 22:38 23.11.2021
5277 Clouds 5 1012 84 10000 0.89 69 21:45 23.11.2021
5278 Clouds 5 1012 84 10000 1.34 293 20:22 23.11.2021
5279 Clouds 5 1011 81 10000 1.79 248 19:29 23.11.2021
5280 Clouds 6 998 81 10000 0.45 90 18:33 23.11.2021
5281 Clouds 6 998 78 10000 0.45 100 17:31 23.11.2021
5282 Clouds 6 998 77 10000 0.89 180 16:35 23.11.2021
5283 Clouds 6 1011 79 10000 0.89 90 15:27 23.11.2021
5284 Clouds 6 1011 81 10000 0.89 122 14:45 23.11.2021
5285 Clouds 5 1011 80 10000 1.34 113 13:20 23.11.2021
5286 Clouds 4 999 89 10000 0.89 90 10:28 23.11.2021
5287 Clouds 4 998 90 10000 0.45 90 09:47 23.11.2021
5288 Clouds 3 997 90 10000 1.79 135 07:58 23.11.2021
5289 Clouds 4 1009 92 7000 0.45 113 04:53 23.11.2021
5290 Clouds 5 1009 92 8000 0.45 184 03:32 23.11.2021
5291 Clouds 5 993 94 7000 2.68 225 23:38 22.11.2021
5292 Clouds 5 993 94 10000 3.13 135 22:58 22.11.2021
5293 Clouds 5 993 93 10000 1.34 90 22:30 22.11.2021
5294 Clouds 5 993 94 10000 0.89 0 21:44 22.11.2021
5295 Clouds 5 993 94 10000 0.89 23 21:19 22.11.2021
5296 Clouds 5 1007 92 10000 3.58 45 20:27 22.11.2021
5297 Clouds 6 1007 92 7000 2.24 23 19:20 22.11.2021
5298 Clouds 6 1007 92 9000 4.47 45 18:41 22.11.2021
5299 Rain 6 1007 94 3500 3.58 68 17:48 22.11.2021
5300 Clouds 7 1007 89 4000 3.58 45 16:31 22.11.2021
5301 Clouds 8 1007 84 10000 4.47 338 15:29 22.11.2021
5302 Clouds 8 1007 84 10000 4.47 338 15:29 22.11.2021
5303 Clouds 9 996 86 10000 1.79 90 12:51 22.11.2021
5304 Clouds 9 996 95 10000 1.34 247 11:34 22.11.2021
5305 Fog 8 996 95 300 0.45 225 10:22 22.11.2021
5306 Fog 7 1009 96 300 1.34 121 08:43 22.11.2021
5307 Mist 7 1009 96 1500 0.45 137 08:23 22.11.2021
5308 Fog 8 1012 95 300 0.45 248 01:36 22.11.2021
5309 Clouds 8 1013 93 8000 1.34 200 23:20 21.11.2021
5310 Clouds 8 1013 94 6000 1.34 202 22:42 21.11.2021
5311 Clear 10 1013 90 10000 0.45 193 20:45 21.11.2021
5312 Clear 10 1013 89 10000 1.79 215 20:26 21.11.2021
5313 Clear 11 1001 84 10000 0.89 270 18:55 21.11.2021
5314 Clear 13 1001 77 10000 1.79 225 17:56 21.11.2021
5315 Clouds 13 1001 75 10000 1.79 225 17:35 21.11.2021
5316 Clouds 13 1015 76 10000 0.89 270 14:50 21.11.2021
5317 Clouds 13 1015 77 10000 1.34 270 14:31 21.11.2021
5318 Clouds 12 1016 80 10000 0.89 143 12:58 21.11.2021
5319 Clouds 12 1017 81 10000 1.34 270 12:20 21.11.2021
5320 Clouds 11 1017 81 10000 1.34 81 11:37 21.11.2021
5321 Clouds 10 1017 88 10000 0.89 84 10:19 21.11.2021
5322 Clouds 9 1017 88 10000 0.89 61 09:45 21.11.2021
5323 Clouds 9 1004 89 10000 0.45 64 08:31 21.11.2021
5324 Clouds 9 1004 88 10000 0.45 84 07:52 21.11.2021
5325 Clouds 9 1003 87 10000 0 0 06:26 21.11.2021
5326 Clouds 10 1017 86 10000 0.45 86 05:41 21.11.2021
5327 Clouds 10 1018 86 10000 0.45 44 03:22 21.11.2021
5328 Clouds 10 1018 86 10000 0.45 63 02:55 21.11.2021
5329 Clouds 10 1019 86 10000 0.45 66 01:25 21.11.2021
5330 Clouds 10 1020 86 10000 0.45 63 00:42 21.11.2021
5331 Clouds 11 1021 79 8000 0.89 57 22:30 20.11.2021
5332 Clouds 11 1020 79 10000 1.79 113 21:32 20.11.2021
5333 Clouds 11 1008 78 10000 0.89 68 19:58 20.11.2021
5334 Clouds 11 1008 77 10000 1.34 69 18:45 20.11.2021
5335 Clouds 12 1008 77 10000 1.79 45 18:23 20.11.2021
5336 Clouds 12 1008 74 10000 0.45 68 17:22 20.11.2021
5337 Clouds 12 1022 73 10000 3.13 68 14:57 20.11.2021
5338 Clouds 12 1022 72 10000 0.89 68 14:28 20.11.2021
5339 Clouds 12 1022 73 10000 1.79 68 13:53 20.11.2021
5340 Clouds 10 1024 77 10000 1.34 68 11:46 20.11.2021
5341 Clouds 9 1024 80 10000 0.89 45 09:57 20.11.2021
5342 Clouds 9 1024 78 10000 2.24 45 08:40 20.11.2021
5343 Clouds 9 1009 78 10000 1.79 45 06:50 20.11.2021
5344 Clouds 9 1010 77 10000 2.24 23 05:18 20.11.2021
5345 Clouds 9 1010 76 10000 2.68 23 04:49 20.11.2021
5346 Clouds 9 1026 74 10000 2.24 29 00:43 20.11.2021
5347 Clear 9 1025 75 10000 0.45 68 00:18 20.11.2021
5348 Clouds 10 1026 72 10000 0.89 90 22:54 19.11.2021
5349 Clouds 11 1025 67 10000 1.34 90 21:29 19.11.2021
5350 Clouds 12 1025 68 10000 1.34 113 20:43 19.11.2021
5351 Clouds 12 1025 67 10000 0.45 90 20:25 19.11.2021
5352 Clouds 12 1025 64 10000 3.13 113 19:46 19.11.2021
5353 Clouds 13 1012 62 10000 3.58 135 18:48 19.11.2021
5354 Clouds 14 1012 57 10000 2.68 113 17:45 19.11.2021
5355 Clouds 14 1024 54 10000 1.79 90 16:43 19.11.2021
5356 Clouds 14 1024 54 10000 1.79 90 16:43 19.11.2021
5357 Clouds 14 1025 58 10000 2.24 113 15:22 19.11.2021
5358 Clouds 12 1028 67 10000 2.68 113 11:54 19.11.2021
5359 Clouds 9 1028 73 10000 4.02 68 10:25 19.11.2021
5360 Clouds 7 1027 82 10000 1.79 68 08:39 19.11.2021
5361 Clear 7 1012 81 10000 2.68 23 06:29 19.11.2021
5362 Clouds 7 1013 82 10000 1.79 45 04:19 19.11.2021
5363 Clear 9 1028 78 10000 1.34 113 23:59 18.11.2021
5364 Clouds 9 1027 76 10000 0.89 90 23:41 18.11.2021
5365 Clouds 9 1027 74 10000 0.89 77 21:41 18.11.2021
5366 Clouds 10 1026 71 10000 0.45 68 20:46 18.11.2021
5367 Clouds 10 1026 69 10000 0.89 53 20:28 18.11.2021
5368 Clouds 10 1013 70 10000 0.89 45 19:43 18.11.2021
5369 Clouds 11 1013 65 10000 0.89 20 18:40 18.11.2021
5370 Clear 12 1013 62 10000 0.45 23 17:54 18.11.2021
5371 Clear 13 1013 59 10000 0.45 45 17:35 18.11.2021
5372 Clouds 13 1025 58 10000 0.45 23 16:43 18.11.2021
5373 Clouds 12 1025 61 10000 0.89 23 15:24 18.11.2021
5374 Clouds 10 1026 64 10000 1.79 39 13:21 18.11.2021
5375 Clouds 8 1027 63 10000 0.89 23 11:45 18.11.2021
5376 Clouds 8 1027 65 10000 2.24 23 11:26 18.11.2021
5377 Clouds 7 1027 65 10000 1.34 45 10:56 18.11.2021
5378 Clouds 5 1026 70 10000 2.68 68 09:32 18.11.2021
5379 Clear 4 1012 72 10000 1.34 45 07:34 18.11.2021
5380 Clear 4 1024 68 10000 3.13 68 05:47 18.11.2021
5381 Clear 6 1024 60 10000 1.34 45 02:46 18.11.2021
5382 Clear 7 1024 58 10000 3.58 68 01:22 18.11.2021
5383 Clear 7 1024 58 10000 3.58 68 01:22 18.11.2021
5384 Clear 9 1008 60 10000 2.24 45 22:41 17.11.2021
5385 Clear 9 1008 60 10000 1.79 68 22:20 17.11.2021
5386 Clear 10 1008 62 10000 0.89 90 21:37 17.11.2021
5387 Clear 10 1007 59 10000 0.45 45 20:18 17.11.2021
5388 Clear 14 1021 48 10000 0.89 90 17:53 17.11.2021
5389 Clear 14 1021 46 10000 0.45 90 17:23 17.11.2021
5390 Clear 14 1021 46 10000 1.79 90 17:23 17.11.2021
5391 Clear 14 1008 48 10000 2.24 68 14:47 17.11.2021
5392 Clear 11 1022 58 10000 1.34 113 12:40 17.11.2021
5393 Clear 10 1023 64 10000 2.68 23 11:42 17.11.2021
5394 Clear 7 1022 72 10000 2.68 23 10:28 17.11.2021
5395 Clear 5 1021 77 10000 3.58 68 09:24 17.11.2021
5396 Clear 5 1020 78 10000 1.34 23 07:43 17.11.2021
5397 Clear 6 1006 79 10000 4.02 45 03:43 17.11.2021
5398 Clear 7 1020 73 10000 3.58 45 01:18 17.11.2021
5399 Clear 8 1020 70 10000 2.24 90 22:54 16.11.2021
5400 Clear 9 1020 66 10000 0.89 45 21:23 16.11.2021
5401 Clear 10 1019 63 10000 0.89 113 20:18 16.11.2021
5402 Clear 11 1018 58 10000 1.34 58 18:53 16.11.2021
5403 Clear 11 1018 56 10000 0.45 20 18:34 16.11.2021
5404 Clear 13 1018 50 10000 0.89 4 17:38 16.11.2021
5405 Clear 13 1018 47 10000 1.34 23 16:39 16.11.2021
5406 Clear 13 1005 48 10000 0.89 315 15:53 16.11.2021
5407 Clear 13 1018 48 10000 0.45 90 15:27 16.11.2021
5408 Clear 9 1021 66 10000 1.79 80 11:50 16.11.2021
5409 Clear 6 1020 76 10000 2.24 71 09:49 16.11.2021
5410 Clear 4 1020 83 10000 1.34 74 08:45 16.11.2021
5411 Clear 4 1019 84 10000 0.45 338 07:32 16.11.2021
5412 Clear 6 1002 78 10000 0.45 27 02:47 16.11.2021
5413 Clear 8 1021 65 10000 0.89 90 23:23 15.11.2021
5414 Clear 9 1021 64 10000 0.45 90 22:37 15.11.2021
5415 Clear 9 1020 64 10000 0.45 113 21:53 15.11.2021
5416 Clear 9 1020 63 10000 1.34 90 21:29 15.11.2021
5417 Clear 10 1020 58 10000 1.34 45 19:58 15.11.2021
5418 Clear 11 1019 55 10000 0.45 23 18:48 15.11.2021
5419 Clouds 14 1019 44 10000 0.45 45 16:55 15.11.2021
5420 Clouds 15 1006 44 10000 0.89 68 15:42 15.11.2021
5421 Clouds 15 1006 44 10000 4.92 23 15:24 15.11.2021
5422 Clouds 14 1006 49 10000 4.02 23 13:32 15.11.2021
5423 Clear 13 1020 50 10000 2.24 23 11:53 15.11.2021
5424 Clear 9 1019 62 10000 5.36 45 09:29 15.11.2021
5425 Clear 8 1019 66 10000 5.36 45 07:57 15.11.2021
5426 Clear 9 1019 69 10000 3.58 0 05:24 15.11.2021
5427 Clear 10 1019 66 10000 4.02 23 00:18 15.11.2021
5428 Clear 11 1019 63 10000 0.45 45 22:38 14.11.2021
5429 Clear 12 1018 57 10000 1.79 0 20:32 14.11.2021
5430 Clear 13 1018 54 10000 2.68 45 19:18 14.11.2021
5431 Clear 13 1017 53 10000 3.13 23 18:54 14.11.2021
5432 Clear 14 1017 49 10000 0.89 68 18:36 14.11.2021
5433 Clear 14 1017 49 10000 0.45 45 18:18 14.11.2021
5434 Clear 16 1017 47 10000 0.89 0 17:57 14.11.2021
5435 Clear 17 1017 41 10000 1.03 250 17:39 14.11.2021
5436 Clear 17 1017 39 10000 0.45 225 17:21 14.11.2021
5437 Clear 18 1017 39 10000 1.34 197 16:49 14.11.2021
5438 Clear 18 1004 43 10000 0.45 294 16:21 14.11.2021
5439 Clear 17 1004 44 10000 3.13 248 15:46 14.11.2021
5440 Clear 17 1017 44 10000 0.89 293 15:18 14.11.2021
5441 Clear 16 1017 49 10000 0.89 225 14:32 14.11.2021
5442 Clear 15 1005 53 10000 0.89 228 13:59 14.11.2021
5443 Clear 15 1006 56 10000 0.45 203 13:40 14.11.2021
5444 Clear 12 1019 61 10000 0.45 225 12:29 14.11.2021
5445 Clear 12 1019 64 10000 0.45 248 11:58 14.11.2021
5446 Clear 10 1020 68 10000 1.54 60 10:45 14.11.2021
5447 Clear 9 1020 72 10000 1.34 97 10:26 14.11.2021
5448 Clear 4 1019 88 10000 0 0 08:56 14.11.2021
5449 Clear 5 1019 85 10000 0.89 34 07:28 14.11.2021
5450 Clear 8 1020 73 10000 0.45 23 01:24 14.11.2021
5451 Clear 11 1020 64 10000 1.79 68 22:27 13.11.2021
5452 Clear 11 1020 64 10000 1.79 68 22:27 13.11.2021
5453 Clear 11 1020 62 10000 1.34 68 21:57 13.11.2021
5454 Clear 11 1020 61 10000 1.34 45 21:25 13.11.2021
5455 Clear 12 1007 61 10000 0.89 45 19:50 13.11.2021
5456 Clear 14 1006 55 10000 1.03 130 18:48 13.11.2021
5457 Clear 14 1006 55 10000 0.45 112 18:26 13.11.2021
5458 Clear 17 1018 45 10000 0.51 0 16:40 13.11.2021
5459 Clear 16 1019 47 10000 0.45 121 15:37 13.11.2021
5460 Clear 16 1019 50 10000 0.45 203 14:34 13.11.2021
5461 Clear 15 1019 51 10000 0.45 203 13:45 13.11.2021
5462 Clear 13 1020 60 10000 0.45 45 12:33 13.11.2021
5463 Clear 12 1021 64 10000 0.45 113 11:38 13.11.2021
5464 Clear 10 1021 71 10000 0.45 23 10:45 13.11.2021
5465 Clear 9 1021 72 10000 0.45 113 10:23 13.11.2021
5466 Clear 9 1021 72 10000 0.45 113 10:23 13.11.2021
5467 Clear 8 1021 78 10000 0.45 113 09:38 13.11.2021
5468 Clear 6 1020 82 10000 0.89 45 08:56 13.11.2021
5469 Clear 5 1020 85 10000 1.34 20 08:34 13.11.2021
5470 Clear 6 1019 83 10000 0.45 68 06:27 13.11.2021
5471 Clear 7 1019 81 10000 0.89 90 04:32 13.11.2021
5472 Clear 8 1019 75 10000 0.89 41 01:54 13.11.2021
5473 Clear 10 1019 76 10000 0.51 0 22:59 12.11.2021
5474 Clear 10 1019 74 10000 0.89 59 21:50 12.11.2021
5475 Clear 12 1018 67 10000 2.24 303 20:19 12.11.2021
5476 Clear 13 1018 63 10000 3.13 270 19:30 12.11.2021
5477 Clear 14 1018 58 10000 1.79 252 18:52 12.11.2021
5478 Clear 18 1017 41 10000 0.89 209 16:40 12.11.2021
5479 Clear 18 1018 44 10000 0.45 74 15:34 12.11.2021
5480 Clear 15 1019 57 10000 0.45 90 13:21 12.11.2021
5481 Clear 11 1019 68 10000 0.89 45 10:58 12.11.2021
5482 Clear 10 1019 69 10000 0.45 45 09:45 12.11.2021
5483 Clear 6 1019 79 10000 1.34 38 08:44 12.11.2021
5484 Clear 7 1004 73 10000 1.34 45 05:54 12.11.2021
5485 Clear 9 1019 64 10000 0.89 45 23:43 11.11.2021
5486 Clear 8 1020 67 10000 1.79 29 22:40 11.11.2021
5487 Clear 9 1019 66 10000 1.03 0 21:29 11.11.2021
5488 Clear 10 1019 62 10000 0 0 20:48 11.11.2021
5489 Clear 11 1019 58 10000 0 0 19:30 11.11.2021
5490 Clear 13 1005 50 10000 0.89 193 18:22 11.11.2021
5491 Clear 15 1018 42 10000 0.89 203 17:37 11.11.2021
5492 Clear 16 1018 42 10000 0.45 203 15:19 11.11.2021
5493 Clear 15 1019 44 10000 1.34 135 14:36 11.11.2021
5494 Clear 15 1019 45 10000 0.45 135 14:18 11.11.2021
5495 Clear 14 1019 50 10000 0.45 224 13:34 11.11.2021
5496 Clear 11 1020 60 10000 0.45 113 11:57 11.11.2021
5497 Clear 7 1020 68 10000 0.45 113 09:54 11.11.2021
5498 Clear 4 1019 78 10000 1.79 11 08:21 11.11.2021
5499 Clear 4 1019 78 10000 1.34 52 06:44 11.11.2021
5500 Clear 6 1019 74 10000 0.45 60 00:37 11.11.2021
5501 Clear 8 1019 68 10000 0.89 233 22:38 10.11.2021
5502 Clear 9 1019 63 10000 0.45 72 21:46 10.11.2021
5503 Clear 10 1018 61 10000 0.45 248 20:53 10.11.2021
5504 Clear 11 1018 54 10000 0.45 248 19:50 10.11.2021
5505 Clear 12 1005 53 10000 0.45 248 19:32 10.11.2021
5506 Clear 16 1018 39 10000 0.45 270 16:50 10.11.2021
5507 Clear 16 1018 38 10000 1.34 203 15:46 10.11.2021
5508 Clear 15 1019 42 10000 0.89 203 14:23 10.11.2021
5509 Clear 15 1020 44 10000 0.45 172 13:27 10.11.2021
5510 Clear 11 1021 55 10000 0.45 45 11:40 10.11.2021
5511 Clear 5 1020 69 10000 0.45 45 09:18 10.11.2021
5512 Clear 5 1020 70 10000 0.89 45 08:40 10.11.2021
5513 Clear 5 1005 72 10000 0.89 45 06:44 10.11.2021
5514 Clear 5 1004 70 10000 2.24 45 05:57 10.11.2021
5515 Clear 7 1019 58 10000 2.68 68 01:44 10.11.2021
5516 Clear 10 1019 42 10000 4.92 68 21:59 09.11.2021
5517 Clear 11 1018 36 10000 0.45 45 20:34 09.11.2021
5518 Clear 12 1018 37 10000 1.79 72 19:28 09.11.2021
5519 Clear 13 998 37 10000 1.54 240 18:48 09.11.2021
5520 Clear 17 1017 30 10000 2.24 90 16:40 09.11.2021
5521 Clear 17 1017 35 10000 0.45 45 15:20 09.11.2021
5522 Clear 15 1018 44 10000 0.45 12 13:31 09.11.2021
5523 Clear 13 1019 47 10000 1.34 60 12:28 09.11.2021
5524 Clear 11 1019 55 10000 1.34 109 10:55 09.11.2021
5525 Clear 8 1019 64 10000 0.89 109 09:44 09.11.2021
5526 Clear 6 1004 73 10000 0.45 11 08:53 09.11.2021
5527 Clear 5 1005 73 10000 0.45 158 07:28 09.11.2021
5528 Clear 8 1018 58 10000 0.89 138 02:35 09.11.2021
5529 Clear 9 1018 56 10000 1.34 178 01:50 09.11.2021
5530 Clear 10 1019 51 10000 2.68 293 00:30 09.11.2021
5531 Clear 10 1019 51 10000 0.89 0 00:30 09.11.2021
5532 Clear 10 1019 51 10000 2.68 293 00:30 09.11.2021
5533 Clear 10 1019 51 10000 0.89 0 00:30 09.11.2021
5534 Clear 10 1019 50 10000 0.45 294 23:30 08.11.2021
5535 Clear 12 1004 44 10000 1.79 11 22:37 08.11.2021
5536 Clear 12 1004 40 10000 0.45 23 21:31 08.11.2021
5537 Clear 13 1004 41 10000 2.68 23 20:33 08.11.2021
5538 Clear 15 1019 34 10000 2.24 23 19:20 08.11.2021
5539 Clear 17 1018 29 10000 1.34 45 17:41 08.11.2021
5540 Clear 18 1018 26 10000 4.47 45 15:49 08.11.2021
5541 Clear 18 1018 28 10000 5.36 23 14:56 08.11.2021
5542 Clear 18 1019 29 10000 4.92 23 14:24 08.11.2021
5543 Clear 16 1020 43 10000 4.47 0 12:59 08.11.2021
5544 Clear 13 1021 59 10000 0.45 293 11:54 08.11.2021
5545 Clear 10 1021 69 10000 0.89 23 10:49 08.11.2021
5546 Clear 6 1008 80 10000 0.89 13 08:57 08.11.2021
5547 Clear 5 1005 84 10000 0.89 51 08:18 08.11.2021
5548 Clear 5 1020 82 10000 0.89 247 06:56 08.11.2021
5549 Clear 5 1021 83 10000 0.89 54 03:35 08.11.2021
5550 Clear 7 1022 70 10000 0.89 39 00:20 08.11.2021
5551 Clear 8 1023 68 10000 0.45 45 22:58 07.11.2021
5552 Clear 9 1008 65 10000 1.34 36 21:25 07.11.2021
5553 Clear 9 1007 62 10000 0.45 293 20:25 07.11.2021
5554 Clear 12 1022 45 10000 0.45 248 18:35 07.11.2021
5555 Clear 14 1022 40 10000 0.45 270 17:42 07.11.2021
5556 Clear 14 1022 38 10000 0.45 8 16:22 07.11.2021
5557 Clear 13 1022 38 10000 1.34 293 14:54 07.11.2021
5558 Clear 12 1023 39 10000 1.79 284 14:27 07.11.2021
5559 Clear 10 1024 43 10000 0.45 339 12:50 07.11.2021
5560 Clear 8 1024 50 10000 0.51 0 11:41 07.11.2021
5561 Clear 3 1006 77 10000 0 0 08:59 07.11.2021
5562 Clear 5 1025 63 10000 0.45 243 02:56 07.11.2021
5563 Clear 5 1025 63 10000 0.51 0 02:22 07.11.2021
5564 Clear 7 1025 58 10000 2.24 23 22:56 06.11.2021
5565 Clear 8 1025 59 10000 2.68 355 21:58 06.11.2021
5566 Clear 8 1025 57 10000 2.68 359 20:59 06.11.2021
5567 Clear 9 1010 55 10000 2.24 315 20:18 06.11.2021
5568 Clear 13 1012 37 10000 3.58 0 17:32 06.11.2021
5569 Clear 13 1025 33 10000 3.58 338 16:32 06.11.2021
5570 Clear 12 1026 40 10000 0.89 45 13:41 06.11.2021
5571 Clear 11 1027 43 10000 1.79 68 12:56 06.11.2021
5572 Clear 9 1027 53 10000 6.26 68 11:24 06.11.2021
5573 Clear 4 1013 70 10000 3.13 23 08:49 06.11.2021
5574 Clear 4 1025 72 10000 0.45 68 04:50 06.11.2021
5575 Clear 5 1025 71 10000 4.47 23 00:36 06.11.2021
5576 Clear 6 1025 68 10000 3.58 23 23:29 05.11.2021
5577 Clear 6 1024 66 10000 2.24 90 22:33 05.11.2021
5578 Clouds 7 1024 72 10000 2.68 315 20:41 05.11.2021
5579 Rain 8 1024 63 10000 7.15 0 19:51 05.11.2021
5580 Clear 9 1023 51 10000 5.81 0 18:51 05.11.2021
5581 Clear 10 1022 50 10000 2.24 0 18:29 05.11.2021
5582 Clouds 11 1022 45 10000 4.02 0 16:49 05.11.2021
5583 Clouds 12 1009 48 10000 4.47 338 14:33 05.11.2021
5584 Clouds 11 1023 49 10000 5.81 45 12:27 05.11.2021
5585 Clear 7 1023 64 10000 2.24 26 09:47 05.11.2021
5586 Clear 5 1021 72 10000 3.58 0 08:38 05.11.2021
5587 Clear 5 1021 72 10000 2.68 0 06:40 05.11.2021
5588 Clear 6 1020 70 10000 0.45 68 03:38 05.11.2021
5589 Clear 6 1005 71 10000 0.45 315 02:21 05.11.2021
5590 Clear 7 1019 69 10000 1.34 45 23:58 04.11.2021
5591 Clouds 7 1019 71 10000 1.79 36 22:37 04.11.2021
5592 Clouds 7 1019 68 10000 0.89 44 22:18 04.11.2021
5593 Clear 8 1018 63 10000 1.34 39 21:28 04.11.2021
5594 Clear 8 1018 62 10000 0.45 315 20:29 04.11.2021
5595 Clouds 8 1018 60 10000 0.89 2 19:49 04.11.2021
5596 Clouds 8 1017 59 10000 1.34 8 19:28 04.11.2021
5597 Clouds 9 1017 54 10000 3.58 0 18:30 04.11.2021
5598 Clouds 10 1016 52 10000 2.68 0 17:27 04.11.2021
5599 Clouds 11 1016 50 10000 4.02 0 16:23 04.11.2021
5600 Clouds 11 1000 56 10000 2.68 270 13:50 04.11.2021
5601 Clouds 8 1015 74 10000 0.45 23 10:52 04.11.2021
5602 Clear 5 1013 83 10000 0.45 157 08:48 04.11.2021
5603 Clear 5 1013 85 10000 0.45 79 08:25 04.11.2021
5604 Clear 4 1012 87 10000 0.89 315 07:33 04.11.2021
5605 Clouds 7 1012 72 10000 1.79 293 23:23 03.11.2021
5606 Clouds 8 1012 71 10000 3.13 315 22:29 03.11.2021
5607 Clouds 8 1012 67 10000 1.79 293 21:45 03.11.2021
5608 Clouds 9 1012 65 10000 2.24 293 20:45 03.11.2021
5609 Clouds 9 1011 63 10000 2.24 270 20:26 03.11.2021
5610 Clouds 9 1011 60 10000 4.47 293 19:38 03.11.2021
5611 Clouds 10 1010 56 10000 2.68 315 18:33 03.11.2021
5612 Clouds 11 1010 54 10000 3.58 315 17:56 03.11.2021
5613 Clouds 11 1010 50 10000 4.02 270 16:49 03.11.2021
5614 Clouds 12 1010 50 10000 4.02 293 15:51 03.11.2021
5615 Clouds 11 1010 49 10000 4.92 315 15:30 03.11.2021
5616 Clouds 11 1009 50 10000 4.47 315 15:30 03.11.2021
5617 Clouds 11 997 55 10000 3.58 315 13:43 03.11.2021
5618 Clouds 10 1010 61 10000 3.58 293 11:38 03.11.2021
5619 Clouds 9 1010 62 10000 5.81 293 10:51 03.11.2021
5620 Clouds 8 1009 69 10000 5.36 293 09:48 03.11.2021
5621 Clouds 7 1008 73 10000 5.36 293 08:58 03.11.2021
5622 Clear 7 1008 73 10000 3.58 270 08:20 03.11.2021
5623 Clear 6 1007 74 10000 4.92 293 07:38 03.11.2021
5624 Clouds 8 1006 69 10000 4.92 315 04:23 03.11.2021
5625 Clouds 9 989 92 10000 4.47 270 01:32 03.11.2021
5626 Rain 10 1008 91 6000 2.24 293 23:30 02.11.2021
5627 Clouds 11 1008 88 10000 4.02 248 22:20 02.11.2021
5628 Clouds 11 1009 89 10000 4.47 225 20:45 02.11.2021
5629 Clouds 10 1009 88 10000 1.79 225 20:23 02.11.2021
5630 Clouds 10 1009 84 10000 3.13 248 19:40 02.11.2021
5631 Clouds 11 1010 80 10000 3.13 248 18:36 02.11.2021
5632 Clouds 11 1010 77 10000 6.26 248 17:48 02.11.2021
5633 Clouds 11 1010 76 10000 2.68 225 17:25 02.11.2021
5634 Clouds 12 1011 74 10000 2.68 248 16:26 02.11.2021
5635 Clouds 12 1012 73 10000 4.02 203 14:57 02.11.2021
5636 Clouds 12 1001 68 10000 2.68 225 13:32 02.11.2021
5637 Clouds 12 1013 68 10000 4.02 225 12:59 02.11.2021
5638 Clouds 12 1014 68 10000 2.24 270 12:20 02.11.2021
5639 Clear 11 1015 70 10000 3.58 248 11:27 02.11.2021
5640 Clear 10 1015 74 10000 3.13 248 10:45 02.11.2021
5641 Clear 10 1015 76 10000 3.58 248 10:22 02.11.2021
5642 Clear 8 1014 85 10000 1.79 225 08:22 02.11.2021
5643 Clear 8 1015 82 10000 2.24 248 06:32 02.11.2021
5644 Clear 10 1015 72 10000 3.58 293 03:30 02.11.2021
5645 Clear 11 1015 71 10000 3.13 293 00:55 02.11.2021
5646 Clear 11 1016 69 10000 2.24 270 22:25 01.11.2021
5647 Clouds 12 1015 67 10000 2.68 248 20:47 01.11.2021
5648 Clouds 12 1015 69 10000 3.58 248 20:27 01.11.2021
5649 Clouds 13 1014 65 10000 2.68 248 19:43 01.11.2021
5650 Clouds 14 1014 63 10000 5.36 293 18:54 01.11.2021
5651 Clouds 15 1014 60 10000 2.68 293 17:56 01.11.2021
5652 Clouds 17 1013 56 10000 4.92 270 17:18 01.11.2021
5653 Clouds 17 1013 57 10000 4.92 248 16:33 01.11.2021
5654 Clouds 17 1013 57 10000 5.36 248 15:40 01.11.2021
5655 Clouds 17 1013 56 10000 4.47 248 15:19 01.11.2021
5656 Clouds 16 1014 56 10000 4.02 293 14:39 01.11.2021
5657 Clouds 16 1001 57 10000 4.47 293 14:19 01.11.2021
5658 Clouds 16 1001 61 10000 4.47 293 12:50 01.11.2021
5659 Clouds 16 1015 68 10000 6.71 293 11:39 01.11.2021
5660 Clouds 16 1014 81 10000 4.47 270 10:20 01.11.2021
5661 Clouds 14 1013 90 10000 5.36 270 08:20 01.11.2021
5662 Drizzle 14 1012 91 10000 2.24 251 07:46 01.11.2021
5663 Clouds 14 997 95 10000 0.45 315 03:55 01.11.2021
5664 Clouds 14 994 97 10000 1.34 293 03:33 01.11.2021
5665 Mist 16 1012 95 1200 4.02 293 23:52 31.10.2021
5666 Rain 17 1013 95 3500 1.34 248 20:58 31.10.2021
5667 Clouds 17 1013 95 10000 3.13 248 19:54 31.10.2021
5668 Clouds 17 1012 95 9000 2.68 248 18:43 31.10.2021
5669 Clouds 17 1012 95 9000 4.47 248 18:20 31.10.2021
5670 Rain 17 999 94 4000 2.24 203 16:41 31.10.2021
5671 Clouds 18 1000 92 5000 2.68 248 14:45 31.10.2021
5672 Clouds 19 1014 86 10000 3.13 248 12:55 31.10.2021
5673 Clouds 17 1014 93 9000 2.68 248 11:44 31.10.2021
5674 Mist 16 1014 94 5000 3.58 225 10:48 31.10.2021
5675 Drizzle 15 1013 95 4000 2.68 248 09:26 31.10.2021
5676 Drizzle 15 1013 96 5000 0.89 203 08:45 31.10.2021
5677 Drizzle 14 1013 96 9000 1.79 203 02:52 31.10.2021
5678 Clouds 14 1013 91 10000 2.68 203 00:32 31.10.2021
5679 Drizzle 16 998 85 10000 4.92 248 22:20 30.10.2021
5680 Clouds 17 997 83 10000 3.58 248 21:27 30.10.2021
5681 Clouds 17 1010 84 10000 4.63 230 19:42 30.10.2021
5682 Clouds 18 1010 81 10000 0.89 270 17:49 30.10.2021
5683 Clouds 18 1009 84 10000 4.02 248 15:42 30.10.2021
5684 Clouds 17 1009 90 10000 2.68 225 13:59 30.10.2021
5685 Clouds 17 1009 90 10000 2.68 225 13:59 30.10.2021
5686 Drizzle 17 1009 93 10000 4.02 225 13:38 30.10.2021
5687 Clouds 17 1009 93 10000 1.79 248 13:20 30.10.2021
5688 Clouds 16 1009 96 10000 0.89 225 11:49 30.10.2021
5689 Clouds 15 996 96 10000 1.34 225 10:56 30.10.2021
5690 Drizzle 15 994 94 10000 2.24 248 08:59 30.10.2021
5691 Clouds 15 1006 94 9000 2.68 225 07:57 30.10.2021
5692 Rain 14 1005 97 2500 0.45 225 05:47 30.10.2021
5693 Rain 13 1006 96 7000 1.79 180 02:59 30.10.2021
5694 Drizzle 13 996 95 10000 3.58 203 23:21 29.10.2021
5695 Clouds 13 1010 95 10000 4.47 203 22:35 29.10.2021
5696 Rain 13 1011 96 4500 1.79 158 21:18 29.10.2021
5697 Clouds 13 1011 94 4000 0.89 180 20:32 29.10.2021
5698 Clouds 12 1011 95 3500 0.45 135 19:26 29.10.2021
5699 Rain 12 1012 92 3500 0.45 180 17:48 29.10.2021
5700 Rain 12 1013 87 10000 0.45 248 15:42 29.10.2021
5701 Clouds 14 1001 69 10000 2.24 180 13:19 29.10.2021
5702 Clouds 14 999 68 10000 1.34 247 10:49 29.10.2021
5703 Clouds 13 1001 68 10000 2.24 225 10:30 29.10.2021
5704 Clear 14 999 57 10000 0.89 158 02:46 29.10.2021
5705 Clear 15 1000 54 10000 0.45 225 00:32 29.10.2021
5706 Clear 15 1015 49 10000 1.79 248 22:32 28.10.2021
5707 Clear 16 1015 47 10000 2.24 270 20:59 28.10.2021
5708 Clear 16 1015 45 10000 1.79 248 20:19 28.10.2021
5709 Clear 19 1015 36 10000 3.13 225 18:47 28.10.2021
5710 Clear 20 1015 35 10000 2.68 225 17:42 28.10.2021
5711 Clear 20 1003 39 10000 1.79 203 16:38 28.10.2021
5712 Clear 18 1004 47 10000 2.68 135 14:43 28.10.2021
5713 Clear 16 1019 52 10000 1.34 135 13:33 28.10.2021
5714 Clear 15 1019 56 10000 0.89 135 12:50 28.10.2021
5715 Clear 13 1019 62 10000 0.45 180 11:50 28.10.2021
5716 Clear 11 1006 71 10000 0.45 164 10:38 28.10.2021
5717 Clear 8 1001 77 10000 0.45 90 09:37 28.10.2021
5718 Clear 9 1019 74 10000 1.34 90 08:36 28.10.2021
5719 Clear 9 1019 73 10000 1.34 65 07:41 28.10.2021
5720 Clear 10 1019 70 10000 1.79 90 03:51 28.10.2021
5721 Clear 14 1006 58 10000 0.45 247 22:57 27.10.2021
5722 Clear 14 1021 56 10000 0.45 250 22:26 27.10.2021
5723 Clear 15 1021 53 10000 1.79 225 21:32 27.10.2021
5724 Clear 16 1021 50 10000 0.89 203 20:46 27.10.2021
5725 Clear 18 1021 46 10000 0.45 225 19:48 27.10.2021
5726 Clear 19 1021 42 10000 1.34 203 18:56 27.10.2021
5727 Clear 20 1021 40 10000 2.24 203 18:36 27.10.2021
5728 Clear 20 1021 43 10000 0.89 203 16:25 27.10.2021
5729 Clear 19 1022 49 10000 0.89 293 15:28 27.10.2021
5730 Clear 18 1023 58 10000 0.89 225 14:28 27.10.2021
5731 Clear 12 1024 64 10000 0.45 113 11:18 27.10.2021
5732 Clear 12 1024 63 10000 0.45 68 10:56 27.10.2021
5733 Clear 8 1024 73 10000 1.34 45 09:28 27.10.2021
5734 Clear 8 1024 70 10000 1.34 45 07:47 27.10.2021
5735 Clear 9 1024 69 10000 2.24 30 05:49 27.10.2021
5736 Clear 13 1024 61 10000 0.89 40 01:26 27.10.2021
5737 Clear 12 1024 61 10000 0.45 32 00:55 27.10.2021
5738 Clear 13 1024 58 10000 0.45 193 23:56 26.10.2021
5739 Clear 13 1024 59 10000 0 0 22:50 26.10.2021
5740 Clear 13 1024 59 10000 0 0 22:27 26.10.2021
5741 Clear 15 1008 54 10000 0.45 338 21:51 26.10.2021
5742 Clear 17 1023 47 10000 0 0 19:59 26.10.2021
5743 Clear 19 1023 41 10000 0.45 97 19:22 26.10.2021
5744 Clear 20 1022 39 10000 0.45 38 18:25 26.10.2021
5745 Clear 20 1023 42 10000 0.89 68 15:51 26.10.2021
5746 Clear 18 1024 46 10000 0.45 82 14:18 26.10.2021
5747 Clear 13 1025 57 10000 1.79 23 11:23 26.10.2021
5748 Clear 10 1011 65 10000 3.13 45 09:27 26.10.2021
5749 Clear 10 1023 60 10000 0.89 45 07:23 26.10.2021
5750 Clear 13 1008 52 10000 0.45 23 00:29 26.10.2021
5751 Clear 13 1007 53 10000 1.34 45 23:37 25.10.2021
5752 Clear 14 1007 50 10000 0.89 293 22:35 25.10.2021
5753 Clear 14 1003 50 10000 0 0 21:47 25.10.2021
5754 Clear 16 1008 45 10000 0.45 158 20:48 25.10.2021
5755 Clear 18 1021 39 10000 0.89 135 19:44 25.10.2021
5756 Clear 18 1021 37 10000 1.34 113 19:23 25.10.2021
5757 Clear 20 1020 34 10000 0.45 131 18:40 25.10.2021
5758 Clear 20 1020 33 10000 0.45 113 17:35 25.10.2021
5759 Clear 19 1022 37 10000 1.79 300 15:24 25.10.2021
5760 Clear 15 1023 48 10000 0.45 203 12:39 25.10.2021
5761 Clear 13 1011 55 10000 0.89 113 11:25 25.10.2021
5762 Clear 8 1022 68 10000 0.89 45 09:22 25.10.2021
5763 Clear 8 1022 67 10000 0.45 45 07:20 25.10.2021
5764 Clear 9 1022 65 10000 0.89 45 05:21 25.10.2021
5765 Clear 12 1023 52 10000 0.45 293 00:52 25.10.2021
5766 Clear 12 1008 52 10000 0.89 56 00:34 25.10.2021
5767 Clear 13 1023 46 10000 0.45 248 23:42 24.10.2021
5768 Clear 13 1023 45 10000 0.45 270 22:39 24.10.2021
5769 Clear 13 1022 44 10000 0.89 247 22:20 24.10.2021
5770 Clear 15 1008 42 10000 0.45 248 21:33 24.10.2021
5771 Clear 16 1022 38 10000 0.45 248 20:39 24.10.2021
5772 Clear 18 1009 36 10000 0.45 203 19:47 24.10.2021
5773 Clear 20 1022 31 10000 0.89 180 18:29 24.10.2021
5774 Clear 20 1022 31 10000 1.79 158 17:45 24.10.2021
5775 Clear 19 1023 33 10000 0.45 180 15:57 24.10.2021
5776 Clear 19 1023 38 10000 0.45 158 15:19 24.10.2021
5777 Clear 16 1025 44 10000 0.89 203 13:19 24.10.2021
5778 Clear 13 1025 51 10000 0.45 143 11:56 24.10.2021
5779 Clear 12 1025 53 10000 0.45 113 11:34 24.10.2021
5780 Clear 10 1025 60 10000 0.51 0 10:30 24.10.2021
5781 Clear 6 1024 72 10000 0.89 68 08:00 24.10.2021
5782 Clear 12 1023 55 10000 1.34 38 01:26 24.10.2021
5783 Clear 12 1023 53 10000 0.45 292 23:51 23.10.2021
5784 Clear 12 1023 53 10000 1.54 210 22:40 23.10.2021
5785 Clear 16 1022 43 10000 0.45 270 20:39 23.10.2021
5786 Clear 19 1022 36 10000 1.34 180 19:00 23.10.2021
5787 Clear 19 1022 35 10000 0.89 225 18:41 23.10.2021
5788 Clear 19 1022 34 10000 1.79 221 17:44 23.10.2021
5789 Clear 19 1022 37 10000 0.89 206 16:45 23.10.2021
5790 Clear 17 1023 45 10000 0.45 293 14:45 23.10.2021
5791 Clouds 8 1023 70 10000 0.89 68 09:45 23.10.2021
5792 Clear 12 1023 60 10000 2.68 68 00:36 23.10.2021
5793 Clear 13 1022 57 10000 4.02 45 23:28 22.10.2021
5794 Clear 16 1020 45 10000 4.47 68 20:56 22.10.2021
5795 Clear 19 1006 37 10000 3.58 68 18:57 22.10.2021
5796 Clear 20 1006 36 10000 5.36 68 17:44 22.10.2021
5797 Clear 19 1019 36 10000 2.68 68 16:18 22.10.2021
5798 Clear 18 1020 41 10000 4.92 68 14:31 22.10.2021
5799 Clouds 15 1021 49 10000 6.26 45 12:41 22.10.2021
5800 Clouds 15 1021 49 10000 6.26 45 12:41 22.10.2021
5801 Clouds 15 1021 49 10000 3.13 68 12:41 22.10.2021
5802 Clouds 13 1020 55 10000 7.6 45 10:52 22.10.2021
5803 Clouds 12 1020 60 10000 3.58 45 09:56 22.10.2021
5804 Clouds 12 1020 60 10000 3.58 45 09:56 22.10.2021
5805 Clouds 11 1019 62 10000 4.47 23 09:32 22.10.2021
5806 Clouds 12 1004 68 10000 4.02 45 07:28 22.10.2021
5807 Clouds 12 1004 70 10000 5.36 45 06:19 22.10.2021
5808 Clear 15 1019 55 10000 3.58 68 00:37 22.10.2021
5809 Clear 15 1018 54 10000 2.68 45 23:48 21.10.2021
5810 Clear 16 1018 55 10000 1.34 68 22:22 21.10.2021
5811 Clear 17 1003 52 10000 1.34 293 21:23 21.10.2021
5812 Clear 18 1005 49 10000 2.24 248 20:21 21.10.2021
5813 Clear 19 1005 45 10000 1.34 248 19:31 21.10.2021
5814 Clear 20 1005 44 10000 0.89 270 18:59 21.10.2021
5815 Clear 21 1018 41 10000 0.45 158 18:27 21.10.2021
5816 Clear 21 1018 43 10000 1.79 270 17:47 21.10.2021
5817 Clear 21 1018 41 10000 1.79 270 17:47 21.10.2021
5818 Clear 21 1018 43 10000 0.45 270 16:40 21.10.2021
5819 Clear 20 1019 48 10000 0.89 3 15:22 21.10.2021
5820 Clear 20 1019 50 10000 0.89 21 14:50 21.10.2021
5821 Clear 19 1020 54 10000 2.24 45 13:39 21.10.2021
5822 Clear 16 1020 68 10000 0.45 23 11:47 21.10.2021
5823 Clear 13 1007 78 10000 0.89 64 09:26 21.10.2021
5824 Clear 14 1005 80 10000 0.89 216 07:33 21.10.2021
5825 Clear 15 1020 74 10000 2.68 293 05:33 21.10.2021
5826 Clear 18 1021 67 10000 1.79 293 00:22 21.10.2021
5827 Clear 19 1021 63 10000 2.68 248 22:23 20.10.2021
5828 Clear 20 1006 63 10000 3.58 293 21:47 20.10.2021
5829 Clear 20 1008 61 10000 4.92 248 20:58 20.10.2021
5830 Clear 21 1007 60 10000 2.68 315 20:37 20.10.2021
5831 Clear 21 1007 58 10000 4.02 248 20:00 20.10.2021
5832 Clear 22 1007 55 10000 3.13 270 19:18 20.10.2021
5833 Clear 23 1021 50 10000 1.79 225 18:29 20.10.2021
5834 Clear 23 1021 51 10000 3.13 248 18:29 20.10.2021
5835 Clear 22 1022 50 10000 0.45 225 15:57 20.10.2021
5836 Clear 20 1024 57 10000 1.79 200 13:46 20.10.2021
5837 Clear 14 1012 78 10000 0.89 113 09:50 20.10.2021
5838 Clear 15 1024 72 10000 0.45 61 05:28 20.10.2021
5839 Clear 17 1025 64 10000 1.79 135 01:24 20.10.2021
5840 Clear 18 1026 60 10000 1.34 158 00:32 20.10.2021
5841 Clear 19 1025 59 10000 0.89 135 22:28 19.10.2021
5842 Clear 20 1010 60 10000 0.89 135 21:33 19.10.2021
5843 Clear 21 1012 57 10000 0.45 338 20:26 19.10.2021
5844 Clear 23 1012 50 10000 1.34 0 19:51 19.10.2021
5845 Clear 23 1012 50 10000 0.89 315 19:29 19.10.2021
5846 Clear 24 1024 45 10000 0.45 90 18:23 19.10.2021
5847 Clear 24 1025 49 10000 0.89 113 17:20 19.10.2021
5848 Clear 23 1026 55 10000 0.89 113 15:26 19.10.2021
5849 Clear 22 1027 59 10000 0.45 113 14:31 19.10.2021
5850 Clear 21 1027 63 10000 0.89 113 13:49 19.10.2021
5851 Clear 17 1028 76 10000 0.45 68 11:38 19.10.2021
5852 Clear 16 1028 77 10000 0.89 113 10:51 19.10.2021
5853 Clouds 14 1027 82 10000 1.34 45 09:35 19.10.2021
5854 Clear 14 1014 84 10000 1.34 45 08:53 19.10.2021
5855 Clear 17 1026 69 10000 0.45 68 00:28 19.10.2021
5856 Clear 18 1026 67 10000 0.45 68 23:56 18.10.2021
5857 Clear 18 1026 68 10000 0.89 98 23:22 18.10.2021
5858 Clear 18 1025 66 10000 0.45 253 22:55 18.10.2021
5859 Clear 19 1025 63 10000 0.45 135 21:58 18.10.2021
5860 Clear 20 1013 59 10000 0.45 72 20:46 18.10.2021
5861 Clear 21 1013 58 10000 0.45 180 20:21 18.10.2021
5862 Clear 22 1013 54 10000 0.45 158 19:31 18.10.2021
5863 Clear 23 1023 50 10000 1.79 225 18:58 18.10.2021
5864 Clear 23 1024 50 10000 0.45 203 16:33 18.10.2021
5865 Clear 21 1025 57 10000 0.89 131 14:41 18.10.2021
5866 Clear 17 1025 77 10000 1.79 113 11:47 18.10.2021
5867 Clear 14 1024 88 10000 1.34 23 09:47 18.10.2021
5868 Clear 13 1008 92 10000 1.34 39 07:31 18.10.2021
5869 Clouds 18 1022 74 10000 1.79 270 23:54 17.10.2021
5870 Clouds 18 1021 70 10000 3.13 270 22:27 17.10.2021
5871 Clear 18 1021 67 10000 1.79 270 21:44 17.10.2021
5872 Clouds 19 1020 63 10000 3.58 270 20:49 17.10.2021
5873 Clear 20 1008 60 10000 2.68 225 19:59 17.10.2021
5874 Clear 20 1008 57 10000 2.24 203 19:38 17.10.2021
5875 Clouds 22 1002 53 10000 2.24 158 18:28 17.10.2021
5876 Clouds 22 1002 52 10000 2.24 158 18:28 17.10.2021
5877 Clouds 22 1019 53 10000 1.34 135 16:40 17.10.2021
5878 Clear 20 1020 58 10000 1.34 315 14:40 17.10.2021
5879 Clear 20 1020 59 10000 1.34 203 14:20 17.10.2021
5880 Clear 19 1020 64 10000 0.89 203 13:33 17.10.2021
5881 Clear 16 1020 77 10000 0.45 135 11:31 17.10.2021
5882 Clouds 15 1020 87 10000 1.79 45 10:19 17.10.2021
5883 Clouds 13 1019 91 10000 1.34 53 08:47 17.10.2021
5884 Clear 16 1019 66 10000 0.45 71 03:21 17.10.2021
5885 Clear 17 1019 61 10000 0.45 314 00:31 17.10.2021
5886 Clear 18 1019 53 10000 0.45 248 22:54 16.10.2021
5887 Clear 18 1018 50 10000 0.45 212 20:55 16.10.2021
5888 Clear 19 1007 50 10000 0 0 20:29 16.10.2021
5889 Clear 19 1007 46 10000 0.45 205 19:41 16.10.2021
5890 Clear 20 1007 45 10000 0.45 264 19:20 16.10.2021
5891 Clear 20 1007 44 10000 0.89 225 18:45 16.10.2021
5892 Clear 20 1007 44 10000 1.34 270 18:23 16.10.2021
5893 Clear 20 1007 44 10000 0.45 225 17:33 16.10.2021
5894 Clear 20 1018 43 10000 1.34 104 16:28 16.10.2021
5895 Clear 18 1019 47 10000 0.45 90 13:26 16.10.2021
5896 Clear 15 1020 53 10000 0.45 113 11:25 16.10.2021
5897 Clear 13 1019 59 10000 0.45 68 09:35 16.10.2021
5898 Clear 13 1019 62 10000 1.34 40 04:33 16.10.2021
5899 Clear 16 1019 55 10000 0.45 36 01:22 16.10.2021
5900 Clear 16 1019 54 10000 0.45 293 23:27 15.10.2021
5901 Clear 18 1019 50 10000 4.02 248 22:21 15.10.2021
5902 Clear 19 1007 48 10000 4.47 248 21:41 15.10.2021
5903 Clear 20 1008 46 10000 1.34 225 20:54 15.10.2021
5904 Clear 20 1008 44 10000 1.34 225 20:35 15.10.2021
5905 Clear 23 1007 36 10000 0.45 248 19:20 15.10.2021
5906 Clear 24 1018 34 10000 1.79 248 18:25 15.10.2021
5907 Clear 23 1019 37 10000 0.45 225 16:19 15.10.2021
5908 Clear 21 1021 47 10000 1.34 225 14:26 15.10.2021
5909 Clear 18 1022 57 10000 0.45 62 12:27 15.10.2021
5910 Clear 15 1022 64 10000 1.34 76 11:20 15.10.2021
5911 Clear 14 1021 64 10000 1.34 90 10:32 15.10.2021
5912 Clear 12 1021 70 10000 1.34 28 08:21 15.10.2021
5913 Clear 12 1021 65 10000 0.45 90 05:30 15.10.2021
5914 Clear 16 1022 52 8000 1.34 15 00:25 15.10.2021
5915 Clear 17 1022 46 10000 0.45 225 23:34 14.10.2021
5916 Clear 17 1007 46 10000 0 0 22:40 14.10.2021
5917 Clear 18 1007 43 10000 0 0 21:40 14.10.2021
5918 Clear 20 1021 37 10000 0.89 210 20:22 14.10.2021
5919 Clear 21 1021 36 10000 0.45 225 19:50 14.10.2021
5920 Clear 23 1021 32 10000 0.45 225 18:45 14.10.2021
5921 Clear 23 1021 35 10000 1.34 203 17:24 14.10.2021
5922 Clear 23 1022 40 10000 0.45 225 16:33 14.10.2021
5923 Clear 21 1023 49 10000 2.24 113 15:20 14.10.2021
5924 Clear 20 1023 53 10000 1.79 225 14:30 14.10.2021
5925 Clear 20 1023 53 10000 1.79 225 14:30 14.10.2021
5926 Clear 19 1013 59 10000 1.34 180 13:35 14.10.2021
5927 Clear 15 1024 60 10000 0.45 3 11:35 14.10.2021
5928 Clear 11 1023 53 10000 0.45 90 09:33 14.10.2021
5929 Clear 12 1022 50 10000 1.79 12 06:27 14.10.2021
5930 Clear 16 1004 36 10000 3.13 68 00:49 14.10.2021
5931 Clear 18 1020 32 10000 0.45 68 22:47 13.10.2021
5932 Clear 19 1020 28 10000 0.45 23 21:37 13.10.2021
5933 Clear 20 1020 26 10000 0.89 68 20:46 13.10.2021
5934 Clear 23 1019 21 10000 0.45 90 19:41 13.10.2021
5935 Clear 24 1019 18 10000 1.34 81 18:48 13.10.2021
5936 Clear 25 1019 18 10000 0.89 23 17:35 13.10.2021
5937 Clear 23 1008 20 10000 1.79 90 15:21 13.10.2021
5938 Clear 23 1009 20 10000 2.24 90 14:43 13.10.2021
5939 Clear 20 1010 25 10000 5.36 45 12:48 13.10.2021
5940 Clear 18 1021 30 10000 2.68 90 11:51 13.10.2021
5941 Clear 13 1020 42 10000 0.89 23 10:21 13.10.2021
5942 Clear 11 1019 46 10000 1.34 23 07:54 13.10.2021
5943 Clear 12 1019 45 10000 0.89 23 05:40 13.10.2021
5944 Clear 15 1007 38 10000 1.79 45 02:23 13.10.2021
5945 Clear 18 1019 49 10000 1.34 45 23:54 12.10.2021
5946 Clear 17 1019 59 10000 1.79 68 23:28 12.10.2021
5947 Clear 18 1018 57 10000 0.45 270 22:42 12.10.2021
5948 Clear 20 1018 51 10000 0.89 225 20:55 12.10.2021
5949 Clear 20 1018 48 10000 0.45 180 20:32 12.10.2021
5950 Clear 22 1018 45 10000 0.89 158 19:50 12.10.2021
5951 Clear 24 1018 39 10000 0.89 248 18:26 12.10.2021
5952 Clear 23 1018 41 10000 0.89 90 17:35 12.10.2021
5953 Clear 23 1018 44 10000 0.89 12 16:35 12.10.2021
5954 Clear 22 1019 48 10000 0.45 270 15:35 12.10.2021
5955 Clear 21 1020 53 10000 1.79 90 14:25 12.10.2021
5956 Clear 20 1021 58 10000 1.34 158 13:41 12.10.2021
5957 Clear 17 1022 69 10000 1.34 90 11:36 12.10.2021
5958 Clear 12 1021 76 10000 0 0 09:41 12.10.2021
5959 Clear 11 1021 76 10000 1.34 45 08:35 12.10.2021
5960 Clear 12 1021 74 10000 1.34 45 06:49 12.10.2021
5961 Clear 13 1021 72 10000 1.79 45 05:29 12.10.2021
5962 Clear 14 1022 69 10000 0.45 45 04:29 12.10.2021
5963 Clear 17 1009 62 10000 0.89 69 00:18 12.10.2021
5964 Clear 17 1022 59 10000 0.89 72 23:37 11.10.2021
5965 Clear 18 1021 58 10000 0.89 51 22:55 11.10.2021
5966 Clear 19 1021 55 10000 1.34 45 21:41 11.10.2021
5967 Clear 19 1021 54 10000 0.45 23 20:32 11.10.2021
5968 Clear 21 1021 49 10000 0.45 24 19:36 11.10.2021
5969 Clouds 22 1021 47 10000 0.89 68 18:24 11.10.2021
5970 Clouds 22 1021 48 10000 1.79 113 16:48 11.10.2021
5971 Clouds 22 1021 48 10000 2.68 88 16:28 11.10.2021
5972 Clouds 21 1022 51 10000 3.58 90 15:45 11.10.2021
5973 Clouds 21 1009 53 10000 3.13 68 14:54 11.10.2021
5974 Clouds 21 1010 56 10000 3.13 68 14:22 11.10.2021
5975 Clouds 19 1023 60 10000 2.68 90 13:36 11.10.2021
5976 Clear 16 1023 73 10000 1.79 68 11:25 11.10.2021
5977 Clouds 14 1023 72 10000 3.13 45 09:47 11.10.2021
5978 Clear 12 1022 77 10000 0.45 45 08:40 11.10.2021
5979 Clear 15 1022 69 10000 2.24 45 01:47 11.10.2021
5980 Clear 16 1022 67 10000 3.58 45 01:20 11.10.2021
5981 Clear 16 1022 66 10000 1.79 45 00:42 11.10.2021
5982 Clear 18 1021 61 10000 1.34 32 23:35 10.10.2021
5983 Clear 19 1021 57 10000 0.89 47 21:51 10.10.2021
5984 Clear 19 1021 57 10000 0.45 83 21:26 10.10.2021
5985 Clear 20 1021 55 10000 0.45 128 20:41 10.10.2021
5986 Clear 21 1021 52 10000 0.45 113 20:20 10.10.2021
5987 Clear 21 1021 51 10000 0.45 113 19:49 10.10.2021
5988 Clouds 22 1021 47 10000 0.45 90 19:30 10.10.2021
5989 Clouds 23 1021 47 10000 0.89 135 18:23 10.10.2021
5990 Clouds 22 1021 55 10000 0.89 225 15:54 10.10.2021
5991 Clouds 21 1022 57 10000 1.34 45 15:35 10.10.2021
5992 Clouds 19 1023 63 10000 0.45 113 13:41 10.10.2021
5993 Clouds 18 1023 64 10000 0.45 68 12:44 10.10.2021
5994 Clouds 16 1023 64 10000 0.89 45 11:59 10.10.2021
5995 Clouds 14 1023 66 10000 0.89 23 10:31 10.10.2021
5996 Clouds 13 1022 66 10000 0.89 23 09:22 10.10.2021
5997 Clouds 13 1022 66 10000 0.45 45 08:51 10.10.2021
5998 Clouds 12 1009 65 10000 3.13 23 06:19 10.10.2021
5999 Clear 15 1021 51 10000 3.58 45 02:23 10.10.2021
6000 Clear 16 1021 48 10000 4.92 45 00:52 10.10.2021
6001 Clear 17 1021 49 9000 3.13 23 23:52 09.10.2021
6002 Clear 19 1020 45 10000 0.45 293 22:21 09.10.2021
6003 Clear 19 1020 47 10000 0.45 109 21:30 09.10.2021
6004 Clear 19 1020 47 10000 0.45 109 21:30 09.10.2021
6005 Clear 20 1020 40 10000 0.45 135 20:43 09.10.2021
6006 Clear 23 1020 34 10000 0.45 68 19:41 09.10.2021
6007 Clear 24 1019 32 10000 0.45 113 18:51 09.10.2021
6008 Clear 24 1020 33 10000 0.45 0 18:27 09.10.2021
6009 Clear 23 1020 39 10000 0.45 315 16:26 09.10.2021
6010 Clear 21 1021 48 10000 0.45 135 14:48 09.10.2021
6011 Clear 20 1022 53 10000 0.45 23 13:40 09.10.2021
6012 Clear 18 1022 57 10000 1.34 210 12:35 09.10.2021
6013 Clear 19 1022 58 10000 0.45 203 12:35 09.10.2021
6014 Clouds 16 1022 56 10000 0.45 23 11:26 09.10.2021
6015 Clear 14 1021 52 10000 1.79 23 10:21 09.10.2021
6016 Clear 13 1021 53 10000 0.89 45 09:29 09.10.2021
6017 Clear 11 1020 56 10000 1.79 68 08:28 09.10.2021
6018 Clear 13 1020 50 10000 2.24 45 06:47 09.10.2021
6019 Clear 13 1020 49 10000 0.89 68 05:20 09.10.2021
6020 Clear 16 1020 40 10000 2.24 23 02:47 09.10.2021
6021 Clear 18 1020 39 10000 3.58 68 00:43 09.10.2021
6022 Clear 19 1020 41 10000 3.13 45 23:35 08.10.2021
6023 Clear 19 1020 44 10000 1.79 68 22:49 08.10.2021
6024 Clear 20 1019 41 10000 0.45 248 21:47 08.10.2021
6025 Clear 22 1019 37 10000 0.45 248 20:31 08.10.2021
6026 Clear 26 1019 28 10000 1.34 248 18:23 08.10.2021
6027 Clear 25 1019 29 10000 1.34 248 17:18 08.10.2021
6028 Clear 25 1019 28 10000 0.45 248 16:44 08.10.2021
6029 Clear 26 1019 28 10000 1.34 135 16:22 08.10.2021
6030 Clear 23 1021 35 10000 0.89 158 13:48 08.10.2021
6031 Clear 20 1021 45 10000 0.89 113 11:57 08.10.2021
6032 Clear 18 1021 50 10000 1.34 90 10:50 08.10.2021
6033 Clear 17 1021 55 10000 0.89 50 10:25 08.10.2021
6034 Clear 13 1006 62 10000 0.89 38 06:49 08.10.2021
6035 Clear 18 1020 41 10000 0.89 45 23:29 07.10.2021
6036 Clear 18 1020 40 10000 0.89 45 22:56 07.10.2021
6037 Clear 20 1020 36 10000 0.89 270 21:30 07.10.2021
6038 Clear 22 1009 31 10000 1.79 248 20:43 07.10.2021
6039 Clear 25 1009 25 10000 0.45 270 19:39 07.10.2021
6040 Clear 25 1007 23 10000 3.58 248 18:59 07.10.2021
6041 Clear 25 1020 23 10000 0.45 234 17:35 07.10.2021
6042 Clear 25 1021 23 10000 0.45 180 16:42 07.10.2021
6043 Clear 24 1022 30 10000 0.89 68 14:57 07.10.2021
6044 Clear 21 1023 37 10000 1.34 225 13:44 07.10.2021
6045 Clear 20 1023 39 10000 0.45 270 13:20 07.10.2021
6046 Clear 18 1024 46 10000 0.89 38 11:48 07.10.2021
6047 Clear 16 1024 52 10000 0.89 37 10:48 07.10.2021
6048 Clear 16 1024 52 10000 0.89 37 10:48 07.10.2021
6049 Clear 14 1011 62 10000 0.89 90 09:51 07.10.2021
6050 Clear 11 1023 66 10000 2.24 27 08:55 07.10.2021
6051 Clear 11 1023 70 10000 0.89 37 08:25 07.10.2021
6052 Clear 12 1023 67 10000 0.89 66 07:40 07.10.2021
6053 Clear 12 1023 66 9000 0.89 33 06:47 07.10.2021
6054 Clear 16 1024 52 9000 0.45 45 00:59 07.10.2021
6055 Clear 18 1025 52 10000 0.89 45 23:30 06.10.2021
6056 Clear 18 1025 55 10000 0.89 23 22:40 06.10.2021
6057 Clear 19 1024 55 10000 0 0 21:40 06.10.2021
6058 Clear 20 1013 50 10000 1.54 120 20:33 06.10.2021
6059 Clear 23 1013 43 10000 0.45 113 19:26 06.10.2021
6060 Clear 24 1024 42 10000 0.45 338 17:56 06.10.2021
6061 Clear 23 1024 45 10000 0.45 0 16:40 06.10.2021
6062 Clouds 22 1025 50 10000 1.79 270 15:18 06.10.2021
6063 Clear 20 1026 55 10000 0.45 0 13:31 06.10.2021
6064 Clear 19 1026 61 10000 0.45 0 12:47 06.10.2021
6065 Clear 19 1026 61 10000 2.24 45 12:28 06.10.2021
6066 Clear 18 1026 67 10000 2.68 96 11:39 06.10.2021
6067 Clear 15 1025 79 10000 1.34 67 09:45 06.10.2021
6068 Clear 14 1025 83 10000 0.45 90 09:26 06.10.2021
6069 Clear 13 1012 86 10000 0.89 50 08:39 06.10.2021
6070 Clear 14 1009 82 10000 0.45 67 06:18 06.10.2021
6071 Clear 15 1024 78 10000 0.89 45 04:24 06.10.2021
6072 Clear 15 1023 79 10000 0.45 81 04:24 06.10.2021
6073 Clear 17 1024 73 10000 3.13 293 00:24 06.10.2021
6074 Clear 17 1024 71 10000 3.58 315 23:51 05.10.2021
6075 Clear 17 1024 71 10000 3.58 315 23:51 05.10.2021
6076 Clear 17 1024 71 10000 3.58 315 23:51 05.10.2021
6077 Clear 18 1024 69 10000 0.45 293 23:31 05.10.2021
6078 Clear 18 1023 68 10000 2.68 315 22:36 05.10.2021
6079 Clear 19 1010 67 10000 2.24 315 21:57 05.10.2021
6080 Clouds 19 1010 67 10000 1.79 270 21:29 05.10.2021
6081 Clouds 20 1011 63 10000 0.89 270 20:38 05.10.2021
6082 Clouds 20 1011 62 10000 1.79 293 20:18 05.10.2021
6083 Clouds 20 1011 59 10000 1.34 270 19:25 05.10.2021
6084 Clouds 21 1021 58 10000 3.13 293 18:21 05.10.2021
6085 Clouds 22 1022 51 10000 3.58 315 15:39 05.10.2021
6086 Clouds 20 1022 58 10000 4.47 270 13:55 05.10.2021
6087 Clouds 20 1023 60 10000 4.02 270 13:26 05.10.2021
6088 Clouds 18 1023 63 10000 2.68 270 12:35 05.10.2021
6089 Clouds 16 1023 65 10000 0.89 225 11:41 05.10.2021
6090 Clouds 14 1022 70 10000 1.34 248 10:38 05.10.2021
6091 Clouds 11 1009 77 10000 0.89 149 08:36 05.10.2021
6092 Clear 12 1022 67 10000 3.58 270 01:47 05.10.2021
6093 Clear 14 1022 60 10000 1.79 293 23:39 04.10.2021
6094 Clear 15 1009 51 10000 2.24 292 21:42 04.10.2021
6095 Clear 19 1020 33 10000 3.13 270 18:54 04.10.2021
6096 Clouds 19 1020 32 10000 0.45 270 17:44 04.10.2021
6097 Clouds 18 1021 38 10000 3.58 293 15:59 04.10.2021
6098 Clouds 18 1021 40 10000 1.34 293 15:29 04.10.2021
6099 Clear 17 1022 44 10000 1.79 225 14:34 04.10.2021
6100 Clear 16 1022 50 10000 1.79 248 13:47 04.10.2021
6101 Clear 15 1022 55 10000 1.79 225 12:51 04.10.2021
6102 Clear 12 1022 66 10000 1.34 293 11:34 04.10.2021
6103 Clear 11 1022 72 10000 2.68 248 10:47 04.10.2021
6104 Clear 10 1007 78 10000 3.13 293 09:47 04.10.2021
6105 Clear 9 1006 81 10000 0.89 248 08:30 04.10.2021
6106 Clear 9 1020 78 10000 1.34 248 06:51 04.10.2021
6107 Clouds 13 1018 56 10000 1.79 23 23:41 03.10.2021
6108 Clouds 14 1018 49 10000 1.79 23 22:32 03.10.2021
6109 Clear 15 1004 49 10000 1.79 338 21:35 03.10.2021
6110 Clear 15 1004 49 10000 1.34 293 20:50 03.10.2021
6111 Clear 16 1003 58 10000 0.45 293 19:50 03.10.2021
6112 Clouds 17 1012 53 10000 2.68 293 18:30 03.10.2021
6113 Clouds 17 1012 60 10000 4.92 293 17:39 03.10.2021
6114 Drizzle 15 1012 83 10000 6.26 270 15:30 03.10.2021
6115 Mist 15 1012 93 1000 4.92 293 14:35 03.10.2021
6116 Rain 15 1012 93 1000 1.34 248 13:36 03.10.2021
6117 Clouds 15 1012 94 6000 3.58 203 12:50 03.10.2021
6118 Rain 15 1012 92 8000 1.79 225 11:40 03.10.2021
6119 Mist 16 999 87 3000 1.79 225 10:31 03.10.2021
6120 Clouds 16 1011 80 10000 3.58 225 07:39 03.10.2021
6121 Clear 19 1014 53 10000 2.68 203 23:50 02.10.2021
6122 Clear 20 1014 50 10000 4.02 248 22:18 02.10.2021
6123 Clear 22 1014 46 10000 3.58 225 20:34 02.10.2021
6124 Clear 24 1014 36 10000 2.68 248 18:57 02.10.2021
6125 Clear 24 1015 35 10000 1.79 270 18:27 02.10.2021
6126 Clear 24 1015 32 10000 4.02 248 17:38 02.10.2021
6127 Clear 24 1016 35 10000 3.58 203 16:39 02.10.2021
6128 Clear 24 1007 40 10000 2.24 203 14:35 02.10.2021
6129 Clouds 23 1025 48 10000 0.45 270 15:38 30.09.2021
6130 Clear 22 1026 54 10000 0.45 248 14:29 30.09.2021
6131 Clouds 18 1027 60 10000 0.45 45 11:59 30.09.2021
6132 Clouds 17 1027 62 10000 1.79 68 11:23 30.09.2021
6133 Clouds 16 1027 63 10000 0.45 338 10:25 30.09.2021
6134 Clouds 16 1027 63 10000 0.89 45 10:25 30.09.2021
6135 Clouds 15 1027 66 10000 2.24 45 08:32 30.09.2021
6136 Clouds 14 1027 67 10000 1.79 68 07:48 30.09.2021
6137 Clear 14 1027 66 10000 3.58 45 05:25 30.09.2021
6138 Clear 16 1027 62 10000 4.47 23 02:33 30.09.2021
6139 Clear 18 1027 52 10000 4.02 68 00:33 30.09.2021
6140 Clear 19 1027 47 10000 2.68 45 22:42 29.09.2021
6141 Clear 20 1026 42 10000 0.45 23 21:42 29.09.2021
6142 Clear 22 1015 37 10000 0.45 45 20:31 29.09.2021
6143 Clear 23 1015 35 10000 1.79 68 19:59 29.09.2021
6144 Clear 24 1015 33 10000 1.34 315 19:22 29.09.2021
6145 Clear 24 1025 33 10000 0.45 68 18:18 29.09.2021
6146 Clouds 24 1026 33 10000 0.45 68 16:55 29.09.2021
6147 Clouds 24 1026 36 10000 1.79 111 16:25 29.09.2021
6148 Clouds 23 1027 40 10000 0.45 68 15:24 29.09.2021
6149 Clouds 23 1027 42 10000 0.45 90 14:36 29.09.2021
6150 Clear 22 1027 46 10000 0.89 113 13:33 29.09.2021
6151 Clear 20 1027 53 10000 0.45 68 12:38 29.09.2021
6152 Clear 18 1027 61 10000 0.45 45 11:18 29.09.2021
6153 Clear 17 1027 64 10000 0.45 45 10:27 29.09.2021
6154 Clear 16 1015 73 10000 1.34 23 09:40 29.09.2021
6155 Clear 14 1013 75 10000 0.89 46 07:48 29.09.2021
6156 Clear 15 1024 69 10000 0.89 51 05:52 29.09.2021
6157 Clear 19 1024 55 10000 0.45 315 23:59 28.09.2021
6158 Clear 20 1023 42 10000 2.24 293 22:25 28.09.2021
6159 Clear 20 1023 39 10000 3.13 270 21:46 28.09.2021
6160 Clear 22 1022 37 10000 2.24 270 20:48 28.09.2021
6161 Clear 24 1022 33 10000 1.79 248 19:48 28.09.2021
6162 Clear 24 1021 32 10000 1.34 248 19:25 28.09.2021
6163 Clear 25 1021 32 10000 3.13 248 18:40 28.09.2021
6164 Clear 24 1021 40 10000 4.02 270 16:43 28.09.2021
6165 Clear 25 1011 41 10000 1.34 270 14:53 28.09.2021
6166 Clear 23 1023 47 10000 1.79 203 13:25 28.09.2021
6167 Clear 21 1023 54 10000 1.79 180 12:24 28.09.2021
6168 Clear 21 1023 54 10000 1.79 180 12:24 28.09.2021
6169 Clear 20 1023 60 10000 0.45 90 11:47 28.09.2021
6170 Clear 19 1023 64 10000 0.89 113 11:25 28.09.2021
6171 Clear 17 1023 71 10000 0.89 113 10:27 28.09.2021
6172 Clear 15 1022 77 10000 1.34 38 09:29 28.09.2021
6173 Clear 14 1022 81 10000 1.34 68 08:43 28.09.2021
6174 Clear 14 1022 81 10000 1.34 45 07:55 28.09.2021
6175 Clear 15 1022 80 10000 0.89 45 06:25 28.09.2021
6176 Clear 17 1023 62 10000 0.45 68 01:31 28.09.2021
6177 Clear 18 1024 53 10000 0.89 49 00:28 28.09.2021
6178 Clear 19 1024 51 10000 0.45 14 23:48 27.09.2021
6179 Clear 19 1024 52 10000 0.45 225 23:24 27.09.2021
6180 Clear 20 1023 47 10000 0.45 276 22:20 27.09.2021
6181 Clear 20 1023 46 10000 0.45 248 22:20 27.09.2021
6182 Clear 22 1012 46 10000 0.89 248 20:54 27.09.2021
6183 Clear 23 1012 43 10000 0.89 225 20:26 27.09.2021
6184 Clear 24 1022 38 10000 0.89 225 19:37 27.09.2021
6185 Clear 25 1022 36 10000 1.34 270 18:52 27.09.2021
6186 Clear 25 1023 39 10000 0.89 315 17:41 27.09.2021
6187 Clear 25 1023 38 10000 0.89 248 16:56 27.09.2021
6188 Clear 25 1023 40 10000 0.45 248 16:34 27.09.2021
6189 Clear 24 1023 44 10000 0.45 248 15:37 27.09.2021
6190 Clear 22 1024 53 10000 2.24 203 13:49 27.09.2021
6191 Clear 19 1025 67 10000 0.45 203 12:22 27.09.2021
6192 Clear 17 1024 74 10000 0.89 115 10:50 27.09.2021
6193 Clear 15 1023 83 10000 0.51 0 09:42 27.09.2021
6194 Clear 14 1023 88 10000 0.45 180 07:54 27.09.2021
6195 Clear 16 1023 72 10000 1.79 225 03:34 27.09.2021
6196 Clear 18 1023 60 10000 1.34 225 23:53 26.09.2021
6197 Clear 19 1023 58 10000 2.24 248 21:59 26.09.2021
6198 Clear 20 1022 56 10000 2.68 248 21:27 26.09.2021
6199 Clear 21 1022 52 10000 1.79 225 20:30 26.09.2021
6200 Clear 22 1011 50 10000 3.13 203 19:54 26.09.2021
6201 Clear 23 1011 48 10000 2.68 203 19:26 26.09.2021
6202 Clear 23 1011 48 10000 2.24 203 19:26 26.09.2021
6203 Clear 23 1011 48 10000 2.68 203 19:26 26.09.2021
6204 Clear 23 1011 48 10000 2.24 203 19:26 26.09.2021
6205 Clear 23 1011 48 10000 2.24 203 19:26 26.09.2021
6206 Clear 23 1011 48 10000 2.68 203 19:26 26.09.2021
6207 Clear 23 1011 48 10000 2.24 203 19:26 26.09.2021
6208 Clear 23 1011 48 10000 2.24 203 19:26 26.09.2021
6209 Clear 23 1011 48 10000 2.68 203 19:26 26.09.2021
6210 Clear 23 1011 46 10000 1.34 270 18:41 26.09.2021
6211 Clouds 23 1022 45 10000 2.24 203 17:48 26.09.2021
6212 Clouds 23 1022 46 10000 1.34 180 17:20 26.09.2021
6213 Clouds 23 1022 48 10000 0.89 270 16:23 26.09.2021
6214 Clouds 23 1023 49 10000 1.79 203 15:47 26.09.2021
6215 Clouds 21 1023 54 10000 2.68 158 14:23 26.09.2021
6216 Clouds 21 1024 58 10000 2.24 180 13:43 26.09.2021
6217 Clouds 19 1024 68 10000 1.34 135 12:31 26.09.2021
6218 Clear 18 1024 74 10000 2.24 270 11:56 26.09.2021
6219 Clear 17 1024 76 10000 0.89 248 11:32 26.09.2021
6220 Clear 15 1023 87 10000 0.45 293 09:52 26.09.2021
6221 Clear 13 1022 96 10000 0.89 270 08:52 26.09.2021
6222 Clear 16 1021 79 10000 2.24 225 01:28 26.09.2021
6223 Clear 17 1021 75 10000 2.68 248 00:20 26.09.2021
6224 Clouds 18 1021 72 10000 2.68 270 22:42 25.09.2021
6225 Clouds 18 1021 71 10000 2.24 248 22:23 25.09.2021
6226 Clear 18 1020 67 10000 3.13 248 21:47 25.09.2021
6227 Clouds 19 1008 63 10000 2.24 270 20:53 25.09.2021
6228 Clouds 20 1008 57 10000 3.13 203 19:53 25.09.2021
6229 Clouds 21 1008 54 10000 3.58 203 18:39 25.09.2021
6230 Clouds 21 1019 51 10000 4.47 203 17:46 25.09.2021
6231 Clouds 20 1020 57 10000 4.92 248 14:49 25.09.2021
6232 Clouds 19 1020 66 10000 3.58 225 13:56 25.09.2021
6233 Clouds 18 1020 71 10000 4.02 180 12:48 25.09.2021
6234 Clouds 17 1019 76 10000 1.79 203 11:38 25.09.2021
6235 Clear 16 1019 84 10000 2.24 225 10:21 25.09.2021
6236 Clouds 15 1018 87 10000 1.79 248 09:24 25.09.2021
6237 Clouds 15 1003 91 10000 2.24 248 07:50 25.09.2021
6238 Clouds 18 1017 95 10000 0.45 113 00:59 25.09.2021
6239 Rain 18 1017 92 8000 0.45 48 23:33 24.09.2021
6240 Clear 18 1016 90 10000 0.45 90 21:39 24.09.2021
6241 Clouds 19 1003 89 10000 0.45 45 20:32 24.09.2021
6242 Thunderstorm 20 1003 85 10000 0.45 315 19:43 24.09.2021
6243 Rain 21 1015 80 10000 1.79 338 18:30 24.09.2021
6244 Clouds 21 1015 78 10000 2.24 270 17:53 24.09.2021
6245 Clouds 20 1015 83 10000 4.12 260 17:35 24.09.2021
6246 Clouds 22 1015 79 10000 1.34 258 16:35 24.09.2021
6247 Clouds 22 1017 68 10000 4.92 113 13:41 24.09.2021
6248 Clouds 21 1017 71 10000 5.36 135 12:44 24.09.2021
6249 Clouds 21 1017 71 10000 4.02 90 12:26 24.09.2021
6250 Clouds 19 1017 77 10000 1.79 90 11:28 24.09.2021
6251 Clouds 17 1004 85 10000 2.24 113 09:59 24.09.2021
6252 Clouds 16 1004 87 10000 1.79 45 08:24 24.09.2021
6253 Clouds 17 1016 87 10000 2.24 90 07:31 24.09.2021
6254 Clouds 17 1017 88 10000 1.34 68 06:24 24.09.2021
6255 Clouds 17 1017 85 10000 1.79 68 04:52 24.09.2021
6256 Clouds 20 1018 71 10000 1.34 135 22:44 23.09.2021
6257 Rain 22 1005 59 10000 4.47 135 21:59 23.09.2021
6258 Rain 22 1004 57 10000 3.13 158 21:37 23.09.2021
6259 Rain 23 1005 52 10000 2.68 113 20:32 23.09.2021
6260 Clouds 24 1016 48 10000 1.34 113 18:56 23.09.2021
6261 Clouds 24 1017 48 10000 3.58 113 16:49 23.09.2021
6262 Clouds 23 1018 54 10000 1.34 23 15:20 23.09.2021
6263 Clouds 23 1018 54 10000 3.58 90 14:58 23.09.2021
6264 Clouds 21 1019 60 10000 3.13 90 13:40 23.09.2021
6265 Clouds 21 1020 61 10000 2.24 68 13:18 23.09.2021
6266 Clouds 20 1020 65 10000 3.13 45 12:46 23.09.2021
6267 Clouds 19 1020 67 10000 4.92 23 12:21 23.09.2021
6268 Clouds 18 1007 75 10000 3.58 68 11:20 23.09.2021
6269 Clouds 16 1007 79 10000 2.24 68 10:19 23.09.2021
6270 Clouds 15 1007 80 10000 4.02 45 09:48 23.09.2021
6271 Clouds 15 1019 82 10000 2.68 68 06:49 23.09.2021
6272 Clear 15 1020 83 10000 2.24 45 01:18 23.09.2021
6273 Drizzle 17 1007 69 10000 3.58 68 22:58 22.09.2021
6274 Clouds 18 1007 63 10000 2.24 45 22:23 22.09.2021
6275 Clouds 19 1018 59 10000 2.06 100 21:46 22.09.2021
6276 Clouds 19 1018 60 10000 3.13 77 21:46 22.09.2021
6277 Rain 20 1018 54 10000 1.54 70 20:59 22.09.2021
6278 Clouds 20 1000 55 10000 1.03 0 20:38 22.09.2021
6279 Clouds 21 1018 50 10000 1.34 113 19:27 22.09.2021
6280 Clouds 21 1018 50 10000 0.45 113 18:36 22.09.2021
6281 Clouds 21 1019 52 10000 0.45 90 17:39 22.09.2021
6282 Clouds 20 1019 54 10000 0.45 45 16:36 22.09.2021
6283 Clouds 17 1021 71 10000 4.47 45 14:37 22.09.2021
6284 Clouds 14 1022 80 10000 2.24 45 13:24 22.09.2021
6285 Clouds 14 1009 78 10000 1.79 90 11:34 22.09.2021
6286 Clouds 14 1009 73 10000 1.79 90 10:18 22.09.2021
6287 Clouds 13 1021 73 10000 4.92 45 08:52 22.09.2021
6288 Clouds 13 1021 72 10000 3.58 68 07:49 22.09.2021
6289 Clear 13 1021 70 10000 4.92 45 06:57 22.09.2021
6290 Clear 14 1021 68 10000 2.68 45 05:51 22.09.2021
6291 Clear 14 1021 68 10000 3.13 68 05:23 22.09.2021
6292 Clear 15 1022 62 10000 4.47 68 03:43 22.09.2021
6293 Clear 16 1023 52 10000 4.47 68 00:20 22.09.2021
6294 Clear 18 1010 45 10000 5.81 68 22:43 21.09.2021
6295 Clear 19 1009 41 10000 4.92 68 21:31 21.09.2021
6296 Clear 21 1021 32 10000 1.34 45 19:39 21.09.2021
6297 Clear 22 1021 32 10000 3.13 113 19:20 21.09.2021
6298 Clear 22 1021 34 10000 3.13 90 16:59 21.09.2021
6299 Clear 22 1022 35 10000 1.79 90 16:29 21.09.2021
6300 Clear 21 1022 37 10000 2.24 68 15:31 21.09.2021
6301 Clear 20 1023 39 10000 6.26 45 14:56 21.09.2021
6302 Clear 20 1023 39 10000 6.26 45 14:56 21.09.2021
6303 Clear 19 1023 41 10000 6.26 68 13:40 21.09.2021
6304 Clear 18 1023 42 10000 5.36 68 13:19 21.09.2021
6305 Clear 15 1023 46 10000 5.71 52 11:21 21.09.2021
6306 Clear 13 1024 61 10000 2.06 40 09:54 21.09.2021
6307 Clear 11 1023 64 10000 2.57 30 07:51 21.09.2021
6308 Clear 12 1023 63 10000 2.57 30 06:38 21.09.2021
6309 Clear 16 1023 56 10000 3.6 0 23:58 20.09.2021
6310 Clear 17 1022 51 10000 4.63 0 22:18 20.09.2021
6311 Clear 19 1021 41 10000 4.12 360 21:36 20.09.2021
6312 Clear 21 1020 37 10000 3.6 20 20:29 20.09.2021
6313 Clear 22 1020 36 10000 4.92 0 19:29 20.09.2021
6314 Clouds 24 1020 37 10000 0.89 90 17:40 20.09.2021
6315 Clouds 24 1020 38 10000 0.89 45 16:43 20.09.2021
6316 Clouds 24 1021 38 10000 3.13 68 15:49 20.09.2021
6317 Clouds 23 1021 39 10000 2.68 113 15:49 20.09.2021
6318 Clouds 23 1021 39 10000 0.89 135 15:23 20.09.2021
6319 Clear 22 1022 46 10000 2.68 68 13:45 20.09.2021
6320 Clear 20 1022 52 10000 1.34 113 12:35 20.09.2021
6321 Clear 20 1022 52 10000 3.13 45 12:35 20.09.2021
6322 Clear 18 1010 60 10000 3.13 90 11:23 20.09.2021
6323 Clear 16 1009 65 10000 4.02 68 09:59 20.09.2021
6324 Clear 15 1009 66 10000 4.92 45 09:36 20.09.2021
6325 Clear 15 1009 67 10000 4.02 45 09:18 20.09.2021
6326 Clear 15 1021 59 10000 0.89 68 06:55 20.09.2021
6327 Clear 19 1021 47 10000 0.89 315 23:49 19.09.2021
6328 Clear 20 1008 45 10000 0.45 270 22:26 19.09.2021
6329 Clear 20 1008 45 10000 0.45 270 22:26 19.09.2021
6330 Clear 21 1008 41 10000 0.89 270 21:40 19.09.2021
6331 Clear 23 1009 35 10000 0.45 270 20:43 19.09.2021
6332 Clear 24 1020 30 10000 0.89 315 19:31 19.09.2021
6333 Clear 25 1020 28 10000 0.45 113 18:29 19.09.2021
6334 Clear 24 1020 29 10000 0.45 113 17:23 19.09.2021
6335 Clear 24 1021 31 10000 1.34 283 15:59 19.09.2021
6336 Clear 23 1021 34 10000 1.79 113 15:30 19.09.2021
6337 Clear 23 1021 34 10000 1.79 113 15:30 19.09.2021
6338 Clear 22 1022 36 10000 0.45 225 14:48 19.09.2021
6339 Clear 20 1022 43 10000 0.45 315 13:24 19.09.2021
6340 Clear 20 1022 46 10000 1.34 45 12:50 19.09.2021
6341 Clear 17 1022 59 10000 1.34 23 11:28 19.09.2021
6342 Clear 16 1022 63 10000 0.45 113 10:53 19.09.2021
6343 Clear 14 1009 67 10000 1.79 23 09:40 19.09.2021
6344 Clear 13 1008 69 10000 3.13 68 08:35 19.09.2021
6345 Clear 14 1020 60 10000 1.79 90 06:42 19.09.2021
6346 Clear 18 1019 38 10000 1.34 58 23:43 18.09.2021
6347 Clear 20 1018 34 10000 2.68 338 22:31 18.09.2021
6348 Clear 21 1006 36 10000 2.68 315 20:56 18.09.2021
6349 Clear 22 1006 35 10000 4.47 315 20:36 18.09.2021
6350 Clear 23 1005 33 10000 5.36 293 19:40 18.09.2021
6351 Clear 24 1005 32 10000 2.68 338 19:20 18.09.2021
6352 Clear 25 1016 34 10000 5.36 315 18:32 18.09.2021
6353 Clouds 25 1016 38 10000 4.47 315 17:34 18.09.2021
6354 Clouds 25 1016 38 10000 4.02 248 16:24 18.09.2021
6355 Clouds 24 1016 50 10000 2.68 248 13:49 18.09.2021
6356 Clouds 23 1017 53 10000 4.47 225 13:29 18.09.2021
6357 Clear 22 1017 57 10000 3.13 270 12:49 18.09.2021
6358 Clear 21 1016 67 10000 0.89 225 11:41 18.09.2021
6359 Clear 20 1016 71 10000 0.45 5 10:33 18.09.2021
6360 Clear 18 1016 74 10000 1.34 80 09:48 18.09.2021
6361 Clear 17 1001 82 10000 1.34 78 09:19 18.09.2021
6362 Clear 17 1015 78 10000 1.03 0 05:51 18.09.2021
6363 Clouds 21 1016 69 10000 1.34 293 00:42 18.09.2021
6364 Clouds 21 1016 67 10000 4.47 315 23:50 17.09.2021
6365 Clear 23 1016 57 10000 1.34 293 22:40 17.09.2021
6366 Clear 23 1016 56 10000 0.89 293 22:20 17.09.2021
6367 Clear 23 1015 53 10000 1.34 270 21:23 17.09.2021
6368 Clear 25 1002 44 10000 3.13 270 19:26 17.09.2021
6369 Clouds 26 1016 42 10000 3.13 270 17:29 17.09.2021
6370 Clouds 26 1016 42 10000 3.13 248 16:27 17.09.2021
6371 Clear 24 1018 49 10000 0.45 158 14:23 17.09.2021
6372 Clear 21 1019 69 10000 0.45 248 11:30 17.09.2021
6373 Clear 16 1017 87 10000 0.89 23 08:54 17.09.2021
6374 Clear 16 1017 86 10000 1.79 68 07:33 17.09.2021
6375 Clear 17 1019 81 10000 1.34 45 03:54 17.09.2021
6376 Clear 20 1020 64 10000 1.34 28 23:35 16.09.2021
6377 Clear 21 1020 61 10000 0.45 45 22:33 16.09.2021
6378 Clouds 21 1019 58 10000 0.45 45 21:52 16.09.2021
6379 Clouds 22 1018 56 10000 0.45 68 21:27 16.09.2021
6380 Clouds 23 1018 51 10000 1.34 23 20:19 16.09.2021
6381 Clouds 24 1006 50 10000 2.68 248 18:24 16.09.2021
6382 Clouds 24 1018 49 10000 1.79 293 17:54 16.09.2021
6383 Clouds 23 1020 54 10000 1.54 170 14:59 16.09.2021
6384 Clouds 23 1019 55 10000 1.34 90 14:26 16.09.2021
6385 Clouds 21 1019 66 10000 1.34 191 12:52 16.09.2021
6386 Clouds 21 1019 71 10000 0.45 68 12:33 16.09.2021
6387 Clouds 19 1019 77 10000 1.34 87 11:28 16.09.2021
6388 Clouds 18 1019 82 10000 0.89 74 10:34 16.09.2021
6389 Clouds 17 1019 85 10000 0.89 90 09:59 16.09.2021
6390 Clear 16 1018 89 10000 0.45 113 08:42 16.09.2021
6391 Clear 17 1000 88 10000 0.89 315 07:36 16.09.2021
6392 Clear 17 997 90 10000 0.89 270 06:47 16.09.2021
6393 Clear 17 996 88 10000 1.03 190 05:57 16.09.2021
6394 Clear 18 1019 83 10000 0.89 248 01:56 16.09.2021
6395 Clear 18 1018 83 10000 0.89 208 00:37 16.09.2021
6396 Clear 19 1018 76 10000 2.24 270 22:47 15.09.2021
6397 Clear 19 1018 76 10000 2.24 270 22:47 15.09.2021
6398 Clear 20 1017 69 10000 1.79 293 21:48 15.09.2021
6399 Clouds 20 1017 68 10000 0.89 270 21:29 15.09.2021
6400 Clouds 21 1006 62 10000 4.02 270 20:22 15.09.2021
6401 Clouds 22 1006 59 10000 1.34 203 19:28 15.09.2021
6402 Clouds 23 1004 57 10000 4.47 270 18:23 15.09.2021
6403 Clouds 22 1016 58 10000 2.68 225 17:23 15.09.2021
6404 Clouds 22 1017 62 10000 4.47 270 15:59 15.09.2021
6405 Clouds 21 1017 69 10000 0.45 248 14:45 15.09.2021
6406 Clouds 20 1017 71 10000 2.24 270 13:55 15.09.2021
6407 Clouds 20 1017 73 10000 2.68 270 13:37 15.09.2021
6408 Clouds 20 1017 73 10000 0.89 158 13:18 15.09.2021
6409 Clouds 18 1017 87 10000 1.79 158 11:52 15.09.2021
6410 Clouds 18 1017 88 10000 2.24 180 11:32 15.09.2021
6411 Clouds 17 1017 91 10000 1.34 158 10:55 15.09.2021
6412 Clouds 16 1016 93 10000 1.34 135 09:30 15.09.2021
6413 Clouds 16 1003 95 10000 2.24 113 08:20 15.09.2021
6414 Clouds 16 1015 93 10000 1.34 90 05:37 15.09.2021
6415 Clear 15 1015 94 10000 0.89 45 23:54 14.09.2021
6416 Rain 16 1015 92 5000 4.02 0 21:42 14.09.2021
6417 Clouds 17 1014 93 1500 0.45 113 20:55 14.09.2021
6418 Clouds 17 1014 91 10000 0.45 180 19:42 14.09.2021
6419 Clouds 18 1014 88 10000 3.13 113 17:45 14.09.2021
6420 Clouds 18 1014 88 10000 4.02 135 17:27 14.09.2021
6421 Rain 17 1016 92 10000 2.24 135 15:37 14.09.2021
6422 Rain 17 1004 90 9000 1.34 158 14:31 14.09.2021
6423 Rain 18 1005 84 10000 4.47 135 12:46 14.09.2021
6424 Clouds 19 1017 69 10000 3.13 158 10:55 14.09.2021
6425 Clouds 19 1016 71 10000 4.02 180 09:51 14.09.2021
6426 Clouds 19 1015 71 10000 3.58 158 08:48 14.09.2021
6427 Clouds 19 1015 82 10000 2.68 135 06:38 14.09.2021
6428 Clear 18 1017 85 10000 1.34 68 00:33 14.09.2021
6429 Rain 19 1017 79 10000 3.13 90 22:53 13.09.2021
6430 Clear 19 1017 79 10000 1.79 68 22:24 13.09.2021
6431 Drizzle 20 1016 77 9000 3.13 68 21:53 13.09.2021
6432 Clear 20 1017 72 10000 1.34 68 20:51 13.09.2021
6433 Drizzle 21 1017 69 9000 3.13 338 19:22 13.09.2021
6434 Rain 22 1017 65 10000 4.92 293 18:43 13.09.2021
6435 Drizzle 21 1017 67 9000 4.02 270 16:51 13.09.2021
6436 Clouds 26 1003 43 10000 3.13 158 15:32 13.09.2021
6437 Clear 25 1018 43 10000 0.45 90 12:54 13.09.2021
6438 Clear 22 1018 54 10000 0.89 173 10:58 13.09.2021
6439 Clear 22 1018 54 10000 0.89 173 10:58 13.09.2021
6440 Clear 21 1017 53 10000 1.34 198 09:41 13.09.2021
6441 Clear 20 1016 52 10000 0.45 90 07:27 13.09.2021
6442 Clear 25 1016 37 10000 1.34 68 23:41 12.09.2021
6443 Clear 26 1015 36 10000 0.45 90 22:25 12.09.2021
6444 Clear 26 1015 36 10000 0.45 113 22:25 12.09.2021
6445 Clear 26 1015 36 10000 0.45 113 22:25 12.09.2021
6446 Clear 26 1015 34 10000 0.45 68 21:37 12.09.2021
6447 Clear 28 1015 30 10000 0.45 80 20:29 12.09.2021
6448 Clear 29 1015 28 10000 0.89 164 19:51 12.09.2021
6449 Clear 30 1015 27 10000 1.79 270 19:20 12.09.2021
6450 Clear 30 1015 26 10000 0.89 225 18:29 12.09.2021
6451 Clear 30 1016 29 10000 0.45 180 16:33 12.09.2021
6452 Clear 29 1017 34 10000 1.34 203 14:56 12.09.2021
6453 Clear 29 1017 35 10000 1.34 203 14:56 12.09.2021
6454 Clear 27 1018 40 10000 0.45 180 13:49 12.09.2021
6455 Clear 23 1019 47 10000 1.34 68 11:31 12.09.2021
6456 Clear 18 1018 58 10000 0.89 68 09:35 12.09.2021
6457 Clear 17 1018 61 10000 3.13 23 08:38 12.09.2021
6458 Clear 19 1019 53 10000 1.34 52 02:22 12.09.2021
6459 Clear 22 1019 45 10000 0.45 321 23:38 11.09.2021
6460 Clear 23 1019 42 10000 0.45 248 21:56 11.09.2021
6461 Clear 25 1018 37 10000 0.89 248 20:59 11.09.2021
6462 Clear 26 1018 34 10000 0.45 248 19:25 11.09.2021
6463 Clear 26 1019 34 10000 4.02 248 17:38 11.09.2021
6464 Clear 26 1007 38 10000 4.47 270 15:51 11.09.2021
6465 Clear 24 1020 49 10000 0.45 203 13:52 11.09.2021
6466 Clear 22 1021 54 10000 1.79 203 13:18 11.09.2021
6467 Clear 20 1021 63 10000 0.45 248 11:20 11.09.2021
6468 Clear 18 1020 67 10000 1.03 0 09:40 11.09.2021
6469 Clear 17 1020 68 10000 1.03 260 07:45 11.09.2021
6470 Clear 17 1020 64 10000 1.79 219 06:52 11.09.2021
6471 Clear 23 1020 46 10000 0.45 248 23:38 10.09.2021
6472 Clear 24 1019 44 10000 3.58 225 22:25 10.09.2021
6473 Clear 24 1019 44 10000 3.13 248 21:54 10.09.2021
6474 Clear 26 1018 40 10000 0.45 270 20:25 10.09.2021
6475 Clouds 27 1007 39 10000 3.58 225 18:28 10.09.2021
6476 Clouds 27 1007 43 10000 4.47 248 16:54 10.09.2021
6477 Clouds 25 1019 47 10000 2.68 270 14:52 10.09.2021
6478 Clouds 23 1020 55 10000 0.45 270 12:43 10.09.2021
6479 Clear 19 1019 69 10000 2.24 270 09:27 10.09.2021
6480 Clear 18 1018 67 10000 3.13 270 07:50 10.09.2021
6481 Clear 21 1018 55 10000 1.79 315 02:31 10.09.2021
6482 Clear 23 1017 47 10000 2.68 270 22:32 09.09.2021
6483 Clear 24 1017 44 10000 0.45 270 21:46 09.09.2021
6484 Clear 25 1017 41 10000 2.68 270 20:47 09.09.2021
6485 Clear 25 1016 39 10000 1.79 270 19:58 09.09.2021
6486 Clear 26 1005 42 10000 4.02 270 18:34 09.09.2021
6487 Clouds 25 1004 48 10000 1.34 248 16:41 09.09.2021
6488 Clouds 25 1017 49 10000 3.58 270 15:51 09.09.2021
6489 Clear 23 1018 56 10000 2.68 248 12:53 09.09.2021
6490 Clear 22 1018 64 10000 0.89 270 11:47 09.09.2021
6491 Clear 20 1017 70 10000 0.89 181 10:25 09.09.2021
6492 Clouds 18 1017 76 10000 1.79 248 08:50 09.09.2021
6493 Clear 19 1002 72 10000 0.45 180 06:26 09.09.2021
6494 Clear 20 1017 63 10000 2.68 270 02:36 09.09.2021
6495 Clear 23 1016 53 10000 2.24 270 22:45 08.09.2021
6496 Clear 24 1016 47 10000 2.24 248 21:35 08.09.2021
6497 Clouds 26 1015 43 10000 4.02 248 19:56 08.09.2021
6498 Clouds 26 1015 41 10000 4.02 248 19:23 08.09.2021
6499 Clouds 27 1004 40 10000 4.02 270 18:29 08.09.2021
6500 Clear 27 1004 40 10000 2.24 203 17:56 08.09.2021
6501 Clear 26 1005 39 10000 4.47 248 16:34 08.09.2021
6502 Clear 25 1017 39 10000 4.47 225 14:30 08.09.2021
6503 Clear 25 1017 39 10000 4.47 225 14:30 08.09.2021
6504 Clear 25 1017 39 10000 4.47 225 14:30 08.09.2021
6505 Clear 24 1017 46 10000 2.24 225 12:54 08.09.2021
6506 Clear 24 1017 48 10000 3.13 225 12:27 08.09.2021
6507 Clear 23 1017 58 10000 0.45 180 11:38 08.09.2021
6508 Clear 21 1017 68 10000 3.58 248 10:38 08.09.2021
6509 Clouds 20 1017 74 10000 2.24 248 10:20 08.09.2021
6510 Clouds 19 1017 75 10000 2.24 225 08:54 08.09.2021
6511 Clear 19 1016 72 10000 4.02 248 07:38 08.09.2021
6512 Clear 20 1003 63 10000 2.68 270 05:34 08.09.2021
6513 Clear 26 1016 44 10000 0.45 293 22:50 07.09.2021
6514 Clear 27 1016 40 10000 2.24 270 21:59 07.09.2021
6515 Clear 31 1015 29 10000 2.68 270 19:54 07.09.2021
6516 Clear 31 1016 26 10000 4.47 270 18:45 07.09.2021
6517 Clear 31 1016 26 10000 3.13 180 18:18 07.09.2021
6518 Clear 31 1016 27 10000 3.13 225 18:18 07.09.2021
6519 Clear 31 1006 28 10000 6.26 203 16:42 07.09.2021
6520 Clear 31 1007 29 10000 5.81 158 15:37 07.09.2021
6521 Clear 29 1019 31 10000 2.24 180 14:42 07.09.2021
6522 Clear 26 1020 40 10000 1.34 135 12:43 07.09.2021
6523 Clear 25 1020 46 10000 1.79 158 11:45 07.09.2021
6524 Clear 23 1019 50 10000 2.24 113 10:41 07.09.2021
6525 Clear 21 1018 56 10000 0.45 158 08:39 07.09.2021
6526 Clear 22 1018 54 10000 0.89 113 07:44 07.09.2021
6527 Clear 23 1006 52 10000 1.34 90 05:41 07.09.2021
6528 Clear 25 1020 43 10000 2.24 113 02:36 07.09.2021
6529 Clear 27 1020 37 10000 3.13 113 00:46 07.09.2021
6530 Clear 27 1020 35 10000 2.68 113 23:34 06.09.2021
6531 Clear 28 1020 34 10000 4.02 135 22:54 06.09.2021
6532 Clear 28 1020 34 10000 2.24 113 22:35 06.09.2021
6533 Clear 29 1019 32 10000 3.13 113 21:25 06.09.2021
6534 Clear 31 1019 29 10000 2.24 113 19:31 06.09.2021
6535 Clear 31 1019 28 10000 3.58 135 18:50 06.09.2021
6536 Clear 31 1019 28 10000 3.58 158 18:23 06.09.2021
6537 Clear 32 1019 30 10000 3.58 113 17:36 06.09.2021
6538 Clear 30 1021 40 10000 4.47 113 15:52 06.09.2021
6539 Clear 27 1022 50 10000 0.89 225 13:48 06.09.2021
6540 Clear 26 1021 54 10000 0.89 68 12:48 06.09.2021
6541 Clear 23 1021 59 10000 0.89 90 10:48 06.09.2021
6542 Clear 22 1021 58 10000 2.24 23 08:35 06.09.2021
6543 Clear 21 1020 57 10000 3.58 68 06:47 06.09.2021
6544 Clear 26 1020 39 10000 0.89 113 23:37 05.09.2021
6545 Clear 27 1020 37 10000 0.45 113 22:50 05.09.2021
6546 Clear 27 1019 36 10000 0.45 113 22:28 05.09.2021
6547 Clear 28 1019 35 10000 0.89 120 21:49 05.09.2021
6548 Clear 30 1018 27 10000 1.34 174 20:33 05.09.2021
6549 Clear 32 1018 26 10000 0.45 225 18:46 05.09.2021
6550 Clear 32 1007 29 10000 1.79 180 17:34 05.09.2021
6551 Clear 30 1019 40 10000 1.79 203 15:28 05.09.2021
6552 Clear 28 1020 48 10000 0.89 113 14:19 05.09.2021
6553 Clear 25 1020 58 10000 1.79 135 12:30 05.09.2021
6554 Clear 23 1020 65 10000 1.34 90 10:55 05.09.2021
6555 Clear 22 1020 64 10000 0.89 68 10:31 05.09.2021
6556 Clear 20 1019 63 10000 2.68 68 09:22 05.09.2021
6557 Clear 18 1019 64 10000 0.89 45 08:21 05.09.2021
6558 Clear 22 1018 49 10000 0.45 68 02:36 05.09.2021
6559 Clear 24 1017 44 10000 0.45 149 00:30 05.09.2021
6560 Clear 24 1017 44 10000 0.45 149 00:30 05.09.2021
6561 Clear 24 1017 44 9000 0.45 180 23:42 04.09.2021
6562 Clear 25 1017 39 10000 0.45 202 22:36 04.09.2021
6563 Clear 25 1017 38 10000 0.45 158 21:58 04.09.2021
6564 Clear 29 1016 28 10000 1.34 293 19:42 04.09.2021
6565 Clear 29 1016 27 10000 2.68 270 18:44 04.09.2021
6566 Clear 29 1006 30 10000 2.24 270 16:26 04.09.2021
6567 Clear 27 1018 41 10000 1.34 158 13:30 04.09.2021
6568 Clear 23 1019 55 10000 0.45 113 11:20 04.09.2021
6569 Clear 19 1018 65 10000 2.24 45 09:25 04.09.2021
6570 Clear 19 1017 64 10000 1.34 68 05:53 04.09.2021
6571 Clear 22 1018 53 10000 0.45 37 00:27 04.09.2021
6572 Clear 23 1018 49 10000 1.34 270 23:32 03.09.2021
6573 Clear 24 1017 44 10000 0.45 248 22:39 03.09.2021
6574 Clear 25 1017 43 10000 0.89 245 21:35 03.09.2021
6575 Clouds 27 1017 37 10000 0.45 225 20:43 03.09.2021
6576 Clouds 27 1017 35 10000 1.79 248 19:56 03.09.2021
6577 Clouds 28 1017 36 10000 1.34 270 19:20 03.09.2021
6578 Clouds 28 1017 37 10000 3.13 270 17:53 03.09.2021
6579 Clouds 27 1006 39 10000 3.58 248 16:38 03.09.2021
6580 Clouds 26 1018 44 10000 3.58 180 14:59 03.09.2021
6581 Clear 23 1020 61 10000 1.79 248 12:26 03.09.2021
6582 Clear 21 1019 72 10000 0.89 180 10:32 03.09.2021
6583 Clear 18 1019 85 10000 0.89 113 08:59 03.09.2021
6584 Clear 16 1019 90 10000 0 0 07:44 03.09.2021
6585 Clear 17 1018 87 10000 0.51 0 05:24 03.09.2021
6586 Clear 19 1019 73 10000 1.54 350 23:20 02.09.2021
6587 Clouds 21 1018 68 10000 3.6 10 21:35 02.09.2021
6588 Clouds 23 1017 59 10000 2.24 49 19:56 02.09.2021
6589 Clouds 23 1018 61 10000 0.89 325 17:33 02.09.2021
6590 Clouds 25 1007 56 10000 0.89 248 15:52 02.09.2021
6591 Clouds 23 1019 64 10000 3.58 113 13:57 02.09.2021
6592 Clouds 21 1019 76 10000 1.34 90 12:55 02.09.2021
6593 Clouds 19 1020 85 10000 2.06 100 11:35 02.09.2021
6594 Clouds 16 1019 93 10000 0.89 113 09:44 02.09.2021
6595 Clear 16 1018 93 10000 2.68 113 07:57 02.09.2021
6596 Clear 16 1018 90 10000 0.45 68 07:18 02.09.2021
6597 Clear 17 1004 87 10000 1.34 45 02:56 02.09.2021
6598 Clear 17 1001 87 10000 2.24 113 02:33 02.09.2021
6599 Clear 17 1018 85 10000 1.34 45 01:28 02.09.2021
6600 Clear 18 1018 81 10000 0.45 19 23:40 01.09.2021
6601 Clouds 18 1018 80 10000 0.45 225 22:40 01.09.2021
6602 Clear 18 1017 83 10000 1.34 135 21:40 01.09.2021
6603 Clouds 19 1016 79 10000 3.13 45 20:39 01.09.2021
6604 Clouds 19 1015 86 10000 3.58 23 18:43 01.09.2021
6605 Thunderstorm 22 1017 75 10000 3.09 260 17:40 01.09.2021
6606 Rain 23 1016 69 10000 2.57 330 16:47 01.09.2021
6607 Clouds 24 993 68 10000 1.34 315 15:29 01.09.2021
6608 Clouds 21 1019 75 10000 1.79 68 12:19 01.09.2021
6609 Clouds 20 1019 78 10000 1.79 45 11:44 01.09.2021
6610 Clouds 17 1018 91 10000 1.34 113 08:48 01.09.2021
6611 Clouds 16 1018 93 10000 0.45 45 07:52 01.09.2021
6612 Rain 19 1018 87 10000 4.47 338 05:23 01.09.2021
6613 Thunderstorm 27 1016 49 10000 3.58 135 22:41 31.08.2021
6614 Clear 29 1014 35 10000 0.51 320 21:27 31.08.2021
6615 Clear 31 1014 30 10000 0.89 158 19:46 31.08.2021
6616 Clear 31 1015 30 10000 0.45 248 18:29 31.08.2021
6617 Clear 30 1015 31 10000 1.34 113 17:38 31.08.2021
6618 Clear 30 1015 31 10000 1.34 113 17:38 31.08.2021
6619 Clear 30 1016 31 10000 3.58 203 17:20 31.08.2021
6620 Clear 30 1016 33 10000 0.89 225 16:24 31.08.2021
6621 Clear 27 1018 47 10000 1.34 113 13:20 31.08.2021
6622 Clear 24 1018 58 10000 0.45 113 11:28 31.08.2021
6623 Clear 23 1018 63 10000 1.34 90 10:52 31.08.2021
6624 Clear 22 1018 63 10000 1.34 23 09:44 31.08.2021
6625 Clear 19 1018 67 10000 0.45 90 08:38 31.08.2021
6626 Clear 20 1017 61 10000 0.89 45 07:35 31.08.2021
6627 Clear 22 1016 52 10000 1.79 90 03:40 31.08.2021
6628 Clear 25 1003 45 10000 3.13 270 23:35 30.08.2021
6629 Clear 27 1014 36 10000 2.68 248 21:45 30.08.2021
6630 Clear 27 1014 35 10000 1.79 225 21:27 30.08.2021
6631 Clear 28 1013 30 10000 2.68 248 20:20 30.08.2021
6632 Clear 29 1013 27 10000 1.79 225 19:29 30.08.2021
6633 Clear 30 1013 26 10000 2.24 225 18:34 30.08.2021
6634 Clear 29 1013 28 10000 1.79 203 17:45 30.08.2021
6635 Clear 29 1014 32 10000 2.24 225 16:22 30.08.2021
6636 Clear 28 1014 35 10000 2.24 270 15:38 30.08.2021
6637 Clear 27 1015 40 10000 4.02 203 13:35 30.08.2021
6638 Clear 25 1015 44 10000 0.45 270 12:24 30.08.2021
6639 Clear 20 1015 60 10000 1.79 225 09:30 30.08.2021
6640 Clear 27 1002 40 10000 2.68 225 22:28 29.08.2021
6641 Clear 28 1013 36 10000 4.02 248 21:32 29.08.2021
6642 Clouds 30 1013 32 10000 2.24 248 19:59 29.08.2021
6643 Clouds 31 1013 31 10000 0.89 293 19:19 29.08.2021
6644 Clear 31 1013 32 10000 4.47 225 17:47 29.08.2021
6645 Clear 30 1014 31 10000 2.68 225 15:47 29.08.2021
6646 Clear 29 1015 30 10000 2.24 255 14:18 29.08.2021
6647 Clear 28 1016 29 10000 2.24 203 13:33 29.08.2021
6648 Clear 26 1016 32 10000 0.45 113 12:32 29.08.2021
6649 Clear 25 1005 35 10000 0.45 338 11:48 29.08.2021
6650 Clear 24 1005 37 10000 0.89 113 10:52 29.08.2021
6651 Clear 23 1005 38 10000 1.34 90 10:33 29.08.2021
6652 Clear 22 1005 39 10000 0.89 23 09:54 29.08.2021
6653 Clear 20 1015 43 10000 0.89 45 06:55 29.08.2021
6654 Clear 25 1003 34 10000 0.89 225 00:21 29.08.2021
6655 Clear 28 1003 25 10000 4.92 248 21:50 28.08.2021
6656 Clear